<?xml version="1.0" encoding="UTF-8" standalone="no" ?>
<gpx xmlns="http://www.topografix.com/GPX/1/1" xmlns:xsi="http://www.w3.org/2001/XMLSchema-instance" xsi:schemaLocation="http://www.topografix.com/GPX/1/1 http://www.topografix.com/GPX/1/1/gpx.xsd" version="1.1" creator="VisuGPX - https://www.visugpx.com">
  <metadata>
    <name>trail des glieres 2013</name>
    <desc><![CDATA[trail des glieres 2013
]]></desc>
  </metadata>
  <trk>
    <name><![CDATA[trail des gliér]]></name>
    <trkseg>
      <trkpt lat="45.9973" lon="6.24986">
        <ele>691</ele>
        <time>2013-10-06T05:31:27Z</time>
      </trkpt>
      <trkpt lat="45.99737" lon="6.24992">
        <ele>691</ele>
        <time>2013-10-06T05:31:38Z</time>
      </trkpt>
      <trkpt lat="45.99747" lon="6.24999">
        <ele>691</ele>
        <time>2013-10-06T05:31:43Z</time>
      </trkpt>
      <trkpt lat="45.99756" lon="6.25006">
        <ele>691</ele>
        <time>2013-10-06T05:31:47Z</time>
      </trkpt>
      <trkpt lat="45.99767" lon="6.25012">
        <ele>691</ele>
        <time>2013-10-06T05:31:51Z</time>
      </trkpt>
      <trkpt lat="45.99778" lon="6.25017">
        <ele>691</ele>
        <time>2013-10-06T05:31:56Z</time>
      </trkpt>
      <trkpt lat="45.99788" lon="6.2502">
        <ele>691</ele>
        <time>2013-10-06T05:32:00Z</time>
      </trkpt>
      <trkpt lat="45.998" lon="6.25024">
        <ele>691</ele>
        <time>2013-10-06T05:32:04Z</time>
      </trkpt>
      <trkpt lat="45.9981" lon="6.25028">
        <ele>691</ele>
        <time>2013-10-06T05:32:08Z</time>
      </trkpt>
      <trkpt lat="45.9982" lon="6.25031">
        <ele>691</ele>
        <time>2013-10-06T05:32:12Z</time>
      </trkpt>
      <trkpt lat="45.99832" lon="6.25037">
        <ele>691</ele>
        <time>2013-10-06T05:32:16Z</time>
      </trkpt>
      <trkpt lat="45.99844" lon="6.25041">
        <ele>691</ele>
        <time>2013-10-06T05:32:20Z</time>
      </trkpt>
      <trkpt lat="45.99854" lon="6.25043">
        <ele>691</ele>
        <time>2013-10-06T05:32:24Z</time>
      </trkpt>
      <trkpt lat="45.99865" lon="6.25044">
        <ele>691</ele>
        <time>2013-10-06T05:32:28Z</time>
      </trkpt>
      <trkpt lat="45.99875" lon="6.25046">
        <ele>691</ele>
        <time>2013-10-06T05:32:32Z</time>
      </trkpt>
      <trkpt lat="45.99885" lon="6.2505">
        <ele>691.11400192</ele>
        <time>2013-10-06T05:32:36Z</time>
      </trkpt>
      <trkpt lat="45.99895" lon="6.25056">
        <ele>692.31400192</ele>
        <time>2013-10-06T05:32:40Z</time>
      </trkpt>
      <trkpt lat="45.99917" lon="6.25067">
        <ele>694.35800064</ele>
        <time>2013-10-06T05:32:49Z</time>
      </trkpt>
      <trkpt lat="45.99926" lon="6.25074">
        <ele>694.75800064</ele>
        <time>2013-10-06T05:32:53Z</time>
      </trkpt>
      <trkpt lat="45.99945" lon="6.25086">
        <ele>696.11600128</ele>
        <time>2013-10-06T05:33:01Z</time>
      </trkpt>
      <trkpt lat="45.99955" lon="6.25091">
        <ele>696.91600128</ele>
        <time>2013-10-06T05:33:05Z</time>
      </trkpt>
      <trkpt lat="45.99966" lon="6.25098">
        <ele>697</ele>
        <time>2013-10-06T05:33:10Z</time>
      </trkpt>
      <trkpt lat="45.99976" lon="6.25103">
        <ele>697</ele>
        <time>2013-10-06T05:33:14Z</time>
      </trkpt>
      <trkpt lat="45.99986" lon="6.25109">
        <ele>697.51139820521</ele>
        <time>2013-10-06T05:33:18Z</time>
      </trkpt>
      <trkpt lat="45.99997" lon="6.25113">
        <ele>698.30426167285</ele>
        <time>2013-10-06T05:33:22Z</time>
      </trkpt>
      <trkpt lat="46.00007" lon="6.25116">
        <ele>699.05852615155</ele>
        <time>2013-10-06T05:33:26Z</time>
      </trkpt>
      <trkpt lat="46.00015" lon="6.2512">
        <ele>699.66397577943</ele>
        <time>2013-10-06T05:33:29Z</time>
      </trkpt>
      <trkpt lat="46.00022" lon="6.25123">
        <ele>700.26942540731</ele>
        <time>2013-10-06T05:33:32Z</time>
      </trkpt>
      <trkpt lat="46.0003" lon="6.25127">
        <ele>700.8748750352</ele>
        <time>2013-10-06T05:33:35Z</time>
      </trkpt>
      <trkpt lat="46.0004" lon="6.25133">
        <ele>701.34800128</ele>
        <time>2013-10-06T05:33:39Z</time>
      </trkpt>
      <trkpt lat="46.00049" lon="6.25141">
        <ele>701.74800128</ele>
        <time>2013-10-06T05:33:43Z</time>
      </trkpt>
      <trkpt lat="46.00059" lon="6.25149">
        <ele>702.13900032</ele>
        <time>2013-10-06T05:33:47Z</time>
      </trkpt>
      <trkpt lat="46.00067" lon="6.25158">
        <ele>702.53900032</ele>
        <time>2013-10-06T05:33:51Z</time>
      </trkpt>
      <trkpt lat="46.00073" lon="6.25173">
        <ele>703.04600064</ele>
        <time>2013-10-06T05:33:56Z</time>
      </trkpt>
      <trkpt lat="46.00077" lon="6.25188">
        <ele>703.54600064</ele>
        <time>2013-10-06T05:34:01Z</time>
      </trkpt>
      <trkpt lat="46.00078" lon="6.25202">
        <ele>703.94600064</ele>
        <time>2013-10-06T05:34:05Z</time>
      </trkpt>
      <trkpt lat="46.00081" lon="6.25232">
        <ele>704.75800064</ele>
        <time>2013-10-06T05:34:13Z</time>
      </trkpt>
      <trkpt lat="46.00082" lon="6.25249">
        <ele>705.51600128</ele>
        <time>2013-10-06T05:34:18Z</time>
      </trkpt>
      <trkpt lat="46.00083" lon="6.25263">
        <ele>706.31600128</ele>
        <time>2013-10-06T05:34:22Z</time>
      </trkpt>
      <trkpt lat="46.00083" lon="6.25278">
        <ele>707.11600128</ele>
        <time>2013-10-06T05:34:26Z</time>
      </trkpt>
      <trkpt lat="46.00083" lon="6.25293">
        <ele>707.91600128</ele>
        <time>2013-10-06T05:34:30Z</time>
      </trkpt>
      <trkpt lat="46.00085" lon="6.25308">
        <ele>708.71600128</ele>
        <time>2013-10-06T05:34:34Z</time>
      </trkpt>
      <trkpt lat="46.00086" lon="6.25322">
        <ele>709.24600064</ele>
        <time>2013-10-06T05:34:38Z</time>
      </trkpt>
      <trkpt lat="46.00087" lon="6.25337">
        <ele>709.64600064</ele>
        <time>2013-10-06T05:34:42Z</time>
      </trkpt>
      <trkpt lat="46.00087" lon="6.25368">
        <ele>710</ele>
        <time>2013-10-06T05:34:51Z</time>
      </trkpt>
      <trkpt lat="46.00088" lon="6.25383">
        <ele>710</ele>
        <time>2013-10-06T05:34:55Z</time>
      </trkpt>
      <trkpt lat="46.00087" lon="6.25401">
        <ele>711.37400192</ele>
        <time>2013-10-06T05:35:00Z</time>
      </trkpt>
      <trkpt lat="46.00084" lon="6.25418">
        <ele>712.87400192</ele>
        <time>2013-10-06T05:35:05Z</time>
      </trkpt>
      <trkpt lat="46.00083" lon="6.25433">
        <ele>713.35800064</ele>
        <time>2013-10-06T05:35:09Z</time>
      </trkpt>
      <trkpt lat="46.00085" lon="6.25451">
        <ele>713.85800064</ele>
        <time>2013-10-06T05:35:14Z</time>
      </trkpt>
      <trkpt lat="46.00087" lon="6.25465">
        <ele>714.51600128</ele>
        <time>2013-10-06T05:35:18Z</time>
      </trkpt>
      <trkpt lat="46.0009" lon="6.2548">
        <ele>715.296</ele>
        <time>2013-10-06T05:35:22Z</time>
      </trkpt>
      <trkpt lat="46.00095" lon="6.25496">
        <ele>716.27600128</ele>
        <time>2013-10-06T05:35:27Z</time>
      </trkpt>
      <trkpt lat="46.00099" lon="6.2551">
        <ele>717.07600128</ele>
        <time>2013-10-06T05:35:31Z</time>
      </trkpt>
      <trkpt lat="46.00106" lon="6.25524">
        <ele>717.87600128</ele>
        <time>2013-10-06T05:35:35Z</time>
      </trkpt>
      <trkpt lat="46.00121" lon="6.25546">
        <ele>718.73700096</ele>
        <time>2013-10-06T05:35:43Z</time>
      </trkpt>
      <trkpt lat="46.00129" lon="6.25558">
        <ele>719</ele>
        <time>2013-10-06T05:35:47Z</time>
      </trkpt>
      <trkpt lat="46.00136" lon="6.25572">
        <ele>719</ele>
        <time>2013-10-06T05:35:51Z</time>
      </trkpt>
      <trkpt lat="46.00143" lon="6.25586">
        <ele>719</ele>
        <time>2013-10-06T05:35:55Z</time>
      </trkpt>
      <trkpt lat="46.0015" lon="6.25601">
        <ele>718.30399744</ele>
        <time>2013-10-06T05:35:59Z</time>
      </trkpt>
      <trkpt lat="46.00158" lon="6.25615">
        <ele>717.50399744</ele>
        <time>2013-10-06T05:36:03Z</time>
      </trkpt>
      <trkpt lat="46.00166" lon="6.25628">
        <ele>716.85909989254</ele>
        <time>2013-10-06T05:36:07Z</time>
      </trkpt>
      <trkpt lat="46.00173" lon="6.25641">
        <ele>716.46771070515</ele>
        <time>2013-10-06T05:36:11Z</time>
      </trkpt>
      <trkpt lat="46.00181" lon="6.25654">
        <ele>716</ele>
        <time>2013-10-06T05:36:16Z</time>
      </trkpt>
      <trkpt lat="46.00188" lon="6.25667">
        <ele>716</ele>
        <time>2013-10-06T05:36:21Z</time>
      </trkpt>
      <trkpt lat="46.00195" lon="6.25682">
        <ele>716</ele>
        <time>2013-10-06T05:36:25Z</time>
      </trkpt>
      <trkpt lat="46.00201" lon="6.25696">
        <ele>716</ele>
        <time>2013-10-06T05:36:29Z</time>
      </trkpt>
      <trkpt lat="46.00205" lon="6.2571">
        <ele>716</ele>
        <time>2013-10-06T05:36:34Z</time>
      </trkpt>
      <trkpt lat="46.00212" lon="6.25725">
        <ele>716.336</ele>
        <time>2013-10-06T05:36:39Z</time>
      </trkpt>
      <trkpt lat="46.00225" lon="6.25752">
        <ele>717</ele>
        <time>2013-10-06T05:36:48Z</time>
      </trkpt>
      <trkpt lat="46.00231" lon="6.25765">
        <ele>717</ele>
        <time>2013-10-06T05:36:53Z</time>
      </trkpt>
      <trkpt lat="46.00238" lon="6.25776">
        <ele>717.15800064</ele>
        <time>2013-10-06T05:36:57Z</time>
      </trkpt>
      <trkpt lat="46.00244" lon="6.2579">
        <ele>717.65800064</ele>
        <time>2013-10-06T05:37:02Z</time>
      </trkpt>
      <trkpt lat="46.00249" lon="6.25803">
        <ele>718.51600128</ele>
        <time>2013-10-06T05:37:08Z</time>
      </trkpt>
      <trkpt lat="46.00264" lon="6.25828">
        <ele>720.25800064</ele>
        <time>2013-10-06T05:37:18Z</time>
      </trkpt>
      <trkpt lat="46.00273" lon="6.2584">
        <ele>720.75800064</ele>
        <time>2013-10-06T05:37:23Z</time>
      </trkpt>
      <trkpt lat="46.0028" lon="6.25853">
        <ele>721.248</ele>
        <time>2013-10-06T05:37:28Z</time>
      </trkpt>
      <trkpt lat="46.00288" lon="6.25863">
        <ele>721.74800128</ele>
        <time>2013-10-06T05:37:33Z</time>
      </trkpt>
      <trkpt lat="46.00297" lon="6.25873">
        <ele>722.49000192</ele>
        <time>2013-10-06T05:37:38Z</time>
      </trkpt>
      <trkpt lat="46.00306" lon="6.2588">
        <ele>723.09000192</ele>
        <time>2013-10-06T05:37:41Z</time>
      </trkpt>
      <trkpt lat="46.00318" lon="6.25888">
        <ele>723.69000192</ele>
        <time>2013-10-06T05:37:44Z</time>
      </trkpt>
      <trkpt lat="46.00327" lon="6.25894">
        <ele>724.29600256</ele>
        <time>2013-10-06T05:37:47Z</time>
      </trkpt>
      <trkpt lat="46.00335" lon="6.25903">
        <ele>725.09600256</ele>
        <time>2013-10-06T05:37:51Z</time>
      </trkpt>
      <trkpt lat="46.00344" lon="6.25909">
        <ele>725.89600256</ele>
        <time>2013-10-06T05:37:55Z</time>
      </trkpt>
      <trkpt lat="46.00354" lon="6.25915">
        <ele>726.34800128</ele>
        <time>2013-10-06T05:37:59Z</time>
      </trkpt>
      <trkpt lat="46.00365" lon="6.25925">
        <ele>726.74800128</ele>
        <time>2013-10-06T05:38:03Z</time>
      </trkpt>
      <trkpt lat="46.00373" lon="6.25936">
        <ele>727.26800128</ele>
        <time>2013-10-06T05:38:08Z</time>
      </trkpt>
      <trkpt lat="46.00384" lon="6.25945">
        <ele>727.74800128</ele>
        <time>2013-10-06T05:38:13Z</time>
      </trkpt>
      <trkpt lat="46.00393" lon="6.25952">
        <ele>728.26200064</ele>
        <time>2013-10-06T05:38:17Z</time>
      </trkpt>
      <trkpt lat="46.00403" lon="6.25959">
        <ele>729.26200064</ele>
        <time>2013-10-06T05:38:22Z</time>
      </trkpt>
      <trkpt lat="46.00413" lon="6.25971">
        <ele>730.14800128</ele>
        <time>2013-10-06T05:38:27Z</time>
      </trkpt>
      <trkpt lat="46.00423" lon="6.25983">
        <ele>730.54800128</ele>
        <time>2013-10-06T05:38:31Z</time>
      </trkpt>
      <trkpt lat="46.0043" lon="6.25994">
        <ele>730.94800128</ele>
        <time>2013-10-06T05:38:35Z</time>
      </trkpt>
      <trkpt lat="46.00449" lon="6.26036">
        <ele>731</ele>
        <time>2013-10-06T05:38:50Z</time>
      </trkpt>
      <trkpt lat="46.00455" lon="6.26051">
        <ele>731</ele>
        <time>2013-10-06T05:38:54Z</time>
      </trkpt>
      <trkpt lat="46.00461" lon="6.26063">
        <ele>731</ele>
        <time>2013-10-06T05:38:58Z</time>
      </trkpt>
      <trkpt lat="46.00468" lon="6.26076">
        <ele>731</ele>
        <time>2013-10-06T05:39:03Z</time>
      </trkpt>
      <trkpt lat="46.00476" lon="6.26088">
        <ele>731.13472966689</ele>
        <time>2013-10-06T05:39:07Z</time>
      </trkpt>
      <trkpt lat="46.00483" lon="6.26099">
        <ele>731.53393151868</ele>
        <time>2013-10-06T05:39:11Z</time>
      </trkpt>
      <trkpt lat="46.00492" lon="6.26108">
        <ele>732</ele>
        <time>2013-10-06T05:39:16Z</time>
      </trkpt>
      <trkpt lat="46.005" lon="6.26118">
        <ele>732</ele>
        <time>2013-10-06T05:39:20Z</time>
      </trkpt>
      <trkpt lat="46.00508" lon="6.26128">
        <ele>732</ele>
        <time>2013-10-06T05:39:24Z</time>
      </trkpt>
      <trkpt lat="46.00514" lon="6.26141">
        <ele>731.664</ele>
        <time>2013-10-06T05:39:29Z</time>
      </trkpt>
      <trkpt lat="46.00521" lon="6.26151">
        <ele>731.16399872</ele>
        <time>2013-10-06T05:39:34Z</time>
      </trkpt>
      <trkpt lat="46.00534" lon="6.26161">
        <ele>732.39200512</ele>
        <time>2013-10-06T05:39:39Z</time>
      </trkpt>
      <trkpt lat="46.00543" lon="6.26169">
        <ele>733.99200512</ele>
        <time>2013-10-06T05:39:43Z</time>
      </trkpt>
      <trkpt lat="46.00552" lon="6.26175">
        <ele>735.14800128</ele>
        <time>2013-10-06T05:39:47Z</time>
      </trkpt>
      <trkpt lat="46.00562" lon="6.26179">
        <ele>735.54800128</ele>
        <time>2013-10-06T05:39:51Z</time>
      </trkpt>
      <trkpt lat="46.00573" lon="6.26187">
        <ele>736.048</ele>
        <time>2013-10-06T05:39:56Z</time>
      </trkpt>
      <trkpt lat="46.00583" lon="6.26193">
        <ele>736.648</ele>
        <time>2013-10-06T05:40:02Z</time>
      </trkpt>
      <trkpt lat="46.00594" lon="6.26199">
        <ele>737</ele>
        <time>2013-10-06T05:40:06Z</time>
      </trkpt>
      <trkpt lat="46.00603" lon="6.26205">
        <ele>737</ele>
        <time>2013-10-06T05:40:09Z</time>
      </trkpt>
      <trkpt lat="46.00621" lon="6.2622">
        <ele>736.96199936</ele>
        <time>2013-10-06T05:40:16Z</time>
      </trkpt>
      <trkpt lat="46.00632" lon="6.26228">
        <ele>736.46099968</ele>
        <time>2013-10-06T05:40:21Z</time>
      </trkpt>
      <trkpt lat="46.0064" lon="6.26239">
        <ele>736.06199936</ele>
        <time>2013-10-06T05:40:25Z</time>
      </trkpt>
      <trkpt lat="46.00647" lon="6.26253">
        <ele>736.34800128</ele>
        <time>2013-10-06T05:40:29Z</time>
      </trkpt>
      <trkpt lat="46.00654" lon="6.26265">
        <ele>736.74800128</ele>
        <time>2013-10-06T05:40:33Z</time>
      </trkpt>
      <trkpt lat="46.00664" lon="6.26271">
        <ele>737.496</ele>
        <time>2013-10-06T05:40:38Z</time>
      </trkpt>
      <trkpt lat="46.00685" lon="6.26278">
        <ele>738.89600256</ele>
        <time>2013-10-06T05:40:45Z</time>
      </trkpt>
      <trkpt lat="46.00697" lon="6.26286">
        <ele>739</ele>
        <time>2013-10-06T05:40:50Z</time>
      </trkpt>
      <trkpt lat="46.00707" lon="6.26294">
        <ele>739</ele>
        <time>2013-10-06T05:40:53Z</time>
      </trkpt>
      <trkpt lat="46.00714" lon="6.26303">
        <ele>739.05800064</ele>
        <time>2013-10-06T05:40:56Z</time>
      </trkpt>
      <trkpt lat="46.00723" lon="6.26314">
        <ele>739.448</ele>
        <time>2013-10-06T05:41:00Z</time>
      </trkpt>
      <trkpt lat="46.00728" lon="6.26328">
        <ele>739.848</ele>
        <time>2013-10-06T05:41:04Z</time>
      </trkpt>
      <trkpt lat="46.00734" lon="6.26342">
        <ele>740.67600128</ele>
        <time>2013-10-06T05:41:09Z</time>
      </trkpt>
      <trkpt lat="46.00738" lon="6.26355">
        <ele>741.87600128</ele>
        <time>2013-10-06T05:41:15Z</time>
      </trkpt>
      <trkpt lat="46.00746" lon="6.26368">
        <ele>744.08800768</ele>
        <time>2013-10-06T05:41:19Z</time>
      </trkpt>
      <trkpt lat="46.00754" lon="6.26379">
        <ele>745.888</ele>
        <time>2013-10-06T05:41:22Z</time>
      </trkpt>
      <trkpt lat="46.00763" lon="6.26389">
        <ele>748</ele>
        <time>2013-10-06T05:41:26Z</time>
      </trkpt>
      <trkpt lat="46.00771" lon="6.26397">
        <ele>748</ele>
        <time>2013-10-06T05:41:30Z</time>
      </trkpt>
      <trkpt lat="46.0078" lon="6.26408">
        <ele>748</ele>
        <time>2013-10-06T05:41:34Z</time>
      </trkpt>
      <trkpt lat="46.00797" lon="6.2643">
        <ele>748</ele>
        <time>2013-10-06T05:41:43Z</time>
      </trkpt>
      <trkpt lat="46.00803" lon="6.26442">
        <ele>748.15659116915</ele>
        <time>2013-10-06T05:41:47Z</time>
      </trkpt>
      <trkpt lat="46.00813" lon="6.26454">
        <ele>748.65213083643</ele>
        <time>2013-10-06T05:41:52Z</time>
      </trkpt>
      <trkpt lat="46.00818" lon="6.26466">
        <ele>749.07870651419</ele>
        <time>2013-10-06T05:41:56Z</time>
      </trkpt>
      <trkpt lat="46.00824" lon="6.26478">
        <ele>749.8859726847</ele>
        <time>2013-10-06T05:42:00Z</time>
      </trkpt>
      <trkpt lat="46.0083" lon="6.26492">
        <ele>750.89505798108</ele>
        <time>2013-10-06T05:42:05Z</time>
      </trkpt>
      <trkpt lat="46.00835" lon="6.26506">
        <ele>751</ele>
        <time>2013-10-06T05:42:09Z</time>
      </trkpt>
      <trkpt lat="46.0084" lon="6.26522">
        <ele>751</ele>
        <time>2013-10-06T05:42:14Z</time>
      </trkpt>
      <trkpt lat="46.00847" lon="6.26535">
        <ele>751.22900096</ele>
        <time>2013-10-06T05:42:18Z</time>
      </trkpt>
      <trkpt lat="46.00851" lon="6.26549">
        <ele>751.72900096</ele>
        <time>2013-10-06T05:42:23Z</time>
      </trkpt>
      <trkpt lat="46.00856" lon="6.26562">
        <ele>752.27000064</ele>
        <time>2013-10-06T05:42:27Z</time>
      </trkpt>
      <trkpt lat="46.00863" lon="6.26573">
        <ele>753.07000064</ele>
        <time>2013-10-06T05:42:31Z</time>
      </trkpt>
      <trkpt lat="46.00876" lon="6.26595">
        <ele>754.448</ele>
        <time>2013-10-06T05:42:40Z</time>
      </trkpt>
      <trkpt lat="46.00882" lon="6.26608">
        <ele>754.94800128</ele>
        <time>2013-10-06T05:42:45Z</time>
      </trkpt>
      <trkpt lat="46.0089" lon="6.26622">
        <ele>755.448</ele>
        <time>2013-10-06T05:42:50Z</time>
      </trkpt>
      <trkpt lat="46.00898" lon="6.26631">
        <ele>755.848</ele>
        <time>2013-10-06T05:42:54Z</time>
      </trkpt>
      <trkpt lat="46.00907" lon="6.26638">
        <ele>756.248</ele>
        <time>2013-10-06T05:42:58Z</time>
      </trkpt>
      <trkpt lat="46.00918" lon="6.26641">
        <ele>756.648</ele>
        <time>2013-10-06T05:43:02Z</time>
      </trkpt>
      <trkpt lat="46.00929" lon="6.26639">
        <ele>757</ele>
        <time>2013-10-06T05:43:07Z</time>
      </trkpt>
      <trkpt lat="46.00952" lon="6.26637">
        <ele>757</ele>
        <time>2013-10-06T05:43:19Z</time>
      </trkpt>
      <trkpt lat="46.00962" lon="6.26641">
        <ele>757</ele>
        <time>2013-10-06T05:43:23Z</time>
      </trkpt>
      <trkpt lat="46.00972" lon="6.26646">
        <ele>757.14600064</ele>
        <time>2013-10-06T05:43:27Z</time>
      </trkpt>
      <trkpt lat="46.00981" lon="6.26657">
        <ele>757.54600064</ele>
        <time>2013-10-06T05:43:31Z</time>
      </trkpt>
      <trkpt lat="46.00989" lon="6.26669">
        <ele>757.84600064</ele>
        <time>2013-10-06T05:43:34Z</time>
      </trkpt>
      <trkpt lat="46.0099" lon="6.26684">
        <ele>759.2900032</ele>
        <time>2013-10-06T05:43:38Z</time>
      </trkpt>
      <trkpt lat="46.00995" lon="6.26698">
        <ele>761.2900032</ele>
        <time>2013-10-06T05:43:42Z</time>
      </trkpt>
      <trkpt lat="46.01" lon="6.26712">
        <ele>763</ele>
        <time>2013-10-06T05:43:47Z</time>
      </trkpt>
      <trkpt lat="46.01008" lon="6.26725">
        <ele>763</ele>
        <time>2013-10-06T05:43:52Z</time>
      </trkpt>
      <trkpt lat="46.01013" lon="6.26738">
        <ele>763.03400064</ele>
        <time>2013-10-06T05:43:56Z</time>
      </trkpt>
      <trkpt lat="46.01018" lon="6.26754">
        <ele>763.43400064</ele>
        <time>2013-10-06T05:44:00Z</time>
      </trkpt>
      <trkpt lat="46.01021" lon="6.26768">
        <ele>763.83400064</ele>
        <time>2013-10-06T05:44:04Z</time>
      </trkpt>
      <trkpt lat="46.01026" lon="6.26782">
        <ele>764.23500032</ele>
        <time>2013-10-06T05:44:08Z</time>
      </trkpt>
      <trkpt lat="46.01027" lon="6.26797">
        <ele>764.63500032</ele>
        <time>2013-10-06T05:44:12Z</time>
      </trkpt>
      <trkpt lat="46.01027" lon="6.26812">
        <ele>765.03500032</ele>
        <time>2013-10-06T05:44:16Z</time>
      </trkpt>
      <trkpt lat="46.01025" lon="6.26826">
        <ele>765.43500032</ele>
        <time>2013-10-06T05:44:20Z</time>
      </trkpt>
      <trkpt lat="46.01025" lon="6.26841">
        <ele>765.83500032</ele>
        <time>2013-10-06T05:44:24Z</time>
      </trkpt>
      <trkpt lat="46.01026" lon="6.26857">
        <ele>766.48800256</ele>
        <time>2013-10-06T05:44:28Z</time>
      </trkpt>
      <trkpt lat="46.01031" lon="6.26891">
        <ele>768</ele>
        <time>2013-10-06T05:44:36Z</time>
      </trkpt>
      <trkpt lat="46.0103" lon="6.26925">
        <ele>768</ele>
        <time>2013-10-06T05:44:44Z</time>
      </trkpt>
      <trkpt lat="46.01028" lon="6.26943">
        <ele>767.77914095976</ele>
        <time>2013-10-06T05:44:48Z</time>
      </trkpt>
      <trkpt lat="46.01029" lon="6.26961">
        <ele>767.37014273711</ele>
        <time>2013-10-06T05:44:52Z</time>
      </trkpt>
      <trkpt lat="46.01029" lon="6.26976">
        <ele>767.06339407012</ele>
        <time>2013-10-06T05:44:55Z</time>
      </trkpt>
      <trkpt lat="46.01028" lon="6.2699">
        <ele>766.008</ele>
        <time>2013-10-06T05:44:58Z</time>
      </trkpt>
      <trkpt lat="46.01021" lon="6.27007">
        <ele>764.408</ele>
        <time>2013-10-06T05:45:02Z</time>
      </trkpt>
      <trkpt lat="46.01015" lon="6.27018">
        <ele>763.20799488</ele>
        <time>2013-10-06T05:45:05Z</time>
      </trkpt>
      <trkpt lat="46.01009" lon="6.27034">
        <ele>763</ele>
        <time>2013-10-06T05:45:09Z</time>
      </trkpt>
      <trkpt lat="46.01004" lon="6.27049">
        <ele>763</ele>
        <time>2013-10-06T05:45:13Z</time>
      </trkpt>
      <trkpt lat="46.00997" lon="6.27063">
        <ele>763</ele>
        <time>2013-10-06T05:45:17Z</time>
      </trkpt>
      <trkpt lat="46.0099" lon="6.27075">
        <ele>763</ele>
        <time>2013-10-06T05:45:21Z</time>
      </trkpt>
      <trkpt lat="46.00984" lon="6.27089">
        <ele>763</ele>
        <time>2013-10-06T05:45:25Z</time>
      </trkpt>
      <trkpt lat="46.00979" lon="6.27104">
        <ele>762.65199872</ele>
        <time>2013-10-06T05:45:29Z</time>
      </trkpt>
      <trkpt lat="46.00973" lon="6.27118">
        <ele>762.25199872</ele>
        <time>2013-10-06T05:45:33Z</time>
      </trkpt>
      <trkpt lat="46.00969" lon="6.27135">
        <ele>762.144</ele>
        <time>2013-10-06T05:45:37Z</time>
      </trkpt>
      <trkpt lat="46.00964" lon="6.2715">
        <ele>762.544</ele>
        <time>2013-10-06T05:45:41Z</time>
      </trkpt>
      <trkpt lat="46.00958" lon="6.27164">
        <ele>762.95400064</ele>
        <time>2013-10-06T05:45:45Z</time>
      </trkpt>
      <trkpt lat="46.00955" lon="6.27178">
        <ele>763</ele>
        <time>2013-10-06T05:45:49Z</time>
      </trkpt>
      <trkpt lat="46.00957" lon="6.27195">
        <ele>763</ele>
        <time>2013-10-06T05:45:54Z</time>
      </trkpt>
      <trkpt lat="46.00967" lon="6.27224">
        <ele>764.696</ele>
        <time>2013-10-06T05:46:04Z</time>
      </trkpt>
      <trkpt lat="46.00974" lon="6.27236">
        <ele>765.336</ele>
        <time>2013-10-06T05:46:09Z</time>
      </trkpt>
      <trkpt lat="46.00982" lon="6.27246">
        <ele>765.936</ele>
        <time>2013-10-06T05:46:15Z</time>
      </trkpt>
      <trkpt lat="46.0099" lon="6.27259">
        <ele>767.09600256</ele>
        <time>2013-10-06T05:46:21Z</time>
      </trkpt>
      <trkpt lat="46.01004" lon="6.27284">
        <ele>771.34800384</ele>
        <time>2013-10-06T05:46:31Z</time>
      </trkpt>
      <trkpt lat="46.01009" lon="6.27297">
        <ele>774.15800064</ele>
        <time>2013-10-06T05:46:37Z</time>
      </trkpt>
      <trkpt lat="46.01012" lon="6.27311">
        <ele>774.65800064</ele>
        <time>2013-10-06T05:46:42Z</time>
      </trkpt>
      <trkpt lat="46.01016" lon="6.27325">
        <ele>775.15800064</ele>
        <time>2013-10-06T05:46:47Z</time>
      </trkpt>
      <trkpt lat="46.01023" lon="6.27337">
        <ele>775.65800064</ele>
        <time>2013-10-06T05:46:52Z</time>
      </trkpt>
      <trkpt lat="46.01029" lon="6.2735">
        <ele>776.7400064</ele>
        <time>2013-10-06T05:46:57Z</time>
      </trkpt>
      <trkpt lat="46.01035" lon="6.27362">
        <ele>779.24</ele>
        <time>2013-10-06T05:47:02Z</time>
      </trkpt>
      <trkpt lat="46.0104" lon="6.27375">
        <ele>781.13500032</ele>
        <time>2013-10-06T05:47:07Z</time>
      </trkpt>
      <trkpt lat="46.01044" lon="6.27391">
        <ele>781.63500032</ele>
        <time>2013-10-06T05:47:12Z</time>
      </trkpt>
      <trkpt lat="46.01046" lon="6.27409">
        <ele>782.27800064</ele>
        <time>2013-10-06T05:47:17Z</time>
      </trkpt>
      <trkpt lat="46.01044" lon="6.27423">
        <ele>783.27800064</ele>
        <time>2013-10-06T05:47:22Z</time>
      </trkpt>
      <trkpt lat="46.01043" lon="6.27439">
        <ele>784.30525370362</ele>
        <time>2013-10-06T05:47:27Z</time>
      </trkpt>
      <trkpt lat="46.01044" lon="6.27453">
        <ele>785.27651272007</ele>
        <time>2013-10-06T05:47:32Z</time>
      </trkpt>
      <trkpt lat="46.01048" lon="6.27467">
        <ele>786.56105128013</ele>
        <time>2013-10-06T05:47:37Z</time>
      </trkpt>
      <trkpt lat="46.0105" lon="6.27482">
        <ele>788.53885081463</ele>
        <time>2013-10-06T05:47:42Z</time>
      </trkpt>
      <trkpt lat="46.01057" lon="6.27511">
        <ele>792.24400384</ele>
        <time>2013-10-06T05:47:53Z</time>
      </trkpt>
      <trkpt lat="46.01061" lon="6.27526">
        <ele>793.34800128</ele>
        <time>2013-10-06T05:47:59Z</time>
      </trkpt>
      <trkpt lat="46.01063" lon="6.2754">
        <ele>793.848</ele>
        <time>2013-10-06T05:48:04Z</time>
      </trkpt>
      <trkpt lat="46.01065" lon="6.27554">
        <ele>794.672</ele>
        <time>2013-10-06T05:48:09Z</time>
      </trkpt>
      <trkpt lat="46.01067" lon="6.2757">
        <ele>795.872</ele>
        <time>2013-10-06T05:48:15Z</time>
      </trkpt>
      <trkpt lat="46.01072" lon="6.27585">
        <ele>797.08622548783</ele>
        <time>2013-10-06T05:48:21Z</time>
      </trkpt>
      <trkpt lat="46.01077" lon="6.276">
        <ele>798.09888946008</ele>
        <time>2013-10-06T05:48:26Z</time>
      </trkpt>
      <trkpt lat="46.01076" lon="6.27615">
        <ele>799.10797217321</ele>
        <time>2013-10-06T05:48:31Z</time>
      </trkpt>
      <trkpt lat="46.01075" lon="6.2763">
        <ele>800.11600128</ele>
        <time>2013-10-06T05:48:36Z</time>
      </trkpt>
      <trkpt lat="46.01081" lon="6.27642">
        <ele>800.91600128</ele>
        <time>2013-10-06T05:48:40Z</time>
      </trkpt>
      <trkpt lat="46.01098" lon="6.27663">
        <ele>802.448</ele>
        <time>2013-10-06T05:48:50Z</time>
      </trkpt>
      <trkpt lat="46.01106" lon="6.27675">
        <ele>803.096</ele>
        <time>2013-10-06T05:48:56Z</time>
      </trkpt>
      <trkpt lat="46.01113" lon="6.27684">
        <ele>804.49600256</ele>
        <time>2013-10-06T05:49:03Z</time>
      </trkpt>
      <trkpt lat="46.0112" lon="6.27694">
        <ele>805.33500032</ele>
        <time>2013-10-06T05:49:09Z</time>
      </trkpt>
      <trkpt lat="46.01126" lon="6.27702">
        <ele>805.73500032</ele>
        <time>2013-10-06T05:49:13Z</time>
      </trkpt>
      <trkpt lat="46.0113" lon="6.27711">
        <ele>806.248</ele>
        <time>2013-10-06T05:49:18Z</time>
      </trkpt>
      <trkpt lat="46.01135" lon="6.27725">
        <ele>807.25800064</ele>
        <time>2013-10-06T05:49:28Z</time>
      </trkpt>
      <trkpt lat="46.01141" lon="6.27738">
        <ele>807.75800064</ele>
        <time>2013-10-06T05:49:33Z</time>
      </trkpt>
      <trkpt lat="46.01146" lon="6.27752">
        <ele>808.34800128</ele>
        <time>2013-10-06T05:49:39Z</time>
      </trkpt>
      <trkpt lat="46.01161" lon="6.27778">
        <ele>809</ele>
        <time>2013-10-06T05:49:48Z</time>
      </trkpt>
      <trkpt lat="46.01169" lon="6.27789">
        <ele>809</ele>
        <time>2013-10-06T05:49:52Z</time>
      </trkpt>
      <trkpt lat="46.01176" lon="6.278">
        <ele>809.096</ele>
        <time>2013-10-06T05:49:56Z</time>
      </trkpt>
      <trkpt lat="46.01185" lon="6.27812">
        <ele>810.09600256</ele>
        <time>2013-10-06T05:50:01Z</time>
      </trkpt>
      <trkpt lat="46.0119" lon="6.27826">
        <ele>811.03500032</ele>
        <time>2013-10-06T05:50:06Z</time>
      </trkpt>
      <trkpt lat="46.01186" lon="6.2784">
        <ele>811.54500096</ele>
        <time>2013-10-06T05:50:11Z</time>
      </trkpt>
      <trkpt lat="46.01176" lon="6.27847">
        <ele>811.94500096</ele>
        <time>2013-10-06T05:50:15Z</time>
      </trkpt>
      <trkpt lat="46.01168" lon="6.27856">
        <ele>812.90782993903</ele>
        <time>2013-10-06T05:50:20Z</time>
      </trkpt>
      <trkpt lat="46.0117" lon="6.27871">
        <ele>813.87908895548</ele>
        <time>2013-10-06T05:50:25Z</time>
      </trkpt>
      <trkpt lat="46.01177" lon="6.27885">
        <ele>814.44298634235</ele>
        <time>2013-10-06T05:50:30Z</time>
      </trkpt>
      <trkpt lat="46.01186" lon="6.27897">
        <ele>814.8466194276</ele>
        <time>2013-10-06T05:50:34Z</time>
      </trkpt>
      <trkpt lat="46.01193" lon="6.27908">
        <ele>815</ele>
        <time>2013-10-06T05:50:38Z</time>
      </trkpt>
      <trkpt lat="46.01199" lon="6.27921">
        <ele>815</ele>
        <time>2013-10-06T05:50:42Z</time>
      </trkpt>
      <trkpt lat="46.01194" lon="6.27935">
        <ele>815.27600128</ele>
        <time>2013-10-06T05:50:47Z</time>
      </trkpt>
      <trkpt lat="46.01185" lon="6.27946">
        <ele>816.27600128</ele>
        <time>2013-10-06T05:50:52Z</time>
      </trkpt>
      <trkpt lat="46.01176" lon="6.27958">
        <ele>817.408</ele>
        <time>2013-10-06T05:50:57Z</time>
      </trkpt>
      <trkpt lat="46.01167" lon="6.27987">
        <ele>820.464</ele>
        <time>2013-10-06T05:51:08Z</time>
      </trkpt>
      <trkpt lat="46.01161" lon="6.27999">
        <ele>821.46400256</ele>
        <time>2013-10-06T05:51:13Z</time>
      </trkpt>
      <trkpt lat="46.01154" lon="6.2801">
        <ele>822.51600128</ele>
        <time>2013-10-06T05:51:18Z</time>
      </trkpt>
      <trkpt lat="46.01136" lon="6.28027">
        <ele>825.07400192</ele>
        <time>2013-10-06T05:51:29Z</time>
      </trkpt>
      <trkpt lat="46.01128" lon="6.28037">
        <ele>826.84400384</ele>
        <time>2013-10-06T05:51:35Z</time>
      </trkpt>
      <trkpt lat="46.01122" lon="6.28049">
        <ele>828.09600256</ele>
        <time>2013-10-06T05:51:41Z</time>
      </trkpt>
      <trkpt lat="46.01114" lon="6.28059">
        <ele>829.50800128</ele>
        <time>2013-10-06T05:51:48Z</time>
      </trkpt>
      <trkpt lat="46.01105" lon="6.2807">
        <ele>830.70800128</ele>
        <time>2013-10-06T05:51:54Z</time>
      </trkpt>
      <trkpt lat="46.01098" lon="6.2808">
        <ele>832.78000384</ele>
        <time>2013-10-06T05:52:00Z</time>
      </trkpt>
      <trkpt lat="46.0109" lon="6.2809">
        <ele>835.29600256</ele>
        <time>2013-10-06T05:52:07Z</time>
      </trkpt>
      <trkpt lat="46.01083" lon="6.28101">
        <ele>836.696</ele>
        <time>2013-10-06T05:52:14Z</time>
      </trkpt>
      <trkpt lat="46.01075" lon="6.28111">
        <ele>837.448</ele>
        <time>2013-10-06T05:52:20Z</time>
      </trkpt>
      <trkpt lat="46.01068" lon="6.28123">
        <ele>839.1900032</ele>
        <time>2013-10-06T05:52:28Z</time>
      </trkpt>
      <trkpt lat="46.01061" lon="6.28134">
        <ele>842.6900032</ele>
        <time>2013-10-06T05:52:35Z</time>
      </trkpt>
      <trkpt lat="46.01059" lon="6.28148">
        <ele>844.42983366286</ele>
        <time>2013-10-06T05:53:10Z</time>
      </trkpt>
      <trkpt lat="46.01054" lon="6.28161">
        <ele>845</ele>
        <time>2013-10-06T05:53:25Z</time>
      </trkpt>
      <trkpt lat="46.01048" lon="6.28173">
        <ele>846.71600128</ele>
        <time>2013-10-06T05:53:34Z</time>
      </trkpt>
      <trkpt lat="46.01041" lon="6.28185">
        <ele>847.65800064</ele>
        <time>2013-10-06T05:53:42Z</time>
      </trkpt>
      <trkpt lat="46.01033" lon="6.28194">
        <ele>850.2900032</ele>
        <time>2013-10-06T05:53:50Z</time>
      </trkpt>
      <trkpt lat="46.01026" lon="6.28204">
        <ele>853.43800192</ele>
        <time>2013-10-06T05:53:57Z</time>
      </trkpt>
      <trkpt lat="46.01018" lon="6.28216">
        <ele>855.83800192</ele>
        <time>2013-10-06T05:54:05Z</time>
      </trkpt>
      <trkpt lat="46.01011" lon="6.28228">
        <ele>856</ele>
        <time>2013-10-06T05:54:13Z</time>
      </trkpt>
      <trkpt lat="46.00995" lon="6.28247">
        <ele>859.24</ele>
        <time>2013-10-06T05:54:28Z</time>
      </trkpt>
      <trkpt lat="46.00984" lon="6.28253">
        <ele>862.7400064</ele>
        <time>2013-10-06T05:54:35Z</time>
      </trkpt>
      <trkpt lat="46.00968" lon="6.2827">
        <ele>865.43882788718</ele>
        <time>2013-10-06T05:54:50Z</time>
      </trkpt>
      <trkpt lat="46.0096" lon="6.2828">
        <ele>866.7250048</ele>
        <time>2013-10-06T05:54:57Z</time>
      </trkpt>
      <trkpt lat="46.00955" lon="6.28294">
        <ele>871.13500288</ele>
        <time>2013-10-06T05:55:06Z</time>
      </trkpt>
      <trkpt lat="46.0095" lon="6.28307">
        <ele>874.048</ele>
        <time>2013-10-06T05:55:16Z</time>
      </trkpt>
      <trkpt lat="46.00943" lon="6.28318">
        <ele>874.94800128</ele>
        <time>2013-10-06T05:55:25Z</time>
      </trkpt>
      <trkpt lat="46.00935" lon="6.28326">
        <ele>876.51600128</ele>
        <time>2013-10-06T05:55:33Z</time>
      </trkpt>
      <trkpt lat="46.00926" lon="6.28336">
        <ele>879.63200256</ele>
        <time>2013-10-06T05:55:42Z</time>
      </trkpt>
      <trkpt lat="46.00916" lon="6.28342">
        <ele>882.88400384</ele>
        <time>2013-10-06T05:55:52Z</time>
      </trkpt>
      <trkpt lat="46.00908" lon="6.28351">
        <ele>887.29434897663</ele>
        <time>2013-10-06T05:56:04Z</time>
      </trkpt>
      <trkpt lat="46.00905" lon="6.28365">
        <ele>888.24</ele>
        <time>2013-10-06T05:56:16Z</time>
      </trkpt>
      <trkpt lat="46.00905" lon="6.2838">
        <ele>893.34800128</ele>
        <time>2013-10-06T05:56:29Z</time>
      </trkpt>
      <trkpt lat="46.009" lon="6.28393">
        <ele>894.69600256</ele>
        <time>2013-10-06T05:56:39Z</time>
      </trkpt>
      <trkpt lat="46.00892" lon="6.28404">
        <ele>896.55200256</ele>
        <time>2013-10-06T05:56:47Z</time>
      </trkpt>
      <trkpt lat="46.00883" lon="6.28414">
        <ele>899.75200256</ele>
        <time>2013-10-06T05:56:55Z</time>
      </trkpt>
      <trkpt lat="46.00877" lon="6.28426">
        <ele>902.27600128</ele>
        <time>2013-10-06T05:57:12Z</time>
      </trkpt>
      <trkpt lat="46.00867" lon="6.2843">
        <ele>908.00400384</ele>
        <time>2013-10-06T05:57:24Z</time>
      </trkpt>
      <trkpt lat="46.00857" lon="6.28438">
        <ele>911.192</ele>
        <time>2013-10-06T05:57:36Z</time>
      </trkpt>
      <trkpt lat="46.00835" lon="6.28447">
        <ele>917.05800064</ele>
        <time>2013-10-06T05:57:56Z</time>
      </trkpt>
      <trkpt lat="46.00826" lon="6.28455">
        <ele>918.35800064</ele>
        <time>2013-10-06T05:58:09Z</time>
      </trkpt>
      <trkpt lat="46.00817" lon="6.28462">
        <ele>925.07600128</ele>
        <time>2013-10-06T05:58:26Z</time>
      </trkpt>
      <trkpt lat="46.00807" lon="6.28467">
        <ele>926.47600128</ele>
        <time>2013-10-06T05:58:33Z</time>
      </trkpt>
      <trkpt lat="46.00797" lon="6.2847">
        <ele>927.33500032</ele>
        <time>2013-10-06T05:58:39Z</time>
      </trkpt>
      <trkpt lat="46.00791" lon="6.28481">
        <ele>928.86395269467</ele>
        <time>2013-10-06T05:58:50Z</time>
      </trkpt>
      <trkpt lat="46.00783" lon="6.2849">
        <ele>934.1842929899</ele>
        <time>2013-10-06T05:59:04Z</time>
      </trkpt>
      <trkpt lat="46.00772" lon="6.28493">
        <ele>938.14800128</ele>
        <time>2013-10-06T05:59:17Z</time>
      </trkpt>
      <trkpt lat="46.00751" lon="6.28492">
        <ele>941.6900032</ele>
        <time>2013-10-06T05:59:37Z</time>
      </trkpt>
      <trkpt lat="46.0074" lon="6.2849">
        <ele>946.63800064</ele>
        <time>2013-10-06T05:59:52Z</time>
      </trkpt>
      <trkpt lat="46.00731" lon="6.28487">
        <ele>949.53800192</ele>
        <time>2013-10-06T06:00:04Z</time>
      </trkpt>
      <trkpt lat="46.0072" lon="6.28485">
        <ele>952.29600256</ele>
        <time>2013-10-06T06:00:17Z</time>
      </trkpt>
      <trkpt lat="46.0071" lon="6.2848">
        <ele>954.69600256</ele>
        <time>2013-10-06T06:00:29Z</time>
      </trkpt>
      <trkpt lat="46.007" lon="6.2848">
        <ele>959.1750016</ele>
        <time>2013-10-06T06:00:42Z</time>
      </trkpt>
      <trkpt lat="46.00698" lon="6.28495">
        <ele>965.696</ele>
        <time>2013-10-06T06:01:14Z</time>
      </trkpt>
      <trkpt lat="46.00689" lon="6.28502">
        <ele>967.49600256</ele>
        <time>2013-10-06T06:01:23Z</time>
      </trkpt>
      <trkpt lat="46.0068" lon="6.2851">
        <ele>969.47000064</ele>
        <time>2013-10-06T06:01:33Z</time>
      </trkpt>
      <trkpt lat="46.00674" lon="6.28522">
        <ele>975.94928808067</ele>
        <time>2013-10-06T06:01:48Z</time>
      </trkpt>
      <trkpt lat="46.00664" lon="6.28528">
        <ele>980.93500288</ele>
        <time>2013-10-06T06:02:02Z</time>
      </trkpt>
      <trkpt lat="46.00645" lon="6.28541">
        <ele>985.488</ele>
        <time>2013-10-06T06:02:23Z</time>
      </trkpt>
      <trkpt lat="46.00633" lon="6.28546">
        <ele>986.94000128</ele>
        <time>2013-10-06T06:02:28Z</time>
      </trkpt>
      <trkpt lat="46.00623" lon="6.2855">
        <ele>988.94000128</ele>
        <time>2013-10-06T06:02:33Z</time>
      </trkpt>
      <trkpt lat="46.00616" lon="6.28562">
        <ele>991.87600128</ele>
        <time>2013-10-06T06:02:50Z</time>
      </trkpt>
      <trkpt lat="46.00606" lon="6.28565">
        <ele>998.02800384</ele>
        <time>2013-10-06T06:03:04Z</time>
      </trkpt>
      <trkpt lat="46.00596" lon="6.28566">
        <ele>1002.96500096</ele>
        <time>2013-10-06T06:03:22Z</time>
      </trkpt>
      <trkpt lat="46.00585" lon="6.28567">
        <ele>1004.93500032</ele>
        <time>2013-10-06T06:03:35Z</time>
      </trkpt>
      <trkpt lat="46.00576" lon="6.28563">
        <ele>1007.29600256</ele>
        <time>2013-10-06T06:03:47Z</time>
      </trkpt>
      <trkpt lat="46.00566" lon="6.28565">
        <ele>1011.1750016</ele>
        <time>2013-10-06T06:04:00Z</time>
      </trkpt>
      <trkpt lat="46.00555" lon="6.28564">
        <ele>1014.63100032</ele>
        <time>2013-10-06T06:04:12Z</time>
      </trkpt>
      <trkpt lat="46.00545" lon="6.28556">
        <ele>1016.09600256</ele>
        <time>2013-10-06T06:04:21Z</time>
      </trkpt>
      <trkpt lat="46.00536" lon="6.28547">
        <ele>1018.1417322835</ele>
        <time>2013-10-06T06:04:28Z</time>
      </trkpt>
      <trkpt lat="46.00527" lon="6.28543">
        <ele>1020.6023685039</ele>
        <time>2013-10-06T06:04:33Z</time>
      </trkpt>
      <trkpt lat="46.00517" lon="6.28537">
        <ele>1023.8943115447</ele>
        <time>2013-10-06T06:04:45Z</time>
      </trkpt>
      <trkpt lat="46.00518" lon="6.28536">
        <ele>1031.7250048</ele>
        <time>2013-10-06T06:05:27Z</time>
      </trkpt>
      <trkpt lat="46.00519" lon="6.28551">
        <ele>1037.69000192</ele>
        <time>2013-10-06T06:05:44Z</time>
      </trkpt>
      <trkpt lat="46.00517" lon="6.28566">
        <ele>1040.59200512</ele>
        <time>2013-10-06T06:05:57Z</time>
      </trkpt>
      <trkpt lat="46.00513" lon="6.2858">
        <ele>1044</ele>
        <time>2013-10-06T06:06:09Z</time>
      </trkpt>
      <trkpt lat="46.0051" lon="6.28595">
        <ele>1046.74800384</ele>
        <time>2013-10-06T06:06:20Z</time>
      </trkpt>
      <trkpt lat="46.00513" lon="6.28624">
        <ele>1053</ele>
        <time>2013-10-06T06:06:40Z</time>
      </trkpt>
      <trkpt lat="46.00516" lon="6.28637">
        <ele>1053.03500032</ele>
        <time>2013-10-06T06:06:46Z</time>
      </trkpt>
      <trkpt lat="46.00506" lon="6.28643">
        <ele>1053.83500032</ele>
        <time>2013-10-06T06:06:54Z</time>
      </trkpt>
      <trkpt lat="46.00496" lon="6.28644">
        <ele>1057.79200512</ele>
        <time>2013-10-06T06:07:05Z</time>
      </trkpt>
      <trkpt lat="46.00484" lon="6.28641">
        <ele>1058.848</ele>
        <time>2013-10-06T06:07:14Z</time>
      </trkpt>
      <trkpt lat="46.00474" lon="6.28637">
        <ele>1060.6596191451</ele>
        <time>2013-10-06T06:07:27Z</time>
      </trkpt>
      <trkpt lat="46.00465" lon="6.28644">
        <ele>1068.23800064</ele>
        <time>2013-10-06T06:07:48Z</time>
      </trkpt>
      <trkpt lat="46.00455" lon="6.28644">
        <ele>1071.688</ele>
        <time>2013-10-06T06:08:00Z</time>
      </trkpt>
      <trkpt lat="46.00444" lon="6.28641">
        <ele>1075</ele>
        <time>2013-10-06T06:08:12Z</time>
      </trkpt>
      <trkpt lat="46.00436" lon="6.28633">
        <ele>1077.14800384</ele>
        <time>2013-10-06T06:08:19Z</time>
      </trkpt>
      <trkpt lat="46.00427" lon="6.28625">
        <ele>1081</ele>
        <time>2013-10-06T06:08:28Z</time>
      </trkpt>
      <trkpt lat="46.00419" lon="6.28617">
        <ele>1082.44600576</ele>
        <time>2013-10-06T06:08:38Z</time>
      </trkpt>
      <trkpt lat="46.0041" lon="6.2861">
        <ele>1087.13500288</ele>
        <time>2013-10-06T06:08:46Z</time>
      </trkpt>
      <trkpt lat="46.00402" lon="6.28599">
        <ele>1090</ele>
        <time>2013-10-06T06:09:01Z</time>
      </trkpt>
      <trkpt lat="46.00391" lon="6.28593">
        <ele>1090.89000192</ele>
        <time>2013-10-06T06:09:10Z</time>
      </trkpt>
      <trkpt lat="46.0038" lon="6.28595">
        <ele>1094.2250048</ele>
        <time>2013-10-06T06:09:20Z</time>
      </trkpt>
      <trkpt lat="46.0037" lon="6.28601">
        <ele>1097.67600128</ele>
        <time>2013-10-06T06:09:29Z</time>
      </trkpt>
      <trkpt lat="46.0036" lon="6.28606">
        <ele>1099.448</ele>
        <time>2013-10-06T06:09:40Z</time>
      </trkpt>
      <trkpt lat="46.0035" lon="6.28606">
        <ele>1100.47600128</ele>
        <time>2013-10-06T06:09:48Z</time>
      </trkpt>
      <trkpt lat="46.0032" lon="6.28608">
        <ele>1106.0709201095</ele>
        <time>2013-10-06T06:10:16Z</time>
      </trkpt>
      <trkpt lat="46.0031" lon="6.28608">
        <ele>1110.24</ele>
        <time>2013-10-06T06:10:30Z</time>
      </trkpt>
      <trkpt lat="46.00301" lon="6.28614">
        <ele>1114.04400384</ele>
        <time>2013-10-06T06:10:39Z</time>
      </trkpt>
      <trkpt lat="46.0029" lon="6.2862">
        <ele>1116.27800064</ele>
        <time>2013-10-06T06:10:47Z</time>
      </trkpt>
      <trkpt lat="46.00281" lon="6.28628">
        <ele>1117.87800064</ele>
        <time>2013-10-06T06:10:55Z</time>
      </trkpt>
      <trkpt lat="46.00275" lon="6.28641">
        <ele>1118.75800064</ele>
        <time>2013-10-06T06:11:03Z</time>
      </trkpt>
      <trkpt lat="46.00275" lon="6.28657">
        <ele>1119.84500096</ele>
        <time>2013-10-06T06:11:14Z</time>
      </trkpt>
      <trkpt lat="46.00278" lon="6.2867">
        <ele>1120.65800064</ele>
        <time>2013-10-06T06:11:22Z</time>
      </trkpt>
      <trkpt lat="46.00281" lon="6.28684">
        <ele>1123.57600512</ele>
        <time>2013-10-06T06:11:32Z</time>
      </trkpt>
      <trkpt lat="46.0028" lon="6.28698">
        <ele>1127.57400192</ele>
        <time>2013-10-06T06:11:44Z</time>
      </trkpt>
      <trkpt lat="46.00275" lon="6.28713">
        <ele>1130.99200512</ele>
        <time>2013-10-06T06:11:53Z</time>
      </trkpt>
      <trkpt lat="46.00277" lon="6.28727">
        <ele>1133.09600256</ele>
        <time>2013-10-06T06:12:01Z</time>
      </trkpt>
      <trkpt lat="46.00267" lon="6.28733">
        <ele>1134.87800064</ele>
        <time>2013-10-06T06:12:10Z</time>
      </trkpt>
      <trkpt lat="46.00255" lon="6.28736">
        <ele>1135.87800064</ele>
        <time>2013-10-06T06:12:15Z</time>
      </trkpt>
      <trkpt lat="46.00245" lon="6.28737">
        <ele>1137.31600128</ele>
        <time>2013-10-06T06:12:22Z</time>
      </trkpt>
      <trkpt lat="46.00236" lon="6.28728">
        <ele>1139.51600128</ele>
        <time>2013-10-06T06:12:33Z</time>
      </trkpt>
      <trkpt lat="46.00228" lon="6.28719">
        <ele>1141.71600128</ele>
        <time>2013-10-06T06:12:44Z</time>
      </trkpt>
      <trkpt lat="46.00221" lon="6.28708">
        <ele>1144.037661649</ele>
        <time>2013-10-06T06:12:56Z</time>
      </trkpt>
      <trkpt lat="46.00211" lon="6.28701">
        <ele>1145.4823395994</ele>
        <time>2013-10-06T06:13:08Z</time>
      </trkpt>
      <trkpt lat="46.00195" lon="6.28683">
        <ele>1151.248</ele>
        <time>2013-10-06T06:13:28Z</time>
      </trkpt>
      <trkpt lat="46.00185" lon="6.28676">
        <ele>1152.43500032</ele>
        <time>2013-10-06T06:13:40Z</time>
      </trkpt>
      <trkpt lat="46.00176" lon="6.2867">
        <ele>1155.63200256</ele>
        <time>2013-10-06T06:13:52Z</time>
      </trkpt>
      <trkpt lat="46.0017" lon="6.28659">
        <ele>1157.54500096</ele>
        <time>2013-10-06T06:14:01Z</time>
      </trkpt>
      <trkpt lat="46.00161" lon="6.28651">
        <ele>1159.69000192</ele>
        <time>2013-10-06T06:14:14Z</time>
      </trkpt>
      <trkpt lat="46.00151" lon="6.28649">
        <ele>1162.69000192</ele>
        <time>2013-10-06T06:14:29Z</time>
      </trkpt>
      <trkpt lat="46.00146" lon="6.28658">
        <ele>1168.33800064</ele>
        <time>2013-10-06T06:14:59Z</time>
      </trkpt>
      <trkpt lat="46.00156" lon="6.28666">
        <ele>1171.13600256</ele>
        <time>2013-10-06T06:15:11Z</time>
      </trkpt>
      <trkpt lat="46.00163" lon="6.28676">
        <ele>1173.53500032</ele>
        <time>2013-10-06T06:15:21Z</time>
      </trkpt>
      <trkpt lat="46.00169" lon="6.28689">
        <ele>1175.27600128</ele>
        <time>2013-10-06T06:15:32Z</time>
      </trkpt>
      <trkpt lat="46.00173" lon="6.28703">
        <ele>1177.39200512</ele>
        <time>2013-10-06T06:15:39Z</time>
      </trkpt>
      <trkpt lat="46.00178" lon="6.28714">
        <ele>1180.1456915165</ele>
        <time>2013-10-06T06:15:46Z</time>
      </trkpt>
      <trkpt lat="46.0018" lon="6.28729">
        <ele>1182.8186334332</ele>
        <time>2013-10-06T06:15:55Z</time>
      </trkpt>
      <trkpt lat="46.00181" lon="6.28743">
        <ele>1183.644802885</ele>
        <time>2013-10-06T06:16:02Z</time>
      </trkpt>
      <trkpt lat="46.00182" lon="6.28758">
        <ele>1185.05800192</ele>
        <time>2013-10-06T06:16:11Z</time>
      </trkpt>
      <trkpt lat="46.00189" lon="6.2877">
        <ele>1187.75200256</ele>
        <time>2013-10-06T06:16:20Z</time>
      </trkpt>
      <trkpt lat="46.00193" lon="6.28784">
        <ele>1190.45800064</ele>
        <time>2013-10-06T06:16:30Z</time>
      </trkpt>
      <trkpt lat="46.00197" lon="6.28798">
        <ele>1192.09600256</ele>
        <time>2013-10-06T06:16:41Z</time>
      </trkpt>
      <trkpt lat="46.00204" lon="6.28809">
        <ele>1194.24</ele>
        <time>2013-10-06T06:16:48Z</time>
      </trkpt>
      <trkpt lat="46.00223" lon="6.28823">
        <ele>1198</ele>
        <time>2013-10-06T06:17:00Z</time>
      </trkpt>
      <trkpt lat="46.00232" lon="6.28831">
        <ele>1198.27600128</ele>
        <time>2013-10-06T06:17:07Z</time>
      </trkpt>
      <trkpt lat="46.00234" lon="6.28847">
        <ele>1200.34800128</ele>
        <time>2013-10-06T06:17:19Z</time>
      </trkpt>
      <trkpt lat="46.00234" lon="6.28861">
        <ele>1201.896</ele>
        <time>2013-10-06T06:17:30Z</time>
      </trkpt>
      <trkpt lat="46.00236" lon="6.28877">
        <ele>1204.792</ele>
        <time>2013-10-06T06:17:40Z</time>
      </trkpt>
      <trkpt lat="46.00244" lon="6.28888">
        <ele>1207.70500096</ele>
        <time>2013-10-06T06:17:48Z</time>
      </trkpt>
      <trkpt lat="46.00246" lon="6.28903">
        <ele>1210.23700096</ele>
        <time>2013-10-06T06:17:58Z</time>
      </trkpt>
      <trkpt lat="46.00247" lon="6.28917">
        <ele>1211.05800192</ele>
        <time>2013-10-06T06:18:06Z</time>
      </trkpt>
      <trkpt lat="46.00249" lon="6.28933">
        <ele>1213.1156542802</ele>
        <time>2013-10-06T06:18:16Z</time>
      </trkpt>
      <trkpt lat="46.00251" lon="6.28947">
        <ele>1215.2206633406</ele>
        <time>2013-10-06T06:18:26Z</time>
      </trkpt>
      <trkpt lat="46.00247" lon="6.28961">
        <ele>1218.8314969971</ele>
        <time>2013-10-06T06:18:35Z</time>
      </trkpt>
      <trkpt lat="46.00245" lon="6.28976">
        <ele>1221.5441917635</ele>
        <time>2013-10-06T06:18:44Z</time>
      </trkpt>
      <trkpt lat="46.00252" lon="6.29006">
        <ele>1224.93500288</ele>
        <time>2013-10-06T06:19:02Z</time>
      </trkpt>
      <trkpt lat="46.00254" lon="6.2902">
        <ele>1227.09600256</ele>
        <time>2013-10-06T06:19:11Z</time>
      </trkpt>
      <trkpt lat="46.00257" lon="6.29034">
        <ele>1229.11600128</ele>
        <time>2013-10-06T06:19:21Z</time>
      </trkpt>
      <trkpt lat="46.00264" lon="6.29044">
        <ele>1230.71800064</ele>
        <time>2013-10-06T06:19:29Z</time>
      </trkpt>
      <trkpt lat="46.00267" lon="6.2906">
        <ele>1232.51600128</ele>
        <time>2013-10-06T06:19:38Z</time>
      </trkpt>
      <trkpt lat="46.00266" lon="6.29074">
        <ele>1234.58000384</ele>
        <time>2013-10-06T06:19:47Z</time>
      </trkpt>
      <trkpt lat="46.00265" lon="6.29089">
        <ele>1238.14800128</ele>
        <time>2013-10-06T06:19:57Z</time>
      </trkpt>
      <trkpt lat="46.00249" lon="6.29083">
        <ele>1243.648</ele>
        <time>2013-10-06T06:20:22Z</time>
      </trkpt>
      <trkpt lat="46.0025" lon="6.29098">
        <ele>1246.46200064</ele>
        <time>2013-10-06T06:20:38Z</time>
      </trkpt>
      <trkpt lat="46.00254" lon="6.29113">
        <ele>1247.46200064</ele>
        <time>2013-10-06T06:20:43Z</time>
      </trkpt>
      <trkpt lat="46.00257" lon="6.29127">
        <ele>1248.47600128</ele>
        <time>2013-10-06T06:20:48Z</time>
      </trkpt>
      <trkpt lat="46.00266" lon="6.29137">
        <ele>1249.47600128</ele>
        <time>2013-10-06T06:20:53Z</time>
      </trkpt>
      <trkpt lat="46.00267" lon="6.29153">
        <ele>1252.99200512</ele>
        <time>2013-10-06T06:21:03Z</time>
      </trkpt>
      <trkpt lat="46.00269" lon="6.29167">
        <ele>1255.944</ele>
        <time>2013-10-06T06:21:12Z</time>
      </trkpt>
      <trkpt lat="46.00275" lon="6.29179">
        <ele>1258.33200384</ele>
        <time>2013-10-06T06:21:20Z</time>
      </trkpt>
      <trkpt lat="46.00278" lon="6.29189">
        <ele>1259.832</ele>
        <time>2013-10-06T06:21:25Z</time>
      </trkpt>
      <trkpt lat="46.00279" lon="6.29204">
        <ele>1260.7384013535</ele>
        <time>2013-10-06T06:21:33Z</time>
      </trkpt>
      <trkpt lat="46.0027" lon="6.29213">
        <ele>1261.4407289393</ele>
        <time>2013-10-06T06:21:40Z</time>
      </trkpt>
      <trkpt lat="46.00262" lon="6.29222">
        <ele>1262.44500096</ele>
        <time>2013-10-06T06:21:50Z</time>
      </trkpt>
      <trkpt lat="46.00254" lon="6.2923">
        <ele>1265.688</ele>
        <time>2013-10-06T06:22:00Z</time>
      </trkpt>
      <trkpt lat="46.00246" lon="6.29239">
        <ele>1269.74500096</ele>
        <time>2013-10-06T06:22:13Z</time>
      </trkpt>
      <trkpt lat="46.00242" lon="6.29253">
        <ele>1271.91600128</ele>
        <time>2013-10-06T06:22:25Z</time>
      </trkpt>
      <trkpt lat="46.00236" lon="6.29266">
        <ele>1277.74800384</ele>
        <time>2013-10-06T06:22:35Z</time>
      </trkpt>
      <trkpt lat="46.00237" lon="6.29281">
        <ele>1278.848</ele>
        <time>2013-10-06T06:22:44Z</time>
      </trkpt>
      <trkpt lat="46.00241" lon="6.29295">
        <ele>1280.27400192</ele>
        <time>2013-10-06T06:22:52Z</time>
      </trkpt>
      <trkpt lat="46.00239" lon="6.29323">
        <ele>1285.69600256</ele>
        <time>2013-10-06T06:23:09Z</time>
      </trkpt>
      <trkpt lat="46.00238" lon="6.29351">
        <ele>1289.6946960029</ele>
        <time>2013-10-06T06:23:29Z</time>
      </trkpt>
      <trkpt lat="46.00239" lon="6.29366">
        <ele>1291.992</ele>
        <time>2013-10-06T06:23:38Z</time>
      </trkpt>
      <trkpt lat="46.00242" lon="6.2938">
        <ele>1295.03500032</ele>
        <time>2013-10-06T06:23:46Z</time>
      </trkpt>
      <trkpt lat="46.00246" lon="6.29393">
        <ele>1295.93500032</ele>
        <time>2013-10-06T06:23:55Z</time>
      </trkpt>
      <trkpt lat="46.00248" lon="6.29408">
        <ele>1302.27000064</ele>
        <time>2013-10-06T06:24:07Z</time>
      </trkpt>
      <trkpt lat="46.00238" lon="6.29412">
        <ele>1305.4856028646</ele>
        <time>2013-10-06T06:24:23Z</time>
      </trkpt>
      <trkpt lat="46.00229" lon="6.29406">
        <ele>1307.270897328</ele>
        <time>2013-10-06T06:24:32Z</time>
      </trkpt>
      <trkpt lat="46.00218" lon="6.294">
        <ele>1308.35800064</ele>
        <time>2013-10-06T06:24:39Z</time>
      </trkpt>
      <trkpt lat="46.00208" lon="6.29393">
        <ele>1308.95800064</ele>
        <time>2013-10-06T06:24:45Z</time>
      </trkpt>
      <trkpt lat="46.002" lon="6.29385">
        <ele>1309.55800064</ele>
        <time>2013-10-06T06:24:51Z</time>
      </trkpt>
      <trkpt lat="46.00196" lon="6.2937">
        <ele>1313.2250048</ele>
        <time>2013-10-06T06:25:02Z</time>
      </trkpt>
      <trkpt lat="46.00192" lon="6.29355">
        <ele>1315.55800064</ele>
        <time>2013-10-06T06:25:11Z</time>
      </trkpt>
      <trkpt lat="46.00185" lon="6.29344">
        <ele>1316.35800064</ele>
        <time>2013-10-06T06:25:19Z</time>
      </trkpt>
      <trkpt lat="46.0018" lon="6.29332">
        <ele>1317.7250048</ele>
        <time>2013-10-06T06:25:27Z</time>
      </trkpt>
      <trkpt lat="46.00177" lon="6.29317">
        <ele>1322.31600128</ele>
        <time>2013-10-06T06:25:37Z</time>
      </trkpt>
      <trkpt lat="46.00172" lon="6.29302">
        <ele>1324.04500096</ele>
        <time>2013-10-06T06:25:46Z</time>
      </trkpt>
      <trkpt lat="46.00166" lon="6.2929">
        <ele>1324.84500096</ele>
        <time>2013-10-06T06:25:54Z</time>
      </trkpt>
      <trkpt lat="46.00158" lon="6.2928">
        <ele>1325.75800064</ele>
        <time>2013-10-06T06:26:03Z</time>
      </trkpt>
      <trkpt lat="46.0015" lon="6.29272">
        <ele>1326.91600128</ele>
        <time>2013-10-06T06:26:10Z</time>
      </trkpt>
      <trkpt lat="46.00132" lon="6.29257">
        <ele>1333.03200256</ele>
        <time>2013-10-06T06:26:33Z</time>
      </trkpt>
      <trkpt lat="46.00124" lon="6.29265">
        <ele>1338.7675853268</ele>
        <time>2013-10-06T06:26:52Z</time>
      </trkpt>
      <trkpt lat="46.00119" lon="6.29278">
        <ele>1342.49600256</ele>
        <time>2013-10-06T06:27:03Z</time>
      </trkpt>
      <trkpt lat="46.00124" lon="6.29292">
        <ele>1345.5213058271</ele>
        <time>2013-10-06T06:27:14Z</time>
      </trkpt>
      <trkpt lat="46.00126" lon="6.29321">
        <ele>1349.94800128</ele>
        <time>2013-10-06T06:27:35Z</time>
      </trkpt>
      <trkpt lat="46.00128" lon="6.29335">
        <ele>1351.696</ele>
        <time>2013-10-06T06:27:44Z</time>
      </trkpt>
      <trkpt lat="46.0013" lon="6.29349">
        <ele>1355.7400064</ele>
        <time>2013-10-06T06:27:53Z</time>
      </trkpt>
      <trkpt lat="46.00129" lon="6.29364">
        <ele>1358.97400192</ele>
        <time>2013-10-06T06:28:02Z</time>
      </trkpt>
      <trkpt lat="46.00127" lon="6.29379">
        <ele>1362.27400192</ele>
        <time>2013-10-06T06:28:13Z</time>
      </trkpt>
      <trkpt lat="46.00127" lon="6.29395">
        <ele>1363.944</ele>
        <time>2013-10-06T06:28:25Z</time>
      </trkpt>
      <trkpt lat="46.00124" lon="6.2941">
        <ele>1365.89600256</ele>
        <time>2013-10-06T06:28:35Z</time>
      </trkpt>
      <trkpt lat="46.00117" lon="6.29421">
        <ele>1369.7400064</ele>
        <time>2013-10-06T06:28:43Z</time>
      </trkpt>
      <trkpt lat="46.00109" lon="6.2943">
        <ele>1371.74800128</ele>
        <time>2013-10-06T06:28:53Z</time>
      </trkpt>
      <trkpt lat="46.00102" lon="6.29441">
        <ele>1373.89600256</ele>
        <time>2013-10-06T06:29:05Z</time>
      </trkpt>
      <trkpt lat="46.00094" lon="6.29451">
        <ele>1378.7400064</ele>
        <time>2013-10-06T06:29:15Z</time>
      </trkpt>
      <trkpt lat="46.00086" lon="6.29461">
        <ele>1381.048</ele>
        <time>2013-10-06T06:29:26Z</time>
      </trkpt>
      <trkpt lat="46.00077" lon="6.29467">
        <ele>1382.67600128</ele>
        <time>2013-10-06T06:29:39Z</time>
      </trkpt>
      <trkpt lat="46.00068" lon="6.29471">
        <ele>1384.47000064</ele>
        <time>2013-10-06T06:29:48Z</time>
      </trkpt>
      <trkpt lat="46.00058" lon="6.29477">
        <ele>1386.2716548032</ele>
        <time>2013-10-06T06:29:57Z</time>
      </trkpt>
      <trkpt lat="46.0005" lon="6.29506">
        <ele>1391.226225803</ele>
        <time>2013-10-06T06:30:18Z</time>
      </trkpt>
      <trkpt lat="46.00041" lon="6.29516">
        <ele>1395.10800128</ele>
        <time>2013-10-06T06:30:26Z</time>
      </trkpt>
      <trkpt lat="46.00036" lon="6.2953">
        <ele>1396.50800128</ele>
        <time>2013-10-06T06:30:33Z</time>
      </trkpt>
      <trkpt lat="46.0004" lon="6.29544">
        <ele>1397</ele>
        <time>2013-10-06T06:30:39Z</time>
      </trkpt>
      <trkpt lat="46.00046" lon="6.29559">
        <ele>1397</ele>
        <time>2013-10-06T06:30:44Z</time>
      </trkpt>
      <trkpt lat="46.00052" lon="6.29572">
        <ele>1397.248</ele>
        <time>2013-10-06T06:30:48Z</time>
      </trkpt>
      <trkpt lat="46.00059" lon="6.29586">
        <ele>1397.74800128</ele>
        <time>2013-10-06T06:30:53Z</time>
      </trkpt>
      <trkpt lat="46.00066" lon="6.296">
        <ele>1398.35800064</ele>
        <time>2013-10-06T06:30:59Z</time>
      </trkpt>
      <trkpt lat="46.00075" lon="6.29608">
        <ele>1399.11600128</ele>
        <time>2013-10-06T06:31:06Z</time>
      </trkpt>
      <trkpt lat="46.00086" lon="6.2961">
        <ele>1400.31600128</ele>
        <time>2013-10-06T06:31:12Z</time>
      </trkpt>
      <trkpt lat="46.00106" lon="6.29628">
        <ele>1401.896</ele>
        <time>2013-10-06T06:31:20Z</time>
      </trkpt>
      <trkpt lat="46.00113" lon="6.29642">
        <ele>1403.04500096</ele>
        <time>2013-10-06T06:31:26Z</time>
      </trkpt>
      <trkpt lat="46.00118" lon="6.29654">
        <ele>1403.44500096</ele>
        <time>2013-10-06T06:31:30Z</time>
      </trkpt>
      <trkpt lat="46.00125" lon="6.2967">
        <ele>1403.94500096</ele>
        <time>2013-10-06T06:31:35Z</time>
      </trkpt>
      <trkpt lat="46.00132" lon="6.29682">
        <ele>1404.71600128</ele>
        <time>2013-10-06T06:31:39Z</time>
      </trkpt>
      <trkpt lat="46.00137" lon="6.29694">
        <ele>1405.51600128</ele>
        <time>2013-10-06T06:31:43Z</time>
      </trkpt>
      <trkpt lat="46.00144" lon="6.29706">
        <ele>1406.31600128</ele>
        <time>2013-10-06T06:31:47Z</time>
      </trkpt>
      <trkpt lat="46.0015" lon="6.2972">
        <ele>1407.31600128</ele>
        <time>2013-10-06T06:31:52Z</time>
      </trkpt>
      <trkpt lat="46.00157" lon="6.29734">
        <ele>1408.31600128</ele>
        <time>2013-10-06T06:31:57Z</time>
      </trkpt>
      <trkpt lat="46.00171" lon="6.29755">
        <ele>1410.69600256</ele>
        <time>2013-10-06T06:32:09Z</time>
      </trkpt>
      <trkpt lat="46.00177" lon="6.2977">
        <ele>1411.696</ele>
        <time>2013-10-06T06:32:14Z</time>
      </trkpt>
      <trkpt lat="46.00185" lon="6.29783">
        <ele>1412.69000192</ele>
        <time>2013-10-06T06:32:19Z</time>
      </trkpt>
      <trkpt lat="46.00193" lon="6.29794">
        <ele>1413.69000192</ele>
        <time>2013-10-06T06:32:24Z</time>
      </trkpt>
      <trkpt lat="46.002" lon="6.29804">
        <ele>1414.71600128</ele>
        <time>2013-10-06T06:32:29Z</time>
      </trkpt>
      <trkpt lat="46.00207" lon="6.29815">
        <ele>1415.51600128</ele>
        <time>2013-10-06T06:32:33Z</time>
      </trkpt>
      <trkpt lat="46.00213" lon="6.29828">
        <ele>1416.71600128</ele>
        <time>2013-10-06T06:32:39Z</time>
      </trkpt>
      <trkpt lat="46.00219" lon="6.29841">
        <ele>1417.71600128</ele>
        <time>2013-10-06T06:32:44Z</time>
      </trkpt>
      <trkpt lat="46.00226" lon="6.29856">
        <ele>1418.3548070361</ele>
        <time>2013-10-06T06:32:49Z</time>
      </trkpt>
      <trkpt lat="46.00232" lon="6.29868">
        <ele>1418.9494546368</ele>
        <time>2013-10-06T06:32:55Z</time>
      </trkpt>
      <trkpt lat="46.0024" lon="6.29878">
        <ele>1419.6316851326</ele>
        <time>2013-10-06T06:33:02Z</time>
      </trkpt>
      <trkpt lat="46.00246" lon="6.29893">
        <ele>1420.47000064</ele>
        <time>2013-10-06T06:33:08Z</time>
      </trkpt>
      <trkpt lat="46.00254" lon="6.29903">
        <ele>1421.27000064</ele>
        <time>2013-10-06T06:33:12Z</time>
      </trkpt>
      <trkpt lat="46.00263" lon="6.29912">
        <ele>1422.14800128</ele>
        <time>2013-10-06T06:33:17Z</time>
      </trkpt>
      <trkpt lat="46.00271" lon="6.29922">
        <ele>1422.54800128</ele>
        <time>2013-10-06T06:33:21Z</time>
      </trkpt>
      <trkpt lat="46.00277" lon="6.29934">
        <ele>1423.096</ele>
        <time>2013-10-06T06:33:26Z</time>
      </trkpt>
      <trkpt lat="46.0029" lon="6.29961">
        <ele>1425.44400384</ele>
        <time>2013-10-06T06:33:37Z</time>
      </trkpt>
      <trkpt lat="46.00297" lon="6.29974">
        <ele>1426.944</ele>
        <time>2013-10-06T06:33:42Z</time>
      </trkpt>
      <trkpt lat="46.00305" lon="6.29986">
        <ele>1428.29600256</ele>
        <time>2013-10-06T06:33:47Z</time>
      </trkpt>
      <trkpt lat="46.00318" lon="6.3001">
        <ele>1430.51600128</ele>
        <time>2013-10-06T06:33:58Z</time>
      </trkpt>
      <trkpt lat="46.00325" lon="6.30023">
        <ele>1431.71600128</ele>
        <time>2013-10-06T06:34:04Z</time>
      </trkpt>
      <trkpt lat="46.00334" lon="6.30032">
        <ele>1432.44500096</ele>
        <time>2013-10-06T06:34:10Z</time>
      </trkpt>
      <trkpt lat="46.00341" lon="6.30042">
        <ele>1432.94500096</ele>
        <time>2013-10-06T06:34:15Z</time>
      </trkpt>
      <trkpt lat="46.00348" lon="6.30056">
        <ele>1434.11600128</ele>
        <time>2013-10-06T06:34:21Z</time>
      </trkpt>
      <trkpt lat="46.00353" lon="6.30071">
        <ele>1435.09000192</ele>
        <time>2013-10-06T06:34:26Z</time>
      </trkpt>
      <trkpt lat="46.0036" lon="6.30083">
        <ele>1436.09000192</ele>
        <time>2013-10-06T06:34:31Z</time>
      </trkpt>
      <trkpt lat="46.00369" lon="6.30095">
        <ele>1437.29600256</ele>
        <time>2013-10-06T06:34:37Z</time>
      </trkpt>
      <trkpt lat="46.00377" lon="6.30105">
        <ele>1438.296</ele>
        <time>2013-10-06T06:34:42Z</time>
      </trkpt>
      <trkpt lat="46.00384" lon="6.30115">
        <ele>1439.096</ele>
        <time>2013-10-06T06:34:46Z</time>
      </trkpt>
      <trkpt lat="46.0039" lon="6.30129">
        <ele>1440.09600256</ele>
        <time>2013-10-06T06:34:51Z</time>
      </trkpt>
      <trkpt lat="46.00396" lon="6.3014">
        <ele>1441.07600128</ele>
        <time>2013-10-06T06:34:56Z</time>
      </trkpt>
      <trkpt lat="46.00402" lon="6.30154">
        <ele>1442.09600256</ele>
        <time>2013-10-06T06:35:01Z</time>
      </trkpt>
      <trkpt lat="46.00408" lon="6.30168">
        <ele>1443.096</ele>
        <time>2013-10-06T06:35:06Z</time>
      </trkpt>
      <trkpt lat="46.00413" lon="6.30182">
        <ele>1444.09600256</ele>
        <time>2013-10-06T06:35:11Z</time>
      </trkpt>
      <trkpt lat="46.00414" lon="6.30199">
        <ele>1445.03800064</ele>
        <time>2013-10-06T06:35:16Z</time>
      </trkpt>
      <trkpt lat="46.00418" lon="6.30215">
        <ele>1445.53800064</ele>
        <time>2013-10-06T06:35:21Z</time>
      </trkpt>
      <trkpt lat="46.00426" lon="6.30225">
        <ele>1446.06200064</ele>
        <time>2013-10-06T06:35:26Z</time>
      </trkpt>
      <trkpt lat="46.00434" lon="6.30234">
        <ele>1447.26200064</ele>
        <time>2013-10-06T06:35:32Z</time>
      </trkpt>
      <trkpt lat="46.00448" lon="6.30257">
        <ele>1449.2844388176</ele>
        <time>2013-10-06T06:35:42Z</time>
      </trkpt>
      <trkpt lat="46.00453" lon="6.30272">
        <ele>1450.14026282</ele>
        <time>2013-10-06T06:35:47Z</time>
      </trkpt>
      <trkpt lat="46.00456" lon="6.30305">
        <ele>1451.15800064</ele>
        <time>2013-10-06T06:35:57Z</time>
      </trkpt>
      <trkpt lat="46.00457" lon="6.30322">
        <ele>1451.65800064</ele>
        <time>2013-10-06T06:36:02Z</time>
      </trkpt>
      <trkpt lat="46.00456" lon="6.30338">
        <ele>1452.29600256</ele>
        <time>2013-10-06T06:36:07Z</time>
      </trkpt>
      <trkpt lat="46.00456" lon="6.30354">
        <ele>1453.296</ele>
        <time>2013-10-06T06:36:12Z</time>
      </trkpt>
      <trkpt lat="46.00454" lon="6.3037">
        <ele>1454.29000192</ele>
        <time>2013-10-06T06:36:17Z</time>
      </trkpt>
      <trkpt lat="46.00451" lon="6.30386">
        <ele>1455.29000192</ele>
        <time>2013-10-06T06:36:22Z</time>
      </trkpt>
      <trkpt lat="46.00449" lon="6.30403">
        <ele>1456.25800064</ele>
        <time>2013-10-06T06:36:28Z</time>
      </trkpt>
      <trkpt lat="46.00443" lon="6.30415">
        <ele>1456.65800064</ele>
        <time>2013-10-06T06:36:32Z</time>
      </trkpt>
      <trkpt lat="46.00438" lon="6.3043">
        <ele>1457</ele>
        <time>2013-10-06T06:36:37Z</time>
      </trkpt>
      <trkpt lat="46.00434" lon="6.30446">
        <ele>1457</ele>
        <time>2013-10-06T06:36:41Z</time>
      </trkpt>
      <trkpt lat="46.00434" lon="6.3046">
        <ele>1457</ele>
        <time>2013-10-06T06:36:45Z</time>
      </trkpt>
      <trkpt lat="46.00432" lon="6.30476">
        <ele>1457.69600256</ele>
        <time>2013-10-06T06:36:49Z</time>
      </trkpt>
      <trkpt lat="46.0043" lon="6.30492">
        <ele>1458.49600256</ele>
        <time>2013-10-06T06:36:53Z</time>
      </trkpt>
      <trkpt lat="46.00427" lon="6.30509">
        <ele>1458.864</ele>
        <time>2013-10-06T06:36:57Z</time>
      </trkpt>
      <trkpt lat="46.00423" lon="6.30526">
        <ele>1458.46499968</ele>
        <time>2013-10-06T06:37:01Z</time>
      </trkpt>
      <trkpt lat="46.00424" lon="6.30542">
        <ele>1458.06499968</ele>
        <time>2013-10-06T06:37:05Z</time>
      </trkpt>
      <trkpt lat="46.00428" lon="6.30558">
        <ele>1458</ele>
        <time>2013-10-06T06:37:10Z</time>
      </trkpt>
      <trkpt lat="46.00446" lon="6.30578">
        <ele>1458</ele>
        <time>2013-10-06T06:37:22Z</time>
      </trkpt>
      <trkpt lat="46.0045" lon="6.30589">
        <ele>1458.34800128</ele>
        <time>2013-10-06T06:37:29Z</time>
      </trkpt>
      <trkpt lat="46.00454" lon="6.30597">
        <ele>1459.05800064</ele>
        <time>2013-10-06T06:37:36Z</time>
      </trkpt>
      <trkpt lat="46.00459" lon="6.30609">
        <ele>1460.1360952198</ele>
        <time>2013-10-06T06:37:47Z</time>
      </trkpt>
      <trkpt lat="46.00461" lon="6.30624">
        <ele>1462</ele>
        <time>2013-10-06T06:38:19Z</time>
      </trkpt>
      <trkpt lat="46.00463" lon="6.30639">
        <ele>1462.339567874</ele>
        <time>2013-10-06T06:38:29Z</time>
      </trkpt>
      <trkpt lat="46.00464" lon="6.30654">
        <ele>1464.0121990244</ele>
        <time>2013-10-06T06:38:39Z</time>
      </trkpt>
      <trkpt lat="46.00464" lon="6.30665">
        <ele>1465.8414673171</ele>
        <time>2013-10-06T06:38:45Z</time>
      </trkpt>
      <trkpt lat="46.00476" lon="6.30686">
        <ele>1470.38000384</ele>
        <time>2013-10-06T06:39:04Z</time>
      </trkpt>
      <trkpt lat="46.00483" lon="6.30694">
        <ele>1474</ele>
        <time>2013-10-06T06:39:17Z</time>
      </trkpt>
      <trkpt lat="46.00493" lon="6.30701">
        <ele>1474</ele>
        <time>2013-10-06T06:39:25Z</time>
      </trkpt>
      <trkpt lat="46.00503" lon="6.30707">
        <ele>1475.71600128</ele>
        <time>2013-10-06T06:39:34Z</time>
      </trkpt>
      <trkpt lat="46.00512" lon="6.30715">
        <ele>1482.144</ele>
        <time>2013-10-06T06:39:46Z</time>
      </trkpt>
      <trkpt lat="46.00522" lon="6.3072">
        <ele>1484.24400384</ele>
        <time>2013-10-06T06:39:53Z</time>
      </trkpt>
      <trkpt lat="46.00531" lon="6.30726">
        <ele>1485</ele>
        <time>2013-10-06T06:40:01Z</time>
      </trkpt>
      <trkpt lat="46.00537" lon="6.30727">
        <ele>1485.09000192</ele>
        <time>2013-10-06T06:40:06Z</time>
      </trkpt>
      <trkpt lat="46.00543" lon="6.30726">
        <ele>1486.29200128</ele>
        <time>2013-10-06T06:40:12Z</time>
      </trkpt>
      <trkpt lat="46.00548" lon="6.30728">
        <ele>1487.94800384</ele>
        <time>2013-10-06T06:40:17Z</time>
      </trkpt>
      <trkpt lat="46.00553" lon="6.30731">
        <ele>1490.34800384</ele>
        <time>2013-10-06T06:40:21Z</time>
      </trkpt>
      <trkpt lat="46.00564" lon="6.30734">
        <ele>1494.11600128</ele>
        <time>2013-10-06T06:40:31Z</time>
      </trkpt>
      <trkpt lat="46.00573" lon="6.30738">
        <ele>1495.43800064</ele>
        <time>2013-10-06T06:40:40Z</time>
      </trkpt>
      <trkpt lat="46.00584" lon="6.30741">
        <ele>1496.71600128</ele>
        <time>2013-10-06T06:40:49Z</time>
      </trkpt>
      <trkpt lat="46.00594" lon="6.30746">
        <ele>1498.58000384</ele>
        <time>2013-10-06T06:40:57Z</time>
      </trkpt>
      <trkpt lat="46.00601" lon="6.30753">
        <ele>1501.38000384</ele>
        <time>2013-10-06T06:41:04Z</time>
      </trkpt>
      <trkpt lat="46.00611" lon="6.30757">
        <ele>1503.67400192</ele>
        <time>2013-10-06T06:41:11Z</time>
      </trkpt>
      <trkpt lat="46.00621" lon="6.30764">
        <ele>1505.4539149695</ele>
        <time>2013-10-06T06:41:20Z</time>
      </trkpt>
      <trkpt lat="46.0063" lon="6.3077">
        <ele>1506.4540865751</ele>
        <time>2013-10-06T06:41:28Z</time>
      </trkpt>
      <trkpt lat="46.0064" lon="6.30776">
        <ele>1508.59200512</ele>
        <time>2013-10-06T06:41:37Z</time>
      </trkpt>
      <trkpt lat="46.00649" lon="6.30782">
        <ele>1512.71400192</ele>
        <time>2013-10-06T06:41:48Z</time>
      </trkpt>
      <trkpt lat="46.00658" lon="6.30788">
        <ele>1515.70500096</ele>
        <time>2013-10-06T06:41:58Z</time>
      </trkpt>
      <trkpt lat="46.00666" lon="6.30799">
        <ele>1518.03800064</ele>
        <time>2013-10-06T06:42:06Z</time>
      </trkpt>
      <trkpt lat="46.00672" lon="6.30811">
        <ele>1518.83800064</ele>
        <time>2013-10-06T06:42:14Z</time>
      </trkpt>
      <trkpt lat="46.00677" lon="6.30825">
        <ele>1520.296</ele>
        <time>2013-10-06T06:42:22Z</time>
      </trkpt>
      <trkpt lat="46.00685" lon="6.30853">
        <ele>1523.59200512</ele>
        <time>2013-10-06T06:42:37Z</time>
      </trkpt>
      <trkpt lat="46.00688" lon="6.30866">
        <ele>1526.79200512</ele>
        <time>2013-10-06T06:42:45Z</time>
      </trkpt>
      <trkpt lat="46.00695" lon="6.30879">
        <ele>1527.848</ele>
        <time>2013-10-06T06:42:54Z</time>
      </trkpt>
      <trkpt lat="46.00698" lon="6.30893">
        <ele>1531.392</ele>
        <time>2013-10-06T06:43:04Z</time>
      </trkpt>
      <trkpt lat="46.00702" lon="6.30907">
        <ele>1532.65800064</ele>
        <time>2013-10-06T06:43:12Z</time>
      </trkpt>
      <trkpt lat="46.00709" lon="6.30937">
        <ele>1535.69600256</ele>
        <time>2013-10-06T06:43:29Z</time>
      </trkpt>
      <trkpt lat="46.00713" lon="6.30952">
        <ele>1538.24</ele>
        <time>2013-10-06T06:43:38Z</time>
      </trkpt>
      <trkpt lat="46.00717" lon="6.30965">
        <ele>1542.41400192</ele>
        <time>2013-10-06T06:43:47Z</time>
      </trkpt>
      <trkpt lat="46.00721" lon="6.3098">
        <ele>1545.07000064</ele>
        <time>2013-10-06T06:43:56Z</time>
      </trkpt>
      <trkpt lat="46.00725" lon="6.30994">
        <ele>1546.67000064</ele>
        <time>2013-10-06T06:44:04Z</time>
      </trkpt>
      <trkpt lat="46.00728" lon="6.31009">
        <ele>1547.7435395667</ele>
        <time>2013-10-06T06:44:13Z</time>
      </trkpt>
      <trkpt lat="46.00728" lon="6.31024">
        <ele>1549.2716305974</ele>
        <time>2013-10-06T06:44:22Z</time>
      </trkpt>
      <trkpt lat="46.00718" lon="6.31029">
        <ele>1552.54000128</ele>
        <time>2013-10-06T06:44:37Z</time>
      </trkpt>
      <trkpt lat="46.00709" lon="6.31023">
        <ele>1555.34000128</ele>
        <time>2013-10-06T06:44:44Z</time>
      </trkpt>
      <trkpt lat="46.00699" lon="6.31015">
        <ele>1558.50500096</ele>
        <time>2013-10-06T06:44:54Z</time>
      </trkpt>
      <trkpt lat="46.00689" lon="6.3101">
        <ele>1559.648</ele>
        <time>2013-10-06T06:45:02Z</time>
      </trkpt>
      <trkpt lat="46.00679" lon="6.31007">
        <ele>1560.69600256</ele>
        <time>2013-10-06T06:45:09Z</time>
      </trkpt>
      <trkpt lat="46.00668" lon="6.31006">
        <ele>1562.192</ele>
        <time>2013-10-06T06:45:16Z</time>
      </trkpt>
      <trkpt lat="46.0066" lon="6.30997">
        <ele>1566.0379626409</ele>
        <time>2013-10-06T06:45:26Z</time>
      </trkpt>
      <trkpt lat="46.00651" lon="6.30989">
        <ele>1566.9480519979</ele>
        <time>2013-10-06T06:45:35Z</time>
      </trkpt>
      <trkpt lat="46.00643" lon="6.30979">
        <ele>1568.4814829051</ele>
        <time>2013-10-06T06:45:43Z</time>
      </trkpt>
      <trkpt lat="46.00635" lon="6.3097">
        <ele>1570.09000192</ele>
        <time>2013-10-06T06:45:51Z</time>
      </trkpt>
      <trkpt lat="46.00625" lon="6.30967">
        <ele>1573.7250048</ele>
        <time>2013-10-06T06:46:01Z</time>
      </trkpt>
      <trkpt lat="46.00615" lon="6.30964">
        <ele>1576.45800064</ele>
        <time>2013-10-06T06:46:10Z</time>
      </trkpt>
      <trkpt lat="46.00585" lon="6.30958">
        <ele>1580.15200256</ele>
        <time>2013-10-06T06:46:36Z</time>
      </trkpt>
      <trkpt lat="46.00575" lon="6.30956">
        <ele>1584.23500032</ele>
        <time>2013-10-06T06:46:48Z</time>
      </trkpt>
      <trkpt lat="46.00566" lon="6.30951">
        <ele>1587.5064552909</ele>
        <time>2013-10-06T06:47:02Z</time>
      </trkpt>
      <trkpt lat="46.00556" lon="6.30948">
        <ele>1589.937563565</ele>
        <time>2013-10-06T06:47:15Z</time>
      </trkpt>
      <trkpt lat="46.00546" lon="6.30948">
        <ele>1592.27000064</ele>
        <time>2013-10-06T06:47:27Z</time>
      </trkpt>
      <trkpt lat="46.00551" lon="6.30961">
        <ele>1595.27000064</ele>
        <time>2013-10-06T06:47:42Z</time>
      </trkpt>
      <trkpt lat="46.00555" lon="6.30974">
        <ele>1597.67000064</ele>
        <time>2013-10-06T06:47:54Z</time>
      </trkpt>
      <trkpt lat="46.00559" lon="6.30987">
        <ele>1602</ele>
        <time>2013-10-06T06:48:10Z</time>
      </trkpt>
      <trkpt lat="46.00567" lon="6.30997">
        <ele>1602.91600128</ele>
        <time>2013-10-06T06:48:20Z</time>
      </trkpt>
      <trkpt lat="46.00574" lon="6.31008">
        <ele>1606.97200128</ele>
        <time>2013-10-06T06:48:33Z</time>
      </trkpt>
      <trkpt lat="46.00578" lon="6.31022">
        <ele>1608.34600064</ele>
        <time>2013-10-06T06:48:39Z</time>
      </trkpt>
      <trkpt lat="46.00583" lon="6.31035">
        <ele>1609.49000192</ele>
        <time>2013-10-06T06:48:48Z</time>
      </trkpt>
      <trkpt lat="46.00589" lon="6.31047">
        <ele>1611.11600128</ele>
        <time>2013-10-06T06:48:56Z</time>
      </trkpt>
      <trkpt lat="46.00591" lon="6.31062">
        <ele>1613.07600128</ele>
        <time>2013-10-06T06:49:06Z</time>
      </trkpt>
      <trkpt lat="46.00595" lon="6.31075">
        <ele>1615.07000064</ele>
        <time>2013-10-06T06:49:16Z</time>
      </trkpt>
      <trkpt lat="46.00599" lon="6.31089">
        <ele>1617.2050048</ele>
        <time>2013-10-06T06:49:26Z</time>
      </trkpt>
      <trkpt lat="46.00601" lon="6.31104">
        <ele>1621.7050048</ele>
        <time>2013-10-06T06:49:35Z</time>
      </trkpt>
      <trkpt lat="46.00603" lon="6.31119">
        <ele>1622.1565911692</ele>
        <time>2013-10-06T06:49:47Z</time>
      </trkpt>
      <trkpt lat="46.00604" lon="6.31133">
        <ele>1623.0887966955</ele>
        <time>2013-10-06T06:49:56Z</time>
      </trkpt>
      <trkpt lat="46.0061" lon="6.31162">
        <ele>1630.41400192</ele>
        <time>2013-10-06T06:50:17Z</time>
      </trkpt>
      <trkpt lat="46.0061" lon="6.31177">
        <ele>1633.33500032</ele>
        <time>2013-10-06T06:50:29Z</time>
      </trkpt>
      <trkpt lat="46.00614" lon="6.3119">
        <ele>1634.87000064</ele>
        <time>2013-10-06T06:50:40Z</time>
      </trkpt>
      <trkpt lat="46.00617" lon="6.31199">
        <ele>1636.35800064</ele>
        <time>2013-10-06T06:50:49Z</time>
      </trkpt>
      <trkpt lat="46.00617" lon="6.31207">
        <ele>1636.95800064</ele>
        <time>2013-10-06T06:50:55Z</time>
      </trkpt>
      <trkpt lat="46.00619" lon="6.31216">
        <ele>1640.7900032</ele>
        <time>2013-10-06T06:51:03Z</time>
      </trkpt>
      <trkpt lat="46.00625" lon="6.3123">
        <ele>1645</ele>
        <time>2013-10-06T06:51:18Z</time>
      </trkpt>
      <trkpt lat="46.00628" lon="6.31237">
        <ele>1645</ele>
        <time>2013-10-06T06:51:24Z</time>
      </trkpt>
      <trkpt lat="46.00632" lon="6.31245">
        <ele>1645.53900032</ele>
        <time>2013-10-06T06:51:31Z</time>
      </trkpt>
      <trkpt lat="46.00635" lon="6.31252">
        <ele>1646.71600128</ele>
        <time>2013-10-06T06:51:39Z</time>
      </trkpt>
      <trkpt lat="46.00639" lon="6.3126">
        <ele>1648.44500096</ele>
        <time>2013-10-06T06:51:50Z</time>
      </trkpt>
      <trkpt lat="46.00643" lon="6.31273">
        <ele>1653.48700672</ele>
        <time>2013-10-06T06:52:02Z</time>
      </trkpt>
      <trkpt lat="46.00649" lon="6.31285">
        <ele>1656</ele>
        <time>2013-10-06T06:52:13Z</time>
      </trkpt>
      <trkpt lat="46.00654" lon="6.31298">
        <ele>1660.09000192</ele>
        <time>2013-10-06T06:52:26Z</time>
      </trkpt>
      <trkpt lat="46.00659" lon="6.31312">
        <ele>1662.0475718081</ele>
        <time>2013-10-06T06:52:36Z</time>
      </trkpt>
      <trkpt lat="46.00664" lon="6.31325">
        <ele>1662.9395444777</ele>
        <time>2013-10-06T06:52:45Z</time>
      </trkpt>
      <trkpt lat="46.00669" lon="6.31334">
        <ele>1665.27000064</ele>
        <time>2013-10-06T06:52:57Z</time>
      </trkpt>
      <trkpt lat="46.00672" lon="6.31348">
        <ele>1667.69600256</ele>
        <time>2013-10-06T06:53:09Z</time>
      </trkpt>
      <trkpt lat="46.00674" lon="6.31363">
        <ele>1671.7250048</ele>
        <time>2013-10-06T06:53:21Z</time>
      </trkpt>
      <trkpt lat="46.00666" lon="6.31377">
        <ele>1676.49000192</ele>
        <time>2013-10-06T06:53:48Z</time>
      </trkpt>
      <trkpt lat="46.00656" lon="6.3137">
        <ele>1680.16400384</ele>
        <time>2013-10-06T06:54:01Z</time>
      </trkpt>
      <trkpt lat="46.00649" lon="6.31365">
        <ele>1683.97400192</ele>
        <time>2013-10-06T06:54:12Z</time>
      </trkpt>
      <trkpt lat="46.00641" lon="6.31356">
        <ele>1686.09000192</ele>
        <time>2013-10-06T06:54:26Z</time>
      </trkpt>
      <trkpt lat="46.00631" lon="6.31351">
        <ele>1688.496</ele>
        <time>2013-10-06T06:54:38Z</time>
      </trkpt>
      <trkpt lat="46.00622" lon="6.31346">
        <ele>1690.248</ele>
        <time>2013-10-06T06:54:48Z</time>
      </trkpt>
      <trkpt lat="46.00613" lon="6.31339">
        <ele>1691.35800064</ele>
        <time>2013-10-06T06:54:59Z</time>
      </trkpt>
      <trkpt lat="46.00604" lon="6.31333">
        <ele>1693.6900032</ele>
        <time>2013-10-06T06:55:17Z</time>
      </trkpt>
      <trkpt lat="46.00594" lon="6.31329">
        <ele>1698.4587889704</ele>
        <time>2013-10-06T06:55:28Z</time>
      </trkpt>
      <trkpt lat="46.00587" lon="6.31327">
        <ele>1700.496</ele>
        <time>2013-10-06T06:55:48Z</time>
      </trkpt>
      <trkpt lat="46.0058" lon="6.31325">
        <ele>1705.8956895954</ele>
        <time>2013-10-06T06:56:15Z</time>
      </trkpt>
      <trkpt lat="46.00575" lon="6.31325">
        <ele>1712.09600256</ele>
        <time>2013-10-06T06:56:51Z</time>
      </trkpt>
      <trkpt lat="46.00559" lon="6.31311">
        <ele>1714.27000064</ele>
        <time>2013-10-06T06:57:17Z</time>
      </trkpt>
      <trkpt lat="46.00554" lon="6.31308">
        <ele>1715.87000064</ele>
        <time>2013-10-06T06:57:25Z</time>
      </trkpt>
      <trkpt lat="46.00545" lon="6.31304">
        <ele>1718.7357380444</ele>
        <time>2013-10-06T06:57:37Z</time>
      </trkpt>
      <trkpt lat="46.00537" lon="6.31302">
        <ele>1725.50500096</ele>
        <time>2013-10-06T06:57:54Z</time>
      </trkpt>
      <trkpt lat="46.0053" lon="6.31296">
        <ele>1730.4724434646</ele>
        <time>2013-10-06T06:58:23Z</time>
      </trkpt>
      <trkpt lat="46.00525" lon="6.31299">
        <ele>1735.63500032</ele>
        <time>2013-10-06T06:58:42Z</time>
      </trkpt>
      <trkpt lat="46.00527" lon="6.31303">
        <ele>1736.47600128</ele>
        <time>2013-10-06T06:58:48Z</time>
      </trkpt>
      <trkpt lat="46.00518" lon="6.31318">
        <ele>1748.24</ele>
        <time>2013-10-06T06:59:34Z</time>
      </trkpt>
      <trkpt lat="46.00517" lon="6.31327">
        <ele>1751.73800064</ele>
        <time>2013-10-06T07:00:03Z</time>
      </trkpt>
      <trkpt lat="46.00514" lon="6.31332">
        <ele>1757</ele>
        <time>2013-10-06T07:01:02Z</time>
      </trkpt>
      <trkpt lat="46.00505" lon="6.31337">
        <ele>1763.66200064</ele>
        <time>2013-10-06T07:02:04Z</time>
      </trkpt>
      <trkpt lat="46.005" lon="6.31348">
        <ele>1769.81000192</ele>
        <time>2013-10-06T07:02:22Z</time>
      </trkpt>
      <trkpt lat="46.00494" lon="6.3135">
        <ele>1773.49000192</ele>
        <time>2013-10-06T07:02:38Z</time>
      </trkpt>
      <trkpt lat="46.00487" lon="6.31354">
        <ele>1775.29600256</ele>
        <time>2013-10-06T07:02:47Z</time>
      </trkpt>
      <trkpt lat="46.0048" lon="6.31356">
        <ele>1778.2050048</ele>
        <time>2013-10-06T07:02:58Z</time>
      </trkpt>
      <trkpt lat="46.00481" lon="6.31363">
        <ele>1782.34500096</ele>
        <time>2013-10-06T07:03:09Z</time>
      </trkpt>
      <trkpt lat="46.00479" lon="6.3137">
        <ele>1784.07600128</ele>
        <time>2013-10-06T07:03:21Z</time>
      </trkpt>
      <trkpt lat="46.00479" lon="6.31376">
        <ele>1788.7400064</ele>
        <time>2013-10-06T07:03:33Z</time>
      </trkpt>
      <trkpt lat="46.00475" lon="6.3139">
        <ele>1792.1866943597</ele>
        <time>2013-10-06T07:03:58Z</time>
      </trkpt>
      <trkpt lat="46.00477" lon="6.31398">
        <ele>1797.6344445146</ele>
        <time>2013-10-06T07:04:11Z</time>
      </trkpt>
      <trkpt lat="46.0048" lon="6.31404">
        <ele>1799.33700096</ele>
        <time>2013-10-06T07:04:19Z</time>
      </trkpt>
      <trkpt lat="46.00488" lon="6.31408">
        <ele>1800.43500032</ele>
        <time>2013-10-06T07:04:30Z</time>
      </trkpt>
      <trkpt lat="46.00495" lon="6.31416">
        <ele>1802.1126629351</ele>
        <time>2013-10-06T07:04:41Z</time>
      </trkpt>
      <trkpt lat="46.00498" lon="6.31421">
        <ele>1802.9102698591</ele>
        <time>2013-10-06T07:04:45Z</time>
      </trkpt>
      <trkpt lat="46.005" lon="6.31429">
        <ele>1803</ele>
        <time>2013-10-06T07:04:51Z</time>
      </trkpt>
      <trkpt lat="46.00511" lon="6.31438">
        <ele>1804.91600128</ele>
        <time>2013-10-06T07:05:10Z</time>
      </trkpt>
      <trkpt lat="46.0052" lon="6.31458">
        <ele>1807.49600256</ele>
        <time>2013-10-06T07:05:23Z</time>
      </trkpt>
      <trkpt lat="46.00524" lon="6.31464">
        <ele>1808.736</ele>
        <time>2013-10-06T07:05:29Z</time>
      </trkpt>
      <trkpt lat="46.0053" lon="6.31473">
        <ele>1809.71600128</ele>
        <time>2013-10-06T07:05:34Z</time>
      </trkpt>
      <trkpt lat="46.00535" lon="6.31476">
        <ele>1810.51600128</ele>
        <time>2013-10-06T07:05:38Z</time>
      </trkpt>
      <trkpt lat="46.00539" lon="6.31482">
        <ele>1811.31600128</ele>
        <time>2013-10-06T07:05:42Z</time>
      </trkpt>
      <trkpt lat="46.00541" lon="6.31489">
        <ele>1812</ele>
        <time>2013-10-06T07:05:46Z</time>
      </trkpt>
      <trkpt lat="46.00542" lon="6.31498">
        <ele>1812</ele>
        <time>2013-10-06T07:05:51Z</time>
      </trkpt>
      <trkpt lat="46.00543" lon="6.31507">
        <ele>1812.09000192</ele>
        <time>2013-10-06T07:05:56Z</time>
      </trkpt>
      <trkpt lat="46.00545" lon="6.31517">
        <ele>1813.29000192</ele>
        <time>2013-10-06T07:06:02Z</time>
      </trkpt>
      <trkpt lat="46.00546" lon="6.31528">
        <ele>1814.34900096</ele>
        <time>2013-10-06T07:06:09Z</time>
      </trkpt>
      <trkpt lat="46.00548" lon="6.31536">
        <ele>1815.18000384</ele>
        <time>2013-10-06T07:06:16Z</time>
      </trkpt>
      <trkpt lat="46.00552" lon="6.31546">
        <ele>1818.78000384</ele>
        <time>2013-10-06T07:06:25Z</time>
      </trkpt>
      <trkpt lat="46.00558" lon="6.31553">
        <ele>1818.54599936</ele>
        <time>2013-10-06T07:06:30Z</time>
      </trkpt>
      <trkpt lat="46.0056" lon="6.31561">
        <ele>1818.15599872</ele>
        <time>2013-10-06T07:06:34Z</time>
      </trkpt>
      <trkpt lat="46.00562" lon="6.31566">
        <ele>1818.14800128</ele>
        <time>2013-10-06T07:06:37Z</time>
      </trkpt>
      <trkpt lat="46.00567" lon="6.31572">
        <ele>1818.848</ele>
        <time>2013-10-06T07:06:44Z</time>
      </trkpt>
      <trkpt lat="46.00571" lon="6.31576">
        <ele>1820.7279104737</ele>
        <time>2013-10-06T07:06:49Z</time>
      </trkpt>
      <trkpt lat="46.00574" lon="6.31584">
        <ele>1824.0342403333</ele>
        <time>2013-10-06T07:06:56Z</time>
      </trkpt>
      <trkpt lat="46.00572" lon="6.3159">
        <ele>1824.5377651683</ele>
        <time>2013-10-06T07:07:01Z</time>
      </trkpt>
      <trkpt lat="46.00571" lon="6.31606">
        <ele>1826.68200192</ele>
        <time>2013-10-06T07:07:14Z</time>
      </trkpt>
      <trkpt lat="46.00574" lon="6.31613">
        <ele>1828.31600128</ele>
        <time>2013-10-06T07:07:22Z</time>
      </trkpt>
      <trkpt lat="46.00571" lon="6.31624">
        <ele>1833.7900032</ele>
        <time>2013-10-06T07:07:35Z</time>
      </trkpt>
      <trkpt lat="46.00569" lon="6.31637">
        <ele>1834.7400064</ele>
        <time>2013-10-06T07:07:47Z</time>
      </trkpt>
      <trkpt lat="46.00564" lon="6.3166">
        <ele>1839</ele>
        <time>2013-10-06T07:08:05Z</time>
      </trkpt>
      <trkpt lat="46.0056" lon="6.31669">
        <ele>1840.6956954033</ele>
        <time>2013-10-06T07:08:14Z</time>
      </trkpt>
      <trkpt lat="46.00555" lon="6.31677">
        <ele>1841.74800128</ele>
        <time>2013-10-06T07:08:23Z</time>
      </trkpt>
      <trkpt lat="46.00553" lon="6.31688">
        <ele>1843.696</ele>
        <time>2013-10-06T07:08:34Z</time>
      </trkpt>
      <trkpt lat="46.00555" lon="6.31699">
        <ele>1845.71000064</ele>
        <time>2013-10-06T07:08:44Z</time>
      </trkpt>
      <trkpt lat="46.0056" lon="6.31706">
        <ele>1848.7250048</ele>
        <time>2013-10-06T07:08:51Z</time>
      </trkpt>
      <trkpt lat="46.00564" lon="6.31715">
        <ele>1850.75899904</ele>
        <time>2013-10-06T07:08:58Z</time>
      </trkpt>
      <trkpt lat="46.00561" lon="6.31727">
        <ele>1850.91600128</ele>
        <time>2013-10-06T07:09:10Z</time>
      </trkpt>
      <trkpt lat="46.00557" lon="6.31736">
        <ele>1852.15800064</ele>
        <time>2013-10-06T07:09:17Z</time>
      </trkpt>
      <trkpt lat="46.0056" lon="6.31749">
        <ele>1852.90999808</ele>
        <time>2013-10-06T07:09:26Z</time>
      </trkpt>
      <trkpt lat="46.00561" lon="6.3176">
        <ele>1852.10999808</ele>
        <time>2013-10-06T07:09:30Z</time>
      </trkpt>
      <trkpt lat="46.00563" lon="6.31771">
        <ele>1851.0442922835</ele>
        <time>2013-10-06T07:09:36Z</time>
      </trkpt>
      <trkpt lat="46.00564" lon="6.31781">
        <ele>1851.9301190551</ele>
        <time>2013-10-06T07:09:45Z</time>
      </trkpt>
      <trkpt lat="46.00566" lon="6.31789">
        <ele>1853.2642289431</ele>
        <time>2013-10-06T07:09:52Z</time>
      </trkpt>
      <trkpt lat="46.00571" lon="6.31794">
        <ele>1855.1750016</ele>
        <time>2013-10-06T07:09:58Z</time>
      </trkpt>
      <trkpt lat="46.00571" lon="6.31815">
        <ele>1860.296</ele>
        <time>2013-10-06T07:10:22Z</time>
      </trkpt>
      <trkpt lat="46.00569" lon="6.31824">
        <ele>1862.83200256</ele>
        <time>2013-10-06T07:10:30Z</time>
      </trkpt>
      <trkpt lat="46.00564" lon="6.31832">
        <ele>1865.69000192</ele>
        <time>2013-10-06T07:10:39Z</time>
      </trkpt>
      <trkpt lat="46.0056" lon="6.3184">
        <ele>1866.89000192</ele>
        <time>2013-10-06T07:10:45Z</time>
      </trkpt>
      <trkpt lat="46.00558" lon="6.31849">
        <ele>1868.11600128</ele>
        <time>2013-10-06T07:10:51Z</time>
      </trkpt>
      <trkpt lat="46.00556" lon="6.31857">
        <ele>1869</ele>
        <time>2013-10-06T07:10:56Z</time>
      </trkpt>
      <trkpt lat="46.00555" lon="6.31865">
        <ele>1869</ele>
        <time>2013-10-06T07:11:01Z</time>
      </trkpt>
      <trkpt lat="46.00546" lon="6.31872">
        <ele>1869.65800064</ele>
        <time>2013-10-06T07:11:12Z</time>
      </trkpt>
      <trkpt lat="46.0054" lon="6.31873">
        <ele>1870.91600128</ele>
        <time>2013-10-06T07:11:20Z</time>
      </trkpt>
      <trkpt lat="46.00538" lon="6.3188">
        <ele>1873.7700032</ele>
        <time>2013-10-06T07:11:29Z</time>
      </trkpt>
      <trkpt lat="46.00526" lon="6.31895">
        <ele>1880.3153159386</ele>
        <time>2013-10-06T07:11:52Z</time>
      </trkpt>
      <trkpt lat="46.00521" lon="6.31905">
        <ele>1883.096</ele>
        <time>2013-10-06T07:12:06Z</time>
      </trkpt>
      <trkpt lat="46.0052" lon="6.31912">
        <ele>1885.1156542802</ele>
        <time>2013-10-06T07:12:16Z</time>
      </trkpt>
      <trkpt lat="46.00516" lon="6.31919">
        <ele>1886.5114663971</ele>
        <time>2013-10-06T07:12:23Z</time>
      </trkpt>
      <trkpt lat="46.00515" lon="6.31925">
        <ele>1889.0278317119</ele>
        <time>2013-10-06T07:12:29Z</time>
      </trkpt>
      <trkpt lat="46.00511" lon="6.31933">
        <ele>1893.6639757794</ele>
        <time>2013-10-06T07:12:39Z</time>
      </trkpt>
      <trkpt lat="46.00503" lon="6.31943">
        <ele>1895</ele>
        <time>2013-10-06T07:12:52Z</time>
      </trkpt>
      <trkpt lat="46.00498" lon="6.31954">
        <ele>1897.15200256</ele>
        <time>2013-10-06T07:13:01Z</time>
      </trkpt>
      <trkpt lat="46.005" lon="6.31967">
        <ele>1899.45800064</ele>
        <time>2013-10-06T07:13:10Z</time>
      </trkpt>
      <trkpt lat="46.00496" lon="6.31987">
        <ele>1901.5114663971</ele>
        <time>2013-10-06T07:13:23Z</time>
      </trkpt>
      <trkpt lat="46.00493" lon="6.31996">
        <ele>1902.8866615484</ele>
        <time>2013-10-06T07:13:30Z</time>
      </trkpt>
      <trkpt lat="46.0049" lon="6.32008">
        <ele>1904.15800064</ele>
        <time>2013-10-06T07:13:37Z</time>
      </trkpt>
      <trkpt lat="46.00488" lon="6.3202">
        <ele>1904.85800064</ele>
        <time>2013-10-06T07:13:44Z</time>
      </trkpt>
      <trkpt lat="46.00483" lon="6.32032">
        <ele>1906.51600128</ele>
        <time>2013-10-06T07:13:53Z</time>
      </trkpt>
      <trkpt lat="46.00479" lon="6.32044">
        <ele>1908.11600128</ele>
        <time>2013-10-06T07:14:01Z</time>
      </trkpt>
      <trkpt lat="46.00475" lon="6.32052">
        <ele>1910.2900032</ele>
        <time>2013-10-06T07:14:08Z</time>
      </trkpt>
      <trkpt lat="46.00471" lon="6.32061">
        <ele>1914.10800128</ele>
        <time>2013-10-06T07:14:16Z</time>
      </trkpt>
      <trkpt lat="46.00465" lon="6.32068">
        <ele>1915.50800128</ele>
        <time>2013-10-06T07:14:23Z</time>
      </trkpt>
      <trkpt lat="46.00462" lon="6.3208">
        <ele>1917.49000192</ele>
        <time>2013-10-06T07:14:33Z</time>
      </trkpt>
      <trkpt lat="46.00458" lon="6.32087">
        <ele>1918.69600256</ele>
        <time>2013-10-06T07:14:39Z</time>
      </trkpt>
      <trkpt lat="46.00453" lon="6.32091">
        <ele>1920.29000192</ele>
        <time>2013-10-06T07:14:47Z</time>
      </trkpt>
      <trkpt lat="46.00448" lon="6.32098">
        <ele>1922.496</ele>
        <time>2013-10-06T07:14:58Z</time>
      </trkpt>
      <trkpt lat="46.00445" lon="6.32105">
        <ele>1925.7700032</ele>
        <time>2013-10-06T07:15:09Z</time>
      </trkpt>
      <trkpt lat="46.00441" lon="6.32119">
        <ele>1929.8469889703</ele>
        <time>2013-10-06T07:15:24Z</time>
      </trkpt>
      <trkpt lat="46.00437" lon="6.32125">
        <ele>1930.3292806445</ele>
        <time>2013-10-06T07:15:29Z</time>
      </trkpt>
      <trkpt lat="46.00438" lon="6.32136">
        <ele>1932.296</ele>
        <time>2013-10-06T07:15:42Z</time>
      </trkpt>
      <trkpt lat="46.00441" lon="6.32143">
        <ele>1933.86800128</ele>
        <time>2013-10-06T07:15:50Z</time>
      </trkpt>
      <trkpt lat="46.00437" lon="6.32152">
        <ele>1936.91600128</ele>
        <time>2013-10-06T07:16:05Z</time>
      </trkpt>
      <trkpt lat="46.00438" lon="6.32175">
        <ele>1942.38000384</ele>
        <time>2013-10-06T07:16:29Z</time>
      </trkpt>
      <trkpt lat="46.00435" lon="6.32184">
        <ele>1945.44400384</ele>
        <time>2013-10-06T07:16:37Z</time>
      </trkpt>
      <trkpt lat="46.00432" lon="6.32196">
        <ele>1947.84400384</ele>
        <time>2013-10-06T07:16:45Z</time>
      </trkpt>
      <trkpt lat="46.00429" lon="6.32205">
        <ele>1950.27400192</ele>
        <time>2013-10-06T07:16:53Z</time>
      </trkpt>
      <trkpt lat="46.00424" lon="6.32216">
        <ele>1951.95800064</ele>
        <time>2013-10-06T07:17:05Z</time>
      </trkpt>
      <trkpt lat="46.00424" lon="6.32226">
        <ele>1953.31600128</ele>
        <time>2013-10-06T07:17:12Z</time>
      </trkpt>
      <trkpt lat="46.00424" lon="6.32233">
        <ele>1954.29000192</ele>
        <time>2013-10-06T07:17:17Z</time>
      </trkpt>
      <trkpt lat="46.00416" lon="6.32238">
        <ele>1956.24</ele>
        <time>2013-10-06T07:17:26Z</time>
      </trkpt>
      <trkpt lat="46.0041" lon="6.32242">
        <ele>1960.24</ele>
        <time>2013-10-06T07:17:34Z</time>
      </trkpt>
      <trkpt lat="46.0041" lon="6.32254">
        <ele>1962.97400192</ele>
        <time>2013-10-06T07:17:42Z</time>
      </trkpt>
      <trkpt lat="46.00409" lon="6.32265">
        <ele>1964</ele>
        <time>2013-10-06T07:17:50Z</time>
      </trkpt>
      <trkpt lat="46.0041" lon="6.32271">
        <ele>1964</ele>
        <time>2013-10-06T07:17:54Z</time>
      </trkpt>
      <trkpt lat="46.00411" lon="6.32277">
        <ele>1964.25800064</ele>
        <time>2013-10-06T07:17:58Z</time>
      </trkpt>
      <trkpt lat="46.00412" lon="6.32285">
        <ele>1964.848</ele>
        <time>2013-10-06T07:18:04Z</time>
      </trkpt>
      <trkpt lat="46.00411" lon="6.32293">
        <ele>1965.6911641895</ele>
        <time>2013-10-06T07:18:09Z</time>
      </trkpt>
      <trkpt lat="46.00411" lon="6.32301">
        <ele>1966.7239344671</ele>
        <time>2013-10-06T07:18:14Z</time>
      </trkpt>
      <trkpt lat="46.00409" lon="6.32311">
        <ele>1969.673718485</ele>
        <time>2013-10-06T07:18:21Z</time>
      </trkpt>
      <trkpt lat="46.00406" lon="6.32316">
        <ele>1971.7381735309</ele>
        <time>2013-10-06T07:18:25Z</time>
      </trkpt>
      <trkpt lat="46.00404" lon="6.32323">
        <ele>1973.41600256</ele>
        <time>2013-10-06T07:18:29Z</time>
      </trkpt>
      <trkpt lat="46.004" lon="6.32341">
        <ele>1976.45800064</ele>
        <time>2013-10-06T07:18:40Z</time>
      </trkpt>
      <trkpt lat="46.00401" lon="6.32355">
        <ele>1977.04500096</ele>
        <time>2013-10-06T07:18:46Z</time>
      </trkpt>
      <trkpt lat="46.00405" lon="6.32385">
        <ele>1983.19600384</ele>
        <time>2013-10-06T07:19:06Z</time>
      </trkpt>
      <trkpt lat="46.004" lon="6.32398">
        <ele>1987.13500032</ele>
        <time>2013-10-06T07:19:17Z</time>
      </trkpt>
      <trkpt lat="46.00394" lon="6.32411">
        <ele>1990.29600256</ele>
        <time>2013-10-06T07:19:37Z</time>
      </trkpt>
      <trkpt lat="46.00396" lon="6.32421">
        <ele>1991.49600256</ele>
        <time>2013-10-06T07:19:43Z</time>
      </trkpt>
      <trkpt lat="46.00388" lon="6.32423">
        <ele>1994.592</ele>
        <time>2013-10-06T07:19:52Z</time>
      </trkpt>
      <trkpt lat="46.00378" lon="6.32428">
        <ele>1996.896</ele>
        <time>2013-10-06T07:20:00Z</time>
      </trkpt>
      <trkpt lat="46.0038" lon="6.32439">
        <ele>1998.03500032</ele>
        <time>2013-10-06T07:20:06Z</time>
      </trkpt>
      <trkpt lat="46.00382" lon="6.32449">
        <ele>1998.63500032</ele>
        <time>2013-10-06T07:20:12Z</time>
      </trkpt>
      <trkpt lat="46.00383" lon="6.32459">
        <ele>1999.47600128</ele>
        <time>2013-10-06T07:20:18Z</time>
      </trkpt>
      <trkpt lat="46.00382" lon="6.3247">
        <ele>2000.67600128</ele>
        <time>2013-10-06T07:20:24Z</time>
      </trkpt>
      <trkpt lat="46.00385" lon="6.32481">
        <ele>2002.09600256</ele>
        <time>2013-10-06T07:20:31Z</time>
      </trkpt>
      <trkpt lat="46.00385" lon="6.32492">
        <ele>2003.15200256</ele>
        <time>2013-10-06T07:20:36Z</time>
      </trkpt>
      <trkpt lat="46.00384" lon="6.32505">
        <ele>2005.55200256</ele>
        <time>2013-10-06T07:20:42Z</time>
      </trkpt>
      <trkpt lat="46.00384" lon="6.32514">
        <ele>2007</ele>
        <time>2013-10-06T07:20:47Z</time>
      </trkpt>
      <trkpt lat="46.00384" lon="6.32524">
        <ele>2007</ele>
        <time>2013-10-06T07:20:52Z</time>
      </trkpt>
      <trkpt lat="46.00385" lon="6.32535">
        <ele>2007</ele>
        <time>2013-10-06T07:20:55Z</time>
      </trkpt>
      <trkpt lat="46.00385" lon="6.32546">
        <ele>2007.4925519785</ele>
        <time>2013-10-06T07:20:58Z</time>
      </trkpt>
      <trkpt lat="46.00381" lon="6.32574">
        <ele>2009</ele>
        <time>2013-10-06T07:21:06Z</time>
      </trkpt>
      <trkpt lat="46.00378" lon="6.32583">
        <ele>2009</ele>
        <time>2013-10-06T07:21:10Z</time>
      </trkpt>
      <trkpt lat="46.0037" lon="6.3259">
        <ele>2009</ele>
        <time>2013-10-06T07:21:15Z</time>
      </trkpt>
      <trkpt lat="46.00361" lon="6.32597">
        <ele>2007.7099968</ele>
        <time>2013-10-06T07:21:18Z</time>
      </trkpt>
      <trkpt lat="46.0035" lon="6.326">
        <ele>2005.7099968</ele>
        <time>2013-10-06T07:21:22Z</time>
      </trkpt>
      <trkpt lat="46.00338" lon="6.32597">
        <ele>2003.76</ele>
        <time>2013-10-06T07:21:26Z</time>
      </trkpt>
      <trkpt lat="46.00333" lon="6.32599">
        <ele>2002.2599936</ele>
        <time>2013-10-06T07:21:29Z</time>
      </trkpt>
      <trkpt lat="46.00331" lon="6.32605">
        <ele>2000.76</ele>
        <time>2013-10-06T07:21:32Z</time>
      </trkpt>
      <trkpt lat="46.00328" lon="6.32619">
        <ele>2000.91600128</ele>
        <time>2013-10-06T07:21:45Z</time>
      </trkpt>
      <trkpt lat="46.00325" lon="6.32633">
        <ele>2005.69600256</ele>
        <time>2013-10-06T07:21:59Z</time>
      </trkpt>
      <trkpt lat="46.00323" lon="6.32641">
        <ele>2006.696</ele>
        <time>2013-10-06T07:22:04Z</time>
      </trkpt>
      <trkpt lat="46.00325" lon="6.32652">
        <ele>2007.53500032</ele>
        <time>2013-10-06T07:22:11Z</time>
      </trkpt>
      <trkpt lat="46.00322" lon="6.32662">
        <ele>2008.096</ele>
        <time>2013-10-06T07:22:16Z</time>
      </trkpt>
      <trkpt lat="46.00317" lon="6.32675">
        <ele>2009.09600256</ele>
        <time>2013-10-06T07:22:21Z</time>
      </trkpt>
      <trkpt lat="46.00313" lon="6.32687">
        <ele>2010</ele>
        <time>2013-10-06T07:22:26Z</time>
      </trkpt>
      <trkpt lat="46.00311" lon="6.32698">
        <ele>2010</ele>
        <time>2013-10-06T07:22:30Z</time>
      </trkpt>
      <trkpt lat="46.00307" lon="6.32707">
        <ele>2009.65199872</ele>
        <time>2013-10-06T07:22:39Z</time>
      </trkpt>
      <trkpt lat="46.00305" lon="6.32722">
        <ele>2006.93599488</ele>
        <time>2013-10-06T07:22:48Z</time>
      </trkpt>
      <trkpt lat="46.00305" lon="6.32731">
        <ele>2004.52799744</ele>
        <time>2013-10-06T07:22:51Z</time>
      </trkpt>
      <trkpt lat="46.00302" lon="6.32753">
        <ele>1999.7099968</ele>
        <time>2013-10-06T07:22:58Z</time>
      </trkpt>
      <trkpt lat="46.00301" lon="6.32763">
        <ele>1997.7099968</ele>
        <time>2013-10-06T07:23:02Z</time>
      </trkpt>
      <trkpt lat="46.00299" lon="6.32773">
        <ele>1995.76</ele>
        <time>2013-10-06T07:23:06Z</time>
      </trkpt>
      <trkpt lat="46.00298" lon="6.32783">
        <ele>1994.2599936</ele>
        <time>2013-10-06T07:23:09Z</time>
      </trkpt>
      <trkpt lat="46.00299" lon="6.32794">
        <ele>1992.2599936</ele>
        <time>2013-10-06T07:23:13Z</time>
      </trkpt>
      <trkpt lat="46.00294" lon="6.32802">
        <ele>1991</ele>
        <time>2013-10-06T07:23:25Z</time>
      </trkpt>
      <trkpt lat="46.00296" lon="6.32812">
        <ele>1986.7749952</ele>
        <time>2013-10-06T07:23:40Z</time>
      </trkpt>
      <trkpt lat="46.00296" lon="6.32822">
        <ele>1983.7709749851</ele>
        <time>2013-10-06T07:23:46Z</time>
      </trkpt>
      <trkpt lat="46.00291" lon="6.32834">
        <ele>1978.3333385208</ele>
        <time>2013-10-06T07:23:58Z</time>
      </trkpt>
      <trkpt lat="46.0029" lon="6.32844">
        <ele>1974.7872267029</ele>
        <time>2013-10-06T07:24:03Z</time>
      </trkpt>
      <trkpt lat="46.00293" lon="6.32855">
        <ele>1973.05800064</ele>
        <time>2013-10-06T07:24:06Z</time>
      </trkpt>
      <trkpt lat="46.00294" lon="6.32863">
        <ele>1973.35800064</ele>
        <time>2013-10-06T07:24:09Z</time>
      </trkpt>
      <trkpt lat="46.00293" lon="6.32871">
        <ele>1973.95800064</ele>
        <time>2013-10-06T07:24:15Z</time>
      </trkpt>
      <trkpt lat="46.00294" lon="6.32879">
        <ele>1976.63200256</ele>
        <time>2013-10-06T07:24:22Z</time>
      </trkpt>
      <trkpt lat="46.00293" lon="6.32899">
        <ele>1980.096</ele>
        <time>2013-10-06T07:24:36Z</time>
      </trkpt>
      <trkpt lat="46.00291" lon="6.3291">
        <ele>1981.67600128</ele>
        <time>2013-10-06T07:24:44Z</time>
      </trkpt>
      <trkpt lat="46.00289" lon="6.3292">
        <ele>1983.792</ele>
        <time>2013-10-06T07:24:50Z</time>
      </trkpt>
      <trkpt lat="46.00288" lon="6.32931">
        <ele>1986.95600128</ele>
        <time>2013-10-06T07:24:58Z</time>
      </trkpt>
      <trkpt lat="46.00288" lon="6.32941">
        <ele>1989.35600128</ele>
        <time>2013-10-06T07:25:04Z</time>
      </trkpt>
      <trkpt lat="46.00293" lon="6.32956">
        <ele>1993.0129866808</ele>
        <time>2013-10-06T07:25:13Z</time>
      </trkpt>
      <trkpt lat="46.00295" lon="6.32966">
        <ele>1994.9149151535</ele>
        <time>2013-10-06T07:25:20Z</time>
      </trkpt>
      <trkpt lat="46.00296" lon="6.32974">
        <ele>1995.9159171164</ele>
        <time>2013-10-06T07:25:25Z</time>
      </trkpt>
      <trkpt lat="46.00296" lon="6.32984">
        <ele>1996.45800064</ele>
        <time>2013-10-06T07:25:30Z</time>
      </trkpt>
      <trkpt lat="46.00295" lon="6.32995">
        <ele>1997</ele>
        <time>2013-10-06T07:25:36Z</time>
      </trkpt>
      <trkpt lat="46.00294" lon="6.33005">
        <ele>1997</ele>
        <time>2013-10-06T07:25:41Z</time>
      </trkpt>
      <trkpt lat="46.00293" lon="6.33015">
        <ele>1997.11600128</ele>
        <time>2013-10-06T07:25:46Z</time>
      </trkpt>
      <trkpt lat="46.00293" lon="6.33023">
        <ele>1997.95800064</ele>
        <time>2013-10-06T07:25:50Z</time>
      </trkpt>
      <trkpt lat="46.00293" lon="6.33035">
        <ele>1998.91600128</ele>
        <time>2013-10-06T07:25:55Z</time>
      </trkpt>
      <trkpt lat="46.00293" lon="6.33044">
        <ele>1999.23500032</ele>
        <time>2013-10-06T07:25:58Z</time>
      </trkpt>
      <trkpt lat="46.00293" lon="6.33054">
        <ele>1999.53500032</ele>
        <time>2013-10-06T07:26:01Z</time>
      </trkpt>
      <trkpt lat="46.00292" lon="6.33063">
        <ele>1999.83500032</ele>
        <time>2013-10-06T07:26:04Z</time>
      </trkpt>
      <trkpt lat="46.00291" lon="6.33076">
        <ele>2000.496</ele>
        <time>2013-10-06T07:26:08Z</time>
      </trkpt>
      <trkpt lat="46.00288" lon="6.33088">
        <ele>2001.296</ele>
        <time>2013-10-06T07:26:12Z</time>
      </trkpt>
      <trkpt lat="46.00286" lon="6.331">
        <ele>2002.11600128</ele>
        <time>2013-10-06T07:26:16Z</time>
      </trkpt>
      <trkpt lat="46.00285" lon="6.33111">
        <ele>2002.91600128</ele>
        <time>2013-10-06T07:26:20Z</time>
      </trkpt>
      <trkpt lat="46.00284" lon="6.33121">
        <ele>2003.51600128</ele>
        <time>2013-10-06T07:26:23Z</time>
      </trkpt>
      <trkpt lat="46.00282" lon="6.3313">
        <ele>2003.88399872</ele>
        <time>2013-10-06T07:26:26Z</time>
      </trkpt>
      <trkpt lat="46.00283" lon="6.33139">
        <ele>2002.88399872</ele>
        <time>2013-10-06T07:26:31Z</time>
      </trkpt>
      <trkpt lat="46.00279" lon="6.33165">
        <ele>2002</ele>
        <time>2013-10-06T07:26:45Z</time>
      </trkpt>
      <trkpt lat="46.00283" lon="6.33176">
        <ele>2000.9122081894</ele>
        <time>2013-10-06T07:26:51Z</time>
      </trkpt>
      <trkpt lat="46.00286" lon="6.33184">
        <ele>1999.74199808</ele>
        <time>2013-10-06T07:26:57Z</time>
      </trkpt>
      <trkpt lat="46.00287" lon="6.33194">
        <ele>1998.34199808</ele>
        <time>2013-10-06T07:27:04Z</time>
      </trkpt>
      <trkpt lat="46.0029" lon="6.33201">
        <ele>1997.25199872</ele>
        <time>2013-10-06T07:27:13Z</time>
      </trkpt>
      <trkpt lat="46.00284" lon="6.33204">
        <ele>1994.80799488</ele>
        <time>2013-10-06T07:27:21Z</time>
      </trkpt>
      <trkpt lat="46.00287" lon="6.33212">
        <ele>1992.45199872</ele>
        <time>2013-10-06T07:27:31Z</time>
      </trkpt>
      <trkpt lat="46.00288" lon="6.33221">
        <ele>1991.70399744</ele>
        <time>2013-10-06T07:27:37Z</time>
      </trkpt>
      <trkpt lat="46.0029" lon="6.33231">
        <ele>1989.68399872</ele>
        <time>2013-10-06T07:27:47Z</time>
      </trkpt>
      <trkpt lat="46.00294" lon="6.33236">
        <ele>1987.76</ele>
        <time>2013-10-06T07:27:56Z</time>
      </trkpt>
      <trkpt lat="46.00299" lon="6.33241">
        <ele>1985.2599936</ele>
        <time>2013-10-06T07:28:01Z</time>
      </trkpt>
      <trkpt lat="46.00302" lon="6.3325">
        <ele>1983.3099968</ele>
        <time>2013-10-06T07:28:05Z</time>
      </trkpt>
      <trkpt lat="46.00305" lon="6.33259">
        <ele>1981.95599616</ele>
        <time>2013-10-06T07:28:09Z</time>
      </trkpt>
      <trkpt lat="46.00309" lon="6.3327">
        <ele>1980</ele>
        <time>2013-10-06T07:28:19Z</time>
      </trkpt>
      <trkpt lat="46.00303" lon="6.33283">
        <ele>1979.73399808</ele>
        <time>2013-10-06T07:28:27Z</time>
      </trkpt>
      <trkpt lat="46.00304" lon="6.33293">
        <ele>1978.51399936</ele>
        <time>2013-10-06T07:28:33Z</time>
      </trkpt>
      <trkpt lat="46.00305" lon="6.33304">
        <ele>1977.54199936</ele>
        <time>2013-10-06T07:28:40Z</time>
      </trkpt>
      <trkpt lat="46.00308" lon="6.33314">
        <ele>1977.14199936</ele>
        <time>2013-10-06T07:28:44Z</time>
      </trkpt>
      <trkpt lat="46.00311" lon="6.33325">
        <ele>1976.752</ele>
        <time>2013-10-06T07:28:48Z</time>
      </trkpt>
      <trkpt lat="46.00313" lon="6.33346">
        <ele>1977.39600384</ele>
        <time>2013-10-06T07:28:59Z</time>
      </trkpt>
      <trkpt lat="46.00311" lon="6.33356">
        <ele>1979.79200512</ele>
        <time>2013-10-06T07:29:05Z</time>
      </trkpt>
      <trkpt lat="46.00307" lon="6.33366">
        <ele>1980</ele>
        <time>2013-10-06T07:29:11Z</time>
      </trkpt>
      <trkpt lat="46.00307" lon="6.33377">
        <ele>1981.74000128</ele>
        <time>2013-10-06T07:29:20Z</time>
      </trkpt>
      <trkpt lat="46.00308" lon="6.33386">
        <ele>1984.0773048224</ele>
        <time>2013-10-06T07:29:26Z</time>
      </trkpt>
      <trkpt lat="46.00307" lon="6.33394">
        <ele>1985.092170061</ele>
        <time>2013-10-06T07:29:31Z</time>
      </trkpt>
      <trkpt lat="46.00306" lon="6.33411">
        <ele>1986.5438959053</ele>
        <time>2013-10-06T07:29:41Z</time>
      </trkpt>
      <trkpt lat="46.00303" lon="6.33421">
        <ele>1987.31600128</ele>
        <time>2013-10-06T07:29:47Z</time>
      </trkpt>
      <trkpt lat="46.00302" lon="6.33431">
        <ele>1988.51600128</ele>
        <time>2013-10-06T07:29:53Z</time>
      </trkpt>
      <trkpt lat="46.00302" lon="6.33441">
        <ele>1989.49000192</ele>
        <time>2013-10-06T07:29:58Z</time>
      </trkpt>
      <trkpt lat="46.00302" lon="6.33451">
        <ele>1990.69000192</ele>
        <time>2013-10-06T07:30:04Z</time>
      </trkpt>
      <trkpt lat="46.00306" lon="6.33459">
        <ele>1991</ele>
        <time>2013-10-06T07:30:11Z</time>
      </trkpt>
      <trkpt lat="46.00307" lon="6.33468">
        <ele>1990.95499904</ele>
        <time>2013-10-06T07:30:16Z</time>
      </trkpt>
      <trkpt lat="46.00308" lon="6.33478">
        <ele>1990.45499904</ele>
        <time>2013-10-06T07:30:21Z</time>
      </trkpt>
      <trkpt lat="46.0031" lon="6.33488">
        <ele>1989.94199936</ele>
        <time>2013-10-06T07:30:26Z</time>
      </trkpt>
      <trkpt lat="46.00311" lon="6.33497">
        <ele>1989.24199936</ele>
        <time>2013-10-06T07:30:33Z</time>
      </trkpt>
      <trkpt lat="46.00311" lon="6.33503">
        <ele>1987.72399872</ele>
        <time>2013-10-06T07:30:47Z</time>
      </trkpt>
      <trkpt lat="46.0031" lon="6.3351">
        <ele>1985</ele>
        <time>2013-10-06T07:31:08Z</time>
      </trkpt>
      <trkpt lat="46.00311" lon="6.33518">
        <ele>1981.16199936</ele>
        <time>2013-10-06T07:31:44Z</time>
      </trkpt>
      <trkpt lat="46.00317" lon="6.33537">
        <ele>1973.70399744</ele>
        <time>2013-10-06T07:32:07Z</time>
      </trkpt>
      <trkpt lat="46.00318" lon="6.33542">
        <ele>1972.704</ele>
        <time>2013-10-06T07:32:12Z</time>
      </trkpt>
      <trkpt lat="46.00315" lon="6.33555">
        <ele>1969.5176604006</ele>
        <time>2013-10-06T07:32:28Z</time>
      </trkpt>
      <trkpt lat="46.00306" lon="6.33554">
        <ele>1966.56799744</ele>
        <time>2013-10-06T07:32:39Z</time>
      </trkpt>
      <trkpt lat="46.00308" lon="6.33567">
        <ele>1959</ele>
        <time>2013-10-06T07:33:07Z</time>
      </trkpt>
      <trkpt lat="46.00316" lon="6.33577">
        <ele>1958</ele>
        <time>2013-10-06T07:33:32Z</time>
      </trkpt>
      <trkpt lat="46.00323" lon="6.33576">
        <ele>1958.87600128</ele>
        <time>2013-10-06T07:33:40Z</time>
      </trkpt>
      <trkpt lat="46.00329" lon="6.33574">
        <ele>1961.41000192</ele>
        <time>2013-10-06T07:33:48Z</time>
      </trkpt>
      <trkpt lat="46.00335" lon="6.33576">
        <ele>1966</ele>
        <time>2013-10-06T07:34:00Z</time>
      </trkpt>
      <trkpt lat="46.00341" lon="6.33582">
        <ele>1965.86499968</ele>
        <time>2013-10-06T07:34:07Z</time>
      </trkpt>
      <trkpt lat="46.00342" lon="6.33592">
        <ele>1965.36499968</ele>
        <time>2013-10-06T07:34:12Z</time>
      </trkpt>
      <trkpt lat="46.00339" lon="6.33602">
        <ele>1964.76</ele>
        <time>2013-10-06T07:34:16Z</time>
      </trkpt>
      <trkpt lat="46.00343" lon="6.33619">
        <ele>1960</ele>
        <time>2013-10-06T07:34:27Z</time>
      </trkpt>
      <trkpt lat="46.00347" lon="6.33624">
        <ele>1960</ele>
        <time>2013-10-06T07:34:33Z</time>
      </trkpt>
      <trkpt lat="46.00351" lon="6.33632">
        <ele>1959.5145421912</ele>
        <time>2013-10-06T07:34:38Z</time>
      </trkpt>
      <trkpt lat="46.00356" lon="6.33637">
        <ele>1958.5115328422</ele>
        <time>2013-10-06T07:34:43Z</time>
      </trkpt>
      <trkpt lat="46.00361" lon="6.33644">
        <ele>1957.70999808</ele>
        <time>2013-10-06T07:34:47Z</time>
      </trkpt>
      <trkpt lat="46.00365" lon="6.33652">
        <ele>1956.90999808</ele>
        <time>2013-10-06T07:34:51Z</time>
      </trkpt>
      <trkpt lat="46.00368" lon="6.33658">
        <ele>1955.50999808</ele>
        <time>2013-10-06T07:34:58Z</time>
      </trkpt>
      <trkpt lat="46.00367" lon="6.33668">
        <ele>1953.68399872</ele>
        <time>2013-10-06T07:35:27Z</time>
      </trkpt>
      <trkpt lat="46.00369" lon="6.33676">
        <ele>1951.46199936</ele>
        <time>2013-10-06T07:35:41Z</time>
      </trkpt>
      <trkpt lat="46.00373" lon="6.33677">
        <ele>1948.45999872</ele>
        <time>2013-10-06T07:35:52Z</time>
      </trkpt>
      <trkpt lat="46.00372" lon="6.33681">
        <ele>1946.52599808</ele>
        <time>2013-10-06T07:35:57Z</time>
      </trkpt>
      <trkpt lat="46.00374" lon="6.33685">
        <ele>1945.02599808</ele>
        <time>2013-10-06T07:36:02Z</time>
      </trkpt>
      <trkpt lat="46.00374" lon="6.33697">
        <ele>1943.14199936</ele>
        <time>2013-10-06T07:36:14Z</time>
      </trkpt>
      <trkpt lat="46.00366" lon="6.33699">
        <ele>1939.2099968</ele>
        <time>2013-10-06T07:36:23Z</time>
      </trkpt>
      <trkpt lat="46.00365" lon="6.33712">
        <ele>1936.07699712</ele>
        <time>2013-10-06T07:36:32Z</time>
      </trkpt>
      <trkpt lat="46.00362" lon="6.3372">
        <ele>1934.01999616</ele>
        <time>2013-10-06T07:36:38Z</time>
      </trkpt>
      <trkpt lat="46.0036" lon="6.33729">
        <ele>1930.55599616</ele>
        <time>2013-10-06T07:36:47Z</time>
      </trkpt>
      <trkpt lat="46.00359" lon="6.33739">
        <ele>1926</ele>
        <time>2013-10-06T07:37:07Z</time>
      </trkpt>
      <trkpt lat="46.00352" lon="6.33743">
        <ele>1924.512</ele>
        <time>2013-10-06T07:37:18Z</time>
      </trkpt>
      <trkpt lat="46.00348" lon="6.33751">
        <ele>1917.45199872</ele>
        <time>2013-10-06T07:37:41Z</time>
      </trkpt>
      <trkpt lat="46.00339" lon="6.33752">
        <ele>1911.51799808</ele>
        <time>2013-10-06T07:38:23Z</time>
      </trkpt>
      <trkpt lat="46.00332" lon="6.3375">
        <ele>1907.56799744</ele>
        <time>2013-10-06T07:38:39Z</time>
      </trkpt>
      <trkpt lat="46.00329" lon="6.3376">
        <ele>1898.05199872</ele>
        <time>2013-10-06T07:39:15Z</time>
      </trkpt>
      <trkpt lat="46.0033" lon="6.33772">
        <ele>1895.32999936</ele>
        <time>2013-10-06T07:39:39Z</time>
      </trkpt>
      <trkpt lat="46.00334" lon="6.33785">
        <ele>1890.7799936</ele>
        <time>2013-10-06T07:39:52Z</time>
      </trkpt>
      <trkpt lat="46.0034" lon="6.338">
        <ele>1885.71799808</ele>
        <time>2013-10-06T07:40:32Z</time>
      </trkpt>
      <trkpt lat="46.00338" lon="6.33828">
        <ele>1872.41999616</ele>
        <time>2013-10-06T07:41:27Z</time>
      </trkpt>
      <trkpt lat="46.0034" lon="6.33842">
        <ele>1866.456</ele>
        <time>2013-10-06T07:41:44Z</time>
      </trkpt>
      <trkpt lat="46.00342" lon="6.33857">
        <ele>1865.24199936</ele>
        <time>2013-10-06T07:41:53Z</time>
      </trkpt>
      <trkpt lat="46.00343" lon="6.33871">
        <ele>1859.73599488</ele>
        <time>2013-10-06T07:42:02Z</time>
      </trkpt>
      <trkpt lat="46.00343" lon="6.33887">
        <ele>1857.74800128</ele>
        <time>2013-10-06T07:42:13Z</time>
      </trkpt>
      <trkpt lat="46.00345" lon="6.33901">
        <ele>1854.5499904</ele>
        <time>2013-10-06T07:42:19Z</time>
      </trkpt>
      <trkpt lat="46.00347" lon="6.33916">
        <ele>1848.5499904</ele>
        <time>2013-10-06T07:42:25Z</time>
      </trkpt>
      <trkpt lat="46.0034" lon="6.33929">
        <ele>1841.93599488</ele>
        <time>2013-10-06T07:42:33Z</time>
      </trkpt>
      <trkpt lat="46.0033" lon="6.33933">
        <ele>1837.7099968</ele>
        <time>2013-10-06T07:42:40Z</time>
      </trkpt>
      <trkpt lat="46.0032" lon="6.33933">
        <ele>1834.2749952</ele>
        <time>2013-10-06T07:42:47Z</time>
      </trkpt>
      <trkpt lat="46.00322" lon="6.33947">
        <ele>1830.3249984</ele>
        <time>2013-10-06T07:42:55Z</time>
      </trkpt>
      <trkpt lat="46.00325" lon="6.33962">
        <ele>1828.656</ele>
        <time>2013-10-06T07:43:00Z</time>
      </trkpt>
      <trkpt lat="46.00328" lon="6.33977">
        <ele>1826.2599936</ele>
        <time>2013-10-06T07:43:07Z</time>
      </trkpt>
      <trkpt lat="46.00329" lon="6.33992">
        <ele>1822.2599936</ele>
        <time>2013-10-06T07:43:15Z</time>
      </trkpt>
      <trkpt lat="46.00331" lon="6.34007">
        <ele>1817.3249984</ele>
        <time>2013-10-06T07:43:25Z</time>
      </trkpt>
      <trkpt lat="46.00331" lon="6.34022">
        <ele>1811.5252739502</ele>
        <time>2013-10-06T07:43:38Z</time>
      </trkpt>
      <trkpt lat="46.00334" lon="6.34036">
        <ele>1806.7951584696</ele>
        <time>2013-10-06T07:43:46Z</time>
      </trkpt>
      <trkpt lat="46.00339" lon="6.34051">
        <ele>1802.5570110744</ele>
        <time>2013-10-06T07:43:52Z</time>
      </trkpt>
      <trkpt lat="46.00345" lon="6.34064">
        <ele>1799.2099968</ele>
        <time>2013-10-06T07:43:57Z</time>
      </trkpt>
      <trkpt lat="46.00347" lon="6.34091">
        <ele>1792.97199616</ele>
        <time>2013-10-06T07:44:09Z</time>
      </trkpt>
      <trkpt lat="46.00347" lon="6.34102">
        <ele>1788.32</ele>
        <time>2013-10-06T07:44:17Z</time>
      </trkpt>
      <trkpt lat="46.00347" lon="6.34117">
        <ele>1782.7749952</ele>
        <time>2013-10-06T07:44:28Z</time>
      </trkpt>
      <trkpt lat="46.00347" lon="6.34134">
        <ele>1778.65199616</ele>
        <time>2013-10-06T07:44:36Z</time>
      </trkpt>
      <trkpt lat="46.00342" lon="6.34163">
        <ele>1771.16799744</ele>
        <time>2013-10-06T07:44:50Z</time>
      </trkpt>
      <trkpt lat="46.00337" lon="6.34175">
        <ele>1767.2599936</ele>
        <time>2013-10-06T07:44:59Z</time>
      </trkpt>
      <trkpt lat="46.00331" lon="6.34186">
        <ele>1763.48399872</ele>
        <time>2013-10-06T07:45:08Z</time>
      </trkpt>
      <trkpt lat="46.00327" lon="6.34198">
        <ele>1761.008</ele>
        <time>2013-10-06T07:45:18Z</time>
      </trkpt>
      <trkpt lat="46.00323" lon="6.34212">
        <ele>1758.20799488</ele>
        <time>2013-10-06T07:45:25Z</time>
      </trkpt>
      <trkpt lat="46.00317" lon="6.34224">
        <ele>1757.3046934141</ele>
        <time>2013-10-06T07:45:29Z</time>
      </trkpt>
      <trkpt lat="46.00313" lon="6.34238">
        <ele>1754.9709712634</ele>
        <time>2013-10-06T07:45:38Z</time>
      </trkpt>
      <trkpt lat="46.00311" lon="6.34254">
        <ele>1751.40799488</ele>
        <time>2013-10-06T07:45:47Z</time>
      </trkpt>
      <trkpt lat="46.00301" lon="6.34259">
        <ele>1749.00799488</ele>
        <time>2013-10-06T07:45:53Z</time>
      </trkpt>
      <trkpt lat="46.00293" lon="6.34268">
        <ele>1747.44199936</ele>
        <time>2013-10-06T07:46:01Z</time>
      </trkpt>
      <trkpt lat="46.00292" lon="6.34282">
        <ele>1747.648</ele>
        <time>2013-10-06T07:46:12Z</time>
      </trkpt>
      <trkpt lat="46.0029" lon="6.34296">
        <ele>1747.30399744</ele>
        <time>2013-10-06T07:46:19Z</time>
      </trkpt>
      <trkpt lat="46.00292" lon="6.34308">
        <ele>1746.10399744</ele>
        <time>2013-10-06T07:46:25Z</time>
      </trkpt>
      <trkpt lat="46.00291" lon="6.34324">
        <ele>1744.8917567772</ele>
        <time>2013-10-06T07:46:31Z</time>
      </trkpt>
      <trkpt lat="46.00291" lon="6.3434">
        <ele>1744.0412887142</ele>
        <time>2013-10-06T07:46:36Z</time>
      </trkpt>
      <trkpt lat="46.00283" lon="6.34366">
        <ele>1744.2949952</ele>
        <time>2013-10-06T07:46:57Z</time>
      </trkpt>
      <trkpt lat="46.0028" lon="6.34381">
        <ele>1741.2949952</ele>
        <time>2013-10-06T07:47:03Z</time>
      </trkpt>
      <trkpt lat="46.00272" lon="6.34393">
        <ele>1739.85499904</ele>
        <time>2013-10-06T07:47:07Z</time>
      </trkpt>
      <trkpt lat="46.00263" lon="6.34402">
        <ele>1739.55499904</ele>
        <time>2013-10-06T07:47:10Z</time>
      </trkpt>
      <trkpt lat="46.00251" lon="6.34411">
        <ele>1739.15499904</ele>
        <time>2013-10-06T07:47:14Z</time>
      </trkpt>
      <trkpt lat="46.00239" lon="6.34416">
        <ele>1738.85499904</ele>
        <time>2013-10-06T07:47:17Z</time>
      </trkpt>
      <trkpt lat="46.00229" lon="6.34419">
        <ele>1738.55499904</ele>
        <time>2013-10-06T07:47:20Z</time>
      </trkpt>
      <trkpt lat="46.00218" lon="6.34422">
        <ele>1738.15499904</ele>
        <time>2013-10-06T07:47:24Z</time>
      </trkpt>
      <trkpt lat="46.00208" lon="6.34423">
        <ele>1738</ele>
        <time>2013-10-06T07:47:29Z</time>
      </trkpt>
      <trkpt lat="46.00198" lon="6.34424">
        <ele>1738</ele>
        <time>2013-10-06T07:47:34Z</time>
      </trkpt>
      <trkpt lat="46.00177" lon="6.34416">
        <ele>1737.36299904</ele>
        <time>2013-10-06T07:47:42Z</time>
      </trkpt>
      <trkpt lat="46.00166" lon="6.34414">
        <ele>1735.95699328</ele>
        <time>2013-10-06T07:47:47Z</time>
      </trkpt>
      <trkpt lat="46.00156" lon="6.34416">
        <ele>1733.15699328</ele>
        <time>2013-10-06T07:47:51Z</time>
      </trkpt>
      <trkpt lat="46.00145" lon="6.34422">
        <ele>1731.05699328</ele>
        <time>2013-10-06T07:47:54Z</time>
      </trkpt>
      <trkpt lat="46.00135" lon="6.34432">
        <ele>1726.05199616</ele>
        <time>2013-10-06T07:48:02Z</time>
      </trkpt>
      <trkpt lat="46.00126" lon="6.34439">
        <ele>1724.25199616</ele>
        <time>2013-10-06T07:48:05Z</time>
      </trkpt>
      <trkpt lat="46.00116" lon="6.34445">
        <ele>1722.92599808</ele>
        <time>2013-10-06T07:48:09Z</time>
      </trkpt>
      <trkpt lat="46.00106" lon="6.34452">
        <ele>1721.42599808</ele>
        <time>2013-10-06T07:48:14Z</time>
      </trkpt>
      <trkpt lat="46.00097" lon="6.34459">
        <ele>1719.76</ele>
        <time>2013-10-06T07:48:18Z</time>
      </trkpt>
      <trkpt lat="46.00076" lon="6.3447">
        <ele>1715.8049984</ele>
        <time>2013-10-06T07:48:26Z</time>
      </trkpt>
      <trkpt lat="46.00065" lon="6.34476">
        <ele>1713.8049984</ele>
        <time>2013-10-06T07:48:30Z</time>
      </trkpt>
      <trkpt lat="46.00053" lon="6.34479">
        <ele>1711.3049984</ele>
        <time>2013-10-06T07:48:35Z</time>
      </trkpt>
      <trkpt lat="46.00042" lon="6.3448">
        <ele>1711</ele>
        <time>2013-10-06T07:48:39Z</time>
      </trkpt>
      <trkpt lat="46.00034" lon="6.34488">
        <ele>1711</ele>
        <time>2013-10-06T07:48:46Z</time>
      </trkpt>
      <trkpt lat="46.00043" lon="6.34495">
        <ele>1711.648</ele>
        <time>2013-10-06T07:50:02Z</time>
      </trkpt>
      <trkpt lat="46.0005" lon="6.34506">
        <ele>1712</ele>
        <time>2013-10-06T07:50:10Z</time>
      </trkpt>
      <trkpt lat="46.00058" lon="6.34515">
        <ele>1710.04199936</ele>
        <time>2013-10-06T07:50:35Z</time>
      </trkpt>
      <trkpt lat="46.00067" lon="6.34519">
        <ele>1709.95499904</ele>
        <time>2013-10-06T07:50:46Z</time>
      </trkpt>
      <trkpt lat="46.00076" lon="6.34523">
        <ele>1708.904</ele>
        <time>2013-10-06T07:50:56Z</time>
      </trkpt>
      <trkpt lat="46.00085" lon="6.34525">
        <ele>1707</ele>
        <time>2013-10-06T07:51:06Z</time>
      </trkpt>
      <trkpt lat="46.00095" lon="6.34529">
        <ele>1706.96200064</ele>
        <time>2013-10-06T07:51:16Z</time>
      </trkpt>
      <trkpt lat="46.00105" lon="6.34534">
        <ele>1706.26199936</ele>
        <time>2013-10-06T07:51:23Z</time>
      </trkpt>
      <trkpt lat="46.00116" lon="6.34535">
        <ele>1706</ele>
        <time>2013-10-06T07:51:28Z</time>
      </trkpt>
      <trkpt lat="46.00128" lon="6.34535">
        <ele>1706</ele>
        <time>2013-10-06T07:51:35Z</time>
      </trkpt>
      <trkpt lat="46.00137" lon="6.34536">
        <ele>1705.5524479817</ele>
        <time>2013-10-06T07:51:40Z</time>
      </trkpt>
      <trkpt lat="46.00158" lon="6.34539">
        <ele>1705</ele>
        <time>2013-10-06T07:51:49Z</time>
      </trkpt>
      <trkpt lat="46.00164" lon="6.34548">
        <ele>1705</ele>
        <time>2013-10-06T07:51:53Z</time>
      </trkpt>
      <trkpt lat="46.00167" lon="6.34561">
        <ele>1704.85199872</ele>
        <time>2013-10-06T07:51:57Z</time>
      </trkpt>
      <trkpt lat="46.00176" lon="6.34581">
        <ele>1704.24199936</ele>
        <time>2013-10-06T07:52:03Z</time>
      </trkpt>
      <trkpt lat="46.00183" lon="6.34586">
        <ele>1704</ele>
        <time>2013-10-06T07:52:06Z</time>
      </trkpt>
      <trkpt lat="46.00194" lon="6.34584">
        <ele>1704</ele>
        <time>2013-10-06T07:52:10Z</time>
      </trkpt>
      <trkpt lat="46.00204" lon="6.34577">
        <ele>1704</ele>
        <time>2013-10-06T07:52:14Z</time>
      </trkpt>
      <trkpt lat="46.00215" lon="6.34577">
        <ele>1702.6720484411</ele>
        <time>2013-10-06T07:52:19Z</time>
      </trkpt>
      <trkpt lat="46.00226" lon="6.34574">
        <ele>1700.6538830149</ele>
        <time>2013-10-06T07:52:24Z</time>
      </trkpt>
      <trkpt lat="46.00232" lon="6.34571">
        <ele>1698.7099968</ele>
        <time>2013-10-06T07:52:28Z</time>
      </trkpt>
      <trkpt lat="46.00241" lon="6.34564">
        <ele>1696.7099968</ele>
        <time>2013-10-06T07:52:32Z</time>
      </trkpt>
      <trkpt lat="46.00248" lon="6.34556">
        <ele>1694.856</ele>
        <time>2013-10-06T07:52:36Z</time>
      </trkpt>
      <trkpt lat="46.00256" lon="6.34542">
        <ele>1693.35599616</ele>
        <time>2013-10-06T07:52:41Z</time>
      </trkpt>
      <trkpt lat="46.00266" lon="6.34536">
        <ele>1692.15599616</ele>
        <time>2013-10-06T07:52:45Z</time>
      </trkpt>
      <trkpt lat="46.00277" lon="6.3453">
        <ele>1691.64199936</ele>
        <time>2013-10-06T07:52:49Z</time>
      </trkpt>
      <trkpt lat="46.00289" lon="6.34531">
        <ele>1691.04199936</ele>
        <time>2013-10-06T07:52:55Z</time>
      </trkpt>
      <trkpt lat="46.00299" lon="6.34531">
        <ele>1688.456</ele>
        <time>2013-10-06T07:53:04Z</time>
      </trkpt>
      <trkpt lat="46.00306" lon="6.34534">
        <ele>1688</ele>
        <time>2013-10-06T07:53:07Z</time>
      </trkpt>
      <trkpt lat="46.00313" lon="6.34538">
        <ele>1688</ele>
        <time>2013-10-06T07:53:10Z</time>
      </trkpt>
      <trkpt lat="46.00323" lon="6.34542">
        <ele>1688</ele>
        <time>2013-10-06T07:53:15Z</time>
      </trkpt>
      <trkpt lat="46.00331" lon="6.34551">
        <ele>1689.296</ele>
        <time>2013-10-06T07:53:22Z</time>
      </trkpt>
      <trkpt lat="46.0034" lon="6.34561">
        <ele>1690</ele>
        <time>2013-10-06T07:53:27Z</time>
      </trkpt>
      <trkpt lat="46.00352" lon="6.34579">
        <ele>1689.84199936</ele>
        <time>2013-10-06T07:53:37Z</time>
      </trkpt>
      <trkpt lat="46.00362" lon="6.34585">
        <ele>1689.34199936</ele>
        <time>2013-10-06T07:53:42Z</time>
      </trkpt>
      <trkpt lat="46.00381" lon="6.34595">
        <ele>1689</ele>
        <time>2013-10-06T07:53:53Z</time>
      </trkpt>
      <trkpt lat="46.00388" lon="6.34602">
        <ele>1690.344</ele>
        <time>2013-10-06T07:54:00Z</time>
      </trkpt>
      <trkpt lat="46.00395" lon="6.34612">
        <ele>1692</ele>
        <time>2013-10-06T07:54:06Z</time>
      </trkpt>
      <trkpt lat="46.00405" lon="6.34616">
        <ele>1692</ele>
        <time>2013-10-06T07:54:11Z</time>
      </trkpt>
      <trkpt lat="46.00415" lon="6.34618">
        <ele>1692</ele>
        <time>2013-10-06T07:54:15Z</time>
      </trkpt>
      <trkpt lat="46.00427" lon="6.34622">
        <ele>1691.552</ele>
        <time>2013-10-06T07:54:20Z</time>
      </trkpt>
      <trkpt lat="46.00437" lon="6.34625">
        <ele>1691.152</ele>
        <time>2013-10-06T07:54:24Z</time>
      </trkpt>
      <trkpt lat="46.00448" lon="6.3463">
        <ele>1691</ele>
        <time>2013-10-06T07:54:28Z</time>
      </trkpt>
      <trkpt lat="46.00456" lon="6.34633">
        <ele>1691</ele>
        <time>2013-10-06T07:54:31Z</time>
      </trkpt>
      <trkpt lat="46.00465" lon="6.34637">
        <ele>1691</ele>
        <time>2013-10-06T07:54:34Z</time>
      </trkpt>
      <trkpt lat="46.00474" lon="6.34642">
        <ele>1690.84199936</ele>
        <time>2013-10-06T07:54:37Z</time>
      </trkpt>
      <trkpt lat="46.00481" lon="6.34655">
        <ele>1690.54199936</ele>
        <time>2013-10-06T07:54:40Z</time>
      </trkpt>
      <trkpt lat="46.00484" lon="6.34667">
        <ele>1690.24199936</ele>
        <time>2013-10-06T07:54:43Z</time>
      </trkpt>
      <trkpt lat="46.0049" lon="6.34678">
        <ele>1689.68399872</ele>
        <time>2013-10-06T07:54:47Z</time>
      </trkpt>
      <trkpt lat="46.00499" lon="6.34683">
        <ele>1688.88399872</ele>
        <time>2013-10-06T07:54:51Z</time>
      </trkpt>
      <trkpt lat="46.00506" lon="6.34688">
        <ele>1688.28399872</ele>
        <time>2013-10-06T07:54:54Z</time>
      </trkpt>
      <trkpt lat="46.00513" lon="6.34693">
        <ele>1687.7730418809</ele>
        <time>2013-10-06T07:54:58Z</time>
      </trkpt>
      <trkpt lat="46.00523" lon="6.34716">
        <ele>1688.8950579811</ele>
        <time>2013-10-06T07:55:15Z</time>
      </trkpt>
      <trkpt lat="46.00522" lon="6.34727">
        <ele>1691.7900032</ele>
        <time>2013-10-06T07:55:21Z</time>
      </trkpt>
      <trkpt lat="46.0052" lon="6.34744">
        <ele>1693.65899904</ele>
        <time>2013-10-06T07:55:29Z</time>
      </trkpt>
      <trkpt lat="46.00513" lon="6.34757">
        <ele>1693.15899904</ele>
        <time>2013-10-06T07:55:34Z</time>
      </trkpt>
      <trkpt lat="46.00505" lon="6.34766">
        <ele>1692.28399872</ele>
        <time>2013-10-06T07:55:39Z</time>
      </trkpt>
      <trkpt lat="46.00499" lon="6.34777">
        <ele>1691.08399872</ele>
        <time>2013-10-06T07:55:45Z</time>
      </trkpt>
      <trkpt lat="46.00493" lon="6.34791">
        <ele>1690.54199936</ele>
        <time>2013-10-06T07:55:50Z</time>
      </trkpt>
      <trkpt lat="46.0049" lon="6.34799">
        <ele>1690.24199936</ele>
        <time>2013-10-06T07:55:53Z</time>
      </trkpt>
      <trkpt lat="46.00483" lon="6.34821">
        <ele>1691.31000064</ele>
        <time>2013-10-06T07:56:02Z</time>
      </trkpt>
      <trkpt lat="46.00479" lon="6.34835">
        <ele>1692</ele>
        <time>2013-10-06T07:56:07Z</time>
      </trkpt>
      <trkpt lat="46.00477" lon="6.3485">
        <ele>1692</ele>
        <time>2013-10-06T07:56:12Z</time>
      </trkpt>
      <trkpt lat="46.00474" lon="6.34865">
        <ele>1692</ele>
        <time>2013-10-06T07:56:17Z</time>
      </trkpt>
      <trkpt lat="46.0047" lon="6.3488">
        <ele>1692</ele>
        <time>2013-10-06T07:56:22Z</time>
      </trkpt>
      <trkpt lat="46.00468" lon="6.34894">
        <ele>1691.84199936</ele>
        <time>2013-10-06T07:56:27Z</time>
      </trkpt>
      <trkpt lat="46.00468" lon="6.34908">
        <ele>1691.44199936</ele>
        <time>2013-10-06T07:56:31Z</time>
      </trkpt>
      <trkpt lat="46.00466" lon="6.3492">
        <ele>1691.04199936</ele>
        <time>2013-10-06T07:56:35Z</time>
      </trkpt>
      <trkpt lat="46.00465" lon="6.34933">
        <ele>1691</ele>
        <time>2013-10-06T07:56:39Z</time>
      </trkpt>
      <trkpt lat="46.00465" lon="6.34947">
        <ele>1691</ele>
        <time>2013-10-06T07:56:43Z</time>
      </trkpt>
      <trkpt lat="46.00468" lon="6.34961">
        <ele>1691</ele>
        <time>2013-10-06T07:56:48Z</time>
      </trkpt>
      <trkpt lat="46.00472" lon="6.34986">
        <ele>1691.03500032</ele>
        <time>2013-10-06T07:56:56Z</time>
      </trkpt>
      <trkpt lat="46.00474" lon="6.34998">
        <ele>1691.43500032</ele>
        <time>2013-10-06T07:57:00Z</time>
      </trkpt>
      <trkpt lat="46.00478" lon="6.3501">
        <ele>1691.83500032</ele>
        <time>2013-10-06T07:57:04Z</time>
      </trkpt>
      <trkpt lat="46.00481" lon="6.35022">
        <ele>1692</ele>
        <time>2013-10-06T07:57:08Z</time>
      </trkpt>
      <trkpt lat="46.00484" lon="6.35034">
        <ele>1692</ele>
        <time>2013-10-06T07:57:12Z</time>
      </trkpt>
      <trkpt lat="46.00488" lon="6.35047">
        <ele>1691.952</ele>
        <time>2013-10-06T07:57:16Z</time>
      </trkpt>
      <trkpt lat="46.0049" lon="6.35057">
        <ele>1691.65199872</ele>
        <time>2013-10-06T07:57:19Z</time>
      </trkpt>
      <trkpt lat="46.00491" lon="6.35066">
        <ele>1691.34199936</ele>
        <time>2013-10-06T07:57:22Z</time>
      </trkpt>
      <trkpt lat="46.00492" lon="6.35076">
        <ele>1691.04199936</ele>
        <time>2013-10-06T07:57:25Z</time>
      </trkpt>
      <trkpt lat="46.00494" lon="6.35087">
        <ele>1691.35800064</ele>
        <time>2013-10-06T07:57:29Z</time>
      </trkpt>
      <trkpt lat="46.00495" lon="6.35097">
        <ele>1691.65800064</ele>
        <time>2013-10-06T07:57:32Z</time>
      </trkpt>
      <trkpt lat="46.00495" lon="6.35108">
        <ele>1691.95800064</ele>
        <time>2013-10-06T07:57:35Z</time>
      </trkpt>
      <trkpt lat="46.00495" lon="6.35121">
        <ele>1691.28399872</ele>
        <time>2013-10-06T07:57:39Z</time>
      </trkpt>
      <trkpt lat="46.00496" lon="6.35133">
        <ele>1690.68399872</ele>
        <time>2013-10-06T07:57:42Z</time>
      </trkpt>
      <trkpt lat="46.00506" lon="6.35157">
        <ele>1690.5497541518</ele>
        <time>2013-10-06T07:57:51Z</time>
      </trkpt>
      <trkpt lat="46.00509" lon="6.35168">
        <ele>1690.9438426975</ele>
        <time>2013-10-06T07:57:55Z</time>
      </trkpt>
      <trkpt lat="46.00511" lon="6.3518">
        <ele>1691</ele>
        <time>2013-10-06T07:57:59Z</time>
      </trkpt>
      <trkpt lat="46.00516" lon="6.3519">
        <ele>1691</ele>
        <time>2013-10-06T07:58:03Z</time>
      </trkpt>
      <trkpt lat="46.0052" lon="6.35201">
        <ele>1691.13500032</ele>
        <time>2013-10-06T07:58:07Z</time>
      </trkpt>
      <trkpt lat="46.00527" lon="6.35223">
        <ele>1692</ele>
        <time>2013-10-06T07:58:16Z</time>
      </trkpt>
      <trkpt lat="46.00533" lon="6.35234">
        <ele>1692</ele>
        <time>2013-10-06T07:58:20Z</time>
      </trkpt>
      <trkpt lat="46.00538" lon="6.35243">
        <ele>1692</ele>
        <time>2013-10-06T07:58:24Z</time>
      </trkpt>
      <trkpt lat="46.00543" lon="6.3525">
        <ele>1692.248</ele>
        <time>2013-10-06T07:58:28Z</time>
      </trkpt>
      <trkpt lat="46.00549" lon="6.35257">
        <ele>1692.85800064</ele>
        <time>2013-10-06T07:58:34Z</time>
      </trkpt>
      <trkpt lat="46.00555" lon="6.35267">
        <ele>1693.91600128</ele>
        <time>2013-10-06T07:58:40Z</time>
      </trkpt>
      <trkpt lat="46.00561" lon="6.35279">
        <ele>1695</ele>
        <time>2013-10-06T07:58:46Z</time>
      </trkpt>
      <trkpt lat="46.00569" lon="6.35287">
        <ele>1695</ele>
        <time>2013-10-06T07:58:54Z</time>
      </trkpt>
      <trkpt lat="46.00574" lon="6.35299">
        <ele>1695.42900096</ele>
        <time>2013-10-06T07:59:00Z</time>
      </trkpt>
      <trkpt lat="46.0058" lon="6.35306">
        <ele>1695.82900096</ele>
        <time>2013-10-06T07:59:04Z</time>
      </trkpt>
      <trkpt lat="46.00588" lon="6.35313">
        <ele>1696</ele>
        <time>2013-10-06T07:59:09Z</time>
      </trkpt>
      <trkpt lat="46.00598" lon="6.35319">
        <ele>1696.096</ele>
        <time>2013-10-06T07:59:16Z</time>
      </trkpt>
      <trkpt lat="46.00606" lon="6.35328">
        <ele>1698</ele>
        <time>2013-10-06T07:59:26Z</time>
      </trkpt>
      <trkpt lat="46.00613" lon="6.35338">
        <ele>1698</ele>
        <time>2013-10-06T07:59:32Z</time>
      </trkpt>
      <trkpt lat="46.00622" lon="6.35343">
        <ele>1698.448</ele>
        <time>2013-10-06T07:59:40Z</time>
      </trkpt>
      <trkpt lat="46.00631" lon="6.35353">
        <ele>1699.67000064</ele>
        <time>2013-10-06T07:59:49Z</time>
      </trkpt>
      <trkpt lat="46.00637" lon="6.35356">
        <ele>1700.86199936</ele>
        <time>2013-10-06T07:59:57Z</time>
      </trkpt>
      <trkpt lat="46.00645" lon="6.35364">
        <ele>1701.696</ele>
        <time>2013-10-06T08:00:24Z</time>
      </trkpt>
      <trkpt lat="46.00653" lon="6.3537">
        <ele>1702</ele>
        <time>2013-10-06T08:00:31Z</time>
      </trkpt>
      <trkpt lat="46.00675" lon="6.35401">
        <ele>1702</ele>
        <time>2013-10-06T08:00:48Z</time>
      </trkpt>
      <trkpt lat="46.00683" lon="6.3541">
        <ele>1702</ele>
        <time>2013-10-06T08:00:53Z</time>
      </trkpt>
      <trkpt lat="46.00689" lon="6.35416">
        <ele>1702.13500032</ele>
        <time>2013-10-06T08:00:57Z</time>
      </trkpt>
      <trkpt lat="46.00693" lon="6.35426">
        <ele>1702.53500032</ele>
        <time>2013-10-06T08:01:01Z</time>
      </trkpt>
      <trkpt lat="46.007" lon="6.35436">
        <ele>1702.93500032</ele>
        <time>2013-10-06T08:01:05Z</time>
      </trkpt>
      <trkpt lat="46.00706" lon="6.35444">
        <ele>1703</ele>
        <time>2013-10-06T08:01:09Z</time>
      </trkpt>
      <trkpt lat="46.00715" lon="6.35452">
        <ele>1702.952</ele>
        <time>2013-10-06T08:01:16Z</time>
      </trkpt>
      <trkpt lat="46.00722" lon="6.35465">
        <ele>1702.352</ele>
        <time>2013-10-06T08:01:22Z</time>
      </trkpt>
      <trkpt lat="46.00731" lon="6.35475">
        <ele>1702.29600256</ele>
        <time>2013-10-06T08:01:27Z</time>
      </trkpt>
      <trkpt lat="46.00738" lon="6.35482">
        <ele>1703.296</ele>
        <time>2013-10-06T08:01:32Z</time>
      </trkpt>
      <trkpt lat="46.00748" lon="6.35491">
        <ele>1703.85199872</ele>
        <time>2013-10-06T08:01:37Z</time>
      </trkpt>
      <trkpt lat="46.00753" lon="6.35499">
        <ele>1703.45199872</ele>
        <time>2013-10-06T08:01:41Z</time>
      </trkpt>
      <trkpt lat="46.00763" lon="6.35508">
        <ele>1702.93799936</ele>
        <time>2013-10-06T08:01:46Z</time>
      </trkpt>
      <trkpt lat="46.00774" lon="6.35514">
        <ele>1702.13799936</ele>
        <time>2013-10-06T08:01:50Z</time>
      </trkpt>
      <trkpt lat="46.00778" lon="6.35516">
        <ele>1701.73799936</ele>
        <time>2013-10-06T08:01:52Z</time>
      </trkpt>
      <trkpt lat="46.0078" lon="6.35524">
        <ele>1700.92399872</ele>
        <time>2013-10-06T08:01:56Z</time>
      </trkpt>
      <trkpt lat="46.00779" lon="6.35538">
        <ele>1699.32399872</ele>
        <time>2013-10-06T08:02:04Z</time>
      </trkpt>
      <trkpt lat="46.00779" lon="6.35554">
        <ele>1698.14199936</ele>
        <time>2013-10-06T08:02:14Z</time>
      </trkpt>
      <trkpt lat="46.00771" lon="6.35565">
        <ele>1694.05199616</ele>
        <time>2013-10-06T08:02:22Z</time>
      </trkpt>
      <trkpt lat="46.00751" lon="6.35559">
        <ele>1686.2691904226</ele>
        <time>2013-10-06T08:02:35Z</time>
      </trkpt>
      <trkpt lat="46.00739" lon="6.35552">
        <ele>1684.2848508036</ele>
        <time>2013-10-06T08:02:39Z</time>
      </trkpt>
      <trkpt lat="46.00729" lon="6.35544">
        <ele>1681.777327431</ele>
        <time>2013-10-06T08:02:44Z</time>
      </trkpt>
      <trkpt lat="46.0072" lon="6.35536">
        <ele>1680.008</ele>
        <time>2013-10-06T08:02:48Z</time>
      </trkpt>
      <trkpt lat="46.0071" lon="6.35533">
        <ele>1678.00799488</ele>
        <time>2013-10-06T08:02:53Z</time>
      </trkpt>
      <trkpt lat="46.00699" lon="6.35528">
        <ele>1675.2599936</ele>
        <time>2013-10-06T08:02:59Z</time>
      </trkpt>
      <trkpt lat="46.0068" lon="6.35519">
        <ele>1670.208</ele>
        <time>2013-10-06T08:03:10Z</time>
      </trkpt>
      <trkpt lat="46.00669" lon="6.35515">
        <ele>1667.808</ele>
        <time>2013-10-06T08:03:16Z</time>
      </trkpt>
      <trkpt lat="46.00661" lon="6.35506">
        <ele>1666.208</ele>
        <time>2013-10-06T08:03:20Z</time>
      </trkpt>
      <trkpt lat="46.0065" lon="6.35498">
        <ele>1664.20799488</ele>
        <time>2013-10-06T08:03:25Z</time>
      </trkpt>
      <trkpt lat="46.00641" lon="6.35491">
        <ele>1663.1119929162</ele>
        <time>2013-10-06T08:03:30Z</time>
      </trkpt>
      <trkpt lat="46.00631" lon="6.35483">
        <ele>1661.85973718</ele>
        <time>2013-10-06T08:03:37Z</time>
      </trkpt>
      <trkpt lat="46.00622" lon="6.35474">
        <ele>1661.1533805724</ele>
        <time>2013-10-06T08:03:44Z</time>
      </trkpt>
      <trkpt lat="46.00614" lon="6.35469">
        <ele>1660.28399872</ele>
        <time>2013-10-06T08:03:49Z</time>
      </trkpt>
      <trkpt lat="46.00605" lon="6.35466">
        <ele>1659.28399872</ele>
        <time>2013-10-06T08:03:54Z</time>
      </trkpt>
      <trkpt lat="46.00593" lon="6.3546">
        <ele>1658.08399872</ele>
        <time>2013-10-06T08:04:00Z</time>
      </trkpt>
      <trkpt lat="46.00584" lon="6.35453">
        <ele>1657.08399872</ele>
        <time>2013-10-06T08:04:05Z</time>
      </trkpt>
      <trkpt lat="46.00578" lon="6.35447">
        <ele>1657</ele>
        <time>2013-10-06T08:04:10Z</time>
      </trkpt>
      <trkpt lat="46.00571" lon="6.35443">
        <ele>1657</ele>
        <time>2013-10-06T08:04:15Z</time>
      </trkpt>
      <trkpt lat="46.00553" lon="6.35428">
        <ele>1655.552</ele>
        <time>2013-10-06T08:04:30Z</time>
      </trkpt>
      <trkpt lat="46.00546" lon="6.3542">
        <ele>1654.96499968</ele>
        <time>2013-10-06T08:04:36Z</time>
      </trkpt>
      <trkpt lat="46.00535" lon="6.35416">
        <ele>1654.26499968</ele>
        <time>2013-10-06T08:04:43Z</time>
      </trkpt>
      <trkpt lat="46.00526" lon="6.3541">
        <ele>1653.53799936</ele>
        <time>2013-10-06T08:04:48Z</time>
      </trkpt>
      <trkpt lat="46.00517" lon="6.35404">
        <ele>1652.53799936</ele>
        <time>2013-10-06T08:04:53Z</time>
      </trkpt>
      <trkpt lat="46.00508" lon="6.35402">
        <ele>1650.50599424</ele>
        <time>2013-10-06T08:04:58Z</time>
      </trkpt>
      <trkpt lat="46.00497" lon="6.35404">
        <ele>1647.51199232</ele>
        <time>2013-10-06T08:05:03Z</time>
      </trkpt>
      <trkpt lat="46.0049" lon="6.35413">
        <ele>1645.52599808</ele>
        <time>2013-10-06T08:05:07Z</time>
      </trkpt>
      <trkpt lat="46.00488" lon="6.35426">
        <ele>1644.30799616</ele>
        <time>2013-10-06T08:05:11Z</time>
      </trkpt>
      <trkpt lat="46.00487" lon="6.3544">
        <ele>1643.12599808</ele>
        <time>2013-10-06T08:05:15Z</time>
      </trkpt>
      <trkpt lat="46.00483" lon="6.35451">
        <ele>1641.96799744</ele>
        <time>2013-10-06T08:05:18Z</time>
      </trkpt>
      <trkpt lat="46.00481" lon="6.35462">
        <ele>1640.36799744</ele>
        <time>2013-10-06T08:05:22Z</time>
      </trkpt>
      <trkpt lat="46.00477" lon="6.35489">
        <ele>1638.08399872</ele>
        <time>2013-10-06T08:05:30Z</time>
      </trkpt>
      <trkpt lat="46.00479" lon="6.35499">
        <ele>1637.28399872</ele>
        <time>2013-10-06T08:05:34Z</time>
      </trkpt>
      <trkpt lat="46.00482" lon="6.35512">
        <ele>1636.74599936</ele>
        <time>2013-10-06T08:05:38Z</time>
      </trkpt>
      <trkpt lat="46.0048" lon="6.35526">
        <ele>1636.14599936</ele>
        <time>2013-10-06T08:05:44Z</time>
      </trkpt>
      <trkpt lat="46.00476" lon="6.35541">
        <ele>1635.28399872</ele>
        <time>2013-10-06T08:05:49Z</time>
      </trkpt>
      <trkpt lat="46.00474" lon="6.35556">
        <ele>1631.5299968</ele>
        <time>2013-10-06T08:05:58Z</time>
      </trkpt>
      <trkpt lat="46.00471" lon="6.3557">
        <ele>1624.5299968</ele>
        <time>2013-10-06T08:06:05Z</time>
      </trkpt>
      <trkpt lat="46.00473" lon="6.35602">
        <ele>1619.7099968</ele>
        <time>2013-10-06T08:06:14Z</time>
      </trkpt>
      <trkpt lat="46.00467" lon="6.35616">
        <ele>1617.9822466384</ele>
        <time>2013-10-06T08:06:18Z</time>
      </trkpt>
      <trkpt lat="46.00465" lon="6.35632">
        <ele>1616.0098612956</ele>
        <time>2013-10-06T08:06:23Z</time>
      </trkpt>
      <trkpt lat="46.00465" lon="6.3565">
        <ele>1614.7738332</ele>
        <time>2013-10-06T08:06:28Z</time>
      </trkpt>
      <trkpt lat="46.00465" lon="6.35667">
        <ele>1614.2667334794</ele>
        <time>2013-10-06T08:06:33Z</time>
      </trkpt>
      <trkpt lat="46.00464" lon="6.35683">
        <ele>1613.52999936</ele>
        <time>2013-10-06T08:06:38Z</time>
      </trkpt>
      <trkpt lat="46.00466" lon="6.35697">
        <ele>1612.32999936</ele>
        <time>2013-10-06T08:06:44Z</time>
      </trkpt>
      <trkpt lat="46.0047" lon="6.35714">
        <ele>1608.71199232</ele>
        <time>2013-10-06T08:06:51Z</time>
      </trkpt>
      <trkpt lat="46.00473" lon="6.35727">
        <ele>1606.31199232</ele>
        <time>2013-10-06T08:06:55Z</time>
      </trkpt>
      <trkpt lat="46.00477" lon="6.35741">
        <ele>1605.09199872</ele>
        <time>2013-10-06T08:07:00Z</time>
      </trkpt>
      <trkpt lat="46.00482" lon="6.35756">
        <ele>1604.09199872</ele>
        <time>2013-10-06T08:07:05Z</time>
      </trkpt>
      <trkpt lat="46.00484" lon="6.35772">
        <ele>1601.84599808</ele>
        <time>2013-10-06T08:07:09Z</time>
      </trkpt>
      <trkpt lat="46.00491" lon="6.35785">
        <ele>1599.45199616</ele>
        <time>2013-10-06T08:07:13Z</time>
      </trkpt>
      <trkpt lat="46.00498" lon="6.35799">
        <ele>1597.2099968</ele>
        <time>2013-10-06T08:07:17Z</time>
      </trkpt>
      <trkpt lat="46.00506" lon="6.35808">
        <ele>1594.7099968</ele>
        <time>2013-10-06T08:07:22Z</time>
      </trkpt>
      <trkpt lat="46.00516" lon="6.3581">
        <ele>1592.3749952</ele>
        <time>2013-10-06T08:07:27Z</time>
      </trkpt>
      <trkpt lat="46.00527" lon="6.35819">
        <ele>1590.8749952</ele>
        <time>2013-10-06T08:07:30Z</time>
      </trkpt>
      <trkpt lat="46.00529" lon="6.35834">
        <ele>1589.3749952</ele>
        <time>2013-10-06T08:07:33Z</time>
      </trkpt>
      <trkpt lat="46.00523" lon="6.35855">
        <ele>1585.97799424</ele>
        <time>2013-10-06T08:07:39Z</time>
      </trkpt>
      <trkpt lat="46.00502" lon="6.35866">
        <ele>1580.96399104</ele>
        <time>2013-10-06T08:07:47Z</time>
      </trkpt>
      <trkpt lat="46.00499" lon="6.35871">
        <ele>1579.56399104</ele>
        <time>2013-10-06T08:07:49Z</time>
      </trkpt>
      <trkpt lat="46.00492" lon="6.35882">
        <ele>1576.064</ele>
        <time>2013-10-06T08:07:54Z</time>
      </trkpt>
      <trkpt lat="46.00486" lon="6.35888">
        <ele>1574.2599936</ele>
        <time>2013-10-06T08:07:57Z</time>
      </trkpt>
      <trkpt lat="46.0048" lon="6.35899">
        <ele>1572.2599936</ele>
        <time>2013-10-06T08:08:01Z</time>
      </trkpt>
      <trkpt lat="46.00477" lon="6.35909">
        <ele>1570.76</ele>
        <time>2013-10-06T08:08:04Z</time>
      </trkpt>
      <trkpt lat="46.00474" lon="6.35916">
        <ele>1569.808</ele>
        <time>2013-10-06T08:08:06Z</time>
      </trkpt>
      <trkpt lat="46.00472" lon="6.35923">
        <ele>1569.008</ele>
        <time>2013-10-06T08:08:08Z</time>
      </trkpt>
      <trkpt lat="46.00464" lon="6.35938">
        <ele>1567.408</ele>
        <time>2013-10-06T08:08:12Z</time>
      </trkpt>
      <trkpt lat="46.00457" lon="6.35948">
        <ele>1566.20799488</ele>
        <time>2013-10-06T08:08:15Z</time>
      </trkpt>
      <trkpt lat="46.00449" lon="6.3596">
        <ele>1565.30399744</ele>
        <time>2013-10-06T08:08:19Z</time>
      </trkpt>
      <trkpt lat="46.00439" lon="6.35969">
        <ele>1564.50399744</ele>
        <time>2013-10-06T08:08:23Z</time>
      </trkpt>
      <trkpt lat="46.00432" lon="6.35978">
        <ele>1563.96299904</ele>
        <time>2013-10-06T08:08:26Z</time>
      </trkpt>
      <trkpt lat="46.00426" lon="6.35989">
        <ele>1563.66299904</ele>
        <time>2013-10-06T08:08:29Z</time>
      </trkpt>
      <trkpt lat="46.00419" lon="6.35997">
        <ele>1563.36299904</ele>
        <time>2013-10-06T08:08:32Z</time>
      </trkpt>
      <trkpt lat="46.00413" lon="6.36006">
        <ele>1563.06299904</ele>
        <time>2013-10-06T08:08:35Z</time>
      </trkpt>
      <trkpt lat="46.00407" lon="6.36016">
        <ele>1562.752</ele>
        <time>2013-10-06T08:08:38Z</time>
      </trkpt>
      <trkpt lat="46.00402" lon="6.3603">
        <ele>1562.352</ele>
        <time>2013-10-06T08:08:42Z</time>
      </trkpt>
      <trkpt lat="46.00394" lon="6.36041">
        <ele>1561.952</ele>
        <time>2013-10-06T08:08:46Z</time>
      </trkpt>
      <trkpt lat="46.00381" lon="6.36051">
        <ele>1561.45199872</ele>
        <time>2013-10-06T08:08:51Z</time>
      </trkpt>
      <trkpt lat="46.00377" lon="6.36055">
        <ele>1561.24199936</ele>
        <time>2013-10-06T08:08:53Z</time>
      </trkpt>
      <trkpt lat="46.00372" lon="6.36065">
        <ele>1560.88399872</ele>
        <time>2013-10-06T08:08:56Z</time>
      </trkpt>
      <trkpt lat="46.00367" lon="6.36076">
        <ele>1560.28399872</ele>
        <time>2013-10-06T08:08:59Z</time>
      </trkpt>
      <trkpt lat="46.0035" lon="6.36096">
        <ele>1559</ele>
        <time>2013-10-06T08:09:07Z</time>
      </trkpt>
      <trkpt lat="46.00342" lon="6.36104">
        <ele>1559</ele>
        <time>2013-10-06T08:09:10Z</time>
      </trkpt>
      <trkpt lat="46.00337" lon="6.36112">
        <ele>1559</ele>
        <time>2013-10-06T08:09:13Z</time>
      </trkpt>
      <trkpt lat="46.00333" lon="6.36121">
        <ele>1558.9768141935</ele>
        <time>2013-10-06T08:09:16Z</time>
      </trkpt>
      <trkpt lat="46.00328" lon="6.36131">
        <ele>1558.6743948387</ele>
        <time>2013-10-06T08:09:19Z</time>
      </trkpt>
      <trkpt lat="46.00325" lon="6.36141">
        <ele>1558.3719754839</ele>
        <time>2013-10-06T08:09:22Z</time>
      </trkpt>
      <trkpt lat="46.00323" lon="6.36152">
        <ele>1558.069556129</ele>
        <time>2013-10-06T08:09:25Z</time>
      </trkpt>
      <trkpt lat="46.00321" lon="6.3616">
        <ele>1557.40799488</ele>
        <time>2013-10-06T08:09:27Z</time>
      </trkpt>
      <trkpt lat="46.00318" lon="6.36171">
        <ele>1556.208</ele>
        <time>2013-10-06T08:09:30Z</time>
      </trkpt>
      <trkpt lat="46.00315" lon="6.36182">
        <ele>1555.00799488</ele>
        <time>2013-10-06T08:09:33Z</time>
      </trkpt>
      <trkpt lat="46.00313" lon="6.36192">
        <ele>1553.952</ele>
        <time>2013-10-06T08:09:36Z</time>
      </trkpt>
      <trkpt lat="46.0031" lon="6.36202">
        <ele>1553.65199872</ele>
        <time>2013-10-06T08:09:39Z</time>
      </trkpt>
      <trkpt lat="46.00305" lon="6.36209">
        <ele>1553.352</ele>
        <time>2013-10-06T08:09:42Z</time>
      </trkpt>
      <trkpt lat="46.00301" lon="6.36217">
        <ele>1553</ele>
        <time>2013-10-06T08:09:46Z</time>
      </trkpt>
      <trkpt lat="46.00299" lon="6.36227">
        <ele>1553</ele>
        <time>2013-10-06T08:09:50Z</time>
      </trkpt>
      <trkpt lat="46.00289" lon="6.36246">
        <ele>1553.34800128</ele>
        <time>2013-10-06T08:09:59Z</time>
      </trkpt>
      <trkpt lat="46.00282" lon="6.3625">
        <ele>1553.74800128</ele>
        <time>2013-10-06T08:10:03Z</time>
      </trkpt>
      <trkpt lat="46.00275" lon="6.36254">
        <ele>1554.048</ele>
        <time>2013-10-06T08:10:06Z</time>
      </trkpt>
      <trkpt lat="46.00265" lon="6.3626">
        <ele>1554.54800128</ele>
        <time>2013-10-06T08:10:11Z</time>
      </trkpt>
      <trkpt lat="46.00258" lon="6.36263">
        <ele>1554.848</ele>
        <time>2013-10-06T08:10:14Z</time>
      </trkpt>
      <trkpt lat="46.0025" lon="6.36265">
        <ele>1555.23500032</ele>
        <time>2013-10-06T08:10:18Z</time>
      </trkpt>
      <trkpt lat="46.00242" lon="6.36264">
        <ele>1555.63500032</ele>
        <time>2013-10-06T08:10:22Z</time>
      </trkpt>
      <trkpt lat="46.00235" lon="6.36266">
        <ele>1556.06600192</ele>
        <time>2013-10-06T08:10:26Z</time>
      </trkpt>
      <trkpt lat="46.00227" lon="6.36268">
        <ele>1557.06600192</ele>
        <time>2013-10-06T08:10:31Z</time>
      </trkpt>
      <trkpt lat="46.00221" lon="6.36269">
        <ele>1558.07000064</ele>
        <time>2013-10-06T08:10:36Z</time>
      </trkpt>
      <trkpt lat="46.00204" lon="6.36258">
        <ele>1563</ele>
        <time>2013-10-06T08:11:19Z</time>
      </trkpt>
      <trkpt lat="46.00196" lon="6.36249">
        <ele>1563.29600256</ele>
        <time>2013-10-06T08:11:27Z</time>
      </trkpt>
      <trkpt lat="46.00189" lon="6.36239">
        <ele>1564.696</ele>
        <time>2013-10-06T08:11:34Z</time>
      </trkpt>
      <trkpt lat="46.00179" lon="6.36231">
        <ele>1567.592</ele>
        <time>2013-10-06T08:11:42Z</time>
      </trkpt>
      <trkpt lat="46.00173" lon="6.36219">
        <ele>1571</ele>
        <time>2013-10-06T08:11:56Z</time>
      </trkpt>
      <trkpt lat="46.00167" lon="6.36208">
        <ele>1571</ele>
        <time>2013-10-06T08:12:04Z</time>
      </trkpt>
      <trkpt lat="46.0016" lon="6.36196">
        <ele>1572.4672043275</ele>
        <time>2013-10-06T08:12:13Z</time>
      </trkpt>
      <trkpt lat="46.00152" lon="6.36187">
        <ele>1573.49000192</ele>
        <time>2013-10-06T08:12:18Z</time>
      </trkpt>
      <trkpt lat="46.00144" lon="6.36176">
        <ele>1574.29000192</ele>
        <time>2013-10-06T08:12:22Z</time>
      </trkpt>
      <trkpt lat="46.00132" lon="6.36147">
        <ele>1575</ele>
        <time>2013-10-06T08:12:33Z</time>
      </trkpt>
      <trkpt lat="46.0013" lon="6.36133">
        <ele>1575.35800064</ele>
        <time>2013-10-06T08:12:39Z</time>
      </trkpt>
      <trkpt lat="46.00125" lon="6.3612">
        <ele>1576.09400064</ele>
        <time>2013-10-06T08:12:46Z</time>
      </trkpt>
      <trkpt lat="46.00121" lon="6.36105">
        <ele>1577.89400064</ele>
        <time>2013-10-06T08:12:55Z</time>
      </trkpt>
      <trkpt lat="46.00117" lon="6.3609">
        <ele>1578.648</ele>
        <time>2013-10-06T08:13:02Z</time>
      </trkpt>
      <trkpt lat="46.00111" lon="6.36077">
        <ele>1579</ele>
        <time>2013-10-06T08:13:09Z</time>
      </trkpt>
      <trkpt lat="46.00101" lon="6.36068">
        <ele>1579</ele>
        <time>2013-10-06T08:13:15Z</time>
      </trkpt>
      <trkpt lat="46.00096" lon="6.36056">
        <ele>1579.74800128</ele>
        <time>2013-10-06T08:13:23Z</time>
      </trkpt>
      <trkpt lat="46.00093" lon="6.36042">
        <ele>1580</ele>
        <time>2013-10-06T08:13:32Z</time>
      </trkpt>
      <trkpt lat="46.00093" lon="6.36025">
        <ele>1580</ele>
        <time>2013-10-06T08:13:38Z</time>
      </trkpt>
      <trkpt lat="46.00087" lon="6.3601">
        <ele>1580</ele>
        <time>2013-10-06T08:13:43Z</time>
      </trkpt>
      <trkpt lat="46.00077" lon="6.36005">
        <ele>1580.74800128</ele>
        <time>2013-10-06T08:13:53Z</time>
      </trkpt>
      <trkpt lat="46.00065" lon="6.36009">
        <ele>1582.49600256</ele>
        <time>2013-10-06T08:14:03Z</time>
      </trkpt>
      <trkpt lat="46.00056" lon="6.36017">
        <ele>1583.87400192</ele>
        <time>2013-10-06T08:14:10Z</time>
      </trkpt>
      <trkpt lat="46.00047" lon="6.36025">
        <ele>1585.27000064</ele>
        <time>2013-10-06T08:14:17Z</time>
      </trkpt>
      <trkpt lat="46.00037" lon="6.36027">
        <ele>1589.35900672</ele>
        <time>2013-10-06T08:14:29Z</time>
      </trkpt>
      <trkpt lat="46.00017" lon="6.3603">
        <ele>1594.7254955602</ele>
        <time>2013-10-06T08:14:47Z</time>
      </trkpt>
      <trkpt lat="46.00007" lon="6.36041">
        <ele>1600.0979593116</ele>
        <time>2013-10-06T08:15:01Z</time>
      </trkpt>
      <trkpt lat="46.00001" lon="6.36053">
        <ele>1602.93500288</ele>
        <time>2013-10-06T08:15:12Z</time>
      </trkpt>
      <trkpt lat="46.00002" lon="6.36082">
        <ele>1607.58800128</ele>
        <time>2013-10-06T08:15:37Z</time>
      </trkpt>
      <trkpt lat="45.99992" lon="6.36087">
        <ele>1611.74800128</ele>
        <time>2013-10-06T08:15:53Z</time>
      </trkpt>
      <trkpt lat="45.99982" lon="6.3609">
        <ele>1617.00500096</ele>
        <time>2013-10-06T08:16:09Z</time>
      </trkpt>
      <trkpt lat="45.99972" lon="6.36087">
        <ele>1620.67400192</ele>
        <time>2013-10-06T08:16:29Z</time>
      </trkpt>
      <trkpt lat="45.99962" lon="6.36088">
        <ele>1627.71600128</ele>
        <time>2013-10-06T08:16:49Z</time>
      </trkpt>
      <trkpt lat="45.99953" lon="6.36094">
        <ele>1629.93700096</ele>
        <time>2013-10-06T08:17:05Z</time>
      </trkpt>
      <trkpt lat="45.99943" lon="6.36088">
        <ele>1634.72</ele>
        <time>2013-10-06T08:17:21Z</time>
      </trkpt>
      <trkpt lat="45.99934" lon="6.36081">
        <ele>1639.80500096</ele>
        <time>2013-10-06T08:17:35Z</time>
      </trkpt>
      <trkpt lat="45.99924" lon="6.3608">
        <ele>1642.4692244303</ele>
        <time>2013-10-06T08:17:53Z</time>
      </trkpt>
      <trkpt lat="45.99914" lon="6.36079">
        <ele>1645.48600064</ele>
        <time>2013-10-06T08:18:08Z</time>
      </trkpt>
      <trkpt lat="45.99906" lon="6.36071">
        <ele>1655.07000064</ele>
        <time>2013-10-06T08:18:36Z</time>
      </trkpt>
      <trkpt lat="45.99904" lon="6.36085">
        <ele>1661.87000064</ele>
        <time>2013-10-06T08:19:10Z</time>
      </trkpt>
      <trkpt lat="45.99908" lon="6.36098">
        <ele>1668.74800128</ele>
        <time>2013-10-06T08:19:33Z</time>
      </trkpt>
      <trkpt lat="45.9991" lon="6.36114">
        <ele>1670.26200064</ele>
        <time>2013-10-06T08:19:47Z</time>
      </trkpt>
      <trkpt lat="45.99918" lon="6.36124">
        <ele>1671.26200064</ele>
        <time>2013-10-06T08:19:52Z</time>
      </trkpt>
      <trkpt lat="45.99927" lon="6.36131">
        <ele>1672.07000064</ele>
        <time>2013-10-06T08:19:56Z</time>
      </trkpt>
      <trkpt lat="45.99919" lon="6.36141">
        <ele>1672.90399232</ele>
        <time>2013-10-06T08:20:07Z</time>
      </trkpt>
      <trkpt lat="45.99909" lon="6.36148">
        <ele>1666.50399232</ele>
        <time>2013-10-06T08:20:15Z</time>
      </trkpt>
      <trkpt lat="45.99898" lon="6.36155">
        <ele>1661.464</ele>
        <time>2013-10-06T08:20:22Z</time>
      </trkpt>
      <trkpt lat="45.99876" lon="6.36162">
        <ele>1656.7760141675</ele>
        <time>2013-10-06T08:20:33Z</time>
      </trkpt>
      <trkpt lat="45.99869" lon="6.36174">
        <ele>1656</ele>
        <time>2013-10-06T08:20:42Z</time>
      </trkpt>
      <trkpt lat="45.99879" lon="6.362">
        <ele>1651.464</ele>
        <time>2013-10-06T08:20:52Z</time>
      </trkpt>
      <trkpt lat="45.99886" lon="6.36212">
        <ele>1648.17799424</ele>
        <time>2013-10-06T08:20:57Z</time>
      </trkpt>
      <trkpt lat="45.9989" lon="6.36225">
        <ele>1643.37799424</ele>
        <time>2013-10-06T08:21:05Z</time>
      </trkpt>
      <trkpt lat="45.99885" lon="6.3624">
        <ele>1639.96799744</ele>
        <time>2013-10-06T08:21:13Z</time>
      </trkpt>
      <trkpt lat="45.99883" lon="6.36255">
        <ele>1636.85199616</ele>
        <time>2013-10-06T08:21:19Z</time>
      </trkpt>
      <trkpt lat="45.99882" lon="6.36271">
        <ele>1633.31199232</ele>
        <time>2013-10-06T08:21:25Z</time>
      </trkpt>
      <trkpt lat="45.99882" lon="6.36288">
        <ele>1632.104</ele>
        <time>2013-10-06T08:21:30Z</time>
      </trkpt>
      <trkpt lat="45.99882" lon="6.36305">
        <ele>1631.304</ele>
        <time>2013-10-06T08:21:34Z</time>
      </trkpt>
      <trkpt lat="45.99877" lon="6.36318">
        <ele>1630.66299904</ele>
        <time>2013-10-06T08:21:39Z</time>
      </trkpt>
      <trkpt lat="45.99867" lon="6.36328">
        <ele>1630.26299904</ele>
        <time>2013-10-06T08:21:43Z</time>
      </trkpt>
      <trkpt lat="45.99858" lon="6.36334">
        <ele>1628.91999744</ele>
        <time>2013-10-06T08:21:47Z</time>
      </trkpt>
      <trkpt lat="45.99852" lon="6.36348">
        <ele>1624.11999744</ele>
        <time>2013-10-06T08:21:53Z</time>
      </trkpt>
      <trkpt lat="45.99849" lon="6.36362">
        <ele>1618.65999872</ele>
        <time>2013-10-06T08:22:04Z</time>
      </trkpt>
      <trkpt lat="45.99842" lon="6.36372">
        <ele>1612.31199232</ele>
        <time>2013-10-06T08:22:15Z</time>
      </trkpt>
      <trkpt lat="45.99827" lon="6.36369">
        <ele>1608.864</ele>
        <time>2013-10-06T08:22:20Z</time>
      </trkpt>
      <trkpt lat="45.99816" lon="6.36367">
        <ele>1606.064</ele>
        <time>2013-10-06T08:22:24Z</time>
      </trkpt>
      <trkpt lat="45.99806" lon="6.3637">
        <ele>1603.016</ele>
        <time>2013-10-06T08:22:28Z</time>
      </trkpt>
      <trkpt lat="45.99791" lon="6.3639">
        <ele>1596.65199616</ele>
        <time>2013-10-06T08:22:36Z</time>
      </trkpt>
      <trkpt lat="45.99781" lon="6.36399">
        <ele>1593.65199616</ele>
        <time>2013-10-06T08:22:41Z</time>
      </trkpt>
      <trkpt lat="45.99772" lon="6.36412">
        <ele>1590.7099968</ele>
        <time>2013-10-06T08:22:46Z</time>
      </trkpt>
      <trkpt lat="45.99762" lon="6.36418">
        <ele>1588.2099968</ele>
        <time>2013-10-06T08:22:51Z</time>
      </trkpt>
      <trkpt lat="45.99753" lon="6.36428">
        <ele>1583.8149952</ele>
        <time>2013-10-06T08:23:00Z</time>
      </trkpt>
      <trkpt lat="45.99749" lon="6.36441">
        <ele>1580.8249984</ele>
        <time>2013-10-06T08:23:06Z</time>
      </trkpt>
      <trkpt lat="45.99744" lon="6.36456">
        <ele>1577.8249984</ele>
        <time>2013-10-06T08:23:12Z</time>
      </trkpt>
      <trkpt lat="45.99738" lon="6.36468">
        <ele>1575.4132759596</ele>
        <time>2013-10-06T08:23:17Z</time>
      </trkpt>
      <trkpt lat="45.99731" lon="6.36497">
        <ele>1571.9273460446</ele>
        <time>2013-10-06T08:23:26Z</time>
      </trkpt>
      <trkpt lat="45.99728" lon="6.36511">
        <ele>1569.2028227192</ele>
        <time>2013-10-06T08:23:35Z</time>
      </trkpt>
      <trkpt lat="45.99719" lon="6.36519">
        <ele>1567.60799488</ele>
        <time>2013-10-06T08:23:39Z</time>
      </trkpt>
      <trkpt lat="45.99713" lon="6.36531">
        <ele>1565.20799488</ele>
        <time>2013-10-06T08:23:45Z</time>
      </trkpt>
      <trkpt lat="45.9971" lon="6.36549">
        <ele>1564.36199936</ele>
        <time>2013-10-06T08:23:52Z</time>
      </trkpt>
      <trkpt lat="45.99704" lon="6.36563">
        <ele>1563.95499904</ele>
        <time>2013-10-06T08:23:56Z</time>
      </trkpt>
      <trkpt lat="45.99698" lon="6.36576">
        <ele>1563.25499904</ele>
        <time>2013-10-06T08:24:03Z</time>
      </trkpt>
      <trkpt lat="45.99693" lon="6.3659">
        <ele>1562.28399872</ele>
        <time>2013-10-06T08:24:09Z</time>
      </trkpt>
      <trkpt lat="45.99689" lon="6.36603">
        <ele>1557.5499904</ele>
        <time>2013-10-06T08:24:19Z</time>
      </trkpt>
      <trkpt lat="45.99681" lon="6.36618">
        <ele>1549.2099968</ele>
        <time>2013-10-06T08:24:29Z</time>
      </trkpt>
      <trkpt lat="45.99673" lon="6.36631">
        <ele>1547.7099968</ele>
        <time>2013-10-06T08:24:32Z</time>
      </trkpt>
      <trkpt lat="45.99657" lon="6.36656">
        <ele>1546</ele>
        <time>2013-10-06T08:24:42Z</time>
      </trkpt>
      <trkpt lat="45.99649" lon="6.36667">
        <ele>1546</ele>
        <time>2013-10-06T08:24:45Z</time>
      </trkpt>
      <trkpt lat="45.99639" lon="6.36671">
        <ele>1545.47599872</ele>
        <time>2013-10-06T08:24:51Z</time>
      </trkpt>
      <trkpt lat="45.99631" lon="6.3668">
        <ele>1543.39499904</ele>
        <time>2013-10-06T08:25:01Z</time>
      </trkpt>
      <trkpt lat="45.99622" lon="6.36693">
        <ele>1541.96499968</ele>
        <time>2013-10-06T08:25:06Z</time>
      </trkpt>
      <trkpt lat="45.99613" lon="6.36705">
        <ele>1541.66499968</ele>
        <time>2013-10-06T08:25:09Z</time>
      </trkpt>
      <trkpt lat="45.99605" lon="6.36718">
        <ele>1541.36499968</ele>
        <time>2013-10-06T08:25:12Z</time>
      </trkpt>
      <trkpt lat="45.99598" lon="6.36728">
        <ele>1541.06499968</ele>
        <time>2013-10-06T08:25:15Z</time>
      </trkpt>
      <trkpt lat="45.99592" lon="6.36742">
        <ele>1537.864</ele>
        <time>2013-10-06T08:25:20Z</time>
      </trkpt>
      <trkpt lat="45.99586" lon="6.36754">
        <ele>1535.76399104</ele>
        <time>2013-10-06T08:25:23Z</time>
      </trkpt>
      <trkpt lat="45.9958" lon="6.36769">
        <ele>1533.45199616</ele>
        <time>2013-10-06T08:25:27Z</time>
      </trkpt>
      <trkpt lat="45.99576" lon="6.36785">
        <ele>1531.85199616</ele>
        <time>2013-10-06T08:25:31Z</time>
      </trkpt>
      <trkpt lat="45.99572" lon="6.36799">
        <ele>1530.65199616</ele>
        <time>2013-10-06T08:25:34Z</time>
      </trkpt>
      <trkpt lat="45.99567" lon="6.36813">
        <ele>1529.008</ele>
        <time>2013-10-06T08:25:38Z</time>
      </trkpt>
      <trkpt lat="45.99554" lon="6.36842">
        <ele>1524.96399104</ele>
        <time>2013-10-06T08:25:47Z</time>
      </trkpt>
      <trkpt lat="45.99549" lon="6.36856">
        <ele>1522.864</ele>
        <time>2013-10-06T08:25:50Z</time>
      </trkpt>
      <trkpt lat="45.99545" lon="6.36871">
        <ele>1520.76399104</ele>
        <time>2013-10-06T08:25:53Z</time>
      </trkpt>
      <trkpt lat="45.99537" lon="6.36882">
        <ele>1518.92999936</ele>
        <time>2013-10-06T08:25:56Z</time>
      </trkpt>
      <trkpt lat="45.99531" lon="6.36893">
        <ele>1518.32999936</ele>
        <time>2013-10-06T08:25:59Z</time>
      </trkpt>
      <trkpt lat="45.99514" lon="6.36915">
        <ele>1515.7661014713</ele>
        <time>2013-10-06T08:26:08Z</time>
      </trkpt>
      <trkpt lat="45.99507" lon="6.36927">
        <ele>1512.3022776113</ele>
        <time>2013-10-06T08:26:15Z</time>
      </trkpt>
      <trkpt lat="45.99504" lon="6.36942">
        <ele>1508.2704302922</ele>
        <time>2013-10-06T08:26:21Z</time>
      </trkpt>
      <trkpt lat="45.99497" lon="6.36955">
        <ele>1504.76</ele>
        <time>2013-10-06T08:26:26Z</time>
      </trkpt>
      <trkpt lat="45.99488" lon="6.36965">
        <ele>1501.76</ele>
        <time>2013-10-06T08:26:32Z</time>
      </trkpt>
      <trkpt lat="45.99481" lon="6.36976">
        <ele>1499.45199616</ele>
        <time>2013-10-06T08:26:37Z</time>
      </trkpt>
      <trkpt lat="45.99477" lon="6.36991">
        <ele>1497.45199616</ele>
        <time>2013-10-06T08:26:42Z</time>
      </trkpt>
      <trkpt lat="45.99477" lon="6.37008">
        <ele>1495.05999872</ele>
        <time>2013-10-06T08:26:48Z</time>
      </trkpt>
      <trkpt lat="45.99479" lon="6.37024">
        <ele>1493.05999872</ele>
        <time>2013-10-06T08:26:53Z</time>
      </trkpt>
      <trkpt lat="45.99483" lon="6.37038">
        <ele>1490.76</ele>
        <time>2013-10-06T08:26:58Z</time>
      </trkpt>
      <trkpt lat="45.99484" lon="6.37053">
        <ele>1487.76</ele>
        <time>2013-10-06T08:27:04Z</time>
      </trkpt>
      <trkpt lat="45.99484" lon="6.37071">
        <ele>1485.624</ele>
        <time>2013-10-06T08:27:09Z</time>
      </trkpt>
      <trkpt lat="45.99484" lon="6.37087">
        <ele>1484.42399488</ele>
        <time>2013-10-06T08:27:12Z</time>
      </trkpt>
      <trkpt lat="45.99481" lon="6.37103">
        <ele>1482.712</ele>
        <time>2013-10-06T08:27:16Z</time>
      </trkpt>
      <trkpt lat="45.99469" lon="6.37105">
        <ele>1480.312</ele>
        <time>2013-10-06T08:27:20Z</time>
      </trkpt>
      <trkpt lat="45.99457" lon="6.37099">
        <ele>1477.912</ele>
        <time>2013-10-06T08:27:24Z</time>
      </trkpt>
      <trkpt lat="45.99446" lon="6.37092">
        <ele>1475.264</ele>
        <time>2013-10-06T08:27:28Z</time>
      </trkpt>
      <trkpt lat="45.99435" lon="6.37084">
        <ele>1472.464</ele>
        <time>2013-10-06T08:27:32Z</time>
      </trkpt>
      <trkpt lat="45.99423" lon="6.37085">
        <ele>1469.808</ele>
        <time>2013-10-06T08:27:36Z</time>
      </trkpt>
      <trkpt lat="45.99394" lon="6.37103">
        <ele>1466</ele>
        <time>2013-10-06T08:27:55Z</time>
      </trkpt>
      <trkpt lat="45.99385" lon="6.37113">
        <ele>1465.08399872</ele>
        <time>2013-10-06T08:28:00Z</time>
      </trkpt>
      <trkpt lat="45.99375" lon="6.37123">
        <ele>1464</ele>
        <time>2013-10-06T08:28:07Z</time>
      </trkpt>
      <trkpt lat="45.99365" lon="6.37129">
        <ele>1464</ele>
        <time>2013-10-06T08:28:11Z</time>
      </trkpt>
      <trkpt lat="45.99355" lon="6.37138">
        <ele>1464</ele>
        <time>2013-10-06T08:28:16Z</time>
      </trkpt>
      <trkpt lat="45.99348" lon="6.37151">
        <ele>1464</ele>
        <time>2013-10-06T08:28:22Z</time>
      </trkpt>
      <trkpt lat="45.99337" lon="6.37157">
        <ele>1464</ele>
        <time>2013-10-06T08:28:29Z</time>
      </trkpt>
      <trkpt lat="45.99326" lon="6.37162">
        <ele>1464</ele>
        <time>2013-10-06T08:28:35Z</time>
      </trkpt>
      <trkpt lat="45.99316" lon="6.37169">
        <ele>1464</ele>
        <time>2013-10-06T08:28:39Z</time>
      </trkpt>
      <trkpt lat="45.99309" lon="6.3718">
        <ele>1464</ele>
        <time>2013-10-06T08:28:43Z</time>
      </trkpt>
      <trkpt lat="45.99299" lon="6.37186">
        <ele>1463.85199872</ele>
        <time>2013-10-06T08:28:47Z</time>
      </trkpt>
      <trkpt lat="45.99287" lon="6.37186">
        <ele>1463.25199872</ele>
        <time>2013-10-06T08:28:53Z</time>
      </trkpt>
      <trkpt lat="45.99277" lon="6.37183">
        <ele>1461.5302757401</ele>
        <time>2013-10-06T08:28:57Z</time>
      </trkpt>
      <trkpt lat="45.99267" lon="6.37183">
        <ele>1457.5580823649</ele>
        <time>2013-10-06T08:29:01Z</time>
      </trkpt>
      <trkpt lat="45.99255" lon="6.37184">
        <ele>1452.798590066</ele>
        <time>2013-10-06T08:29:06Z</time>
      </trkpt>
      <trkpt lat="45.99244" lon="6.37187">
        <ele>1449.7774410562</ele>
        <time>2013-10-06T08:29:12Z</time>
      </trkpt>
      <trkpt lat="45.99234" lon="6.37185">
        <ele>1446.2099968</ele>
        <time>2013-10-06T08:29:19Z</time>
      </trkpt>
      <trkpt lat="45.99224" lon="6.37189">
        <ele>1443.2099968</ele>
        <time>2013-10-06T08:29:25Z</time>
      </trkpt>
      <trkpt lat="45.99212" lon="6.37195">
        <ele>1443</ele>
        <time>2013-10-06T08:29:28Z</time>
      </trkpt>
      <trkpt lat="45.99193" lon="6.3721">
        <ele>1443</ele>
        <time>2013-10-06T08:29:35Z</time>
      </trkpt>
      <trkpt lat="45.99182" lon="6.37216">
        <ele>1442.64199936</ele>
        <time>2013-10-06T08:29:39Z</time>
      </trkpt>
      <trkpt lat="45.99173" lon="6.37224">
        <ele>1442.14199936</ele>
        <time>2013-10-06T08:29:44Z</time>
      </trkpt>
      <trkpt lat="45.99167" lon="6.37236">
        <ele>1439.85199616</ele>
        <time>2013-10-06T08:29:49Z</time>
      </trkpt>
      <trkpt lat="45.99161" lon="6.3725">
        <ele>1436.85199616</ele>
        <time>2013-10-06T08:29:54Z</time>
      </trkpt>
      <trkpt lat="45.99156" lon="6.37264">
        <ele>1436</ele>
        <time>2013-10-06T08:29:59Z</time>
      </trkpt>
      <trkpt lat="45.99146" lon="6.37292">
        <ele>1436.54500096</ele>
        <time>2013-10-06T08:30:11Z</time>
      </trkpt>
      <trkpt lat="45.99138" lon="6.37306">
        <ele>1436.94500096</ele>
        <time>2013-10-06T08:30:15Z</time>
      </trkpt>
      <trkpt lat="45.99133" lon="6.3732">
        <ele>1437</ele>
        <time>2013-10-06T08:30:20Z</time>
      </trkpt>
      <trkpt lat="45.99125" lon="6.37329">
        <ele>1437</ele>
        <time>2013-10-06T08:30:24Z</time>
      </trkpt>
      <trkpt lat="45.99114" lon="6.37333">
        <ele>1437.34800128</ele>
        <time>2013-10-06T08:30:29Z</time>
      </trkpt>
      <trkpt lat="45.99104" lon="6.37336">
        <ele>1437.75800064</ele>
        <time>2013-10-06T08:30:33Z</time>
      </trkpt>
      <trkpt lat="45.99093" lon="6.37336">
        <ele>1438</ele>
        <time>2013-10-06T08:30:38Z</time>
      </trkpt>
      <trkpt lat="45.99086" lon="6.37334">
        <ele>1438</ele>
        <time>2013-10-06T08:30:41Z</time>
      </trkpt>
      <trkpt lat="45.9908" lon="6.37332">
        <ele>1438</ele>
        <time>2013-10-06T08:30:44Z</time>
      </trkpt>
      <trkpt lat="45.99073" lon="6.37329">
        <ele>1437.84199936</ele>
        <time>2013-10-06T08:30:47Z</time>
      </trkpt>
      <trkpt lat="45.99068" lon="6.37329">
        <ele>1437.64199936</ele>
        <time>2013-10-06T08:30:49Z</time>
      </trkpt>
      <trkpt lat="45.99062" lon="6.37328">
        <ele>1437.44199936</ele>
        <time>2013-10-06T08:30:51Z</time>
      </trkpt>
      <trkpt lat="45.99057" lon="6.37327">
        <ele>1437.25199872</ele>
        <time>2013-10-06T08:30:53Z</time>
      </trkpt>
      <trkpt lat="45.99046" lon="6.37323">
        <ele>1437</ele>
        <time>2013-10-06T08:30:58Z</time>
      </trkpt>
      <trkpt lat="45.99041" lon="6.37319">
        <ele>1437</ele>
        <time>2013-10-06T08:31:01Z</time>
      </trkpt>
      <trkpt lat="45.9903" lon="6.37312">
        <ele>1437.07400192</ele>
        <time>2013-10-06T08:31:06Z</time>
      </trkpt>
      <trkpt lat="45.9902" lon="6.37305">
        <ele>1438.07400192</ele>
        <time>2013-10-06T08:31:11Z</time>
      </trkpt>
      <trkpt lat="45.99012" lon="6.37294">
        <ele>1439</ele>
        <time>2013-10-06T08:31:16Z</time>
      </trkpt>
      <trkpt lat="45.99003" lon="6.37283">
        <ele>1439</ele>
        <time>2013-10-06T08:31:21Z</time>
      </trkpt>
      <trkpt lat="45.98994" lon="6.37275">
        <ele>1439.0460454496</ele>
        <time>2013-10-06T08:31:26Z</time>
      </trkpt>
      <trkpt lat="45.98988" lon="6.37267">
        <ele>1439.4464462348</ele>
        <time>2013-10-06T08:31:30Z</time>
      </trkpt>
      <trkpt lat="45.98979" lon="6.37257">
        <ele>1439.9469472163</ele>
        <time>2013-10-06T08:31:35Z</time>
      </trkpt>
      <trkpt lat="45.98973" lon="6.37246">
        <ele>1440</ele>
        <time>2013-10-06T08:31:39Z</time>
      </trkpt>
      <trkpt lat="45.98968" lon="6.37239">
        <ele>1440</ele>
        <time>2013-10-06T08:31:42Z</time>
      </trkpt>
      <trkpt lat="45.98961" lon="6.37228">
        <ele>1439.9554446223</ele>
        <time>2013-10-06T08:31:46Z</time>
      </trkpt>
      <trkpt lat="45.98947" lon="6.37208">
        <ele>1439.1633659163</ele>
        <time>2013-10-06T08:31:54Z</time>
      </trkpt>
      <trkpt lat="45.98939" lon="6.37196">
        <ele>1438.3191921255</ele>
        <time>2013-10-06T08:31:59Z</time>
      </trkpt>
      <trkpt lat="45.98934" lon="6.37183">
        <ele>1437.5111107951</ele>
        <time>2013-10-06T08:32:03Z</time>
      </trkpt>
      <trkpt lat="45.98927" lon="6.37169">
        <ele>1437</ele>
        <time>2013-10-06T08:32:08Z</time>
      </trkpt>
      <trkpt lat="45.98922" lon="6.37157">
        <ele>1437</ele>
        <time>2013-10-06T08:32:12Z</time>
      </trkpt>
      <trkpt lat="45.98917" lon="6.37148">
        <ele>1437</ele>
        <time>2013-10-06T08:32:15Z</time>
      </trkpt>
      <trkpt lat="45.98912" lon="6.37139">
        <ele>1437</ele>
        <time>2013-10-06T08:32:18Z</time>
      </trkpt>
      <trkpt lat="45.989" lon="6.37117">
        <ele>1436.952</ele>
        <time>2013-10-06T08:32:26Z</time>
      </trkpt>
      <trkpt lat="45.98895" lon="6.37102">
        <ele>1436.45199872</ele>
        <time>2013-10-06T08:32:31Z</time>
      </trkpt>
      <trkpt lat="45.98889" lon="6.37087">
        <ele>1436</ele>
        <time>2013-10-06T08:32:36Z</time>
      </trkpt>
      <trkpt lat="45.98884" lon="6.37074">
        <ele>1436</ele>
        <time>2013-10-06T08:32:40Z</time>
      </trkpt>
      <trkpt lat="45.98879" lon="6.37061">
        <ele>1436</ele>
        <time>2013-10-06T08:32:44Z</time>
      </trkpt>
      <trkpt lat="45.98874" lon="6.37048">
        <ele>1436</ele>
        <time>2013-10-06T08:32:48Z</time>
      </trkpt>
      <trkpt lat="45.98871" lon="6.37038">
        <ele>1436</ele>
        <time>2013-10-06T08:32:51Z</time>
      </trkpt>
      <trkpt lat="45.98868" lon="6.37028">
        <ele>1436</ele>
        <time>2013-10-06T08:32:54Z</time>
      </trkpt>
      <trkpt lat="45.98863" lon="6.37011">
        <ele>1435.30399744</ele>
        <time>2013-10-06T08:32:59Z</time>
      </trkpt>
      <trkpt lat="45.98861" lon="6.36997">
        <ele>1434.50399744</ele>
        <time>2013-10-06T08:33:03Z</time>
      </trkpt>
      <trkpt lat="45.98858" lon="6.36986">
        <ele>1433.96299904</ele>
        <time>2013-10-06T08:33:06Z</time>
      </trkpt>
      <trkpt lat="45.98854" lon="6.36974">
        <ele>1433.66299904</ele>
        <time>2013-10-06T08:33:09Z</time>
      </trkpt>
      <trkpt lat="45.98849" lon="6.36964">
        <ele>1433.36299904</ele>
        <time>2013-10-06T08:33:12Z</time>
      </trkpt>
      <trkpt lat="45.98842" lon="6.3695">
        <ele>1432.76</ele>
        <time>2013-10-06T08:33:16Z</time>
      </trkpt>
      <trkpt lat="45.98835" lon="6.36936">
        <ele>1430.7099968</ele>
        <time>2013-10-06T08:33:20Z</time>
      </trkpt>
      <trkpt lat="45.98831" lon="6.3693">
        <ele>1429.7099968</ele>
        <time>2013-10-06T08:33:22Z</time>
      </trkpt>
      <trkpt lat="45.98828" lon="6.36924">
        <ele>1428.7099968</ele>
        <time>2013-10-06T08:33:24Z</time>
      </trkpt>
      <trkpt lat="45.98824" lon="6.36917">
        <ele>1427.72999424</ele>
        <time>2013-10-06T08:33:26Z</time>
      </trkpt>
      <trkpt lat="45.98808" lon="6.36892">
        <ele>1423.52999424</ele>
        <time>2013-10-06T08:33:33Z</time>
      </trkpt>
      <trkpt lat="45.98794" lon="6.36867">
        <ele>1420.21999616</ele>
        <time>2013-10-06T08:33:40Z</time>
      </trkpt>
      <trkpt lat="45.98785" lon="6.36854">
        <ele>1418.61999616</ele>
        <time>2013-10-06T08:33:44Z</time>
      </trkpt>
      <trkpt lat="45.98782" lon="6.36841">
        <ele>1417.52599808</ele>
        <time>2013-10-06T08:33:47Z</time>
      </trkpt>
      <trkpt lat="45.98779" lon="6.36833">
        <ele>1416.92599808</ele>
        <time>2013-10-06T08:33:49Z</time>
      </trkpt>
      <trkpt lat="45.98776" lon="6.36825">
        <ele>1416.32599808</ele>
        <time>2013-10-06T08:33:51Z</time>
      </trkpt>
      <trkpt lat="45.98773" lon="6.36818">
        <ele>1415.72599808</ele>
        <time>2013-10-06T08:33:53Z</time>
      </trkpt>
      <trkpt lat="45.98768" lon="6.36807">
        <ele>1414.59399552</ele>
        <time>2013-10-06T08:33:56Z</time>
      </trkpt>
      <trkpt lat="45.98759" lon="6.368">
        <ele>1411.79399552</ele>
        <time>2013-10-06T08:34:00Z</time>
      </trkpt>
      <trkpt lat="45.98752" lon="6.3679">
        <ele>1407.05199616</ele>
        <time>2013-10-06T08:34:07Z</time>
      </trkpt>
      <trkpt lat="45.98743" lon="6.36781">
        <ele>1402.85199616</ele>
        <time>2013-10-06T08:34:14Z</time>
      </trkpt>
      <trkpt lat="45.98733" lon="6.36776">
        <ele>1400.7099968</ele>
        <time>2013-10-06T08:34:18Z</time>
      </trkpt>
      <trkpt lat="45.98724" lon="6.36768">
        <ele>1398.7099968</ele>
        <time>2013-10-06T08:34:22Z</time>
      </trkpt>
      <trkpt lat="45.98715" lon="6.36759">
        <ele>1396.54399744</ele>
        <time>2013-10-06T08:34:28Z</time>
      </trkpt>
      <trkpt lat="45.98705" lon="6.36746">
        <ele>1395.74399744</ele>
        <time>2013-10-06T08:34:32Z</time>
      </trkpt>
      <trkpt lat="45.98696" lon="6.36737">
        <ele>1394.8265595307</ele>
        <time>2013-10-06T08:34:36Z</time>
      </trkpt>
      <trkpt lat="45.98688" lon="6.36726">
        <ele>1392.8444008616</ele>
        <time>2013-10-06T08:34:40Z</time>
      </trkpt>
      <trkpt lat="45.9868" lon="6.36715">
        <ele>1390.8622421925</ele>
        <time>2013-10-06T08:34:44Z</time>
      </trkpt>
      <trkpt lat="45.98673" lon="6.36699">
        <ele>1389.5196779202</ele>
        <time>2013-10-06T08:34:48Z</time>
      </trkpt>
      <trkpt lat="45.98667" lon="6.36686">
        <ele>1388.7124117497</ele>
        <time>2013-10-06T08:34:52Z</time>
      </trkpt>
      <trkpt lat="45.98657" lon="6.36661">
        <ele>1387.752</ele>
        <time>2013-10-06T08:34:58Z</time>
      </trkpt>
      <trkpt lat="45.98655" lon="6.36644">
        <ele>1387.352</ele>
        <time>2013-10-06T08:35:02Z</time>
      </trkpt>
      <trkpt lat="45.98654" lon="6.36627">
        <ele>1387</ele>
        <time>2013-10-06T08:35:06Z</time>
      </trkpt>
      <trkpt lat="45.98648" lon="6.36612">
        <ele>1387</ele>
        <time>2013-10-06T08:35:10Z</time>
      </trkpt>
      <trkpt lat="45.98636" lon="6.36592">
        <ele>1386.904</ele>
        <time>2013-10-06T08:35:16Z</time>
      </trkpt>
      <trkpt lat="45.9863" lon="6.36581">
        <ele>1386.104</ele>
        <time>2013-10-06T08:35:20Z</time>
      </trkpt>
      <trkpt lat="45.98622" lon="6.36574">
        <ele>1385.28399872</ele>
        <time>2013-10-06T08:35:24Z</time>
      </trkpt>
      <trkpt lat="45.98613" lon="6.36564">
        <ele>1383.28499328</ele>
        <time>2013-10-06T08:35:28Z</time>
      </trkpt>
      <trkpt lat="45.98606" lon="6.36552">
        <ele>1380.48499328</ele>
        <time>2013-10-06T08:35:32Z</time>
      </trkpt>
      <trkpt lat="45.98595" lon="6.36545">
        <ele>1377.81999616</ele>
        <time>2013-10-06T08:35:36Z</time>
      </trkpt>
      <trkpt lat="45.98587" lon="6.36534">
        <ele>1376.21999616</ele>
        <time>2013-10-06T08:35:40Z</time>
      </trkpt>
      <trkpt lat="45.9858" lon="6.36526">
        <ele>1375.01999616</ele>
        <time>2013-10-06T08:35:43Z</time>
      </trkpt>
      <trkpt lat="45.98571" lon="6.36514">
        <ele>1373.68399872</ele>
        <time>2013-10-06T08:35:47Z</time>
      </trkpt>
      <trkpt lat="45.98564" lon="6.36502">
        <ele>1372.88399872</ele>
        <time>2013-10-06T08:35:51Z</time>
      </trkpt>
      <trkpt lat="45.98553" lon="6.36495">
        <ele>1372.08399872</ele>
        <time>2013-10-06T08:35:55Z</time>
      </trkpt>
      <trkpt lat="45.98542" lon="6.36493">
        <ele>1372</ele>
        <time>2013-10-06T08:35:59Z</time>
      </trkpt>
      <trkpt lat="45.98535" lon="6.36496">
        <ele>1372</ele>
        <time>2013-10-06T08:36:02Z</time>
      </trkpt>
      <trkpt lat="45.98524" lon="6.365">
        <ele>1371.94199936</ele>
        <time>2013-10-06T08:36:06Z</time>
      </trkpt>
      <trkpt lat="45.98512" lon="6.36499">
        <ele>1371.54199936</ele>
        <time>2013-10-06T08:36:10Z</time>
      </trkpt>
      <trkpt lat="45.9849" lon="6.36485">
        <ele>1370.26499712</ele>
        <time>2013-10-06T08:36:18Z</time>
      </trkpt>
      <trkpt lat="45.9848" lon="6.36477">
        <ele>1369.06499712</ele>
        <time>2013-10-06T08:36:22Z</time>
      </trkpt>
      <trkpt lat="45.9847" lon="6.3647">
        <ele>1368</ele>
        <time>2013-10-06T08:36:26Z</time>
      </trkpt>
      <trkpt lat="45.9846" lon="6.36465">
        <ele>1368</ele>
        <time>2013-10-06T08:36:30Z</time>
      </trkpt>
      <trkpt lat="45.98449" lon="6.36461">
        <ele>1368</ele>
        <time>2013-10-06T08:36:34Z</time>
      </trkpt>
      <trkpt lat="45.98439" lon="6.36453">
        <ele>1368</ele>
        <time>2013-10-06T08:36:38Z</time>
      </trkpt>
      <trkpt lat="45.98432" lon="6.36441">
        <ele>1368</ele>
        <time>2013-10-06T08:36:42Z</time>
      </trkpt>
      <trkpt lat="45.98426" lon="6.36429">
        <ele>1368.03700096</ele>
        <time>2013-10-06T08:36:46Z</time>
      </trkpt>
      <trkpt lat="45.98419" lon="6.36418">
        <ele>1368.43700096</ele>
        <time>2013-10-06T08:36:50Z</time>
      </trkpt>
      <trkpt lat="45.98411" lon="6.36409">
        <ele>1368.94700032</ele>
        <time>2013-10-06T08:36:55Z</time>
      </trkpt>
      <trkpt lat="45.98409" lon="6.36441">
        <ele>1370.91600128</ele>
        <time>2013-10-06T08:37:05Z</time>
      </trkpt>
      <trkpt lat="45.98409" lon="6.36453">
        <ele>1372</ele>
        <time>2013-10-06T08:37:19Z</time>
      </trkpt>
      <trkpt lat="45.98409" lon="6.36463">
        <ele>1372</ele>
        <time>2013-10-06T08:37:24Z</time>
      </trkpt>
      <trkpt lat="45.98411" lon="6.36474">
        <ele>1372</ele>
        <time>2013-10-06T08:37:30Z</time>
      </trkpt>
      <trkpt lat="45.98412" lon="6.36485">
        <ele>1372</ele>
        <time>2013-10-06T08:37:36Z</time>
      </trkpt>
      <trkpt lat="45.98415" lon="6.36498">
        <ele>1372</ele>
        <time>2013-10-06T08:37:43Z</time>
      </trkpt>
      <trkpt lat="45.98417" lon="6.36505">
        <ele>1372.248</ele>
        <time>2013-10-06T08:37:48Z</time>
      </trkpt>
      <trkpt lat="45.98419" lon="6.36511">
        <ele>1372.648</ele>
        <time>2013-10-06T08:37:52Z</time>
      </trkpt>
      <trkpt lat="45.98419" lon="6.36517">
        <ele>1372.94800128</ele>
        <time>2013-10-06T08:37:55Z</time>
      </trkpt>
      <trkpt lat="45.98419" lon="6.36544">
        <ele>1376</ele>
        <time>2013-10-06T08:38:11Z</time>
      </trkpt>
      <trkpt lat="45.98422" lon="6.36559">
        <ele>1377.26800128</ele>
        <time>2013-10-06T08:38:22Z</time>
      </trkpt>
      <trkpt lat="45.98423" lon="6.36574">
        <ele>1380.98000384</ele>
        <time>2013-10-06T08:38:33Z</time>
      </trkpt>
      <trkpt lat="45.98426" lon="6.36589">
        <ele>1382.65800064</ele>
        <time>2013-10-06T08:38:42Z</time>
      </trkpt>
      <trkpt lat="45.98421" lon="6.36602">
        <ele>1383.54000128</ele>
        <time>2013-10-06T08:38:51Z</time>
      </trkpt>
      <trkpt lat="45.98412" lon="6.36607">
        <ele>1384.35800064</ele>
        <time>2013-10-06T08:38:59Z</time>
      </trkpt>
      <trkpt lat="45.98406" lon="6.36619">
        <ele>1385.91600128</ele>
        <time>2013-10-06T08:39:10Z</time>
      </trkpt>
      <trkpt lat="45.98411" lon="6.36633">
        <ele>1387.87000064</ele>
        <time>2013-10-06T08:39:20Z</time>
      </trkpt>
      <trkpt lat="45.98414" lon="6.36647">
        <ele>1389.496</ele>
        <time>2013-10-06T08:39:28Z</time>
      </trkpt>
      <trkpt lat="45.98418" lon="6.36661">
        <ele>1390.696</ele>
        <time>2013-10-06T08:39:34Z</time>
      </trkpt>
      <trkpt lat="45.98411" lon="6.36674">
        <ele>1391</ele>
        <time>2013-10-06T08:39:41Z</time>
      </trkpt>
      <trkpt lat="45.98404" lon="6.36682">
        <ele>1391.14800128</ele>
        <time>2013-10-06T08:39:47Z</time>
      </trkpt>
      <trkpt lat="45.98395" lon="6.3669">
        <ele>1392.09400064</ele>
        <time>2013-10-06T08:39:56Z</time>
      </trkpt>
      <trkpt lat="45.98387" lon="6.36698">
        <ele>1394.7400064</ele>
        <time>2013-10-06T08:40:07Z</time>
      </trkpt>
      <trkpt lat="45.98377" lon="6.36693">
        <ele>1397.7400064</ele>
        <time>2013-10-06T08:40:13Z</time>
      </trkpt>
      <trkpt lat="45.98369" lon="6.36683">
        <ele>1400.593287651</ele>
        <time>2013-10-06T08:40:21Z</time>
      </trkpt>
      <trkpt lat="45.98359" lon="6.36661">
        <ele>1402.14500096</ele>
        <time>2013-10-06T08:40:37Z</time>
      </trkpt>
      <trkpt lat="45.98354" lon="6.36648">
        <ele>1403.48</ele>
        <time>2013-10-06T08:40:48Z</time>
      </trkpt>
      <trkpt lat="45.98348" lon="6.36639">
        <ele>1404.66000128</ele>
        <time>2013-10-06T08:40:54Z</time>
      </trkpt>
      <trkpt lat="45.9833" lon="6.36633">
        <ele>1405.9513409489</ele>
        <time>2013-10-06T08:41:05Z</time>
      </trkpt>
      <trkpt lat="45.98321" lon="6.36634">
        <ele>1408.81000192</ele>
        <time>2013-10-06T08:41:17Z</time>
      </trkpt>
      <trkpt lat="45.98311" lon="6.36639">
        <ele>1414</ele>
        <time>2013-10-06T08:41:27Z</time>
      </trkpt>
      <trkpt lat="45.98301" lon="6.36639">
        <ele>1414</ele>
        <time>2013-10-06T08:41:32Z</time>
      </trkpt>
      <trkpt lat="45.98291" lon="6.36642">
        <ele>1413.88399872</ele>
        <time>2013-10-06T08:41:36Z</time>
      </trkpt>
      <trkpt lat="45.98278" lon="6.36644">
        <ele>1413.08399872</ele>
        <time>2013-10-06T08:41:40Z</time>
      </trkpt>
      <trkpt lat="45.98269" lon="6.36644">
        <ele>1412.48399872</ele>
        <time>2013-10-06T08:41:43Z</time>
      </trkpt>
      <trkpt lat="45.98261" lon="6.36644">
        <ele>1411.65199616</ele>
        <time>2013-10-06T08:41:46Z</time>
      </trkpt>
      <trkpt lat="45.98249" lon="6.36641">
        <ele>1409.312</ele>
        <time>2013-10-06T08:41:50Z</time>
      </trkpt>
      <trkpt lat="45.98238" lon="6.36641">
        <ele>1406.09400064</ele>
        <time>2013-10-06T08:41:56Z</time>
      </trkpt>
      <trkpt lat="45.98232" lon="6.36653">
        <ele>1409.49600256</ele>
        <time>2013-10-06T08:42:13Z</time>
      </trkpt>
      <trkpt lat="45.98236" lon="6.36666">
        <ele>1410.83800064</ele>
        <time>2013-10-06T08:42:24Z</time>
      </trkpt>
      <trkpt lat="45.98243" lon="6.36679">
        <ele>1411.64700032</ele>
        <time>2013-10-06T08:42:32Z</time>
      </trkpt>
      <trkpt lat="45.98248" lon="6.36694">
        <ele>1413.7900032</ele>
        <time>2013-10-06T08:42:39Z</time>
      </trkpt>
      <trkpt lat="45.98249" lon="6.36709">
        <ele>1417.31600128</ele>
        <time>2013-10-06T08:42:47Z</time>
      </trkpt>
      <trkpt lat="45.98241" lon="6.36716">
        <ele>1419</ele>
        <time>2013-10-06T08:42:58Z</time>
      </trkpt>
      <trkpt lat="45.98232" lon="6.36709">
        <ele>1419.0729801512</ele>
        <time>2013-10-06T08:43:06Z</time>
      </trkpt>
      <trkpt lat="45.98224" lon="6.36703">
        <ele>1420.4536498912</ele>
        <time>2013-10-06T08:43:13Z</time>
      </trkpt>
      <trkpt lat="45.98215" lon="6.36693">
        <ele>1421.8782960671</ele>
        <time>2013-10-06T08:43:20Z</time>
      </trkpt>
      <trkpt lat="45.98199" lon="6.3667">
        <ele>1423.07400192</ele>
        <time>2013-10-06T08:43:36Z</time>
      </trkpt>
      <trkpt lat="45.98195" lon="6.36656">
        <ele>1424.89400064</ele>
        <time>2013-10-06T08:43:45Z</time>
      </trkpt>
      <trkpt lat="45.98188" lon="6.36627">
        <ele>1432.23500032</ele>
        <time>2013-10-06T08:44:08Z</time>
      </trkpt>
      <trkpt lat="45.98182" lon="6.36613">
        <ele>1433.47000064</ele>
        <time>2013-10-06T08:44:18Z</time>
      </trkpt>
      <trkpt lat="45.98174" lon="6.36604">
        <ele>1435</ele>
        <time>2013-10-06T08:44:26Z</time>
      </trkpt>
      <trkpt lat="45.98162" lon="6.36598">
        <ele>1435</ele>
        <time>2013-10-06T08:44:30Z</time>
      </trkpt>
      <trkpt lat="45.98151" lon="6.36597">
        <ele>1435</ele>
        <time>2013-10-06T08:44:34Z</time>
      </trkpt>
      <trkpt lat="45.98141" lon="6.36597">
        <ele>1435</ele>
        <time>2013-10-06T08:44:41Z</time>
      </trkpt>
      <trkpt lat="45.9813" lon="6.36598">
        <ele>1435.35800064</ele>
        <time>2013-10-06T08:44:49Z</time>
      </trkpt>
      <trkpt lat="45.98122" lon="6.36588">
        <ele>1436</ele>
        <time>2013-10-06T08:44:56Z</time>
      </trkpt>
      <trkpt lat="45.98118" lon="6.36575">
        <ele>1436</ele>
        <time>2013-10-06T08:45:03Z</time>
      </trkpt>
      <trkpt lat="45.98114" lon="6.36562">
        <ele>1436.85600256</ele>
        <time>2013-10-06T08:45:10Z</time>
      </trkpt>
      <trkpt lat="45.98105" lon="6.36551">
        <ele>1438.13700096</ele>
        <time>2013-10-06T08:45:17Z</time>
      </trkpt>
      <trkpt lat="45.98098" lon="6.36548">
        <ele>1438.53700096</ele>
        <time>2013-10-06T08:45:21Z</time>
      </trkpt>
      <trkpt lat="45.9809" lon="6.36541">
        <ele>1439.47000064</ele>
        <time>2013-10-06T08:45:28Z</time>
      </trkpt>
      <trkpt lat="45.98083" lon="6.36535">
        <ele>1440.89000192</ele>
        <time>2013-10-06T08:45:35Z</time>
      </trkpt>
      <trkpt lat="45.98077" lon="6.36529">
        <ele>1442.11600128</ele>
        <time>2013-10-06T08:45:41Z</time>
      </trkpt>
      <trkpt lat="45.9807" lon="6.36519">
        <ele>1443.45800064</ele>
        <time>2013-10-06T08:45:50Z</time>
      </trkpt>
      <trkpt lat="45.9806" lon="6.3651">
        <ele>1444.2337286099</ele>
        <time>2013-10-06T08:45:58Z</time>
      </trkpt>
      <trkpt lat="45.98041" lon="6.36494">
        <ele>1446.2839758436</ele>
        <time>2013-10-06T08:46:12Z</time>
      </trkpt>
      <trkpt lat="45.98032" lon="6.36484">
        <ele>1447.14500096</ele>
        <time>2013-10-06T08:46:17Z</time>
      </trkpt>
      <trkpt lat="45.98023" lon="6.36476">
        <ele>1447.64500096</ele>
        <time>2013-10-06T08:46:22Z</time>
      </trkpt>
      <trkpt lat="45.98014" lon="6.36468">
        <ele>1448.14700032</ele>
        <time>2013-10-06T08:46:27Z</time>
      </trkpt>
      <trkpt lat="45.98006" lon="6.36459">
        <ele>1448.64700032</ele>
        <time>2013-10-06T08:46:32Z</time>
      </trkpt>
      <trkpt lat="45.97996" lon="6.3645">
        <ele>1449</ele>
        <time>2013-10-06T08:46:37Z</time>
      </trkpt>
      <trkpt lat="45.97989" lon="6.36439">
        <ele>1449</ele>
        <time>2013-10-06T08:46:42Z</time>
      </trkpt>
      <trkpt lat="45.97983" lon="6.36427">
        <ele>1449</ele>
        <time>2013-10-06T08:46:46Z</time>
      </trkpt>
      <trkpt lat="45.97972" lon="6.36406">
        <ele>1449</ele>
        <time>2013-10-06T08:46:53Z</time>
      </trkpt>
      <trkpt lat="45.97965" lon="6.36395">
        <ele>1448.84199936</ele>
        <time>2013-10-06T08:46:57Z</time>
      </trkpt>
      <trkpt lat="45.97959" lon="6.36382">
        <ele>1448.44199936</ele>
        <time>2013-10-06T08:47:01Z</time>
      </trkpt>
      <trkpt lat="45.97954" lon="6.3637">
        <ele>1448.04199936</ele>
        <time>2013-10-06T08:47:05Z</time>
      </trkpt>
      <trkpt lat="45.97949" lon="6.36358">
        <ele>1448</ele>
        <time>2013-10-06T08:47:09Z</time>
      </trkpt>
      <trkpt lat="45.97942" lon="6.36345">
        <ele>1448</ele>
        <time>2013-10-06T08:47:14Z</time>
      </trkpt>
      <trkpt lat="45.97937" lon="6.36334">
        <ele>1447.752</ele>
        <time>2013-10-06T08:47:18Z</time>
      </trkpt>
      <trkpt lat="45.97933" lon="6.36321">
        <ele>1447.352</ele>
        <time>2013-10-06T08:47:22Z</time>
      </trkpt>
      <trkpt lat="45.9793" lon="6.36308">
        <ele>1447</ele>
        <time>2013-10-06T08:47:26Z</time>
      </trkpt>
      <trkpt lat="45.97925" lon="6.36295">
        <ele>1447</ele>
        <time>2013-10-06T08:47:30Z</time>
      </trkpt>
      <trkpt lat="45.97921" lon="6.36285">
        <ele>1447</ele>
        <time>2013-10-06T08:47:33Z</time>
      </trkpt>
      <trkpt lat="45.9791" lon="6.36265">
        <ele>1446.552</ele>
        <time>2013-10-06T08:47:40Z</time>
      </trkpt>
      <trkpt lat="45.97904" lon="6.36257">
        <ele>1446.25199872</ele>
        <time>2013-10-06T08:47:43Z</time>
      </trkpt>
      <trkpt lat="45.979" lon="6.36248">
        <ele>1445.95599872</ele>
        <time>2013-10-06T08:47:46Z</time>
      </trkpt>
      <trkpt lat="45.97894" lon="6.3624">
        <ele>1445.656</ele>
        <time>2013-10-06T08:47:49Z</time>
      </trkpt>
      <trkpt lat="45.97888" lon="6.36231">
        <ele>1445.35599872</ele>
        <time>2013-10-06T08:47:52Z</time>
      </trkpt>
      <trkpt lat="45.97882" lon="6.36223">
        <ele>1445.056</ele>
        <time>2013-10-06T08:47:55Z</time>
      </trkpt>
      <trkpt lat="45.97876" lon="6.36215">
        <ele>1443.8249984</ele>
        <time>2013-10-06T08:47:58Z</time>
      </trkpt>
      <trkpt lat="45.97869" lon="6.36207">
        <ele>1442.3249984</ele>
        <time>2013-10-06T08:48:01Z</time>
      </trkpt>
      <trkpt lat="45.97861" lon="6.36198">
        <ele>1440.3249984</ele>
        <time>2013-10-06T08:48:05Z</time>
      </trkpt>
      <trkpt lat="45.97854" lon="6.36193">
        <ele>1440</ele>
        <time>2013-10-06T08:48:08Z</time>
      </trkpt>
      <trkpt lat="45.97847" lon="6.36188">
        <ele>1440</ele>
        <time>2013-10-06T08:48:11Z</time>
      </trkpt>
      <trkpt lat="45.9784" lon="6.36184">
        <ele>1440</ele>
        <time>2013-10-06T08:48:14Z</time>
      </trkpt>
      <trkpt lat="45.97834" lon="6.36181">
        <ele>1439.85199872</ele>
        <time>2013-10-06T08:48:17Z</time>
      </trkpt>
      <trkpt lat="45.97825" lon="6.36178">
        <ele>1439.25199872</ele>
        <time>2013-10-06T08:48:23Z</time>
      </trkpt>
      <trkpt lat="45.97809" lon="6.36172">
        <ele>1440.49600256</ele>
        <time>2013-10-06T08:48:33Z</time>
      </trkpt>
      <trkpt lat="45.97799" lon="6.36166">
        <ele>1441.14800128</ele>
        <time>2013-10-06T08:48:37Z</time>
      </trkpt>
      <trkpt lat="45.97788" lon="6.36165">
        <ele>1441.54800128</ele>
        <time>2013-10-06T08:48:41Z</time>
      </trkpt>
      <trkpt lat="45.97779" lon="6.36165">
        <ele>1441.848</ele>
        <time>2013-10-06T08:48:44Z</time>
      </trkpt>
      <trkpt lat="45.97771" lon="6.36168">
        <ele>1442</ele>
        <time>2013-10-06T08:48:47Z</time>
      </trkpt>
      <trkpt lat="45.97751" lon="6.36161">
        <ele>1442</ele>
        <time>2013-10-06T08:48:55Z</time>
      </trkpt>
      <trkpt lat="45.97747" lon="6.36148">
        <ele>1441.0030188932</ele>
        <time>2013-10-06T08:48:59Z</time>
      </trkpt>
      <trkpt lat="45.97744" lon="6.36136">
        <ele>1439.7945592893</ele>
        <time>2013-10-06T08:49:03Z</time>
      </trkpt>
      <trkpt lat="45.97743" lon="6.36125">
        <ele>1439.23800064</ele>
        <time>2013-10-06T08:49:08Z</time>
      </trkpt>
      <trkpt lat="45.97741" lon="6.36115">
        <ele>1439.73800064</ele>
        <time>2013-10-06T08:49:13Z</time>
      </trkpt>
      <trkpt lat="45.9774" lon="6.36106">
        <ele>1440</ele>
        <time>2013-10-06T08:49:18Z</time>
      </trkpt>
      <trkpt lat="45.97737" lon="6.36097">
        <ele>1440</ele>
        <time>2013-10-06T08:49:23Z</time>
      </trkpt>
      <trkpt lat="45.97733" lon="6.36087">
        <ele>1440.31600128</ele>
        <time>2013-10-06T08:49:27Z</time>
      </trkpt>
      <trkpt lat="45.97727" lon="6.36074">
        <ele>1441.31600128</ele>
        <time>2013-10-06T08:49:32Z</time>
      </trkpt>
      <trkpt lat="45.97723" lon="6.36059">
        <ele>1442</ele>
        <time>2013-10-06T08:49:37Z</time>
      </trkpt>
      <trkpt lat="45.97721" lon="6.3605">
        <ele>1442</ele>
        <time>2013-10-06T08:49:41Z</time>
      </trkpt>
      <trkpt lat="45.97718" lon="6.36037">
        <ele>1442.05800064</ele>
        <time>2013-10-06T08:49:46Z</time>
      </trkpt>
      <trkpt lat="45.97714" lon="6.36025">
        <ele>1442.45800064</ele>
        <time>2013-10-06T08:49:50Z</time>
      </trkpt>
      <trkpt lat="45.97713" lon="6.36012">
        <ele>1442.85800064</ele>
        <time>2013-10-06T08:49:54Z</time>
      </trkpt>
      <trkpt lat="45.97711" lon="6.36001">
        <ele>1443.49000192</ele>
        <time>2013-10-06T08:49:58Z</time>
      </trkpt>
      <trkpt lat="45.97707" lon="6.35988">
        <ele>1444.89000192</ele>
        <time>2013-10-06T08:50:05Z</time>
      </trkpt>
      <trkpt lat="45.97703" lon="6.35975">
        <ele>1446.51600128</ele>
        <time>2013-10-06T08:50:13Z</time>
      </trkpt>
      <trkpt lat="45.97701" lon="6.35965">
        <ele>1447</ele>
        <time>2013-10-06T08:50:18Z</time>
      </trkpt>
      <trkpt lat="45.97694" lon="6.35953">
        <ele>1447.27400192</ele>
        <time>2013-10-06T08:50:27Z</time>
      </trkpt>
      <trkpt lat="45.97679" lon="6.35916">
        <ele>1449.848</ele>
        <time>2013-10-06T08:50:44Z</time>
      </trkpt>
      <trkpt lat="45.97676" lon="6.35907">
        <ele>1450.14800128</ele>
        <time>2013-10-06T08:50:47Z</time>
      </trkpt>
      <trkpt lat="45.97673" lon="6.35899">
        <ele>1450.448</ele>
        <time>2013-10-06T08:50:50Z</time>
      </trkpt>
      <trkpt lat="45.97669" lon="6.3589">
        <ele>1450.74800128</ele>
        <time>2013-10-06T08:50:53Z</time>
      </trkpt>
      <trkpt lat="45.97664" lon="6.3588">
        <ele>1450.856</ele>
        <time>2013-10-06T08:50:57Z</time>
      </trkpt>
      <trkpt lat="45.97659" lon="6.35871">
        <ele>1450.55599872</ele>
        <time>2013-10-06T08:51:00Z</time>
      </trkpt>
      <trkpt lat="45.97655" lon="6.35863">
        <ele>1450.256</ele>
        <time>2013-10-06T08:51:03Z</time>
      </trkpt>
      <trkpt lat="45.9765" lon="6.35848">
        <ele>1450</ele>
        <time>2013-10-06T08:51:08Z</time>
      </trkpt>
      <trkpt lat="45.97642" lon="6.35834">
        <ele>1450</ele>
        <time>2013-10-06T08:51:13Z</time>
      </trkpt>
      <trkpt lat="45.97635" lon="6.3582">
        <ele>1450</ele>
        <time>2013-10-06T08:51:18Z</time>
      </trkpt>
      <trkpt lat="45.97628" lon="6.35809">
        <ele>1450</ele>
        <time>2013-10-06T08:51:22Z</time>
      </trkpt>
      <trkpt lat="45.97624" lon="6.35798">
        <ele>1449.94199936</ele>
        <time>2013-10-06T08:51:26Z</time>
      </trkpt>
      <trkpt lat="45.97617" lon="6.35785">
        <ele>1449.152</ele>
        <time>2013-10-06T08:51:34Z</time>
      </trkpt>
      <trkpt lat="45.9761" lon="6.35775">
        <ele>1449.5431127439</ele>
        <time>2013-10-06T08:51:41Z</time>
      </trkpt>
      <trkpt lat="45.97604" lon="6.35764">
        <ele>1450.3410693112</ele>
        <time>2013-10-06T08:51:49Z</time>
      </trkpt>
      <trkpt lat="45.97599" lon="6.35751">
        <ele>1451.29000192</ele>
        <time>2013-10-06T08:51:57Z</time>
      </trkpt>
      <trkpt lat="45.97594" lon="6.35737">
        <ele>1452.89000192</ele>
        <time>2013-10-06T08:52:05Z</time>
      </trkpt>
      <trkpt lat="45.97588" lon="6.35723">
        <ele>1453.75400064</ele>
        <time>2013-10-06T08:52:13Z</time>
      </trkpt>
      <trkpt lat="45.97584" lon="6.35714">
        <ele>1454</ele>
        <time>2013-10-06T08:52:16Z</time>
      </trkpt>
      <trkpt lat="45.97567" lon="6.35691">
        <ele>1454</ele>
        <time>2013-10-06T08:52:24Z</time>
      </trkpt>
      <trkpt lat="45.97557" lon="6.35682">
        <ele>1452.7049984</ele>
        <time>2013-10-06T08:52:28Z</time>
      </trkpt>
      <trkpt lat="45.97547" lon="6.35673">
        <ele>1450.7099968</ele>
        <time>2013-10-06T08:52:32Z</time>
      </trkpt>
      <trkpt lat="45.97538" lon="6.35664">
        <ele>1448.76799744</ele>
        <time>2013-10-06T08:52:36Z</time>
      </trkpt>
      <trkpt lat="45.97527" lon="6.35656">
        <ele>1447.16799744</ele>
        <time>2013-10-06T08:52:40Z</time>
      </trkpt>
      <trkpt lat="45.97517" lon="6.3565">
        <ele>1445.56799744</ele>
        <time>2013-10-06T08:52:44Z</time>
      </trkpt>
      <trkpt lat="45.97498" lon="6.35637">
        <ele>1443.50399744</ele>
        <time>2013-10-06T08:52:53Z</time>
      </trkpt>
      <trkpt lat="45.9749" lon="6.35626">
        <ele>1442.70599936</ele>
        <time>2013-10-06T08:52:57Z</time>
      </trkpt>
      <trkpt lat="45.97485" lon="6.35616">
        <ele>1442.10599936</ele>
        <time>2013-10-06T08:53:00Z</time>
      </trkpt>
      <trkpt lat="45.97477" lon="6.35604">
        <ele>1441.30599936</ele>
        <time>2013-10-06T08:53:04Z</time>
      </trkpt>
      <trkpt lat="45.97469" lon="6.35595">
        <ele>1440.752</ele>
        <time>2013-10-06T08:53:08Z</time>
      </trkpt>
      <trkpt lat="45.97461" lon="6.35585">
        <ele>1440.352</ele>
        <time>2013-10-06T08:53:12Z</time>
      </trkpt>
      <trkpt lat="45.97451" lon="6.35577">
        <ele>1439.85199872</ele>
        <time>2013-10-06T08:53:17Z</time>
      </trkpt>
      <trkpt lat="45.97441" lon="6.35573">
        <ele>1439.45199872</ele>
        <time>2013-10-06T08:53:21Z</time>
      </trkpt>
      <trkpt lat="45.97435" lon="6.35569">
        <ele>1439.152</ele>
        <time>2013-10-06T08:53:24Z</time>
      </trkpt>
      <trkpt lat="45.9743" lon="6.35556">
        <ele>1438.752</ele>
        <time>2013-10-06T08:53:28Z</time>
      </trkpt>
      <trkpt lat="45.97426" lon="6.35543">
        <ele>1438.352</ele>
        <time>2013-10-06T08:53:32Z</time>
      </trkpt>
      <trkpt lat="45.97423" lon="6.3553">
        <ele>1437.952</ele>
        <time>2013-10-06T08:53:36Z</time>
      </trkpt>
      <trkpt lat="45.9742" lon="6.35519">
        <ele>1437.65199872</ele>
        <time>2013-10-06T08:53:39Z</time>
      </trkpt>
      <trkpt lat="45.97414" lon="6.35501">
        <ele>1437.152</ele>
        <time>2013-10-06T08:53:44Z</time>
      </trkpt>
      <trkpt lat="45.97413" lon="6.35493">
        <ele>1436.92599808</ele>
        <time>2013-10-06T08:53:46Z</time>
      </trkpt>
      <trkpt lat="45.97411" lon="6.35485">
        <ele>1436.52599808</ele>
        <time>2013-10-06T08:53:48Z</time>
      </trkpt>
      <trkpt lat="45.9741" lon="6.35477">
        <ele>1436.12599808</ele>
        <time>2013-10-06T08:53:50Z</time>
      </trkpt>
      <trkpt lat="45.97408" lon="6.3547">
        <ele>1435.72599808</ele>
        <time>2013-10-06T08:53:52Z</time>
      </trkpt>
      <trkpt lat="45.97407" lon="6.35462">
        <ele>1435.32599808</ele>
        <time>2013-10-06T08:53:54Z</time>
      </trkpt>
      <trkpt lat="45.97406" lon="6.35454">
        <ele>1434.664</ele>
        <time>2013-10-06T08:53:56Z</time>
      </trkpt>
      <trkpt lat="45.97405" lon="6.35445">
        <ele>1433.264</ele>
        <time>2013-10-06T08:53:58Z</time>
      </trkpt>
      <trkpt lat="45.97404" lon="6.35436">
        <ele>1431.864</ele>
        <time>2013-10-06T08:54:00Z</time>
      </trkpt>
      <trkpt lat="45.97404" lon="6.35427">
        <ele>1430.464</ele>
        <time>2013-10-06T08:54:02Z</time>
      </trkpt>
      <trkpt lat="45.97404" lon="6.35418">
        <ele>1429.064</ele>
        <time>2013-10-06T08:54:04Z</time>
      </trkpt>
      <trkpt lat="45.97405" lon="6.35409">
        <ele>1427.808</ele>
        <time>2013-10-06T08:54:06Z</time>
      </trkpt>
      <trkpt lat="45.97407" lon="6.35392">
        <ele>1426.208</ele>
        <time>2013-10-06T08:54:10Z</time>
      </trkpt>
      <trkpt lat="45.97407" lon="6.35383">
        <ele>1425.408</ele>
        <time>2013-10-06T08:54:12Z</time>
      </trkpt>
      <trkpt lat="45.97404" lon="6.35371">
        <ele>1424.20799488</ele>
        <time>2013-10-06T08:54:15Z</time>
      </trkpt>
      <trkpt lat="45.97399" lon="6.35363">
        <ele>1422.76</ele>
        <time>2013-10-06T08:54:18Z</time>
      </trkpt>
      <trkpt lat="45.9739" lon="6.35352">
        <ele>1420.76</ele>
        <time>2013-10-06T08:54:22Z</time>
      </trkpt>
      <trkpt lat="45.97382" lon="6.3534">
        <ele>1418.8110236221</ele>
        <time>2013-10-06T08:54:26Z</time>
      </trkpt>
      <trkpt lat="45.97373" lon="6.35327">
        <ele>1417.2362204724</ele>
        <time>2013-10-06T08:54:30Z</time>
      </trkpt>
      <trkpt lat="45.97365" lon="6.35312">
        <ele>1415.6614173228</ele>
        <time>2013-10-06T08:54:34Z</time>
      </trkpt>
      <trkpt lat="45.97361" lon="6.35304">
        <ele>1414.9481678049</ele>
        <time>2013-10-06T08:54:36Z</time>
      </trkpt>
      <trkpt lat="45.97358" lon="6.35297">
        <ele>1414.3384117073</ele>
        <time>2013-10-06T08:54:38Z</time>
      </trkpt>
      <trkpt lat="45.97354" lon="6.35289">
        <ele>1413.7286556098</ele>
        <time>2013-10-06T08:54:40Z</time>
      </trkpt>
      <trkpt lat="45.9735" lon="6.35281">
        <ele>1413.1188995122</ele>
        <time>2013-10-06T08:54:42Z</time>
      </trkpt>
      <trkpt lat="45.97343" lon="6.35266">
        <ele>1411.85999872</ele>
        <time>2013-10-06T08:54:46Z</time>
      </trkpt>
      <trkpt lat="45.97338" lon="6.3525">
        <ele>1410.25999872</ele>
        <time>2013-10-06T08:54:50Z</time>
      </trkpt>
      <trkpt lat="45.97334" lon="6.35232">
        <ele>1408.65999872</ele>
        <time>2013-10-06T08:54:54Z</time>
      </trkpt>
      <trkpt lat="45.97333" lon="6.35217">
        <ele>1407.85199872</ele>
        <time>2013-10-06T08:54:57Z</time>
      </trkpt>
      <trkpt lat="45.97332" lon="6.35199">
        <ele>1407.45199872</ele>
        <time>2013-10-06T08:55:01Z</time>
      </trkpt>
      <trkpt lat="45.97331" lon="6.35191">
        <ele>1407.25199872</ele>
        <time>2013-10-06T08:55:03Z</time>
      </trkpt>
      <trkpt lat="45.97328" lon="6.35179">
        <ele>1407</ele>
        <time>2013-10-06T08:55:06Z</time>
      </trkpt>
      <trkpt lat="45.97325" lon="6.35173">
        <ele>1407</ele>
        <time>2013-10-06T08:55:08Z</time>
      </trkpt>
      <trkpt lat="45.97318" lon="6.35165">
        <ele>1407</ele>
        <time>2013-10-06T08:55:11Z</time>
      </trkpt>
      <trkpt lat="45.97311" lon="6.35157">
        <ele>1407</ele>
        <time>2013-10-06T08:55:14Z</time>
      </trkpt>
      <trkpt lat="45.97303" lon="6.3515">
        <ele>1406.70399744</ele>
        <time>2013-10-06T08:55:17Z</time>
      </trkpt>
      <trkpt lat="45.97296" lon="6.35142">
        <ele>1406.104</ele>
        <time>2013-10-06T08:55:20Z</time>
      </trkpt>
      <trkpt lat="45.97288" lon="6.35129">
        <ele>1405.304</ele>
        <time>2013-10-06T08:55:24Z</time>
      </trkpt>
      <trkpt lat="45.97273" lon="6.35099">
        <ele>1404.352</ele>
        <time>2013-10-06T08:55:32Z</time>
      </trkpt>
      <trkpt lat="45.97259" lon="6.3507">
        <ele>1403.56499968</ele>
        <time>2013-10-06T08:55:40Z</time>
      </trkpt>
      <trkpt lat="45.97249" lon="6.3506">
        <ele>1403.16499968</ele>
        <time>2013-10-06T08:55:44Z</time>
      </trkpt>
      <trkpt lat="45.9724" lon="6.3505">
        <ele>1402.76499968</ele>
        <time>2013-10-06T08:55:48Z</time>
      </trkpt>
      <trkpt lat="45.97235" lon="6.35045">
        <ele>1402.26499968</ele>
        <time>2013-10-06T08:55:53Z</time>
      </trkpt>
      <trkpt lat="45.97243" lon="6.35035">
        <ele>1400.96299904</ele>
        <time>2013-10-06T08:56:06Z</time>
      </trkpt>
      <trkpt lat="45.97253" lon="6.35026">
        <ele>1400.56299904</ele>
        <time>2013-10-06T08:56:10Z</time>
      </trkpt>
      <trkpt lat="45.97257" lon="6.35014">
        <ele>1400.26299904</ele>
        <time>2013-10-06T08:56:13Z</time>
      </trkpt>
      <trkpt lat="45.97261" lon="6.34997">
        <ele>1399.11199232</ele>
        <time>2013-10-06T08:56:17Z</time>
      </trkpt>
      <trkpt lat="45.97264" lon="6.34986">
        <ele>1397.312</ele>
        <time>2013-10-06T08:56:20Z</time>
      </trkpt>
      <trkpt lat="45.97268" lon="6.34973">
        <ele>1395.51199232</ele>
        <time>2013-10-06T08:56:23Z</time>
      </trkpt>
      <trkpt lat="45.97271" lon="6.34961">
        <ele>1393.952</ele>
        <time>2013-10-06T08:56:26Z</time>
      </trkpt>
      <trkpt lat="45.97275" lon="6.34949">
        <ele>1393.65199872</ele>
        <time>2013-10-06T08:56:29Z</time>
      </trkpt>
      <trkpt lat="45.97278" lon="6.34938">
        <ele>1393.25199872</ele>
        <time>2013-10-06T08:56:33Z</time>
      </trkpt>
      <trkpt lat="45.97281" lon="6.34932">
        <ele>1393</ele>
        <time>2013-10-06T08:56:36Z</time>
      </trkpt>
      <trkpt lat="45.97284" lon="6.34926">
        <ele>1393</ele>
        <time>2013-10-06T08:56:38Z</time>
      </trkpt>
      <trkpt lat="45.97286" lon="6.34919">
        <ele>1393</ele>
        <time>2013-10-06T08:56:40Z</time>
      </trkpt>
      <trkpt lat="45.97289" lon="6.34911">
        <ele>1393</ele>
        <time>2013-10-06T08:56:42Z</time>
      </trkpt>
      <trkpt lat="45.97291" lon="6.34901">
        <ele>1393</ele>
        <time>2013-10-06T08:56:45Z</time>
      </trkpt>
      <trkpt lat="45.97293" lon="6.3489">
        <ele>1393.25800064</ele>
        <time>2013-10-06T08:56:48Z</time>
      </trkpt>
      <trkpt lat="45.97298" lon="6.34864">
        <ele>1394</ele>
        <time>2013-10-06T08:56:56Z</time>
      </trkpt>
      <trkpt lat="45.97302" lon="6.34852">
        <ele>1394</ele>
        <time>2013-10-06T08:57:00Z</time>
      </trkpt>
      <trkpt lat="45.97306" lon="6.34839">
        <ele>1394</ele>
        <time>2013-10-06T08:57:04Z</time>
      </trkpt>
      <trkpt lat="45.97308" lon="6.34825">
        <ele>1394.248</ele>
        <time>2013-10-06T08:57:08Z</time>
      </trkpt>
      <trkpt lat="45.973" lon="6.34798">
        <ele>1395.245787675</ele>
        <time>2013-10-06T08:57:18Z</time>
      </trkpt>
      <trkpt lat="45.97291" lon="6.34786">
        <ele>1395.7413286108</ele>
        <time>2013-10-06T08:57:23Z</time>
      </trkpt>
      <trkpt lat="45.97286" lon="6.34779">
        <ele>1396.0383444973</ele>
        <time>2013-10-06T08:57:26Z</time>
      </trkpt>
      <trkpt lat="45.97281" lon="6.34772">
        <ele>1396.3410693112</ele>
        <time>2013-10-06T08:57:29Z</time>
      </trkpt>
      <trkpt lat="45.97276" lon="6.34764">
        <ele>1396.6337039438</ele>
        <time>2013-10-06T08:57:32Z</time>
      </trkpt>
      <trkpt lat="45.97271" lon="6.34755">
        <ele>1396.9364287578</ele>
        <time>2013-10-06T08:57:35Z</time>
      </trkpt>
      <trkpt lat="45.97265" lon="6.34747">
        <ele>1397</ele>
        <time>2013-10-06T08:57:38Z</time>
      </trkpt>
      <trkpt lat="45.9726" lon="6.34738">
        <ele>1397</ele>
        <time>2013-10-06T08:57:41Z</time>
      </trkpt>
      <trkpt lat="45.97256" lon="6.34731">
        <ele>1397</ele>
        <time>2013-10-06T08:57:43Z</time>
      </trkpt>
      <trkpt lat="45.97253" lon="6.34724">
        <ele>1397</ele>
        <time>2013-10-06T08:57:45Z</time>
      </trkpt>
      <trkpt lat="45.97248" lon="6.34715">
        <ele>1396.504</ele>
        <time>2013-10-06T08:57:48Z</time>
      </trkpt>
      <trkpt lat="45.97243" lon="6.34705">
        <ele>1395.90399744</ele>
        <time>2013-10-06T08:57:51Z</time>
      </trkpt>
      <trkpt lat="45.97237" lon="6.34696">
        <ele>1395.304</ele>
        <time>2013-10-06T08:57:54Z</time>
      </trkpt>
      <trkpt lat="45.97234" lon="6.34686">
        <ele>1394.85199872</ele>
        <time>2013-10-06T08:57:57Z</time>
      </trkpt>
      <trkpt lat="45.97228" lon="6.34673">
        <ele>1394.45199872</ele>
        <time>2013-10-06T08:58:01Z</time>
      </trkpt>
      <trkpt lat="45.97221" lon="6.34649">
        <ele>1394.248</ele>
        <time>2013-10-06T08:58:08Z</time>
      </trkpt>
      <trkpt lat="45.97218" lon="6.34637">
        <ele>1394.648</ele>
        <time>2013-10-06T08:58:12Z</time>
      </trkpt>
      <trkpt lat="45.97215" lon="6.34626">
        <ele>1395.048</ele>
        <time>2013-10-06T08:58:16Z</time>
      </trkpt>
      <trkpt lat="45.97205" lon="6.34617">
        <ele>1395.648</ele>
        <time>2013-10-06T08:58:22Z</time>
      </trkpt>
      <trkpt lat="45.97196" lon="6.34619">
        <ele>1396</ele>
        <time>2013-10-06T08:58:26Z</time>
      </trkpt>
      <trkpt lat="45.97189" lon="6.34626">
        <ele>1396</ele>
        <time>2013-10-06T08:58:31Z</time>
      </trkpt>
      <trkpt lat="45.97184" lon="6.34637">
        <ele>1396</ele>
        <time>2013-10-06T08:58:35Z</time>
      </trkpt>
      <trkpt lat="45.97177" lon="6.34647">
        <ele>1396.34800128</ele>
        <time>2013-10-06T08:58:39Z</time>
      </trkpt>
      <trkpt lat="45.97169" lon="6.34657">
        <ele>1396.848</ele>
        <time>2013-10-06T08:58:44Z</time>
      </trkpt>
      <trkpt lat="45.97162" lon="6.34666">
        <ele>1397.34800128</ele>
        <time>2013-10-06T08:58:49Z</time>
      </trkpt>
      <trkpt lat="45.97142" lon="6.34684">
        <ele>1397.552</ele>
        <time>2013-10-06T08:59:00Z</time>
      </trkpt>
      <trkpt lat="45.97132" lon="6.34688">
        <ele>1397.048</ele>
        <time>2013-10-06T08:59:06Z</time>
      </trkpt>
      <trkpt lat="45.97121" lon="6.34683">
        <ele>1397.448</ele>
        <time>2013-10-06T08:59:10Z</time>
      </trkpt>
      <trkpt lat="45.9711" lon="6.34684">
        <ele>1397.848</ele>
        <time>2013-10-06T08:59:14Z</time>
      </trkpt>
      <trkpt lat="45.97098" lon="6.34688">
        <ele>1398.344</ele>
        <time>2013-10-06T08:59:19Z</time>
      </trkpt>
      <trkpt lat="45.97091" lon="6.347">
        <ele>1398.944</ele>
        <time>2013-10-06T08:59:25Z</time>
      </trkpt>
      <trkpt lat="45.97086" lon="6.34715">
        <ele>1399</ele>
        <time>2013-10-06T08:59:30Z</time>
      </trkpt>
      <trkpt lat="45.97077" lon="6.34723">
        <ele>1399</ele>
        <time>2013-10-06T08:59:38Z</time>
      </trkpt>
      <trkpt lat="45.97067" lon="6.34716">
        <ele>1399</ele>
        <time>2013-10-06T08:59:44Z</time>
      </trkpt>
      <trkpt lat="45.97052" lon="6.34692">
        <ele>1399.74800128</ele>
        <time>2013-10-06T08:59:53Z</time>
      </trkpt>
      <trkpt lat="45.97047" lon="6.34677">
        <ele>1400</ele>
        <time>2013-10-06T08:59:57Z</time>
      </trkpt>
      <trkpt lat="45.97041" lon="6.34665">
        <ele>1400</ele>
        <time>2013-10-06T09:00:01Z</time>
      </trkpt>
      <trkpt lat="45.97031" lon="6.34659">
        <ele>1400</ele>
        <time>2013-10-06T09:00:06Z</time>
      </trkpt>
      <trkpt lat="45.9702" lon="6.34659">
        <ele>1400</ele>
        <time>2013-10-06T09:00:10Z</time>
      </trkpt>
      <trkpt lat="45.97014" lon="6.34654">
        <ele>1400</ele>
        <time>2013-10-06T09:00:13Z</time>
      </trkpt>
      <trkpt lat="45.97006" lon="6.34642">
        <ele>1399.8708374127</ele>
        <time>2013-10-06T09:00:17Z</time>
      </trkpt>
      <trkpt lat="45.96999" lon="6.34631">
        <ele>1399.4571141461</ele>
        <time>2013-10-06T09:00:21Z</time>
      </trkpt>
      <trkpt lat="45.96988" lon="6.34628">
        <ele>1399</ele>
        <time>2013-10-06T09:00:29Z</time>
      </trkpt>
      <trkpt lat="45.96981" lon="6.34641">
        <ele>1399</ele>
        <time>2013-10-06T09:00:35Z</time>
      </trkpt>
      <trkpt lat="45.96983" lon="6.34656">
        <ele>1396.2099968</ele>
        <time>2013-10-06T09:00:41Z</time>
      </trkpt>
      <trkpt lat="45.96987" lon="6.34672">
        <ele>1392.61999616</ele>
        <time>2013-10-06T09:00:49Z</time>
      </trkpt>
      <trkpt lat="45.96992" lon="6.34685">
        <ele>1390.61999616</ele>
        <time>2013-10-06T09:00:54Z</time>
      </trkpt>
      <trkpt lat="45.96988" lon="6.347">
        <ele>1388.88199936</ele>
        <time>2013-10-06T09:01:01Z</time>
      </trkpt>
      <trkpt lat="45.96986" lon="6.34714">
        <ele>1386.33500032</ele>
        <time>2013-10-06T09:01:29Z</time>
      </trkpt>
      <trkpt lat="45.96979" lon="6.34724">
        <ele>1388.67000064</ele>
        <time>2013-10-06T09:01:44Z</time>
      </trkpt>
      <trkpt lat="45.96959" lon="6.34719">
        <ele>1394.75800064</ele>
        <time>2013-10-06T09:02:03Z</time>
      </trkpt>
      <trkpt lat="45.96952" lon="6.34708">
        <ele>1396.51600128</ele>
        <time>2013-10-06T09:02:13Z</time>
      </trkpt>
      <trkpt lat="45.96942" lon="6.34705">
        <ele>1397.24700032</ele>
        <time>2013-10-06T09:02:18Z</time>
      </trkpt>
      <trkpt lat="45.96925" lon="6.34688">
        <ele>1397.56499968</ele>
        <time>2013-10-06T09:02:30Z</time>
      </trkpt>
      <trkpt lat="45.96915" lon="6.34686">
        <ele>1397</ele>
        <time>2013-10-06T09:02:41Z</time>
      </trkpt>
      <trkpt lat="45.96904" lon="6.34685">
        <ele>1397.35800064</ele>
        <time>2013-10-06T09:02:49Z</time>
      </trkpt>
      <trkpt lat="45.96893" lon="6.34684">
        <ele>1397.95800064</ele>
        <time>2013-10-06T09:02:55Z</time>
      </trkpt>
      <trkpt lat="45.96884" lon="6.34688">
        <ele>1398.4539149695</ele>
        <time>2013-10-06T09:03:00Z</time>
      </trkpt>
      <trkpt lat="45.96874" lon="6.34696">
        <ele>1398.8503467033</ele>
        <time>2013-10-06T09:03:04Z</time>
      </trkpt>
      <trkpt lat="45.96866" lon="6.34707">
        <ele>1399.2300708586</ele>
        <time>2013-10-06T09:03:08Z</time>
      </trkpt>
      <trkpt lat="45.96856" lon="6.34711">
        <ele>1399.6337039438</ele>
        <time>2013-10-06T09:03:12Z</time>
      </trkpt>
      <trkpt lat="45.96846" lon="6.34704">
        <ele>1400</ele>
        <time>2013-10-06T09:03:17Z</time>
      </trkpt>
      <trkpt lat="45.96836" lon="6.34697">
        <ele>1400</ele>
        <time>2013-10-06T09:03:24Z</time>
      </trkpt>
      <trkpt lat="45.96828" lon="6.3469">
        <ele>1401.67000064</ele>
        <time>2013-10-06T09:03:34Z</time>
      </trkpt>
      <trkpt lat="45.96825" lon="6.34675">
        <ele>1402.848</ele>
        <time>2013-10-06T09:03:44Z</time>
      </trkpt>
      <trkpt lat="45.96829" lon="6.34662">
        <ele>1403</ele>
        <time>2013-10-06T09:03:52Z</time>
      </trkpt>
      <trkpt lat="45.96835" lon="6.34649">
        <ele>1403.51600128</ele>
        <time>2013-10-06T09:03:58Z</time>
      </trkpt>
      <trkpt lat="45.96841" lon="6.34636">
        <ele>1404.71600128</ele>
        <time>2013-10-06T09:04:04Z</time>
      </trkpt>
      <trkpt lat="45.96845" lon="6.34623">
        <ele>1405</ele>
        <time>2013-10-06T09:04:08Z</time>
      </trkpt>
      <trkpt lat="45.96847" lon="6.34608">
        <ele>1405</ele>
        <time>2013-10-06T09:04:13Z</time>
      </trkpt>
      <trkpt lat="45.96847" lon="6.34593">
        <ele>1405.2292291292</ele>
        <time>2013-10-06T09:04:18Z</time>
      </trkpt>
      <trkpt lat="45.96842" lon="6.34581">
        <ele>1405.8298303069</ele>
        <time>2013-10-06T09:04:24Z</time>
      </trkpt>
      <trkpt lat="45.96833" lon="6.34555">
        <ele>1406</ele>
        <time>2013-10-06T09:04:32Z</time>
      </trkpt>
      <trkpt lat="45.96825" lon="6.34541">
        <ele>1405.05999872</ele>
        <time>2013-10-06T09:04:38Z</time>
      </trkpt>
      <trkpt lat="45.96815" lon="6.34516">
        <ele>1400.02599808</ele>
        <time>2013-10-06T09:04:52Z</time>
      </trkpt>
      <trkpt lat="45.96812" lon="6.34498">
        <ele>1399</ele>
        <time>2013-10-06T09:05:05Z</time>
      </trkpt>
      <trkpt lat="45.96807" lon="6.34484">
        <ele>1399.496</ele>
        <time>2013-10-06T09:05:08Z</time>
      </trkpt>
      <trkpt lat="45.96799" lon="6.34472">
        <ele>1400.49600256</ele>
        <time>2013-10-06T09:05:13Z</time>
      </trkpt>
      <trkpt lat="45.96789" lon="6.3447">
        <ele>1401.27000064</ele>
        <time>2013-10-06T09:05:17Z</time>
      </trkpt>
      <trkpt lat="45.96782" lon="6.3446">
        <ele>1402.27000064</ele>
        <time>2013-10-06T09:05:22Z</time>
      </trkpt>
      <trkpt lat="45.9678" lon="6.3445">
        <ele>1402.87000064</ele>
        <time>2013-10-06T09:05:25Z</time>
      </trkpt>
      <trkpt lat="45.9678" lon="6.34442">
        <ele>1403</ele>
        <time>2013-10-06T09:05:27Z</time>
      </trkpt>
      <trkpt lat="45.96781" lon="6.3443">
        <ele>1403</ele>
        <time>2013-10-06T09:05:31Z</time>
      </trkpt>
      <trkpt lat="45.96771" lon="6.34426">
        <ele>1403</ele>
        <time>2013-10-06T09:05:42Z</time>
      </trkpt>
      <trkpt lat="45.96762" lon="6.34418">
        <ele>1403</ele>
        <time>2013-10-06T09:05:46Z</time>
      </trkpt>
      <trkpt lat="45.96756" lon="6.34407">
        <ele>1404.27000064</ele>
        <time>2013-10-06T09:06:17Z</time>
      </trkpt>
      <trkpt lat="45.96745" lon="6.34405">
        <ele>1406.47000064</ele>
        <time>2013-10-06T09:06:28Z</time>
      </trkpt>
      <trkpt lat="45.96734" lon="6.344">
        <ele>1407.87000064</ele>
        <time>2013-10-06T09:06:35Z</time>
      </trkpt>
      <trkpt lat="45.96725" lon="6.34392">
        <ele>1409.696</ele>
        <time>2013-10-06T09:06:44Z</time>
      </trkpt>
      <trkpt lat="45.96715" lon="6.34391">
        <ele>1411.11600128</ele>
        <time>2013-10-06T09:06:51Z</time>
      </trkpt>
      <trkpt lat="45.96705" lon="6.34394">
        <ele>1413.11600128</ele>
        <time>2013-10-06T09:07:01Z</time>
      </trkpt>
      <trkpt lat="45.96685" lon="6.34386">
        <ele>1417.27600128</ele>
        <time>2013-10-06T09:07:22Z</time>
      </trkpt>
      <trkpt lat="45.96682" lon="6.3437">
        <ele>1418.14800128</ele>
        <time>2013-10-06T09:07:27Z</time>
      </trkpt>
      <trkpt lat="45.9668" lon="6.34355">
        <ele>1418.54800128</ele>
        <time>2013-10-06T09:07:31Z</time>
      </trkpt>
      <trkpt lat="45.96671" lon="6.34346">
        <ele>1418.94800128</ele>
        <time>2013-10-06T09:07:35Z</time>
      </trkpt>
      <trkpt lat="45.96663" lon="6.34336">
        <ele>1419</ele>
        <time>2013-10-06T09:07:40Z</time>
      </trkpt>
      <trkpt lat="45.96664" lon="6.34322">
        <ele>1419</ele>
        <time>2013-10-06T09:07:45Z</time>
      </trkpt>
      <trkpt lat="45.96667" lon="6.34307">
        <ele>1418.08399872</ele>
        <time>2013-10-06T09:07:50Z</time>
      </trkpt>
      <trkpt lat="45.9667" lon="6.34293">
        <ele>1417.28399872</ele>
        <time>2013-10-06T09:07:54Z</time>
      </trkpt>
      <trkpt lat="45.96666" lon="6.34261">
        <ele>1413.61199872</ele>
        <time>2013-10-06T09:08:04Z</time>
      </trkpt>
      <trkpt lat="45.96665" lon="6.34246">
        <ele>1411.69199872</ele>
        <time>2013-10-06T09:08:12Z</time>
      </trkpt>
      <trkpt lat="45.96661" lon="6.34231">
        <ele>1411.73500032</ele>
        <time>2013-10-06T09:08:23Z</time>
      </trkpt>
      <trkpt lat="45.9666" lon="6.34217">
        <ele>1412.71600128</ele>
        <time>2013-10-06T09:08:29Z</time>
      </trkpt>
      <trkpt lat="45.96663" lon="6.34204">
        <ele>1413.71600128</ele>
        <time>2013-10-06T09:08:34Z</time>
      </trkpt>
      <trkpt lat="45.96665" lon="6.34189">
        <ele>1414</ele>
        <time>2013-10-06T09:08:39Z</time>
      </trkpt>
      <trkpt lat="45.96661" lon="6.34176">
        <ele>1414.0486322661</ele>
        <time>2013-10-06T09:08:46Z</time>
      </trkpt>
      <trkpt lat="45.96652" lon="6.34166">
        <ele>1415.2644389198</ele>
        <time>2013-10-06T09:08:52Z</time>
      </trkpt>
      <trkpt lat="45.96649" lon="6.34151">
        <ele>1417.04400384</ele>
        <time>2013-10-06T09:08:59Z</time>
      </trkpt>
      <trkpt lat="45.96648" lon="6.34135">
        <ele>1419</ele>
        <time>2013-10-06T09:09:07Z</time>
      </trkpt>
      <trkpt lat="45.96645" lon="6.34121">
        <ele>1419</ele>
        <time>2013-10-06T09:09:14Z</time>
      </trkpt>
      <trkpt lat="45.96627" lon="6.341">
        <ele>1420.23500032</ele>
        <time>2013-10-06T09:09:28Z</time>
      </trkpt>
      <trkpt lat="45.96624" lon="6.34086">
        <ele>1420.63500032</ele>
        <time>2013-10-06T09:09:32Z</time>
      </trkpt>
      <trkpt lat="45.96618" lon="6.34074">
        <ele>1421</ele>
        <time>2013-10-06T09:09:36Z</time>
      </trkpt>
      <trkpt lat="45.9661" lon="6.34067">
        <ele>1421</ele>
        <time>2013-10-06T09:09:40Z</time>
      </trkpt>
      <trkpt lat="45.96601" lon="6.34058">
        <ele>1421</ele>
        <time>2013-10-06T09:09:44Z</time>
      </trkpt>
      <trkpt lat="45.96595" lon="6.34042">
        <ele>1420.48399872</ele>
        <time>2013-10-06T09:09:48Z</time>
      </trkpt>
      <trkpt lat="45.96585" lon="6.34029">
        <ele>1419.68399872</ele>
        <time>2013-10-06T09:09:52Z</time>
      </trkpt>
      <trkpt lat="45.96574" lon="6.34021">
        <ele>1418.85899904</ele>
        <time>2013-10-06T09:09:56Z</time>
      </trkpt>
      <trkpt lat="45.96567" lon="6.34007">
        <ele>1417.68899712</ele>
        <time>2013-10-06T09:10:00Z</time>
      </trkpt>
      <trkpt lat="45.96561" lon="6.33993">
        <ele>1416.48899712</ele>
        <time>2013-10-06T09:10:04Z</time>
      </trkpt>
      <trkpt lat="45.9656" lon="6.33978">
        <ele>1415.752</ele>
        <time>2013-10-06T09:10:08Z</time>
      </trkpt>
      <trkpt lat="45.96557" lon="6.33964">
        <ele>1415.352</ele>
        <time>2013-10-06T09:10:12Z</time>
      </trkpt>
      <trkpt lat="45.96551" lon="6.33951">
        <ele>1415.13500032</ele>
        <time>2013-10-06T09:10:17Z</time>
      </trkpt>
      <trkpt lat="45.96544" lon="6.33938">
        <ele>1415.93500032</ele>
        <time>2013-10-06T09:10:25Z</time>
      </trkpt>
      <trkpt lat="45.9653" lon="6.33918">
        <ele>1417.448</ele>
        <time>2013-10-06T09:10:40Z</time>
      </trkpt>
      <trkpt lat="45.96523" lon="6.33905">
        <ele>1418.23700096</ele>
        <time>2013-10-06T09:10:48Z</time>
      </trkpt>
      <trkpt lat="45.96517" lon="6.33893">
        <ele>1419.0346194945</ele>
        <time>2013-10-06T09:10:56Z</time>
      </trkpt>
      <trkpt lat="45.9651" lon="6.3388">
        <ele>1419.8358068176</ele>
        <time>2013-10-06T09:11:04Z</time>
      </trkpt>
      <trkpt lat="45.96505" lon="6.33868">
        <ele>1421.079880309</ele>
        <time>2013-10-06T09:11:11Z</time>
      </trkpt>
      <trkpt lat="45.96493" lon="6.33847">
        <ele>1422.83800064</ele>
        <time>2013-10-06T09:11:24Z</time>
      </trkpt>
      <trkpt lat="45.96487" lon="6.33834">
        <ele>1423.6521308364</ele>
        <time>2013-10-06T09:11:32Z</time>
      </trkpt>
      <trkpt lat="45.96487" lon="6.33822">
        <ele>1424.4601417172</ele>
        <time>2013-10-06T09:11:38Z</time>
      </trkpt>
      <trkpt lat="45.96488" lon="6.33807">
        <ele>1425.8728575156</ele>
        <time>2013-10-06T09:11:45Z</time>
      </trkpt>
      <trkpt lat="45.96489" lon="6.33791">
        <ele>1426.74800128</ele>
        <time>2013-10-06T09:11:53Z</time>
      </trkpt>
      <trkpt lat="45.96488" lon="6.33776">
        <ele>1427.448</ele>
        <time>2013-10-06T09:12:00Z</time>
      </trkpt>
      <trkpt lat="45.96484" lon="6.33761">
        <ele>1428.23500032</ele>
        <time>2013-10-06T09:12:08Z</time>
      </trkpt>
      <trkpt lat="45.96479" lon="6.33748">
        <ele>1429.04700032</ele>
        <time>2013-10-06T09:12:16Z</time>
      </trkpt>
      <trkpt lat="45.96476" lon="6.33735">
        <ele>1429.64700032</ele>
        <time>2013-10-06T09:12:22Z</time>
      </trkpt>
      <trkpt lat="45.96471" lon="6.33722">
        <ele>1430.67000064</ele>
        <time>2013-10-06T09:12:29Z</time>
      </trkpt>
      <trkpt lat="45.96464" lon="6.33709">
        <ele>1432.13500032</ele>
        <time>2013-10-06T09:12:37Z</time>
      </trkpt>
      <trkpt lat="45.96458" lon="6.33697">
        <ele>1432.83500032</ele>
        <time>2013-10-06T09:12:44Z</time>
      </trkpt>
      <trkpt lat="45.96451" lon="6.33687">
        <ele>1434.296</ele>
        <time>2013-10-06T09:12:52Z</time>
      </trkpt>
      <trkpt lat="45.96444" lon="6.33675">
        <ele>1435.54800128</ele>
        <time>2013-10-06T09:13:01Z</time>
      </trkpt>
      <trkpt lat="45.96437" lon="6.33664">
        <ele>1436.23800064</ele>
        <time>2013-10-06T09:13:08Z</time>
      </trkpt>
      <trkpt lat="45.96428" lon="6.33656">
        <ele>1436.93800064</ele>
        <time>2013-10-06T09:13:15Z</time>
      </trkpt>
      <trkpt lat="45.96422" lon="6.33644">
        <ele>1437.648</ele>
        <time>2013-10-06T09:13:22Z</time>
      </trkpt>
      <trkpt lat="45.96417" lon="6.33631">
        <ele>1438.33500032</ele>
        <time>2013-10-06T09:13:29Z</time>
      </trkpt>
      <trkpt lat="45.96412" lon="6.33616">
        <ele>1438.94500096</ele>
        <time>2013-10-06T09:13:35Z</time>
      </trkpt>
      <trkpt lat="45.96399" lon="6.33572">
        <ele>1441.45800064</ele>
        <time>2013-10-06T09:13:50Z</time>
      </trkpt>
      <trkpt lat="45.96396" lon="6.33557">
        <ele>1441.95800064</ele>
        <time>2013-10-06T09:13:55Z</time>
      </trkpt>
      <trkpt lat="45.96391" lon="6.33543">
        <ele>1442.45800064</ele>
        <time>2013-10-06T09:14:00Z</time>
      </trkpt>
      <trkpt lat="45.9639" lon="6.33526">
        <ele>1442.95800064</ele>
        <time>2013-10-06T09:14:05Z</time>
      </trkpt>
      <trkpt lat="45.9639" lon="6.33509">
        <ele>1443.448</ele>
        <time>2013-10-06T09:14:10Z</time>
      </trkpt>
      <trkpt lat="45.96392" lon="6.33492">
        <ele>1443.94800128</ele>
        <time>2013-10-06T09:14:15Z</time>
      </trkpt>
      <trkpt lat="45.96393" lon="6.33478">
        <ele>1444</ele>
        <time>2013-10-06T09:14:20Z</time>
      </trkpt>
      <trkpt lat="45.96397" lon="6.33463">
        <ele>1444</ele>
        <time>2013-10-06T09:14:25Z</time>
      </trkpt>
      <trkpt lat="45.96408" lon="6.33462">
        <ele>1444.4419775825</ele>
        <time>2013-10-06T09:14:30Z</time>
      </trkpt>
      <trkpt lat="45.96418" lon="6.33467">
        <ele>1444.8456106678</ele>
        <time>2013-10-06T09:14:34Z</time>
      </trkpt>
      <trkpt lat="45.96429" lon="6.33474">
        <ele>1445</ele>
        <time>2013-10-06T09:14:38Z</time>
      </trkpt>
      <trkpt lat="45.96438" lon="6.33482">
        <ele>1445</ele>
        <time>2013-10-06T09:14:42Z</time>
      </trkpt>
      <trkpt lat="45.96447" lon="6.33493">
        <ele>1444.952</ele>
        <time>2013-10-06T09:14:46Z</time>
      </trkpt>
      <trkpt lat="45.96455" lon="6.33505">
        <ele>1444.552</ele>
        <time>2013-10-06T09:14:50Z</time>
      </trkpt>
      <trkpt lat="45.96464" lon="6.33516">
        <ele>1444.152</ele>
        <time>2013-10-06T09:14:54Z</time>
      </trkpt>
      <trkpt lat="45.96472" lon="6.33526">
        <ele>1443.008</ele>
        <time>2013-10-06T09:14:58Z</time>
      </trkpt>
      <trkpt lat="45.9648" lon="6.33538">
        <ele>1441.408</ele>
        <time>2013-10-06T09:15:02Z</time>
      </trkpt>
      <trkpt lat="45.96489" lon="6.33547">
        <ele>1439.96199936</ele>
        <time>2013-10-06T09:15:06Z</time>
      </trkpt>
      <trkpt lat="45.965" lon="6.33551">
        <ele>1439.46199936</ele>
        <time>2013-10-06T09:15:11Z</time>
      </trkpt>
      <trkpt lat="45.96522" lon="6.33547">
        <ele>1438.56499968</ele>
        <time>2013-10-06T09:15:20Z</time>
      </trkpt>
      <trkpt lat="45.96533" lon="6.33544">
        <ele>1438.16499968</ele>
        <time>2013-10-06T09:15:24Z</time>
      </trkpt>
      <trkpt lat="45.96543" lon="6.33538">
        <ele>1437.752</ele>
        <time>2013-10-06T09:15:28Z</time>
      </trkpt>
      <trkpt lat="45.96553" lon="6.33534">
        <ele>1437.352</ele>
        <time>2013-10-06T09:15:32Z</time>
      </trkpt>
      <trkpt lat="45.96564" lon="6.33529">
        <ele>1436.93799936</ele>
        <time>2013-10-06T09:15:36Z</time>
      </trkpt>
      <trkpt lat="45.96576" lon="6.33527">
        <ele>1436.13799936</ele>
        <time>2013-10-06T09:15:40Z</time>
      </trkpt>
      <trkpt lat="45.96588" lon="6.33512">
        <ele>1434.65199872</ele>
        <time>2013-10-06T09:15:49Z</time>
      </trkpt>
      <trkpt lat="45.96586" lon="6.33497">
        <ele>1434.25199872</ele>
        <time>2013-10-06T09:15:53Z</time>
      </trkpt>
      <trkpt lat="45.96579" lon="6.33484">
        <ele>1433.752</ele>
        <time>2013-10-06T09:15:58Z</time>
      </trkpt>
      <trkpt lat="45.96572" lon="6.33473">
        <ele>1433.25199872</ele>
        <time>2013-10-06T09:16:03Z</time>
      </trkpt>
      <trkpt lat="45.96563" lon="6.33463">
        <ele>1433.63500032</ele>
        <time>2013-10-06T09:16:12Z</time>
      </trkpt>
      <trkpt lat="45.96554" lon="6.33455">
        <ele>1434.73500032</ele>
        <time>2013-10-06T09:16:23Z</time>
      </trkpt>
      <trkpt lat="45.96547" lon="6.33445">
        <ele>1436.07400192</ele>
        <time>2013-10-06T09:16:31Z</time>
      </trkpt>
      <trkpt lat="45.96539" lon="6.33437">
        <ele>1437.24900096</ele>
        <time>2013-10-06T09:16:38Z</time>
      </trkpt>
      <trkpt lat="45.96531" lon="6.33425">
        <ele>1438.096</ele>
        <time>2013-10-06T09:16:46Z</time>
      </trkpt>
      <trkpt lat="45.96523" lon="6.33414">
        <ele>1439.696</ele>
        <time>2013-10-06T09:16:54Z</time>
      </trkpt>
      <trkpt lat="45.9652" lon="6.33399">
        <ele>1440</ele>
        <time>2013-10-06T09:16:59Z</time>
      </trkpt>
      <trkpt lat="45.96517" lon="6.33389">
        <ele>1440</ele>
        <time>2013-10-06T09:17:02Z</time>
      </trkpt>
      <trkpt lat="45.96514" lon="6.33379">
        <ele>1440</ele>
        <time>2013-10-06T09:17:05Z</time>
      </trkpt>
      <trkpt lat="45.96509" lon="6.33359">
        <ele>1440</ele>
        <time>2013-10-06T09:17:11Z</time>
      </trkpt>
      <trkpt lat="45.96507" lon="6.33346">
        <ele>1440</ele>
        <time>2013-10-06T09:17:15Z</time>
      </trkpt>
      <trkpt lat="45.96506" lon="6.33331">
        <ele>1437.7901120873</ele>
        <time>2013-10-06T09:17:20Z</time>
      </trkpt>
      <trkpt lat="45.96509" lon="6.33316">
        <ele>1435.2674053044</ele>
        <time>2013-10-06T09:17:25Z</time>
      </trkpt>
      <trkpt lat="45.96512" lon="6.33299">
        <ele>1433.92599808</ele>
        <time>2013-10-06T09:17:29Z</time>
      </trkpt>
      <trkpt lat="45.96515" lon="6.33283">
        <ele>1432.72599808</ele>
        <time>2013-10-06T09:17:33Z</time>
      </trkpt>
      <trkpt lat="45.9652" lon="6.33268">
        <ele>1432</ele>
        <time>2013-10-06T09:17:37Z</time>
      </trkpt>
      <trkpt lat="45.96527" lon="6.33257">
        <ele>1432</ele>
        <time>2013-10-06T09:17:41Z</time>
      </trkpt>
      <trkpt lat="45.96536" lon="6.3325">
        <ele>1432</ele>
        <time>2013-10-06T09:17:45Z</time>
      </trkpt>
      <trkpt lat="45.96546" lon="6.33245">
        <ele>1432.4575426581</ele>
        <time>2013-10-06T09:17:50Z</time>
      </trkpt>
      <trkpt lat="45.96558" lon="6.33242">
        <ele>1432.9570426786</ele>
        <time>2013-10-06T09:17:55Z</time>
      </trkpt>
      <trkpt lat="45.96568" lon="6.33242">
        <ele>1433</ele>
        <time>2013-10-06T09:18:00Z</time>
      </trkpt>
      <trkpt lat="45.96589" lon="6.33246">
        <ele>1433.95800064</ele>
        <time>2013-10-06T09:18:15Z</time>
      </trkpt>
      <trkpt lat="45.96598" lon="6.33247">
        <ele>1434.75800064</ele>
        <time>2013-10-06T09:18:23Z</time>
      </trkpt>
      <trkpt lat="45.96608" lon="6.33249">
        <ele>1435.74700032</ele>
        <time>2013-10-06T09:18:33Z</time>
      </trkpt>
      <trkpt lat="45.96617" lon="6.33245">
        <ele>1437.11600128</ele>
        <time>2013-10-06T09:18:41Z</time>
      </trkpt>
      <trkpt lat="45.96624" lon="6.33234">
        <ele>1439.37400192</ele>
        <time>2013-10-06T09:18:50Z</time>
      </trkpt>
      <trkpt lat="45.96621" lon="6.3322">
        <ele>1441.49000192</ele>
        <time>2013-10-06T09:18:58Z</time>
      </trkpt>
      <trkpt lat="45.96621" lon="6.33209">
        <ele>1442.87000064</ele>
        <time>2013-10-06T09:19:05Z</time>
      </trkpt>
      <trkpt lat="45.96621" lon="6.33187">
        <ele>1445.27400192</ele>
        <time>2013-10-06T09:19:17Z</time>
      </trkpt>
      <trkpt lat="45.9662" lon="6.33178">
        <ele>1446.27400192</ele>
        <time>2013-10-06T09:19:22Z</time>
      </trkpt>
      <trkpt lat="45.9662" lon="6.33169">
        <ele>1447.29600256</ele>
        <time>2013-10-06T09:19:27Z</time>
      </trkpt>
      <trkpt lat="45.96619" lon="6.3316">
        <ele>1448.296</ele>
        <time>2013-10-06T09:19:32Z</time>
      </trkpt>
      <trkpt lat="45.96621" lon="6.33151">
        <ele>1449.34800128</ele>
        <time>2013-10-06T09:19:39Z</time>
      </trkpt>
      <trkpt lat="45.96618" lon="6.33141">
        <ele>1449.94800128</ele>
        <time>2013-10-06T09:19:45Z</time>
      </trkpt>
      <trkpt lat="45.96614" lon="6.33133">
        <ele>1450</ele>
        <time>2013-10-06T09:19:48Z</time>
      </trkpt>
      <trkpt lat="45.9661" lon="6.33124">
        <ele>1450</ele>
        <time>2013-10-06T09:19:51Z</time>
      </trkpt>
      <trkpt lat="45.96605" lon="6.33115">
        <ele>1450</ele>
        <time>2013-10-06T09:19:54Z</time>
      </trkpt>
      <trkpt lat="45.966" lon="6.33107">
        <ele>1450</ele>
        <time>2013-10-06T09:19:57Z</time>
      </trkpt>
      <trkpt lat="45.96595" lon="6.33098">
        <ele>1450</ele>
        <time>2013-10-06T09:20:00Z</time>
      </trkpt>
      <trkpt lat="45.9659" lon="6.33089">
        <ele>1450</ele>
        <time>2013-10-06T09:20:03Z</time>
      </trkpt>
      <trkpt lat="45.96585" lon="6.3308">
        <ele>1450</ele>
        <time>2013-10-06T09:20:06Z</time>
      </trkpt>
      <trkpt lat="45.96579" lon="6.33072">
        <ele>1450</ele>
        <time>2013-10-06T09:20:09Z</time>
      </trkpt>
      <trkpt lat="45.96575" lon="6.33066">
        <ele>1450</ele>
        <time>2013-10-06T09:20:11Z</time>
      </trkpt>
      <trkpt lat="45.9657" lon="6.33057">
        <ele>1450</ele>
        <time>2013-10-06T09:20:14Z</time>
      </trkpt>
      <trkpt lat="45.96565" lon="6.33049">
        <ele>1450</ele>
        <time>2013-10-06T09:20:17Z</time>
      </trkpt>
      <trkpt lat="45.9656" lon="6.33041">
        <ele>1450</ele>
        <time>2013-10-06T09:20:20Z</time>
      </trkpt>
      <trkpt lat="45.9655" lon="6.33022">
        <ele>1449.91199744</ele>
        <time>2013-10-06T09:20:26Z</time>
      </trkpt>
      <trkpt lat="45.96537" lon="6.32998">
        <ele>1448.31199744</ele>
        <time>2013-10-06T09:20:34Z</time>
      </trkpt>
      <trkpt lat="45.96531" lon="6.32985">
        <ele>1447.752</ele>
        <time>2013-10-06T09:20:38Z</time>
      </trkpt>
      <trkpt lat="45.96525" lon="6.32973">
        <ele>1447.352</ele>
        <time>2013-10-06T09:20:42Z</time>
      </trkpt>
      <trkpt lat="45.96521" lon="6.32967">
        <ele>1447.152</ele>
        <time>2013-10-06T09:20:44Z</time>
      </trkpt>
      <trkpt lat="45.96516" lon="6.32958">
        <ele>1446.85199872</ele>
        <time>2013-10-06T09:20:47Z</time>
      </trkpt>
      <trkpt lat="45.96511" lon="6.32949">
        <ele>1446.552</ele>
        <time>2013-10-06T09:20:50Z</time>
      </trkpt>
      <trkpt lat="45.96506" lon="6.3294">
        <ele>1446.25199872</ele>
        <time>2013-10-06T09:20:53Z</time>
      </trkpt>
      <trkpt lat="45.96501" lon="6.32931">
        <ele>1445.96499968</ele>
        <time>2013-10-06T09:20:56Z</time>
      </trkpt>
      <trkpt lat="45.96496" lon="6.32923">
        <ele>1445.66499968</ele>
        <time>2013-10-06T09:20:59Z</time>
      </trkpt>
      <trkpt lat="45.9649" lon="6.32915">
        <ele>1445.36499968</ele>
        <time>2013-10-06T09:21:02Z</time>
      </trkpt>
      <trkpt lat="45.96485" lon="6.32907">
        <ele>1445.05499904</ele>
        <time>2013-10-06T09:21:05Z</time>
      </trkpt>
      <trkpt lat="45.96479" lon="6.32899">
        <ele>1445.25800064</ele>
        <time>2013-10-06T09:21:08Z</time>
      </trkpt>
      <trkpt lat="45.96474" lon="6.32892">
        <ele>1445.55800064</ele>
        <time>2013-10-06T09:21:11Z</time>
      </trkpt>
      <trkpt lat="45.96468" lon="6.32884">
        <ele>1445.85800064</ele>
        <time>2013-10-06T09:21:14Z</time>
      </trkpt>
      <trkpt lat="45.96463" lon="6.32876">
        <ele>1446</ele>
        <time>2013-10-06T09:21:17Z</time>
      </trkpt>
      <trkpt lat="45.96457" lon="6.32868">
        <ele>1446</ele>
        <time>2013-10-06T09:21:20Z</time>
      </trkpt>
      <trkpt lat="45.96452" lon="6.32861">
        <ele>1446</ele>
        <time>2013-10-06T09:21:23Z</time>
      </trkpt>
      <trkpt lat="45.96446" lon="6.32852">
        <ele>1445.94199936</ele>
        <time>2013-10-06T09:21:26Z</time>
      </trkpt>
      <trkpt lat="45.96441" lon="6.32843">
        <ele>1445.64199936</ele>
        <time>2013-10-06T09:21:29Z</time>
      </trkpt>
      <trkpt lat="45.9643" lon="6.32825">
        <ele>1445.04199936</ele>
        <time>2013-10-06T09:21:35Z</time>
      </trkpt>
      <trkpt lat="45.96425" lon="6.32817">
        <ele>1444.74199936</ele>
        <time>2013-10-06T09:21:38Z</time>
      </trkpt>
      <trkpt lat="45.96419" lon="6.32808">
        <ele>1444.44199936</ele>
        <time>2013-10-06T09:21:41Z</time>
      </trkpt>
      <trkpt lat="45.96414" lon="6.328">
        <ele>1444.14199936</ele>
        <time>2013-10-06T09:21:44Z</time>
      </trkpt>
      <trkpt lat="45.96404" lon="6.32782">
        <ele>1444</ele>
        <time>2013-10-06T09:21:50Z</time>
      </trkpt>
      <trkpt lat="45.96398" lon="6.32773">
        <ele>1444</ele>
        <time>2013-10-06T09:21:53Z</time>
      </trkpt>
      <trkpt lat="45.96393" lon="6.32764">
        <ele>1443.95499904</ele>
        <time>2013-10-06T09:21:56Z</time>
      </trkpt>
      <trkpt lat="45.96389" lon="6.32755">
        <ele>1443.65499904</ele>
        <time>2013-10-06T09:21:59Z</time>
      </trkpt>
      <trkpt lat="45.96384" lon="6.32746">
        <ele>1443.35499904</ele>
        <time>2013-10-06T09:22:02Z</time>
      </trkpt>
      <trkpt lat="45.96381" lon="6.32735">
        <ele>1443</ele>
        <time>2013-10-06T09:22:07Z</time>
      </trkpt>
      <trkpt lat="45.96376" lon="6.32733">
        <ele>1444</ele>
        <time>2013-10-06T09:23:25Z</time>
      </trkpt>
      <trkpt lat="45.96369" lon="6.32731">
        <ele>1443.25199872</ele>
        <time>2013-10-06T09:23:33Z</time>
      </trkpt>
      <trkpt lat="45.96363" lon="6.32722">
        <ele>1443</ele>
        <time>2013-10-06T09:25:34Z</time>
      </trkpt>
      <trkpt lat="45.96358" lon="6.32717">
        <ele>1443</ele>
        <time>2013-10-06T09:25:40Z</time>
      </trkpt>
      <trkpt lat="45.96354" lon="6.32711">
        <ele>1443</ele>
        <time>2013-10-06T09:25:46Z</time>
      </trkpt>
      <trkpt lat="45.96346" lon="6.32701">
        <ele>1442.85499904</ele>
        <time>2013-10-06T09:25:57Z</time>
      </trkpt>
      <trkpt lat="45.96339" lon="6.32691">
        <ele>1442</ele>
        <time>2013-10-06T09:26:07Z</time>
      </trkpt>
      <trkpt lat="45.96333" lon="6.32681">
        <ele>1442</ele>
        <time>2013-10-06T09:26:16Z</time>
      </trkpt>
      <trkpt lat="45.96328" lon="6.32673">
        <ele>1442</ele>
        <time>2013-10-06T09:26:23Z</time>
      </trkpt>
      <trkpt lat="45.96319" lon="6.32662">
        <ele>1442</ele>
        <time>2013-10-06T09:26:35Z</time>
      </trkpt>
      <trkpt lat="45.96312" lon="6.32658">
        <ele>1441.104</ele>
        <time>2013-10-06T09:26:40Z</time>
      </trkpt>
      <trkpt lat="45.96304" lon="6.32658">
        <ele>1440.304</ele>
        <time>2013-10-06T09:26:44Z</time>
      </trkpt>
      <trkpt lat="45.96296" lon="6.3266">
        <ele>1439.504</ele>
        <time>2013-10-06T09:26:48Z</time>
      </trkpt>
      <trkpt lat="45.96289" lon="6.32662">
        <ele>1438.90399744</ele>
        <time>2013-10-06T09:26:51Z</time>
      </trkpt>
      <trkpt lat="45.96283" lon="6.32661">
        <ele>1438.304</ele>
        <time>2013-10-06T09:26:54Z</time>
      </trkpt>
      <trkpt lat="45.96277" lon="6.3266">
        <ele>1437.85199872</ele>
        <time>2013-10-06T09:26:57Z</time>
      </trkpt>
      <trkpt lat="45.96271" lon="6.3266">
        <ele>1437.65199872</ele>
        <time>2013-10-06T09:26:59Z</time>
      </trkpt>
      <trkpt lat="45.96266" lon="6.32658">
        <ele>1437.44199936</ele>
        <time>2013-10-06T09:27:01Z</time>
      </trkpt>
      <trkpt lat="45.96261" lon="6.32655">
        <ele>1437.24199936</ele>
        <time>2013-10-06T09:27:03Z</time>
      </trkpt>
      <trkpt lat="45.96249" lon="6.32642">
        <ele>1436.64599936</ele>
        <time>2013-10-06T09:27:09Z</time>
      </trkpt>
      <trkpt lat="45.96245" lon="6.32634">
        <ele>1436.34599936</ele>
        <time>2013-10-06T09:27:12Z</time>
      </trkpt>
      <trkpt lat="45.96242" lon="6.32628">
        <ele>1436.14599936</ele>
        <time>2013-10-06T09:27:14Z</time>
      </trkpt>
      <trkpt lat="45.96239" lon="6.32622">
        <ele>1435.94199936</ele>
        <time>2013-10-06T09:27:16Z</time>
      </trkpt>
      <trkpt lat="45.96236" lon="6.32611">
        <ele>1435.54199936</ele>
        <time>2013-10-06T09:27:20Z</time>
      </trkpt>
      <trkpt lat="45.96231" lon="6.32606">
        <ele>1435.24199936</ele>
        <time>2013-10-06T09:27:23Z</time>
      </trkpt>
      <trkpt lat="45.96226" lon="6.32604">
        <ele>1435.04199936</ele>
        <time>2013-10-06T09:27:25Z</time>
      </trkpt>
      <trkpt lat="45.9622" lon="6.32599">
        <ele>1433.7099968</ele>
        <time>2013-10-06T09:27:28Z</time>
      </trkpt>
      <trkpt lat="45.96212" lon="6.32596">
        <ele>1432.2099968</ele>
        <time>2013-10-06T09:27:31Z</time>
      </trkpt>
      <trkpt lat="45.96203" lon="6.32592">
        <ele>1430.2099968</ele>
        <time>2013-10-06T09:27:35Z</time>
      </trkpt>
      <trkpt lat="45.96198" lon="6.3259">
        <ele>1429.36799744</ele>
        <time>2013-10-06T09:27:37Z</time>
      </trkpt>
      <trkpt lat="45.96193" lon="6.32587">
        <ele>1428.56799744</ele>
        <time>2013-10-06T09:27:39Z</time>
      </trkpt>
      <trkpt lat="45.96188" lon="6.32585">
        <ele>1427.76799744</ele>
        <time>2013-10-06T09:27:41Z</time>
      </trkpt>
      <trkpt lat="45.96183" lon="6.32583">
        <ele>1426.96799744</ele>
        <time>2013-10-06T09:27:43Z</time>
      </trkpt>
      <trkpt lat="45.96178" lon="6.3258">
        <ele>1426.16799744</ele>
        <time>2013-10-06T09:27:45Z</time>
      </trkpt>
      <trkpt lat="45.96173" lon="6.32577">
        <ele>1425.38399744</ele>
        <time>2013-10-06T09:27:47Z</time>
      </trkpt>
      <trkpt lat="45.96167" lon="6.32573">
        <ele>1424.58399744</ele>
        <time>2013-10-06T09:27:49Z</time>
      </trkpt>
      <trkpt lat="45.96162" lon="6.32569">
        <ele>1423.78399744</ele>
        <time>2013-10-06T09:27:51Z</time>
      </trkpt>
      <trkpt lat="45.96157" lon="6.32565">
        <ele>1422.98399744</ele>
        <time>2013-10-06T09:27:53Z</time>
      </trkpt>
      <trkpt lat="45.96152" lon="6.32561">
        <ele>1422.18399744</ele>
        <time>2013-10-06T09:27:55Z</time>
      </trkpt>
      <trkpt lat="45.96148" lon="6.32558">
        <ele>1421.52599808</ele>
        <time>2013-10-06T09:27:57Z</time>
      </trkpt>
      <trkpt lat="45.96143" lon="6.32555">
        <ele>1420.92599808</ele>
        <time>2013-10-06T09:27:59Z</time>
      </trkpt>
      <trkpt lat="45.96138" lon="6.32552">
        <ele>1420.32599808</ele>
        <time>2013-10-06T09:28:01Z</time>
      </trkpt>
      <trkpt lat="45.96134" lon="6.32549">
        <ele>1419.75599616</ele>
        <time>2013-10-06T09:28:03Z</time>
      </trkpt>
      <trkpt lat="45.96129" lon="6.32547">
        <ele>1419.15599616</ele>
        <time>2013-10-06T09:28:05Z</time>
      </trkpt>
      <trkpt lat="45.96119" lon="6.32545">
        <ele>1419</ele>
        <time>2013-10-06T09:28:09Z</time>
      </trkpt>
      <trkpt lat="45.96113" lon="6.32547">
        <ele>1419</ele>
        <time>2013-10-06T09:28:12Z</time>
      </trkpt>
      <trkpt lat="45.96107" lon="6.32551">
        <ele>1419</ele>
        <time>2013-10-06T09:28:15Z</time>
      </trkpt>
      <trkpt lat="45.96092" lon="6.32565">
        <ele>1413.72199552</ele>
        <time>2013-10-06T09:28:23Z</time>
      </trkpt>
      <trkpt lat="45.96084" lon="6.32571">
        <ele>1411.7700670572</ele>
        <time>2013-10-06T09:28:26Z</time>
      </trkpt>
      <trkpt lat="45.96075" lon="6.32576">
        <ele>1410.620412492</ele>
        <time>2013-10-06T09:28:29Z</time>
      </trkpt>
      <trkpt lat="45.96067" lon="6.32581">
        <ele>1409.4311223648</ele>
        <time>2013-10-06T09:28:32Z</time>
      </trkpt>
      <trkpt lat="45.9606" lon="6.32583">
        <ele>1408.241822089</ele>
        <time>2013-10-06T09:28:35Z</time>
      </trkpt>
      <trkpt lat="45.96053" lon="6.32584">
        <ele>1407.7598389601</ele>
        <time>2013-10-06T09:28:38Z</time>
      </trkpt>
      <trkpt lat="45.96046" lon="6.32583">
        <ele>1407.3562058748</ele>
        <time>2013-10-06T09:28:42Z</time>
      </trkpt>
      <trkpt lat="45.9604" lon="6.3258">
        <ele>1407</ele>
        <time>2013-10-06T09:28:48Z</time>
      </trkpt>
      <trkpt lat="45.96034" lon="6.32578">
        <ele>1407</ele>
        <time>2013-10-06T09:28:54Z</time>
      </trkpt>
      <trkpt lat="45.96027" lon="6.32579">
        <ele>1407.89400064</ele>
        <time>2013-10-06T09:29:00Z</time>
      </trkpt>
      <trkpt lat="45.96022" lon="6.32579">
        <ele>1408.69400064</ele>
        <time>2013-10-06T09:29:04Z</time>
      </trkpt>
      <trkpt lat="45.96016" lon="6.32577">
        <ele>1409.91600128</ele>
        <time>2013-10-06T09:29:10Z</time>
      </trkpt>
      <trkpt lat="45.96008" lon="6.32573">
        <ele>1411.11600128</ele>
        <time>2013-10-06T09:29:16Z</time>
      </trkpt>
      <trkpt lat="45.96002" lon="6.32566">
        <ele>1411.71600128</ele>
        <time>2013-10-06T09:29:19Z</time>
      </trkpt>
      <trkpt lat="45.95998" lon="6.32558">
        <ele>1412.31600128</ele>
        <time>2013-10-06T09:29:22Z</time>
      </trkpt>
      <trkpt lat="45.95992" lon="6.32545">
        <ele>1412.90999808</ele>
        <time>2013-10-06T09:29:26Z</time>
      </trkpt>
      <trkpt lat="45.95988" lon="6.32534">
        <ele>1412.30999808</ele>
        <time>2013-10-06T09:29:29Z</time>
      </trkpt>
      <trkpt lat="45.95984" lon="6.32523">
        <ele>1411.70999808</ele>
        <time>2013-10-06T09:29:32Z</time>
      </trkpt>
      <trkpt lat="45.95979" lon="6.32508">
        <ele>1410.81999616</ele>
        <time>2013-10-06T09:29:36Z</time>
      </trkpt>
      <trkpt lat="45.95968" lon="6.32483">
        <ele>1407.61999616</ele>
        <time>2013-10-06T09:29:44Z</time>
      </trkpt>
      <trkpt lat="45.95959" lon="6.32475">
        <ele>1407</ele>
        <time>2013-10-06T09:29:48Z</time>
      </trkpt>
      <trkpt lat="45.95946" lon="6.32462">
        <ele>1407</ele>
        <time>2013-10-06T09:29:54Z</time>
      </trkpt>
      <trkpt lat="45.9594" lon="6.32454">
        <ele>1407.31600128</ele>
        <time>2013-10-06T09:29:57Z</time>
      </trkpt>
      <trkpt lat="45.95935" lon="6.32446">
        <ele>1407.91600128</ele>
        <time>2013-10-06T09:30:00Z</time>
      </trkpt>
      <trkpt lat="45.9593" lon="6.32439">
        <ele>1408.49600256</ele>
        <time>2013-10-06T09:30:03Z</time>
      </trkpt>
      <trkpt lat="45.95924" lon="6.32432">
        <ele>1409</ele>
        <time>2013-10-06T09:30:06Z</time>
      </trkpt>
      <trkpt lat="45.95918" lon="6.32424">
        <ele>1409</ele>
        <time>2013-10-06T09:30:09Z</time>
      </trkpt>
      <trkpt lat="45.95913" lon="6.32416">
        <ele>1409</ele>
        <time>2013-10-06T09:30:12Z</time>
      </trkpt>
      <trkpt lat="45.95907" lon="6.3241">
        <ele>1409</ele>
        <time>2013-10-06T09:30:15Z</time>
      </trkpt>
      <trkpt lat="45.95902" lon="6.32403">
        <ele>1409</ele>
        <time>2013-10-06T09:30:18Z</time>
      </trkpt>
      <trkpt lat="45.95896" lon="6.32396">
        <ele>1409</ele>
        <time>2013-10-06T09:30:21Z</time>
      </trkpt>
      <trkpt lat="45.9589" lon="6.32389">
        <ele>1409</ele>
        <time>2013-10-06T09:30:24Z</time>
      </trkpt>
      <trkpt lat="45.95884" lon="6.32382">
        <ele>1409</ele>
        <time>2013-10-06T09:30:27Z</time>
      </trkpt>
      <trkpt lat="45.95876" lon="6.32374">
        <ele>1409</ele>
        <time>2013-10-06T09:30:31Z</time>
      </trkpt>
      <trkpt lat="45.95866" lon="6.32366">
        <ele>1409</ele>
        <time>2013-10-06T09:30:36Z</time>
      </trkpt>
      <trkpt lat="45.95858" lon="6.3236">
        <ele>1409</ele>
        <time>2013-10-06T09:30:40Z</time>
      </trkpt>
      <trkpt lat="45.95853" lon="6.32356">
        <ele>1409</ele>
        <time>2013-10-06T09:30:43Z</time>
      </trkpt>
      <trkpt lat="45.95848" lon="6.32351">
        <ele>1409.10800128</ele>
        <time>2013-10-06T09:30:46Z</time>
      </trkpt>
      <trkpt lat="45.95837" lon="6.32343">
        <ele>1410.30800128</ele>
        <time>2013-10-06T09:30:52Z</time>
      </trkpt>
      <trkpt lat="45.95832" lon="6.32339">
        <ele>1410.90800128</ele>
        <time>2013-10-06T09:30:55Z</time>
      </trkpt>
      <trkpt lat="45.95826" lon="6.32335">
        <ele>1410.48399872</ele>
        <time>2013-10-06T09:30:58Z</time>
      </trkpt>
      <trkpt lat="45.95821" lon="6.3233">
        <ele>1409.88399872</ele>
        <time>2013-10-06T09:31:01Z</time>
      </trkpt>
      <trkpt lat="45.95813" lon="6.32325">
        <ele>1409.08399872</ele>
        <time>2013-10-06T09:31:05Z</time>
      </trkpt>
      <trkpt lat="45.95808" lon="6.32322">
        <ele>1409.25800064</ele>
        <time>2013-10-06T09:31:08Z</time>
      </trkpt>
      <trkpt lat="45.95803" lon="6.32319">
        <ele>1409.55800064</ele>
        <time>2013-10-06T09:31:11Z</time>
      </trkpt>
      <trkpt lat="45.95797" lon="6.32315">
        <ele>1409.85800064</ele>
        <time>2013-10-06T09:31:14Z</time>
      </trkpt>
      <trkpt lat="45.95785" lon="6.32307">
        <ele>1410.9033537494</ele>
        <time>2013-10-06T09:31:20Z</time>
      </trkpt>
      <trkpt lat="45.9578" lon="6.32302">
        <ele>1411.4950693522</ele>
        <time>2013-10-06T09:31:23Z</time>
      </trkpt>
      <trkpt lat="45.95774" lon="6.32296">
        <ele>1412</ele>
        <time>2013-10-06T09:31:26Z</time>
      </trkpt>
      <trkpt lat="45.95769" lon="6.3229">
        <ele>1412</ele>
        <time>2013-10-06T09:31:29Z</time>
      </trkpt>
      <trkpt lat="45.95764" lon="6.32285">
        <ele>1412</ele>
        <time>2013-10-06T09:31:32Z</time>
      </trkpt>
      <trkpt lat="45.95758" lon="6.32278">
        <ele>1412</ele>
        <time>2013-10-06T09:31:35Z</time>
      </trkpt>
      <trkpt lat="45.95753" lon="6.32272">
        <ele>1412.496</ele>
        <time>2013-10-06T09:31:38Z</time>
      </trkpt>
      <trkpt lat="45.95747" lon="6.32265">
        <ele>1413.09600256</ele>
        <time>2013-10-06T09:31:41Z</time>
      </trkpt>
      <trkpt lat="45.95741" lon="6.32258">
        <ele>1413.696</ele>
        <time>2013-10-06T09:31:44Z</time>
      </trkpt>
      <trkpt lat="45.95736" lon="6.32251">
        <ele>1414</ele>
        <time>2013-10-06T09:31:47Z</time>
      </trkpt>
      <trkpt lat="45.9573" lon="6.32244">
        <ele>1414</ele>
        <time>2013-10-06T09:31:50Z</time>
      </trkpt>
      <trkpt lat="45.95719" lon="6.32231">
        <ele>1414</ele>
        <time>2013-10-06T09:31:56Z</time>
      </trkpt>
      <trkpt lat="45.95713" lon="6.32225">
        <ele>1414</ele>
        <time>2013-10-06T09:31:59Z</time>
      </trkpt>
      <trkpt lat="45.95708" lon="6.32219">
        <ele>1414</ele>
        <time>2013-10-06T09:32:02Z</time>
      </trkpt>
      <trkpt lat="45.95702" lon="6.32213">
        <ele>1414</ele>
        <time>2013-10-06T09:32:05Z</time>
      </trkpt>
      <trkpt lat="45.95696" lon="6.32206">
        <ele>1414.25800064</ele>
        <time>2013-10-06T09:32:08Z</time>
      </trkpt>
      <trkpt lat="45.9569" lon="6.32199">
        <ele>1414.55800064</ele>
        <time>2013-10-06T09:32:11Z</time>
      </trkpt>
      <trkpt lat="45.95685" lon="6.32192">
        <ele>1414.85800064</ele>
        <time>2013-10-06T09:32:14Z</time>
      </trkpt>
      <trkpt lat="45.95679" lon="6.32186">
        <ele>1414.68399872</ele>
        <time>2013-10-06T09:32:17Z</time>
      </trkpt>
      <trkpt lat="45.95672" lon="6.32182">
        <ele>1413.68399872</ele>
        <time>2013-10-06T09:32:22Z</time>
      </trkpt>
      <trkpt lat="45.95662" lon="6.32172">
        <ele>1412.54399744</ele>
        <time>2013-10-06T09:32:28Z</time>
      </trkpt>
      <trkpt lat="45.95655" lon="6.32168">
        <ele>1411.944</ele>
        <time>2013-10-06T09:32:31Z</time>
      </trkpt>
      <trkpt lat="45.95648" lon="6.32166">
        <ele>1411.34399744</ele>
        <time>2013-10-06T09:32:34Z</time>
      </trkpt>
      <trkpt lat="45.9564" lon="6.32167">
        <ele>1410.2599936</ele>
        <time>2013-10-06T09:32:37Z</time>
      </trkpt>
      <trkpt lat="45.95632" lon="6.3217">
        <ele>1408.76</ele>
        <time>2013-10-06T09:32:40Z</time>
      </trkpt>
      <trkpt lat="45.95618" lon="6.32183">
        <ele>1405.88399872</ele>
        <time>2013-10-06T09:32:46Z</time>
      </trkpt>
      <trkpt lat="45.95613" lon="6.32191">
        <ele>1405.28399872</ele>
        <time>2013-10-06T09:32:49Z</time>
      </trkpt>
      <trkpt lat="45.95608" lon="6.322">
        <ele>1404.68399872</ele>
        <time>2013-10-06T09:32:52Z</time>
      </trkpt>
      <trkpt lat="45.95602" lon="6.32209">
        <ele>1404.08399872</ele>
        <time>2013-10-06T09:32:55Z</time>
      </trkpt>
      <trkpt lat="45.95598" lon="6.32215">
        <ele>1403.68399872</ele>
        <time>2013-10-06T09:32:57Z</time>
      </trkpt>
      <trkpt lat="45.95583" lon="6.32226">
        <ele>1402.48399872</ele>
        <time>2013-10-06T09:33:03Z</time>
      </trkpt>
      <trkpt lat="45.95575" lon="6.32228">
        <ele>1401.88399872</ele>
        <time>2013-10-06T09:33:06Z</time>
      </trkpt>
      <trkpt lat="45.95566" lon="6.32229">
        <ele>1401.30399744</ele>
        <time>2013-10-06T09:33:09Z</time>
      </trkpt>
      <trkpt lat="45.95556" lon="6.32229">
        <ele>1400.50399744</ele>
        <time>2013-10-06T09:33:13Z</time>
      </trkpt>
      <trkpt lat="45.95545" lon="6.32231">
        <ele>1399.40799488</ele>
        <time>2013-10-06T09:33:17Z</time>
      </trkpt>
      <trkpt lat="45.95539" lon="6.32235">
        <ele>1398.208</ele>
        <time>2013-10-06T09:33:20Z</time>
      </trkpt>
      <trkpt lat="45.95534" lon="6.32238">
        <ele>1397.408</ele>
        <time>2013-10-06T09:33:22Z</time>
      </trkpt>
      <trkpt lat="45.95529" lon="6.32241">
        <ele>1396.608</ele>
        <time>2013-10-06T09:33:24Z</time>
      </trkpt>
      <trkpt lat="45.95523" lon="6.32245">
        <ele>1395.86299904</ele>
        <time>2013-10-06T09:33:27Z</time>
      </trkpt>
      <trkpt lat="45.95516" lon="6.32251">
        <ele>1395.56299904</ele>
        <time>2013-10-06T09:33:30Z</time>
      </trkpt>
      <trkpt lat="45.9551" lon="6.32256">
        <ele>1395.26299904</ele>
        <time>2013-10-06T09:33:33Z</time>
      </trkpt>
      <trkpt lat="45.95502" lon="6.32262">
        <ele>1395</ele>
        <time>2013-10-06T09:33:37Z</time>
      </trkpt>
      <trkpt lat="45.95494" lon="6.32269">
        <ele>1395</ele>
        <time>2013-10-06T09:33:41Z</time>
      </trkpt>
      <trkpt lat="45.95486" lon="6.32275">
        <ele>1395</ele>
        <time>2013-10-06T09:33:45Z</time>
      </trkpt>
      <trkpt lat="45.9548" lon="6.32281">
        <ele>1395</ele>
        <time>2013-10-06T09:33:48Z</time>
      </trkpt>
      <trkpt lat="45.95474" lon="6.32286">
        <ele>1395</ele>
        <time>2013-10-06T09:33:51Z</time>
      </trkpt>
      <trkpt lat="45.95469" lon="6.32292">
        <ele>1395</ele>
        <time>2013-10-06T09:33:54Z</time>
      </trkpt>
      <trkpt lat="45.95463" lon="6.32298">
        <ele>1394.85199872</ele>
        <time>2013-10-06T09:33:57Z</time>
      </trkpt>
      <trkpt lat="45.95457" lon="6.32302">
        <ele>1394.54199936</ele>
        <time>2013-10-06T09:34:00Z</time>
      </trkpt>
      <trkpt lat="45.95439" lon="6.32272">
        <ele>1392.8917567772</ele>
        <time>2013-10-06T09:34:11Z</time>
      </trkpt>
      <trkpt lat="45.95433" lon="6.32261">
        <ele>1392.0973181021</ele>
        <time>2013-10-06T09:34:15Z</time>
      </trkpt>
      <trkpt lat="45.95425" lon="6.32251">
        <ele>1390.0422954416</ele>
        <time>2013-10-06T09:34:19Z</time>
      </trkpt>
      <trkpt lat="45.95416" lon="6.32242">
        <ele>1387.6314165982</ele>
        <time>2013-10-06T09:34:23Z</time>
      </trkpt>
      <trkpt lat="45.9541" lon="6.32227">
        <ele>1385.05999872</ele>
        <time>2013-10-06T09:34:28Z</time>
      </trkpt>
      <trkpt lat="45.95403" lon="6.32215">
        <ele>1383.45999872</ele>
        <time>2013-10-06T09:34:32Z</time>
      </trkpt>
      <trkpt lat="45.95398" lon="6.32202">
        <ele>1381.95099904</ele>
        <time>2013-10-06T09:34:36Z</time>
      </trkpt>
      <trkpt lat="45.95394" lon="6.32189">
        <ele>1381.552</ele>
        <time>2013-10-06T09:34:40Z</time>
      </trkpt>
      <trkpt lat="45.9539" lon="6.32178">
        <ele>1381.05199872</ele>
        <time>2013-10-06T09:34:45Z</time>
      </trkpt>
      <trkpt lat="45.95384" lon="6.32177">
        <ele>1380.35800064</ele>
        <time>2013-10-06T09:35:09Z</time>
      </trkpt>
      <trkpt lat="45.95378" lon="6.32183">
        <ele>1381.29000192</ele>
        <time>2013-10-06T09:35:17Z</time>
      </trkpt>
      <trkpt lat="45.95374" lon="6.32187">
        <ele>1382.09000192</ele>
        <time>2013-10-06T09:35:21Z</time>
      </trkpt>
      <trkpt lat="45.95363" lon="6.32192">
        <ele>1384.49400064</ele>
        <time>2013-10-06T09:35:33Z</time>
      </trkpt>
      <trkpt lat="45.95352" lon="6.32191">
        <ele>1386.11600128</ele>
        <time>2013-10-06T09:35:41Z</time>
      </trkpt>
      <trkpt lat="45.95342" lon="6.32189">
        <ele>1387</ele>
        <time>2013-10-06T09:35:47Z</time>
      </trkpt>
      <trkpt lat="45.95331" lon="6.3219">
        <ele>1387</ele>
        <time>2013-10-06T09:35:55Z</time>
      </trkpt>
      <trkpt lat="45.9532" lon="6.32187">
        <ele>1387.75800064</ele>
        <time>2013-10-06T09:36:03Z</time>
      </trkpt>
      <trkpt lat="45.95314" lon="6.32175">
        <ele>1388.35800064</ele>
        <time>2013-10-06T09:36:09Z</time>
      </trkpt>
      <trkpt lat="45.95312" lon="6.32162">
        <ele>1388.85800064</ele>
        <time>2013-10-06T09:36:14Z</time>
      </trkpt>
      <trkpt lat="45.95313" lon="6.32134">
        <ele>1389</ele>
        <time>2013-10-06T09:36:27Z</time>
      </trkpt>
      <trkpt lat="45.95312" lon="6.32127">
        <ele>1389</ele>
        <time>2013-10-06T09:36:31Z</time>
      </trkpt>
      <trkpt lat="45.95316" lon="6.32113">
        <ele>1389</ele>
        <time>2013-10-06T09:36:41Z</time>
      </trkpt>
      <trkpt lat="45.95319" lon="6.321">
        <ele>1389.69600256</ele>
        <time>2013-10-06T09:36:49Z</time>
      </trkpt>
      <trkpt lat="45.95318" lon="6.32086">
        <ele>1393.6085233457</ele>
        <time>2013-10-06T09:37:02Z</time>
      </trkpt>
      <trkpt lat="45.95316" lon="6.32072">
        <ele>1395</ele>
        <time>2013-10-06T09:37:10Z</time>
      </trkpt>
      <trkpt lat="45.9531" lon="6.32045">
        <ele>1396.67000064</ele>
        <time>2013-10-06T09:37:24Z</time>
      </trkpt>
      <trkpt lat="45.95308" lon="6.32032">
        <ele>1398.09600256</ele>
        <time>2013-10-06T09:37:31Z</time>
      </trkpt>
      <trkpt lat="45.95303" lon="6.32022">
        <ele>1399.33500032</ele>
        <time>2013-10-06T09:37:39Z</time>
      </trkpt>
      <trkpt lat="45.95299" lon="6.32011">
        <ele>1399.93500032</ele>
        <time>2013-10-06T09:37:45Z</time>
      </trkpt>
      <trkpt lat="45.95295" lon="6.32001">
        <ele>1401.51600128</ele>
        <time>2013-10-06T09:37:53Z</time>
      </trkpt>
      <trkpt lat="45.95289" lon="6.31989">
        <ele>1402</ele>
        <time>2013-10-06T09:38:02Z</time>
      </trkpt>
      <trkpt lat="45.95281" lon="6.31981">
        <ele>1403.09600256</ele>
        <time>2013-10-06T09:38:11Z</time>
      </trkpt>
      <trkpt lat="45.95271" lon="6.31975">
        <ele>1406.99200512</ele>
        <time>2013-10-06T09:38:23Z</time>
      </trkpt>
      <trkpt lat="45.95263" lon="6.31969">
        <ele>1409.11600128</ele>
        <time>2013-10-06T09:38:31Z</time>
      </trkpt>
      <trkpt lat="45.95256" lon="6.31958">
        <ele>1410</ele>
        <time>2013-10-06T09:38:41Z</time>
      </trkpt>
      <trkpt lat="45.95247" lon="6.31947">
        <ele>1410</ele>
        <time>2013-10-06T09:38:49Z</time>
      </trkpt>
      <trkpt lat="45.95238" lon="6.31937">
        <ele>1410</ele>
        <time>2013-10-06T09:38:54Z</time>
      </trkpt>
      <trkpt lat="45.95231" lon="6.31931">
        <ele>1409.64199936</ele>
        <time>2013-10-06T09:38:59Z</time>
      </trkpt>
      <trkpt lat="45.9522" lon="6.31925">
        <ele>1409.14500096</ele>
        <time>2013-10-06T09:39:07Z</time>
      </trkpt>
      <trkpt lat="45.95213" lon="6.31929">
        <ele>1409.74500096</ele>
        <time>2013-10-06T09:39:13Z</time>
      </trkpt>
      <trkpt lat="45.95205" lon="6.31934">
        <ele>1410</ele>
        <time>2013-10-06T09:39:19Z</time>
      </trkpt>
      <trkpt lat="45.95194" lon="6.31937">
        <ele>1410.49400064</ele>
        <time>2013-10-06T09:39:28Z</time>
      </trkpt>
      <trkpt lat="45.95184" lon="6.31934">
        <ele>1412.31600128</ele>
        <time>2013-10-06T09:39:37Z</time>
      </trkpt>
      <trkpt lat="45.95173" lon="6.31933">
        <ele>1414.5073754109</ele>
        <time>2013-10-06T09:39:48Z</time>
      </trkpt>
      <trkpt lat="45.95164" lon="6.3194">
        <ele>1416.2441507979</ele>
        <time>2013-10-06T09:39:57Z</time>
      </trkpt>
      <trkpt lat="45.95153" lon="6.31944">
        <ele>1417.668363786</ele>
        <time>2013-10-06T09:40:04Z</time>
      </trkpt>
      <trkpt lat="45.95143" lon="6.31942">
        <ele>1418</ele>
        <time>2013-10-06T09:40:12Z</time>
      </trkpt>
      <trkpt lat="45.95137" lon="6.31938">
        <ele>1418</ele>
        <time>2013-10-06T09:40:14Z</time>
      </trkpt>
      <trkpt lat="45.95129" lon="6.31929">
        <ele>1418</ele>
        <time>2013-10-06T09:40:18Z</time>
      </trkpt>
      <trkpt lat="45.95121" lon="6.31921">
        <ele>1418</ele>
        <time>2013-10-06T09:40:22Z</time>
      </trkpt>
      <trkpt lat="45.951" lon="6.31911">
        <ele>1418</ele>
        <time>2013-10-06T09:40:32Z</time>
      </trkpt>
      <trkpt lat="45.95089" lon="6.31913">
        <ele>1417.7099968</ele>
        <time>2013-10-06T09:40:36Z</time>
      </trkpt>
      <trkpt lat="45.9508" lon="6.31913">
        <ele>1416.2099968</ele>
        <time>2013-10-06T09:40:39Z</time>
      </trkpt>
      <trkpt lat="45.95071" lon="6.31908">
        <ele>1414.2099968</ele>
        <time>2013-10-06T09:40:43Z</time>
      </trkpt>
      <trkpt lat="45.95063" lon="6.319">
        <ele>1412.76799744</ele>
        <time>2013-10-06T09:40:46Z</time>
      </trkpt>
      <trkpt lat="45.95055" lon="6.31893">
        <ele>1411.56799744</ele>
        <time>2013-10-06T09:40:49Z</time>
      </trkpt>
      <trkpt lat="45.95048" lon="6.31889">
        <ele>1410.36799744</ele>
        <time>2013-10-06T09:40:52Z</time>
      </trkpt>
      <trkpt lat="45.95034" lon="6.31879">
        <ele>1408.22599808</ele>
        <time>2013-10-06T09:40:58Z</time>
      </trkpt>
      <trkpt lat="45.95025" lon="6.31878">
        <ele>1407.31099904</ele>
        <time>2013-10-06T09:41:01Z</time>
      </trkpt>
      <trkpt lat="45.95018" lon="6.31878">
        <ele>1406.42599808</ele>
        <time>2013-10-06T09:41:04Z</time>
      </trkpt>
      <trkpt lat="45.9501" lon="6.31877">
        <ele>1406.34500096</ele>
        <time>2013-10-06T09:41:09Z</time>
      </trkpt>
      <trkpt lat="45.95" lon="6.31873">
        <ele>1406.83000064</ele>
        <time>2013-10-06T09:41:14Z</time>
      </trkpt>
      <trkpt lat="45.94994" lon="6.31868">
        <ele>1407</ele>
        <time>2013-10-06T09:41:17Z</time>
      </trkpt>
      <trkpt lat="45.94987" lon="6.31867">
        <ele>1407</ele>
        <time>2013-10-06T09:41:20Z</time>
      </trkpt>
      <trkpt lat="45.94981" lon="6.31865">
        <ele>1407</ele>
        <time>2013-10-06T09:41:23Z</time>
      </trkpt>
      <trkpt lat="45.94973" lon="6.31866">
        <ele>1406.84199936</ele>
        <time>2013-10-06T09:41:27Z</time>
      </trkpt>
      <trkpt lat="45.94966" lon="6.31869">
        <ele>1406.54199936</ele>
        <time>2013-10-06T09:41:30Z</time>
      </trkpt>
      <trkpt lat="45.94958" lon="6.31872">
        <ele>1406.14199936</ele>
        <time>2013-10-06T09:41:34Z</time>
      </trkpt>
      <trkpt lat="45.94951" lon="6.31872">
        <ele>1406.51600128</ele>
        <time>2013-10-06T09:41:38Z</time>
      </trkpt>
      <trkpt lat="45.94945" lon="6.31871">
        <ele>1407.31600128</ele>
        <time>2013-10-06T09:41:42Z</time>
      </trkpt>
      <trkpt lat="45.9494" lon="6.31868">
        <ele>1408</ele>
        <time>2013-10-06T09:41:50Z</time>
      </trkpt>
      <trkpt lat="45.94934" lon="6.31867">
        <ele>1408</ele>
        <time>2013-10-06T09:41:54Z</time>
      </trkpt>
      <trkpt lat="45.94928" lon="6.31867">
        <ele>1407.75299968</ele>
        <time>2013-10-06T09:41:58Z</time>
      </trkpt>
      <trkpt lat="45.94921" lon="6.31862">
        <ele>1407.71600128</ele>
        <time>2013-10-06T09:42:09Z</time>
      </trkpt>
      <trkpt lat="45.94914" lon="6.31855">
        <ele>1408.91600128</ele>
        <time>2013-10-06T09:42:15Z</time>
      </trkpt>
      <trkpt lat="45.94901" lon="6.31846">
        <ele>1409.95800064</ele>
        <time>2013-10-06T09:42:25Z</time>
      </trkpt>
      <trkpt lat="45.94891" lon="6.31824">
        <ele>1413.0529417375</ele>
        <time>2013-10-06T09:42:39Z</time>
      </trkpt>
      <trkpt lat="45.94886" lon="6.31812">
        <ele>1415.0275500768</ele>
        <time>2013-10-06T09:42:46Z</time>
      </trkpt>
      <trkpt lat="45.94883" lon="6.31801">
        <ele>1415.5377548248</ele>
        <time>2013-10-06T09:42:51Z</time>
      </trkpt>
      <trkpt lat="45.9488" lon="6.3179">
        <ele>1415.9459186232</ele>
        <time>2013-10-06T09:42:55Z</time>
      </trkpt>
      <trkpt lat="45.94877" lon="6.31779">
        <ele>1416.34500096</ele>
        <time>2013-10-06T09:42:59Z</time>
      </trkpt>
      <trkpt lat="45.94874" lon="6.3177">
        <ele>1416.74500096</ele>
        <time>2013-10-06T09:43:03Z</time>
      </trkpt>
      <trkpt lat="45.94868" lon="6.31758">
        <ele>1417</ele>
        <time>2013-10-06T09:43:10Z</time>
      </trkpt>
      <trkpt lat="45.94865" lon="6.31749">
        <ele>1417</ele>
        <time>2013-10-06T09:43:14Z</time>
      </trkpt>
      <trkpt lat="45.94863" lon="6.3174">
        <ele>1417</ele>
        <time>2013-10-06T09:43:17Z</time>
      </trkpt>
      <trkpt lat="45.94857" lon="6.31726">
        <ele>1417</ele>
        <time>2013-10-06T09:43:22Z</time>
      </trkpt>
      <trkpt lat="45.94852" lon="6.31714">
        <ele>1416.88399872</ele>
        <time>2013-10-06T09:43:26Z</time>
      </trkpt>
      <trkpt lat="45.94848" lon="6.31706">
        <ele>1416.28399872</ele>
        <time>2013-10-06T09:43:29Z</time>
      </trkpt>
      <trkpt lat="45.94844" lon="6.31697">
        <ele>1415.68399872</ele>
        <time>2013-10-06T09:43:32Z</time>
      </trkpt>
      <trkpt lat="45.94839" lon="6.31688">
        <ele>1415.08399872</ele>
        <time>2013-10-06T09:43:35Z</time>
      </trkpt>
      <trkpt lat="45.94834" lon="6.31681">
        <ele>1413.7099968</ele>
        <time>2013-10-06T09:43:38Z</time>
      </trkpt>
      <trkpt lat="45.94828" lon="6.31674">
        <ele>1412.2099968</ele>
        <time>2013-10-06T09:43:41Z</time>
      </trkpt>
      <trkpt lat="45.94824" lon="6.31665">
        <ele>1410.7099968</ele>
        <time>2013-10-06T09:43:44Z</time>
      </trkpt>
      <trkpt lat="45.94823" lon="6.31652">
        <ele>1410</ele>
        <time>2013-10-06T09:43:49Z</time>
      </trkpt>
      <trkpt lat="45.94829" lon="6.31638">
        <ele>1410</ele>
        <time>2013-10-06T09:43:55Z</time>
      </trkpt>
      <trkpt lat="45.94846" lon="6.3162">
        <ele>1412.29000192</ele>
        <time>2013-10-06T09:44:12Z</time>
      </trkpt>
      <trkpt lat="45.94853" lon="6.31609">
        <ele>1413.65800064</ele>
        <time>2013-10-06T09:44:22Z</time>
      </trkpt>
      <trkpt lat="45.94861" lon="6.31601">
        <ele>1415.71600128</ele>
        <time>2013-10-06T09:44:34Z</time>
      </trkpt>
      <trkpt lat="45.94872" lon="6.31595">
        <ele>1417.51600128</ele>
        <time>2013-10-06T09:44:43Z</time>
      </trkpt>
      <trkpt lat="45.94896" lon="6.3158">
        <ele>1418</ele>
        <time>2013-10-06T09:44:54Z</time>
      </trkpt>
      <trkpt lat="45.94906" lon="6.31579">
        <ele>1418.34500096</ele>
        <time>2013-10-06T09:44:59Z</time>
      </trkpt>
      <trkpt lat="45.94919" lon="6.31577">
        <ele>1418.94500096</ele>
        <time>2013-10-06T09:45:05Z</time>
      </trkpt>
      <trkpt lat="45.9493" lon="6.31572">
        <ele>1419.35800064</ele>
        <time>2013-10-06T09:45:09Z</time>
      </trkpt>
      <trkpt lat="45.94939" lon="6.31566">
        <ele>1420.02800128</ele>
        <time>2013-10-06T09:45:16Z</time>
      </trkpt>
      <trkpt lat="45.9495" lon="6.31559">
        <ele>1420.528</ele>
        <time>2013-10-06T09:45:21Z</time>
      </trkpt>
      <trkpt lat="45.94962" lon="6.31555">
        <ele>1421</ele>
        <time>2013-10-06T09:45:27Z</time>
      </trkpt>
      <trkpt lat="45.94973" lon="6.3155">
        <ele>1421</ele>
        <time>2013-10-06T09:45:31Z</time>
      </trkpt>
      <trkpt lat="45.94985" lon="6.31551">
        <ele>1421</ele>
        <time>2013-10-06T09:45:35Z</time>
      </trkpt>
      <trkpt lat="45.94996" lon="6.31552">
        <ele>1420.3178613775</ele>
        <time>2013-10-06T09:45:39Z</time>
      </trkpt>
      <trkpt lat="45.95006" lon="6.31555">
        <ele>1419.328959027</ele>
        <time>2013-10-06T09:45:44Z</time>
      </trkpt>
      <trkpt lat="45.95017" lon="6.31561">
        <ele>1418.256</ele>
        <time>2013-10-06T09:45:48Z</time>
      </trkpt>
      <trkpt lat="45.95025" lon="6.31573">
        <ele>1417.056</ele>
        <time>2013-10-06T09:45:52Z</time>
      </trkpt>
      <trkpt lat="45.95033" lon="6.3158">
        <ele>1415.732937137</ele>
        <time>2013-10-06T09:45:57Z</time>
      </trkpt>
      <trkpt lat="45.95044" lon="6.31584">
        <ele>1414.5459938925</ele>
        <time>2013-10-06T09:46:03Z</time>
      </trkpt>
      <trkpt lat="45.95059" lon="6.31606">
        <ele>1410.0748198422</ele>
        <time>2013-10-06T09:46:12Z</time>
      </trkpt>
      <trkpt lat="45.95068" lon="6.31611">
        <ele>1407.88399872</ele>
        <time>2013-10-06T09:46:16Z</time>
      </trkpt>
      <trkpt lat="45.95079" lon="6.31608">
        <ele>1406.88399872</ele>
        <time>2013-10-06T09:46:21Z</time>
      </trkpt>
      <trkpt lat="45.95091" lon="6.31601">
        <ele>1406.08399872</ele>
        <time>2013-10-06T09:46:25Z</time>
      </trkpt>
      <trkpt lat="45.95098" lon="6.31594">
        <ele>1406</ele>
        <time>2013-10-06T09:46:29Z</time>
      </trkpt>
      <trkpt lat="45.95109" lon="6.31589">
        <ele>1406</ele>
        <time>2013-10-06T09:46:34Z</time>
      </trkpt>
      <trkpt lat="45.9512" lon="6.31584">
        <ele>1406.25800064</ele>
        <time>2013-10-06T09:46:38Z</time>
      </trkpt>
      <trkpt lat="45.95124" lon="6.31577">
        <ele>1406.55800064</ele>
        <time>2013-10-06T09:46:41Z</time>
      </trkpt>
      <trkpt lat="45.95127" lon="6.31569">
        <ele>1406.95800064</ele>
        <time>2013-10-06T09:46:45Z</time>
      </trkpt>
      <trkpt lat="45.9513" lon="6.31562">
        <ele>1407</ele>
        <time>2013-10-06T09:46:48Z</time>
      </trkpt>
      <trkpt lat="45.95136" lon="6.31541">
        <ele>1407.14800128</ele>
        <time>2013-10-06T09:46:57Z</time>
      </trkpt>
      <trkpt lat="45.95143" lon="6.31527">
        <ele>1407.648</ele>
        <time>2013-10-06T09:47:02Z</time>
      </trkpt>
      <trkpt lat="45.95149" lon="6.31515">
        <ele>1408</ele>
        <time>2013-10-06T09:47:06Z</time>
      </trkpt>
      <trkpt lat="45.95153" lon="6.31502">
        <ele>1408</ele>
        <time>2013-10-06T09:47:10Z</time>
      </trkpt>
      <trkpt lat="45.95157" lon="6.31487">
        <ele>1408</ele>
        <time>2013-10-06T09:47:14Z</time>
      </trkpt>
      <trkpt lat="45.95164" lon="6.31475">
        <ele>1407.64199936</ele>
        <time>2013-10-06T09:47:19Z</time>
      </trkpt>
      <trkpt lat="45.9517" lon="6.31462">
        <ele>1407.05199872</ele>
        <time>2013-10-06T09:47:25Z</time>
      </trkpt>
      <trkpt lat="45.95178" lon="6.31451">
        <ele>1403.16399104</ele>
        <time>2013-10-06T09:47:31Z</time>
      </trkpt>
      <trkpt lat="45.95183" lon="6.31435">
        <ele>1399.45199616</ele>
        <time>2013-10-06T09:47:37Z</time>
      </trkpt>
      <trkpt lat="45.95186" lon="6.31405">
        <ele>1394.28499328</ele>
        <time>2013-10-06T09:47:48Z</time>
      </trkpt>
      <trkpt lat="45.95191" lon="6.3139">
        <ele>1389.38499328</ele>
        <time>2013-10-06T09:47:55Z</time>
      </trkpt>
      <trkpt lat="45.95196" lon="6.31384">
        <ele>1387.45199616</ele>
        <time>2013-10-06T09:47:58Z</time>
      </trkpt>
      <trkpt lat="45.95203" lon="6.31372">
        <ele>1383.85199616</ele>
        <time>2013-10-06T09:48:04Z</time>
      </trkpt>
      <trkpt lat="45.95209" lon="6.31361">
        <ele>1380.56399104</ele>
        <time>2013-10-06T09:48:09Z</time>
      </trkpt>
      <trkpt lat="45.95212" lon="6.31347">
        <ele>1375.8265595307</ele>
        <time>2013-10-06T09:48:16Z</time>
      </trkpt>
      <trkpt lat="45.95212" lon="6.31332">
        <ele>1370.8849665081</ele>
        <time>2013-10-06T09:48:26Z</time>
      </trkpt>
      <trkpt lat="45.95216" lon="6.31319">
        <ele>1367.82599808</ele>
        <time>2013-10-06T09:48:36Z</time>
      </trkpt>
      <trkpt lat="45.95221" lon="6.31306">
        <ele>1364.02199808</ele>
        <time>2013-10-06T09:48:49Z</time>
      </trkpt>
      <trkpt lat="45.95229" lon="6.31297">
        <ele>1362.82199808</ele>
        <time>2013-10-06T09:48:53Z</time>
      </trkpt>
      <trkpt lat="45.95239" lon="6.3129">
        <ele>1361.76499968</ele>
        <time>2013-10-06T09:48:58Z</time>
      </trkpt>
      <trkpt lat="45.9525" lon="6.31287">
        <ele>1361.26499968</ele>
        <time>2013-10-06T09:49:03Z</time>
      </trkpt>
      <trkpt lat="45.95261" lon="6.31281">
        <ele>1360.48399872</ele>
        <time>2013-10-06T09:49:08Z</time>
      </trkpt>
      <trkpt lat="45.95271" lon="6.31275">
        <ele>1359.68199936</ele>
        <time>2013-10-06T09:49:12Z</time>
      </trkpt>
      <trkpt lat="45.95281" lon="6.31269">
        <ele>1358.76799744</ele>
        <time>2013-10-06T09:49:16Z</time>
      </trkpt>
      <trkpt lat="45.9529" lon="6.31262">
        <ele>1357.16799744</ele>
        <time>2013-10-06T09:49:20Z</time>
      </trkpt>
      <trkpt lat="45.9531" lon="6.31245">
        <ele>1355</ele>
        <time>2013-10-06T09:49:28Z</time>
      </trkpt>
      <trkpt lat="45.9532" lon="6.31243">
        <ele>1355</ele>
        <time>2013-10-06T09:49:32Z</time>
      </trkpt>
      <trkpt lat="45.95329" lon="6.31247">
        <ele>1355</ele>
        <time>2013-10-06T09:49:35Z</time>
      </trkpt>
      <trkpt lat="45.95348" lon="6.31258">
        <ele>1354.24199936</ele>
        <time>2013-10-06T09:49:43Z</time>
      </trkpt>
      <trkpt lat="45.95353" lon="6.31259">
        <ele>1354.04199936</ele>
        <time>2013-10-06T09:49:45Z</time>
      </trkpt>
      <trkpt lat="45.95348" lon="6.31248">
        <ele>1351.81999616</ele>
        <time>2013-10-06T09:49:56Z</time>
      </trkpt>
      <trkpt lat="45.9534" lon="6.31242">
        <ele>1350.21999616</ele>
        <time>2013-10-06T09:50:00Z</time>
      </trkpt>
      <trkpt lat="45.9533" lon="6.31237">
        <ele>1348.65999872</ele>
        <time>2013-10-06T09:50:04Z</time>
      </trkpt>
      <trkpt lat="45.95321" lon="6.31231">
        <ele>1347.752</ele>
        <time>2013-10-06T09:50:08Z</time>
      </trkpt>
      <trkpt lat="45.9531" lon="6.31228">
        <ele>1347.25199872</ele>
        <time>2013-10-06T09:50:13Z</time>
      </trkpt>
      <trkpt lat="45.95299" lon="6.31231">
        <ele>1346.504</ele>
        <time>2013-10-06T09:50:18Z</time>
      </trkpt>
      <trkpt lat="45.95289" lon="6.31237">
        <ele>1345.704</ele>
        <time>2013-10-06T09:50:22Z</time>
      </trkpt>
      <trkpt lat="45.95279" lon="6.31242">
        <ele>1344.92599808</ele>
        <time>2013-10-06T09:50:26Z</time>
      </trkpt>
      <trkpt lat="45.95268" lon="6.31242">
        <ele>1344.12599808</ele>
        <time>2013-10-06T09:50:30Z</time>
      </trkpt>
      <trkpt lat="45.95256" lon="6.3124">
        <ele>1343.32399872</ele>
        <time>2013-10-06T09:50:34Z</time>
      </trkpt>
      <trkpt lat="45.95247" lon="6.31234">
        <ele>1341.76</ele>
        <time>2013-10-06T09:50:38Z</time>
      </trkpt>
      <trkpt lat="45.95242" lon="6.31222">
        <ele>1339.7099968</ele>
        <time>2013-10-06T09:50:42Z</time>
      </trkpt>
      <trkpt lat="45.95237" lon="6.31209">
        <ele>1337.86499712</ele>
        <time>2013-10-06T09:50:46Z</time>
      </trkpt>
      <trkpt lat="45.95229" lon="6.31196">
        <ele>1336.66499712</ele>
        <time>2013-10-06T09:50:50Z</time>
      </trkpt>
      <trkpt lat="45.95221" lon="6.31185">
        <ele>1335.46499712</ele>
        <time>2013-10-06T09:50:54Z</time>
      </trkpt>
      <trkpt lat="45.95214" lon="6.31174">
        <ele>1334.48399872</ele>
        <time>2013-10-06T09:50:58Z</time>
      </trkpt>
      <trkpt lat="45.95206" lon="6.31161">
        <ele>1333.48399872</ele>
        <time>2013-10-06T09:51:03Z</time>
      </trkpt>
      <trkpt lat="45.95191" lon="6.31142">
        <ele>1330.2348854851</ele>
        <time>2013-10-06T09:51:11Z</time>
      </trkpt>
      <trkpt lat="45.95181" lon="6.31133">
        <ele>1327.8869827361</ele>
        <time>2013-10-06T09:51:16Z</time>
      </trkpt>
      <trkpt lat="45.95169" lon="6.31106">
        <ele>1324</ele>
        <time>2013-10-06T09:51:28Z</time>
      </trkpt>
      <trkpt lat="45.95169" lon="6.31091">
        <ele>1324</ele>
        <time>2013-10-06T09:51:32Z</time>
      </trkpt>
      <trkpt lat="45.95166" lon="6.31076">
        <ele>1323.78999808</ele>
        <time>2013-10-06T09:51:36Z</time>
      </trkpt>
      <trkpt lat="45.95162" lon="6.31062">
        <ele>1320.78999808</ele>
        <time>2013-10-06T09:51:41Z</time>
      </trkpt>
      <trkpt lat="45.95158" lon="6.31046">
        <ele>1317.45999872</ele>
        <time>2013-10-06T09:51:47Z</time>
      </trkpt>
      <trkpt lat="45.95151" lon="6.31031">
        <ele>1315.45999872</ele>
        <time>2013-10-06T09:51:52Z</time>
      </trkpt>
      <trkpt lat="45.95146" lon="6.31017">
        <ele>1313.72999936</ele>
        <time>2013-10-06T09:51:57Z</time>
      </trkpt>
      <trkpt lat="45.95143" lon="6.31002">
        <ele>1312.52999936</ele>
        <time>2013-10-06T09:52:03Z</time>
      </trkpt>
      <trkpt lat="45.95138" lon="6.30986">
        <ele>1312</ele>
        <time>2013-10-06T09:52:08Z</time>
      </trkpt>
      <trkpt lat="45.95138" lon="6.30971">
        <ele>1312</ele>
        <time>2013-10-06T09:52:12Z</time>
      </trkpt>
      <trkpt lat="45.9514" lon="6.30956">
        <ele>1311.904</ele>
        <time>2013-10-06T09:52:16Z</time>
      </trkpt>
      <trkpt lat="45.95148" lon="6.30941">
        <ele>1311.30399744</ele>
        <time>2013-10-06T09:52:19Z</time>
      </trkpt>
      <trkpt lat="45.95156" lon="6.30927">
        <ele>1310.704</ele>
        <time>2013-10-06T09:52:22Z</time>
      </trkpt>
      <trkpt lat="45.95163" lon="6.30914">
        <ele>1309.86299904</ele>
        <time>2013-10-06T09:52:27Z</time>
      </trkpt>
      <trkpt lat="45.95172" lon="6.30907">
        <ele>1309.46299904</ele>
        <time>2013-10-06T09:52:31Z</time>
      </trkpt>
      <trkpt lat="45.95183" lon="6.30908">
        <ele>1308.76199936</ele>
        <time>2013-10-06T09:52:38Z</time>
      </trkpt>
      <trkpt lat="45.95195" lon="6.3091">
        <ele>1308.26199936</ele>
        <time>2013-10-06T09:52:43Z</time>
      </trkpt>
      <trkpt lat="45.95219" lon="6.30915">
        <ele>1307.35499904</ele>
        <time>2013-10-06T09:52:52Z</time>
      </trkpt>
      <trkpt lat="45.9523" lon="6.30912">
        <ele>1306.90999808</ele>
        <time>2013-10-06T09:52:56Z</time>
      </trkpt>
      <trkpt lat="45.95239" lon="6.30906">
        <ele>1305.90999808</ele>
        <time>2013-10-06T09:53:01Z</time>
      </trkpt>
      <trkpt lat="45.95251" lon="6.30898">
        <ele>1305.10999808</ele>
        <time>2013-10-06T09:53:05Z</time>
      </trkpt>
      <trkpt lat="45.95261" lon="6.3089">
        <ele>1304.28399872</ele>
        <time>2013-10-06T09:53:09Z</time>
      </trkpt>
      <trkpt lat="45.95269" lon="6.30878">
        <ele>1303.28399872</ele>
        <time>2013-10-06T09:53:14Z</time>
      </trkpt>
      <trkpt lat="45.95275" lon="6.30865">
        <ele>1300.248</ele>
        <time>2013-10-06T09:53:19Z</time>
      </trkpt>
      <trkpt lat="45.95281" lon="6.30852">
        <ele>1296.25599744</ele>
        <time>2013-10-06T09:53:24Z</time>
      </trkpt>
      <trkpt lat="45.95298" lon="6.30833">
        <ele>1292.72599808</ele>
        <time>2013-10-06T09:53:33Z</time>
      </trkpt>
      <trkpt lat="45.95308" lon="6.30828">
        <ele>1291.01999616</ele>
        <time>2013-10-06T09:53:38Z</time>
      </trkpt>
      <trkpt lat="45.95319" lon="6.30823">
        <ele>1289.01999616</ele>
        <time>2013-10-06T09:53:43Z</time>
      </trkpt>
      <trkpt lat="45.95329" lon="6.3082">
        <ele>1287.56499712</ele>
        <time>2013-10-06T09:53:47Z</time>
      </trkpt>
      <trkpt lat="45.95339" lon="6.30812">
        <ele>1286.06499712</ele>
        <time>2013-10-06T09:53:52Z</time>
      </trkpt>
      <trkpt lat="45.95347" lon="6.30801">
        <ele>1283.4748735449</ele>
        <time>2013-10-06T09:53:58Z</time>
      </trkpt>
      <trkpt lat="45.95358" lon="6.30794">
        <ele>1279.9280766335</ele>
        <time>2013-10-06T09:54:04Z</time>
      </trkpt>
      <trkpt lat="45.95368" lon="6.3079">
        <ele>1277.3654784538</ele>
        <time>2013-10-06T09:54:09Z</time>
      </trkpt>
      <trkpt lat="45.95378" lon="6.30784">
        <ele>1274.3197921851</ele>
        <time>2013-10-06T09:54:15Z</time>
      </trkpt>
      <trkpt lat="45.95387" lon="6.30778">
        <ele>1272.656</ele>
        <time>2013-10-06T09:54:20Z</time>
      </trkpt>
      <trkpt lat="45.95398" lon="6.3077">
        <ele>1271.15599616</ele>
        <time>2013-10-06T09:54:25Z</time>
      </trkpt>
      <trkpt lat="45.95421" lon="6.30761">
        <ele>1268.75599616</ele>
        <time>2013-10-06T09:54:33Z</time>
      </trkpt>
      <trkpt lat="45.95433" lon="6.30758">
        <ele>1267.41199872</ele>
        <time>2013-10-06T09:54:37Z</time>
      </trkpt>
      <trkpt lat="45.95444" lon="6.30756">
        <ele>1265.81199872</ele>
        <time>2013-10-06T09:54:41Z</time>
      </trkpt>
      <trkpt lat="45.95454" lon="6.30754">
        <ele>1264.21199872</ele>
        <time>2013-10-06T09:54:45Z</time>
      </trkpt>
      <trkpt lat="45.95465" lon="6.3075">
        <ele>1262.92599808</ele>
        <time>2013-10-06T09:54:49Z</time>
      </trkpt>
      <trkpt lat="45.95474" lon="6.3074">
        <ele>1261.42599808</ele>
        <time>2013-10-06T09:54:54Z</time>
      </trkpt>
      <trkpt lat="45.95463" lon="6.30738">
        <ele>1258.96799744</ele>
        <time>2013-10-06T09:55:08Z</time>
      </trkpt>
      <trkpt lat="45.95454" lon="6.30745">
        <ele>1257.36799744</ele>
        <time>2013-10-06T09:55:12Z</time>
      </trkpt>
      <trkpt lat="45.95443" lon="6.30748">
        <ele>1255.8534394087</ele>
        <time>2013-10-06T09:55:17Z</time>
      </trkpt>
      <trkpt lat="45.95431" lon="6.30747">
        <ele>1255.3549350812</ele>
        <time>2013-10-06T09:55:22Z</time>
      </trkpt>
      <trkpt lat="45.95419" lon="6.30747">
        <ele>1254.4302881221</ele>
        <time>2013-10-06T09:55:27Z</time>
      </trkpt>
      <trkpt lat="45.95409" lon="6.30747">
        <ele>1252.8254731636</ele>
        <time>2013-10-06T09:55:31Z</time>
      </trkpt>
      <trkpt lat="45.95398" lon="6.30746">
        <ele>1251.2206582052</ele>
        <time>2013-10-06T09:55:35Z</time>
      </trkpt>
      <trkpt lat="45.95387" lon="6.30744">
        <ele>1250.64199936</ele>
        <time>2013-10-06T09:55:39Z</time>
      </trkpt>
      <trkpt lat="45.95368" lon="6.30734">
        <ele>1250.04199936</ele>
        <time>2013-10-06T09:55:45Z</time>
      </trkpt>
      <trkpt lat="45.95359" lon="6.30726">
        <ele>1249.28399872</ele>
        <time>2013-10-06T09:55:49Z</time>
      </trkpt>
      <trkpt lat="45.95351" lon="6.30717">
        <ele>1248.304</ele>
        <time>2013-10-06T09:55:54Z</time>
      </trkpt>
      <trkpt lat="45.95341" lon="6.30707">
        <ele>1246.60799488</ele>
        <time>2013-10-06T09:55:59Z</time>
      </trkpt>
      <trkpt lat="45.95332" lon="6.30698">
        <ele>1244.20799488</ele>
        <time>2013-10-06T09:56:05Z</time>
      </trkpt>
      <trkpt lat="45.95313" lon="6.30676">
        <ele>1240.20799488</ele>
        <time>2013-10-06T09:56:15Z</time>
      </trkpt>
      <trkpt lat="45.95305" lon="6.30669">
        <ele>1236.64599808</ele>
        <time>2013-10-06T09:56:21Z</time>
      </trkpt>
      <trkpt lat="45.95296" lon="6.30659">
        <ele>1233.57999616</ele>
        <time>2013-10-06T09:56:27Z</time>
      </trkpt>
      <trkpt lat="45.95288" lon="6.3065">
        <ele>1232.08</ele>
        <time>2013-10-06T09:56:32Z</time>
      </trkpt>
      <trkpt lat="45.95282" lon="6.30637">
        <ele>1230.7749952</ele>
        <time>2013-10-06T09:56:36Z</time>
      </trkpt>
      <trkpt lat="45.95274" lon="6.30627">
        <ele>1228.2749952</ele>
        <time>2013-10-06T09:56:41Z</time>
      </trkpt>
      <trkpt lat="45.95265" lon="6.30616">
        <ele>1226.3249984</ele>
        <time>2013-10-06T09:56:45Z</time>
      </trkpt>
      <trkpt lat="45.95257" lon="6.30605">
        <ele>1222.1466835473</ele>
        <time>2013-10-06T09:56:52Z</time>
      </trkpt>
      <trkpt lat="45.95251" lon="6.30593">
        <ele>1218.9949536177</ele>
        <time>2013-10-06T09:56:59Z</time>
      </trkpt>
      <trkpt lat="45.95245" lon="6.30582">
        <ele>1217.481329548</ele>
        <time>2013-10-06T09:57:04Z</time>
      </trkpt>
      <trkpt lat="45.95235" lon="6.30573">
        <ele>1215.52399616</ele>
        <time>2013-10-06T09:57:09Z</time>
      </trkpt>
      <trkpt lat="45.95227" lon="6.30563">
        <ele>1213.20799488</ele>
        <time>2013-10-06T09:57:15Z</time>
      </trkpt>
      <trkpt lat="45.95219" lon="6.30554">
        <ele>1211.28</ele>
        <time>2013-10-06T09:57:19Z</time>
      </trkpt>
      <trkpt lat="45.95211" lon="6.30543">
        <ele>1209.28</ele>
        <time>2013-10-06T09:57:23Z</time>
      </trkpt>
      <trkpt lat="45.95201" lon="6.30536">
        <ele>1207.8249984</ele>
        <time>2013-10-06T09:57:26Z</time>
      </trkpt>
      <trkpt lat="45.95194" lon="6.30525">
        <ele>1206.8249984</ele>
        <time>2013-10-06T09:57:28Z</time>
      </trkpt>
      <trkpt lat="45.95185" lon="6.30514">
        <ele>1204.8249984</ele>
        <time>2013-10-06T09:57:32Z</time>
      </trkpt>
      <trkpt lat="45.95178" lon="6.30503">
        <ele>1203.2749952</ele>
        <time>2013-10-06T09:57:35Z</time>
      </trkpt>
      <trkpt lat="45.9517" lon="6.30491">
        <ele>1202.22599808</ele>
        <time>2013-10-06T09:57:38Z</time>
      </trkpt>
      <trkpt lat="45.95144" lon="6.30462">
        <ele>1197.12599808</ele>
        <time>2013-10-06T09:57:55Z</time>
      </trkpt>
      <trkpt lat="45.95135" lon="6.30453">
        <ele>1195.62599808</ele>
        <time>2013-10-06T09:58:00Z</time>
      </trkpt>
      <trkpt lat="45.95126" lon="6.30442">
        <ele>1194.15599616</ele>
        <time>2013-10-06T09:58:05Z</time>
      </trkpt>
      <trkpt lat="45.95117" lon="6.30433">
        <ele>1193.552</ele>
        <time>2013-10-06T09:58:10Z</time>
      </trkpt>
      <trkpt lat="45.95109" lon="6.30423">
        <ele>1192.2599936</ele>
        <time>2013-10-06T09:58:17Z</time>
      </trkpt>
      <trkpt lat="45.951" lon="6.30415">
        <ele>1189.2599936</ele>
        <time>2013-10-06T09:58:23Z</time>
      </trkpt>
      <trkpt lat="45.95093" lon="6.30403">
        <ele>1187.12399872</ele>
        <time>2013-10-06T09:58:30Z</time>
      </trkpt>
      <trkpt lat="45.95085" lon="6.30393">
        <ele>1186.32399872</ele>
        <time>2013-10-06T09:58:34Z</time>
      </trkpt>
      <trkpt lat="45.9508" lon="6.3038">
        <ele>1185.74599936</ele>
        <time>2013-10-06T09:58:38Z</time>
      </trkpt>
      <trkpt lat="45.95074" lon="6.30367">
        <ele>1185.34599936</ele>
        <time>2013-10-06T09:58:42Z</time>
      </trkpt>
      <trkpt lat="45.95072" lon="6.30352">
        <ele>1184.68399872</ele>
        <time>2013-10-06T09:58:47Z</time>
      </trkpt>
      <trkpt lat="45.9507" lon="6.30337">
        <ele>1183.704</ele>
        <time>2013-10-06T09:58:52Z</time>
      </trkpt>
      <trkpt lat="45.95069" lon="6.30323">
        <ele>1182.47999744</ele>
        <time>2013-10-06T09:58:57Z</time>
      </trkpt>
      <trkpt lat="45.9507" lon="6.30309">
        <ele>1180.07999744</ele>
        <time>2013-10-06T09:59:03Z</time>
      </trkpt>
      <trkpt lat="45.95073" lon="6.30293">
        <ele>1178.752</ele>
        <time>2013-10-06T09:59:08Z</time>
      </trkpt>
      <trkpt lat="45.95077" lon="6.30279">
        <ele>1178.352</ele>
        <time>2013-10-06T09:59:12Z</time>
      </trkpt>
      <trkpt lat="45.95081" lon="6.30264">
        <ele>1177.952</ele>
        <time>2013-10-06T09:59:16Z</time>
      </trkpt>
      <trkpt lat="45.95086" lon="6.30249">
        <ele>1177.552</ele>
        <time>2013-10-06T09:59:20Z</time>
      </trkpt>
      <trkpt lat="45.95089" lon="6.30235">
        <ele>1176.72999936</ele>
        <time>2013-10-06T09:59:27Z</time>
      </trkpt>
      <trkpt lat="45.95095" lon="6.30203">
        <ele>1174.8434088308</ele>
        <time>2013-10-06T09:59:37Z</time>
      </trkpt>
      <trkpt lat="45.95101" lon="6.30188">
        <ele>1174.2586713892</ele>
        <time>2013-10-06T09:59:43Z</time>
      </trkpt>
      <trkpt lat="45.95107" lon="6.30175">
        <ele>1174</ele>
        <time>2013-10-06T09:59:49Z</time>
      </trkpt>
      <trkpt lat="45.9511" lon="6.3016">
        <ele>1174</ele>
        <time>2013-10-06T09:59:54Z</time>
      </trkpt>
      <trkpt lat="45.95114" lon="6.30145">
        <ele>1173.30399744</ele>
        <time>2013-10-06T09:59:59Z</time>
      </trkpt>
      <trkpt lat="45.95112" lon="6.3013">
        <ele>1172.50399744</ele>
        <time>2013-10-06T10:00:03Z</time>
      </trkpt>
      <trkpt lat="45.95111" lon="6.30098">
        <ele>1171.25199872</ele>
        <time>2013-10-06T10:00:13Z</time>
      </trkpt>
      <trkpt lat="45.9511" lon="6.30082">
        <ele>1170.752</ele>
        <time>2013-10-06T10:00:18Z</time>
      </trkpt>
      <trkpt lat="45.95108" lon="6.30067">
        <ele>1170.33700096</ele>
        <time>2013-10-06T10:00:29Z</time>
      </trkpt>
      <trkpt lat="45.95112" lon="6.30053">
        <ele>1169.92999936</ele>
        <time>2013-10-06T10:00:41Z</time>
      </trkpt>
      <trkpt lat="45.95117" lon="6.30041">
        <ele>1165.71199232</ele>
        <time>2013-10-06T10:00:51Z</time>
      </trkpt>
      <trkpt lat="45.95126" lon="6.30035">
        <ele>1158.8149952</ele>
        <time>2013-10-06T10:01:04Z</time>
      </trkpt>
      <trkpt lat="45.95135" lon="6.30028">
        <ele>1151.51799808</ele>
        <time>2013-10-06T10:01:18Z</time>
      </trkpt>
      <trkpt lat="45.9514" lon="6.30015">
        <ele>1147.31799808</ele>
        <time>2013-10-06T10:01:25Z</time>
      </trkpt>
      <trkpt lat="45.95142" lon="6.3">
        <ele>1144.2599936</ele>
        <time>2013-10-06T10:01:31Z</time>
      </trkpt>
      <trkpt lat="45.95146" lon="6.29984">
        <ele>1141.59399552</ele>
        <time>2013-10-06T10:01:36Z</time>
      </trkpt>
      <trkpt lat="45.95152" lon="6.29968">
        <ele>1138.09399552</ele>
        <time>2013-10-06T10:01:41Z</time>
      </trkpt>
      <trkpt lat="45.95404" lon="6.29694">
        <ele>1053.464</ele>
        <time>2013-10-06T10:04:42Z</time>
      </trkpt>
      <trkpt lat="45.95413" lon="6.29686">
        <ele>1050.808</ele>
        <time>2013-10-06T10:04:46Z</time>
      </trkpt>
      <trkpt lat="45.95695" lon="6.29563">
        <ele>952.79368138012</ele>
        <time>2013-10-06T10:08:53Z</time>
      </trkpt>
      <trkpt lat="45.95673" lon="6.29585">
        <ele>949.43160941676</ele>
        <time>2013-10-06T10:09:04Z</time>
      </trkpt>
      <trkpt lat="45.95663" lon="6.29595">
        <ele>948.65334666612</ele>
        <time>2013-10-06T10:09:09Z</time>
      </trkpt>
      <trkpt lat="45.95869" lon="6.29497">
        <ele>916.82720895263</ele>
        <time>2013-10-06T10:11:01Z</time>
      </trkpt>
      <trkpt lat="45.95879" lon="6.29491">
        <ele>915.67527033159</ele>
        <time>2013-10-06T10:11:04Z</time>
      </trkpt>
      <trkpt lat="45.95889" lon="6.29488">
        <ele>914.34541449198</ele>
        <time>2013-10-06T10:11:07Z</time>
      </trkpt>
      <trkpt lat="45.95899" lon="6.29482">
        <ele>911.82779031711</ele>
        <time>2013-10-06T10:11:12Z</time>
      </trkpt>
      <trkpt lat="45.95912" lon="6.29471">
        <ele>909.28899712</ele>
        <time>2013-10-06T10:11:18Z</time>
      </trkpt>
      <trkpt lat="45.95921" lon="6.29461">
        <ele>907.78899712</ele>
        <time>2013-10-06T10:11:23Z</time>
      </trkpt>
      <trkpt lat="45.9593" lon="6.29452">
        <ele>906.2599936</ele>
        <time>2013-10-06T10:11:27Z</time>
      </trkpt>
      <trkpt lat="45.95941" lon="6.29443">
        <ele>903.76</ele>
        <time>2013-10-06T10:11:32Z</time>
      </trkpt>
      <trkpt lat="45.95951" lon="6.29434">
        <ele>901.76</ele>
        <time>2013-10-06T10:11:36Z</time>
      </trkpt>
      <trkpt lat="45.95968" lon="6.29413">
        <ele>897.76</ele>
        <time>2013-10-06T10:11:44Z</time>
      </trkpt>
      <trkpt lat="45.95977" lon="6.29405">
        <ele>896.256</ele>
        <time>2013-10-06T10:11:48Z</time>
      </trkpt>
      <trkpt lat="45.95985" lon="6.29396">
        <ele>895.056</ele>
        <time>2013-10-06T10:11:52Z</time>
      </trkpt>
      <trkpt lat="45.95993" lon="6.29386">
        <ele>893.40799488</ele>
        <time>2013-10-06T10:11:57Z</time>
      </trkpt>
      <trkpt lat="45.96001" lon="6.29376">
        <ele>891.80799488</ele>
        <time>2013-10-06T10:12:01Z</time>
      </trkpt>
      <trkpt lat="45.96008" lon="6.29365">
        <ele>890.20799488</ele>
        <time>2013-10-06T10:12:05Z</time>
      </trkpt>
      <trkpt lat="45.96017" lon="6.29356">
        <ele>888.60799488</ele>
        <time>2013-10-06T10:12:09Z</time>
      </trkpt>
      <trkpt lat="45.96032" lon="6.29329">
        <ele>885.55899904</ele>
        <time>2013-10-06T10:12:17Z</time>
      </trkpt>
      <trkpt lat="45.9604" lon="6.29316">
        <ele>884.35899904</ele>
        <time>2013-10-06T10:12:21Z</time>
      </trkpt>
      <trkpt lat="45.96047" lon="6.29306">
        <ele>882.84199936</ele>
        <time>2013-10-06T10:12:27Z</time>
      </trkpt>
      <trkpt lat="45.96057" lon="6.29297">
        <ele>882.34199936</ele>
        <time>2013-10-06T10:12:32Z</time>
      </trkpt>
      <trkpt lat="45.96063" lon="6.29286">
        <ele>881.59399552</ele>
        <time>2013-10-06T10:12:36Z</time>
      </trkpt>
      <trkpt lat="45.96073" lon="6.29278">
        <ele>878.09399552</ele>
        <time>2013-10-06T10:12:41Z</time>
      </trkpt>
      <trkpt lat="45.96083" lon="6.29272">
        <ele>875.36399104</ele>
        <time>2013-10-06T10:12:45Z</time>
      </trkpt>
      <trkpt lat="45.96092" lon="6.29262">
        <ele>871.864</ele>
        <time>2013-10-06T10:12:50Z</time>
      </trkpt>
      <trkpt lat="45.96099" lon="6.2925">
        <ele>868.36399104</ele>
        <time>2013-10-06T10:12:55Z</time>
      </trkpt>
      <trkpt lat="45.96104" lon="6.29237">
        <ele>865.8</ele>
        <time>2013-10-06T10:13:00Z</time>
      </trkpt>
      <trkpt lat="45.96112" lon="6.29225">
        <ele>862.8499968</ele>
        <time>2013-10-06T10:13:06Z</time>
      </trkpt>
      <trkpt lat="45.96121" lon="6.29214">
        <ele>860.3499968</ele>
        <time>2013-10-06T10:13:11Z</time>
      </trkpt>
      <trkpt lat="45.9613" lon="6.29208">
        <ele>858.3499968</ele>
        <time>2013-10-06T10:13:15Z</time>
      </trkpt>
      <trkpt lat="45.9614" lon="6.292">
        <ele>854.16399104</ele>
        <time>2013-10-06T10:13:21Z</time>
      </trkpt>
      <trkpt lat="45.96151" lon="6.29194">
        <ele>849.96399104</ele>
        <time>2013-10-06T10:13:27Z</time>
      </trkpt>
      <trkpt lat="45.96159" lon="6.29185">
        <ele>847.16399104</ele>
        <time>2013-10-06T10:13:31Z</time>
      </trkpt>
      <trkpt lat="45.9617" lon="6.29179">
        <ele>843.76</ele>
        <time>2013-10-06T10:13:36Z</time>
      </trkpt>
      <trkpt lat="45.96175" lon="6.29167">
        <ele>840.76</ele>
        <time>2013-10-06T10:13:42Z</time>
      </trkpt>
      <trkpt lat="45.96206" lon="6.28849">
        <ele>856</ele>
        <time>2013-10-06T10:20:11Z</time>
      </trkpt>
      <trkpt lat="45.96228" lon="6.28854">
        <ele>859</ele>
        <time>2013-10-06T10:20:53Z</time>
      </trkpt>
      <trkpt lat="45.96235" lon="6.28865">
        <ele>859.64149160652</ele>
        <time>2013-10-06T10:21:02Z</time>
      </trkpt>
      <trkpt lat="45.96227" lon="6.28874">
        <ele>862.13700096</ele>
        <time>2013-10-06T10:21:37Z</time>
      </trkpt>
      <trkpt lat="45.96239" lon="6.2887">
        <ele>862.10599936</ele>
        <time>2013-10-06T10:22:05Z</time>
      </trkpt>
      <trkpt lat="45.96251" lon="6.28869">
        <ele>862</ele>
        <time>2013-10-06T10:22:10Z</time>
      </trkpt>
      <trkpt lat="45.96261" lon="6.28876">
        <ele>862.45391496952</ele>
        <time>2013-10-06T10:22:20Z</time>
      </trkpt>
      <trkpt lat="45.96273" lon="6.28879">
        <ele>862.94945463679</ele>
        <time>2013-10-06T10:22:25Z</time>
      </trkpt>
      <trkpt lat="45.96283" lon="6.28886">
        <ele>863.87588250338</ele>
        <time>2013-10-06T10:22:30Z</time>
      </trkpt>
      <trkpt lat="45.96292" lon="6.28895">
        <ele>864.66296831125</ele>
        <time>2013-10-06T10:22:34Z</time>
      </trkpt>
      <trkpt lat="45.96302" lon="6.28904">
        <ele>866.71600128</ele>
        <time>2013-10-06T10:22:44Z</time>
      </trkpt>
      <trkpt lat="45.96312" lon="6.28911">
        <ele>868.09600256</ele>
        <time>2013-10-06T10:22:51Z</time>
      </trkpt>
      <trkpt lat="45.96322" lon="6.28921">
        <ele>869.54000128</ele>
        <time>2013-10-06T10:22:57Z</time>
      </trkpt>
      <trkpt lat="45.96329" lon="6.28933">
        <ele>871.54000128</ele>
        <time>2013-10-06T10:23:02Z</time>
      </trkpt>
      <trkpt lat="45.96337" lon="6.28943">
        <ele>873.23500032</ele>
        <time>2013-10-06T10:23:08Z</time>
      </trkpt>
      <trkpt lat="45.96344" lon="6.28954">
        <ele>873.73500032</ele>
        <time>2013-10-06T10:23:13Z</time>
      </trkpt>
      <trkpt lat="45.96352" lon="6.28967">
        <ele>874.34800128</ele>
        <time>2013-10-06T10:23:19Z</time>
      </trkpt>
      <trkpt lat="45.9636" lon="6.28976">
        <ele>874.94800128</ele>
        <time>2013-10-06T10:23:25Z</time>
      </trkpt>
      <trkpt lat="45.96368" lon="6.28987">
        <ele>876.296</ele>
        <time>2013-10-06T10:23:32Z</time>
      </trkpt>
      <trkpt lat="45.96377" lon="6.28992">
        <ele>879.7350016</ele>
        <time>2013-10-06T10:23:41Z</time>
      </trkpt>
      <trkpt lat="45.96395" lon="6.2901">
        <ele>884</ele>
        <time>2013-10-06T10:24:00Z</time>
      </trkpt>
      <trkpt lat="45.96405" lon="6.29012">
        <ele>884.896</ele>
        <time>2013-10-06T10:24:10Z</time>
      </trkpt>
      <trkpt lat="45.96415" lon="6.29019">
        <ele>886.7900032</ele>
        <time>2013-10-06T10:24:17Z</time>
      </trkpt>
      <trkpt lat="45.96425" lon="6.29022">
        <ele>890.7900032</ele>
        <time>2013-10-06T10:24:25Z</time>
      </trkpt>
      <trkpt lat="45.96443" lon="6.29035">
        <ele>892</ele>
        <time>2013-10-06T10:24:37Z</time>
      </trkpt>
      <trkpt lat="45.96451" lon="6.29044">
        <ele>892</ele>
        <time>2013-10-06T10:24:43Z</time>
      </trkpt>
      <trkpt lat="45.96461" lon="6.29049">
        <ele>893.696</ele>
        <time>2013-10-06T10:24:54Z</time>
      </trkpt>
      <trkpt lat="45.96472" lon="6.29052">
        <ele>897.34000128</ele>
        <time>2013-10-06T10:25:04Z</time>
      </trkpt>
      <trkpt lat="45.96482" lon="6.29058">
        <ele>900.5213058271</ele>
        <time>2013-10-06T10:25:14Z</time>
      </trkpt>
      <trkpt lat="45.96492" lon="6.29065">
        <ele>901</ele>
        <time>2013-10-06T10:25:20Z</time>
      </trkpt>
      <trkpt lat="45.965" lon="6.2907">
        <ele>901.24500096</ele>
        <time>2013-10-06T10:25:28Z</time>
      </trkpt>
      <trkpt lat="45.96509" lon="6.29077">
        <ele>901.84500096</ele>
        <time>2013-10-06T10:25:34Z</time>
      </trkpt>
      <trkpt lat="45.96517" lon="6.29084">
        <ele>902.71385947315</ele>
        <time>2013-10-06T10:25:39Z</time>
      </trkpt>
      <trkpt lat="45.96523" lon="6.29089">
        <ele>903.31206466614</ele>
        <time>2013-10-06T10:25:42Z</time>
      </trkpt>
      <trkpt lat="45.96531" lon="6.29093">
        <ele>904.02808426177</ele>
        <time>2013-10-06T10:25:46Z</time>
      </trkpt>
      <trkpt lat="45.96538" lon="6.29095">
        <ele>904.42928800138</ele>
        <time>2013-10-06T10:25:50Z</time>
      </trkpt>
      <trkpt lat="45.96543" lon="6.29101">
        <ele>904.73019080608</ele>
        <time>2013-10-06T10:25:53Z</time>
      </trkpt>
      <trkpt lat="45.96549" lon="6.29106">
        <ele>905.03500032</ele>
        <time>2013-10-06T10:25:56Z</time>
      </trkpt>
      <trkpt lat="45.96553" lon="6.29113">
        <ele>905.43500032</ele>
        <time>2013-10-06T10:26:00Z</time>
      </trkpt>
      <trkpt lat="45.96567" lon="6.29123">
        <ele>906.34800128</ele>
        <time>2013-10-06T10:26:09Z</time>
      </trkpt>
      <trkpt lat="45.96572" lon="6.2913">
        <ele>906.74800128</ele>
        <time>2013-10-06T10:26:13Z</time>
      </trkpt>
      <trkpt lat="45.96579" lon="6.29133">
        <ele>907.248</ele>
        <time>2013-10-06T10:26:18Z</time>
      </trkpt>
      <trkpt lat="45.96587" lon="6.29138">
        <ele>907.85800064</ele>
        <time>2013-10-06T10:26:24Z</time>
      </trkpt>
      <trkpt lat="45.96594" lon="6.29145">
        <ele>908.51600128</ele>
        <time>2013-10-06T10:26:28Z</time>
      </trkpt>
      <trkpt lat="45.96599" lon="6.29151">
        <ele>909.11600128</ele>
        <time>2013-10-06T10:26:31Z</time>
      </trkpt>
      <trkpt lat="45.96605" lon="6.29159">
        <ele>909.89600256</ele>
        <time>2013-10-06T10:26:35Z</time>
      </trkpt>
      <trkpt lat="45.96611" lon="6.29165">
        <ele>911.04400384</ele>
        <time>2013-10-06T10:26:39Z</time>
      </trkpt>
      <trkpt lat="45.9662" lon="6.29171">
        <ele>913.34700032</ele>
        <time>2013-10-06T10:26:49Z</time>
      </trkpt>
      <trkpt lat="45.96627" lon="6.29176">
        <ele>913.84700032</ele>
        <time>2013-10-06T10:26:54Z</time>
      </trkpt>
      <trkpt lat="45.96643" lon="6.29189">
        <ele>915.04500096</ele>
        <time>2013-10-06T10:27:06Z</time>
      </trkpt>
      <trkpt lat="45.96649" lon="6.29196">
        <ele>915.44500096</ele>
        <time>2013-10-06T10:27:10Z</time>
      </trkpt>
      <trkpt lat="45.96656" lon="6.29199">
        <ele>915.94500096</ele>
        <time>2013-10-06T10:27:15Z</time>
      </trkpt>
      <trkpt lat="45.96662" lon="6.29207">
        <ele>916.91600128</ele>
        <time>2013-10-06T10:27:20Z</time>
      </trkpt>
      <trkpt lat="45.96668" lon="6.29214">
        <ele>918.11600128</ele>
        <time>2013-10-06T10:27:26Z</time>
      </trkpt>
      <trkpt lat="45.96679" lon="6.29216">
        <ele>919.91600128</ele>
        <time>2013-10-06T10:27:35Z</time>
      </trkpt>
      <trkpt lat="45.96688" lon="6.29221">
        <ele>923.43200256</ele>
        <time>2013-10-06T10:27:44Z</time>
      </trkpt>
      <trkpt lat="45.96697" lon="6.29231">
        <ele>925.10000128</ele>
        <time>2013-10-06T10:27:51Z</time>
      </trkpt>
      <trkpt lat="45.96706" lon="6.29237">
        <ele>926.44103125531</ele>
        <time>2013-10-06T10:28:00Z</time>
      </trkpt>
      <trkpt lat="45.96723" lon="6.29261">
        <ele>931.97400192</ele>
        <time>2013-10-06T10:28:22Z</time>
      </trkpt>
      <trkpt lat="45.9673" lon="6.29273">
        <ele>933.98800128</ele>
        <time>2013-10-06T10:28:28Z</time>
      </trkpt>
      <trkpt lat="45.96734" lon="6.29286">
        <ele>937.91600128</ele>
        <time>2013-10-06T10:28:40Z</time>
      </trkpt>
      <trkpt lat="45.9674" lon="6.29299">
        <ele>939.09000192</ele>
        <time>2013-10-06T10:28:46Z</time>
      </trkpt>
      <trkpt lat="45.96744" lon="6.29314">
        <ele>940.29000192</ele>
        <time>2013-10-06T10:28:52Z</time>
      </trkpt>
      <trkpt lat="45.96748" lon="6.29328">
        <ele>941</ele>
        <time>2013-10-06T10:29:01Z</time>
      </trkpt>
      <trkpt lat="45.96749" lon="6.29342">
        <ele>942.49000192</ele>
        <time>2013-10-06T10:29:13Z</time>
      </trkpt>
      <trkpt lat="45.96752" lon="6.29357">
        <ele>944.89400064</ele>
        <time>2013-10-06T10:29:25Z</time>
      </trkpt>
      <trkpt lat="45.96758" lon="6.2937">
        <ele>945.85800064</ele>
        <time>2013-10-06T10:29:34Z</time>
      </trkpt>
      <trkpt lat="45.96764" lon="6.29382">
        <ele>947.09000192</ele>
        <time>2013-10-06T10:29:46Z</time>
      </trkpt>
      <trkpt lat="45.96769" lon="6.29395">
        <ele>950.34100096</ele>
        <time>2013-10-06T10:30:00Z</time>
      </trkpt>
      <trkpt lat="45.96773" lon="6.29408">
        <ele>953.31100288</ele>
        <time>2013-10-06T10:30:10Z</time>
      </trkpt>
      <trkpt lat="45.96779" lon="6.2942">
        <ele>956.60500096</ele>
        <time>2013-10-06T10:30:21Z</time>
      </trkpt>
      <trkpt lat="45.96779" lon="6.29436">
        <ele>958.13000064</ele>
        <time>2013-10-06T10:30:27Z</time>
      </trkpt>
      <trkpt lat="45.96781" lon="6.29451">
        <ele>958.83000064</ele>
        <time>2013-10-06T10:30:34Z</time>
      </trkpt>
      <trkpt lat="45.96828" lon="6.29586">
        <ele>950.92315336413</ele>
        <time>2013-10-06T10:32:15Z</time>
      </trkpt>
      <trkpt lat="45.96877" lon="6.29763">
        <ele>977</ele>
        <time>2013-10-06T10:37:25Z</time>
      </trkpt>
      <trkpt lat="45.96887" lon="6.29759">
        <ele>977</ele>
        <time>2013-10-06T10:38:10Z</time>
      </trkpt>
      <trkpt lat="45.96895" lon="6.29751">
        <ele>975.75499904</ele>
        <time>2013-10-06T10:38:28Z</time>
      </trkpt>
      <trkpt lat="45.96902" lon="6.29721">
        <ele>975</ele>
        <time>2013-10-06T10:38:43Z</time>
      </trkpt>
      <trkpt lat="45.969" lon="6.29703">
        <ele>975.35800064</ele>
        <time>2013-10-06T10:38:49Z</time>
      </trkpt>
      <trkpt lat="45.96901" lon="6.29689">
        <ele>975.75800064</ele>
        <time>2013-10-06T10:38:53Z</time>
      </trkpt>
      <trkpt lat="45.96902" lon="6.29673">
        <ele>975.68399872</ele>
        <time>2013-10-06T10:38:57Z</time>
      </trkpt>
      <trkpt lat="45.96907" lon="6.29658">
        <ele>974.88399872</ele>
        <time>2013-10-06T10:39:01Z</time>
      </trkpt>
      <trkpt lat="45.96909" lon="6.29643">
        <ele>974.10399744</ele>
        <time>2013-10-06T10:39:05Z</time>
      </trkpt>
      <trkpt lat="45.96906" lon="6.29628">
        <ele>974.34800128</ele>
        <time>2013-10-06T10:39:09Z</time>
      </trkpt>
      <trkpt lat="45.96903" lon="6.29612">
        <ele>974.74800128</ele>
        <time>2013-10-06T10:39:13Z</time>
      </trkpt>
      <trkpt lat="45.96902" lon="6.29595">
        <ele>974.01489604293</ele>
        <time>2013-10-06T10:39:18Z</time>
      </trkpt>
      <trkpt lat="45.96908" lon="6.2958">
        <ele>972.38629421687</ele>
        <time>2013-10-06T10:39:22Z</time>
      </trkpt>
      <trkpt lat="45.96914" lon="6.29568">
        <ele>970.9597180132</ele>
        <time>2013-10-06T10:39:26Z</time>
      </trkpt>
      <trkpt lat="45.96921" lon="6.29555">
        <ele>970.45619317823</ele>
        <time>2013-10-06T10:39:31Z</time>
      </trkpt>
      <trkpt lat="45.96929" lon="6.29547">
        <ele>969.65499904</ele>
        <time>2013-10-06T10:39:39Z</time>
      </trkpt>
      <trkpt lat="45.96939" lon="6.29547">
        <ele>969</ele>
        <time>2013-10-06T10:39:48Z</time>
      </trkpt>
      <trkpt lat="45.9695" lon="6.29546">
        <ele>970.2900032</ele>
        <time>2013-10-06T10:39:58Z</time>
      </trkpt>
      <trkpt lat="45.9696" lon="6.29545">
        <ele>975.29000192</ele>
        <time>2013-10-06T10:40:17Z</time>
      </trkpt>
      <trkpt lat="45.96967" lon="6.29535">
        <ele>976.89000192</ele>
        <time>2013-10-06T10:40:25Z</time>
      </trkpt>
      <trkpt lat="45.96976" lon="6.29528">
        <ele>978.97400192</ele>
        <time>2013-10-06T10:40:32Z</time>
      </trkpt>
      <trkpt lat="45.96986" lon="6.29519">
        <ele>980.67400192</ele>
        <time>2013-10-06T10:40:39Z</time>
      </trkpt>
      <trkpt lat="45.97006" lon="6.29523">
        <ele>984.19200512</ele>
        <time>2013-10-06T10:40:51Z</time>
      </trkpt>
      <trkpt lat="45.97017" lon="6.29527">
        <ele>986.29600256</ele>
        <time>2013-10-06T10:40:57Z</time>
      </trkpt>
      <trkpt lat="45.97039" lon="6.29528">
        <ele>988</ele>
        <time>2013-10-06T10:41:13Z</time>
      </trkpt>
      <trkpt lat="45.9705" lon="6.29522">
        <ele>989.93500288</ele>
        <time>2013-10-06T10:41:22Z</time>
      </trkpt>
      <trkpt lat="45.9706" lon="6.29519">
        <ele>991.69400064</ele>
        <time>2013-10-06T10:41:29Z</time>
      </trkpt>
      <trkpt lat="45.9707" lon="6.29517">
        <ele>993.18000384</ele>
        <time>2013-10-06T10:41:36Z</time>
      </trkpt>
      <trkpt lat="45.9708" lon="6.29522">
        <ele>997.04700032</ele>
        <time>2013-10-06T10:41:46Z</time>
      </trkpt>
      <trkpt lat="45.97075" lon="6.29535">
        <ele>998.09000192</ele>
        <time>2013-10-06T10:41:56Z</time>
      </trkpt>
      <trkpt lat="45.97073" lon="6.2955">
        <ele>999.49000192</ele>
        <time>2013-10-06T10:42:03Z</time>
      </trkpt>
      <trkpt lat="45.97071" lon="6.29564">
        <ele>1000.7061152151</ele>
        <time>2013-10-06T10:42:09Z</time>
      </trkpt>
      <trkpt lat="45.97068" lon="6.29579">
        <ele>1002.0233269117</ele>
        <time>2013-10-06T10:42:16Z</time>
      </trkpt>
      <trkpt lat="45.97066" lon="6.29593">
        <ele>1002.9361064088</ele>
        <time>2013-10-06T10:42:25Z</time>
      </trkpt>
      <trkpt lat="45.97063" lon="6.29607">
        <ele>1004.696</ele>
        <time>2013-10-06T10:42:34Z</time>
      </trkpt>
      <trkpt lat="45.97063" lon="6.29623">
        <ele>1006.296</ele>
        <time>2013-10-06T10:42:42Z</time>
      </trkpt>
      <trkpt lat="45.97061" lon="6.29638">
        <ele>1007.45800064</ele>
        <time>2013-10-06T10:42:50Z</time>
      </trkpt>
      <trkpt lat="45.97059" lon="6.29653">
        <ele>1008.71600128</ele>
        <time>2013-10-06T10:42:59Z</time>
      </trkpt>
      <trkpt lat="45.97059" lon="6.29668">
        <ele>1010.29000192</ele>
        <time>2013-10-06T10:43:07Z</time>
      </trkpt>
      <trkpt lat="45.97057" lon="6.29683">
        <ele>1011.89000192</ele>
        <time>2013-10-06T10:43:15Z</time>
      </trkpt>
      <trkpt lat="45.97053" lon="6.29698">
        <ele>1012.75800064</ele>
        <time>2013-10-06T10:43:23Z</time>
      </trkpt>
      <trkpt lat="45.97044" lon="6.29727">
        <ele>1015.89000192</ele>
        <time>2013-10-06T10:43:40Z</time>
      </trkpt>
      <trkpt lat="45.97042" lon="6.29741">
        <ele>1017.29600256</ele>
        <time>2013-10-06T10:43:47Z</time>
      </trkpt>
      <trkpt lat="45.9704" lon="6.29756">
        <ele>1019.6313705833</ele>
        <time>2013-10-06T10:43:57Z</time>
      </trkpt>
      <trkpt lat="45.9705" lon="6.29748">
        <ele>1023</ele>
        <time>2013-10-06T10:44:10Z</time>
      </trkpt>
      <trkpt lat="45.97057" lon="6.29737">
        <ele>1023.47400192</ele>
        <time>2013-10-06T10:44:18Z</time>
      </trkpt>
      <trkpt lat="45.97064" lon="6.29725">
        <ele>1025.27000064</ele>
        <time>2013-10-06T10:44:27Z</time>
      </trkpt>
      <trkpt lat="45.97072" lon="6.29715">
        <ele>1026.87000064</ele>
        <time>2013-10-06T10:44:35Z</time>
      </trkpt>
      <trkpt lat="45.9708" lon="6.29705">
        <ele>1028.71600128</ele>
        <time>2013-10-06T10:44:44Z</time>
      </trkpt>
      <trkpt lat="45.97084" lon="6.29731">
        <ele>1033.7327245528</ele>
        <time>2013-10-06T10:45:13Z</time>
      </trkpt>
      <trkpt lat="45.97083" lon="6.29747">
        <ele>1035.06200064</ele>
        <time>2013-10-06T10:45:21Z</time>
      </trkpt>
      <trkpt lat="45.97081" lon="6.29761">
        <ele>1036</ele>
        <time>2013-10-06T10:45:30Z</time>
      </trkpt>
      <trkpt lat="45.97082" lon="6.29777">
        <ele>1038.2900032</ele>
        <time>2013-10-06T10:45:40Z</time>
      </trkpt>
      <trkpt lat="45.9709" lon="6.29767">
        <ele>1041.49600256</ele>
        <time>2013-10-06T10:46:03Z</time>
      </trkpt>
      <trkpt lat="45.97095" lon="6.29754">
        <ele>1043.27600128</ele>
        <time>2013-10-06T10:46:12Z</time>
      </trkpt>
      <trkpt lat="45.97102" lon="6.29765">
        <ele>1047.78800128</ele>
        <time>2013-10-06T10:46:25Z</time>
      </trkpt>
      <trkpt lat="45.97101" lon="6.2978">
        <ele>1048.94800128</ele>
        <time>2013-10-06T10:46:35Z</time>
      </trkpt>
      <trkpt lat="45.97103" lon="6.29795">
        <ele>1051.11600128</ele>
        <time>2013-10-06T10:46:46Z</time>
      </trkpt>
      <trkpt lat="45.97107" lon="6.29782">
        <ele>1055.69400064</ele>
        <time>2013-10-06T10:47:14Z</time>
      </trkpt>
      <trkpt lat="45.97112" lon="6.29769">
        <ele>1056.95800064</ele>
        <time>2013-10-06T10:47:25Z</time>
      </trkpt>
      <trkpt lat="45.97124" lon="6.29744">
        <ele>1060.45800064</ele>
        <time>2013-10-06T10:47:40Z</time>
      </trkpt>
      <trkpt lat="45.97129" lon="6.29731">
        <ele>1061.4534656928</ele>
        <time>2013-10-06T10:47:50Z</time>
      </trkpt>
      <trkpt lat="45.97133" lon="6.29716">
        <ele>1063.3212142683</ele>
        <time>2013-10-06T10:47:59Z</time>
      </trkpt>
      <trkpt lat="45.97138" lon="6.29702">
        <ele>1066.33400064</ele>
        <time>2013-10-06T10:48:09Z</time>
      </trkpt>
      <trkpt lat="45.97143" lon="6.29689">
        <ele>1067.49400064</ele>
        <time>2013-10-06T10:48:18Z</time>
      </trkpt>
      <trkpt lat="45.97148" lon="6.29676">
        <ele>1068.89400064</ele>
        <time>2013-10-06T10:48:25Z</time>
      </trkpt>
      <trkpt lat="45.97155" lon="6.29665">
        <ele>1069.75800064</ele>
        <time>2013-10-06T10:48:33Z</time>
      </trkpt>
      <trkpt lat="45.97163" lon="6.29655">
        <ele>1070.75800064</ele>
        <time>2013-10-06T10:48:43Z</time>
      </trkpt>
      <trkpt lat="45.97164" lon="6.29671">
        <ele>1075.5285290364</ele>
        <time>2013-10-06T10:49:04Z</time>
      </trkpt>
      <trkpt lat="45.97161" lon="6.29684">
        <ele>1076.75800064</ele>
        <time>2013-10-06T10:49:13Z</time>
      </trkpt>
      <trkpt lat="45.97159" lon="6.29699">
        <ele>1077.65800064</ele>
        <time>2013-10-06T10:49:22Z</time>
      </trkpt>
      <trkpt lat="45.97158" lon="6.29714">
        <ele>1079.11600128</ele>
        <time>2013-10-06T10:49:31Z</time>
      </trkpt>
      <trkpt lat="45.97158" lon="6.29729">
        <ele>1081.30800128</ele>
        <time>2013-10-06T10:49:42Z</time>
      </trkpt>
      <trkpt lat="45.9716" lon="6.29745">
        <ele>1082.54800128</ele>
        <time>2013-10-06T10:49:51Z</time>
      </trkpt>
      <trkpt lat="45.97162" lon="6.29774">
        <ele>1086.63800064</ele>
        <time>2013-10-06T10:50:12Z</time>
      </trkpt>
      <trkpt lat="45.97164" lon="6.2979">
        <ele>1088.51600128</ele>
        <time>2013-10-06T10:50:23Z</time>
      </trkpt>
      <trkpt lat="45.97164" lon="6.29804">
        <ele>1089.75800064</ele>
        <time>2013-10-06T10:50:33Z</time>
      </trkpt>
      <trkpt lat="45.97166" lon="6.29818">
        <ele>1091.0862254878</ele>
        <time>2013-10-06T10:50:41Z</time>
      </trkpt>
      <trkpt lat="45.97173" lon="6.29829">
        <ele>1092.3410693112</ele>
        <time>2013-10-06T10:50:49Z</time>
      </trkpt>
      <trkpt lat="45.97177" lon="6.29859">
        <ele>1096.69600256</ele>
        <time>2013-10-06T10:51:09Z</time>
      </trkpt>
      <trkpt lat="45.97177" lon="6.29875">
        <ele>1098.33500032</ele>
        <time>2013-10-06T10:51:19Z</time>
      </trkpt>
      <trkpt lat="45.97176" lon="6.2989">
        <ele>1099.67400192</ele>
        <time>2013-10-06T10:51:29Z</time>
      </trkpt>
      <trkpt lat="45.97181" lon="6.29877">
        <ele>1103.91600128</ele>
        <time>2013-10-06T10:51:55Z</time>
      </trkpt>
      <trkpt lat="45.97187" lon="6.29865">
        <ele>1106.09000192</ele>
        <time>2013-10-06T10:52:11Z</time>
      </trkpt>
      <trkpt lat="45.97188" lon="6.2985">
        <ele>1108.85299968</ele>
        <time>2013-10-06T10:52:27Z</time>
      </trkpt>
      <trkpt lat="45.97185" lon="6.29836">
        <ele>1109.31600128</ele>
        <time>2013-10-06T10:52:42Z</time>
      </trkpt>
      <trkpt lat="45.97187" lon="6.2982">
        <ele>1111.69400064</ele>
        <time>2013-10-06T10:52:54Z</time>
      </trkpt>
      <trkpt lat="45.97189" lon="6.29804">
        <ele>1113.29000192</ele>
        <time>2013-10-06T10:53:02Z</time>
      </trkpt>
      <trkpt lat="45.97191" lon="6.2979">
        <ele>1114.54500096</ele>
        <time>2013-10-06T10:53:11Z</time>
      </trkpt>
      <trkpt lat="45.97196" lon="6.29776">
        <ele>1115.45800064</ele>
        <time>2013-10-06T10:53:20Z</time>
      </trkpt>
      <trkpt lat="45.97199" lon="6.29762">
        <ele>1116.5093788657</ele>
        <time>2013-10-06T10:53:28Z</time>
      </trkpt>
      <trkpt lat="45.97204" lon="6.29749">
        <ele>1118.0243161331</ele>
        <time>2013-10-06T10:53:36Z</time>
      </trkpt>
      <trkpt lat="45.97209" lon="6.29736">
        <ele>1118.7335366811</ele>
        <time>2013-10-06T10:53:43Z</time>
      </trkpt>
      <trkpt lat="45.97215" lon="6.29723">
        <ele>1120.47000064</ele>
        <time>2013-10-06T10:53:53Z</time>
      </trkpt>
      <trkpt lat="45.97219" lon="6.29709">
        <ele>1122.96200192</ele>
        <time>2013-10-06T10:54:02Z</time>
      </trkpt>
      <trkpt lat="45.97228" lon="6.29701">
        <ele>1124.54500096</ele>
        <time>2013-10-06T10:54:11Z</time>
      </trkpt>
      <trkpt lat="45.97237" lon="6.29694">
        <ele>1126.51600128</ele>
        <time>2013-10-06T10:54:23Z</time>
      </trkpt>
      <trkpt lat="45.97246" lon="6.29688">
        <ele>1128.11600128</ele>
        <time>2013-10-06T10:54:31Z</time>
      </trkpt>
      <trkpt lat="45.97272" lon="6.29662">
        <ele>1132.63500288</ele>
        <time>2013-10-06T10:55:01Z</time>
      </trkpt>
      <trkpt lat="45.97282" lon="6.29659">
        <ele>1134.74500096</ele>
        <time>2013-10-06T10:55:13Z</time>
      </trkpt>
      <trkpt lat="45.97292" lon="6.29655">
        <ele>1136.11600128</ele>
        <time>2013-10-06T10:55:21Z</time>
      </trkpt>
      <trkpt lat="45.97296" lon="6.29669">
        <ele>1140.87400192</ele>
        <time>2013-10-06T10:55:45Z</time>
      </trkpt>
      <trkpt lat="45.97296" lon="6.29683">
        <ele>1142.89600256</ele>
        <time>2013-10-06T10:55:55Z</time>
      </trkpt>
      <trkpt lat="45.97287" lon="6.29692">
        <ele>1144.51600128</ele>
        <time>2013-10-06T10:56:03Z</time>
      </trkpt>
      <trkpt lat="45.97283" lon="6.29707">
        <ele>1145.75800064</ele>
        <time>2013-10-06T10:56:13Z</time>
      </trkpt>
      <trkpt lat="45.97274" lon="6.29716">
        <ele>1146.6521308364</ele>
        <time>2013-10-06T10:56:22Z</time>
      </trkpt>
      <trkpt lat="45.97281" lon="6.29704">
        <ele>1152.49600256</ele>
        <time>2013-10-06T10:56:53Z</time>
      </trkpt>
      <trkpt lat="45.9729" lon="6.29695">
        <ele>1154.49600256</ele>
        <time>2013-10-06T10:57:03Z</time>
      </trkpt>
      <trkpt lat="45.97297" lon="6.29705">
        <ele>1158.89600256</ele>
        <time>2013-10-06T10:57:25Z</time>
      </trkpt>
      <trkpt lat="45.97296" lon="6.2972">
        <ele>1161.23700096</ele>
        <time>2013-10-06T10:57:38Z</time>
      </trkpt>
      <trkpt lat="45.97293" lon="6.29736">
        <ele>1162.47000064</ele>
        <time>2013-10-06T10:57:48Z</time>
      </trkpt>
      <trkpt lat="45.97291" lon="6.2975">
        <ele>1164.23000064</ele>
        <time>2013-10-06T10:57:58Z</time>
      </trkpt>
      <trkpt lat="45.97287" lon="6.29763">
        <ele>1165.992</ele>
        <time>2013-10-06T10:58:08Z</time>
      </trkpt>
      <trkpt lat="45.97283" lon="6.29777">
        <ele>1169.13500032</ele>
        <time>2013-10-06T10:58:17Z</time>
      </trkpt>
      <trkpt lat="45.97277" lon="6.2979">
        <ele>1170.07400192</ele>
        <time>2013-10-06T10:58:26Z</time>
      </trkpt>
      <trkpt lat="45.97275" lon="6.29804">
        <ele>1172.07000064</ele>
        <time>2013-10-06T10:58:36Z</time>
      </trkpt>
      <trkpt lat="45.97272" lon="6.2979">
        <ele>1175.87000064</ele>
        <time>2013-10-06T10:58:55Z</time>
      </trkpt>
      <trkpt lat="45.97281" lon="6.29797">
        <ele>1183.91600128</ele>
        <time>2013-10-06T10:59:30Z</time>
      </trkpt>
      <trkpt lat="45.97281" lon="6.29812">
        <ele>1185</ele>
        <time>2013-10-06T10:59:39Z</time>
      </trkpt>
      <trkpt lat="45.97283" lon="6.29826">
        <ele>1185.34500096</ele>
        <time>2013-10-06T10:59:49Z</time>
      </trkpt>
      <trkpt lat="45.97284" lon="6.29841">
        <ele>1188.17200128</ele>
        <time>2013-10-06T11:00:01Z</time>
      </trkpt>
      <trkpt lat="45.97289" lon="6.29854">
        <ele>1190.85800064</ele>
        <time>2013-10-06T11:00:14Z</time>
      </trkpt>
      <trkpt lat="45.97291" lon="6.29868">
        <ele>1191</ele>
        <time>2013-10-06T11:00:24Z</time>
      </trkpt>
      <trkpt lat="45.973" lon="6.29895">
        <ele>1198.94000128</ele>
        <time>2013-10-06T11:00:55Z</time>
      </trkpt>
      <trkpt lat="45.97302" lon="6.29909">
        <ele>1200</ele>
        <time>2013-10-06T11:01:11Z</time>
      </trkpt>
      <trkpt lat="45.97302" lon="6.29923">
        <ele>1205.41100288</ele>
        <time>2013-10-06T11:01:37Z</time>
      </trkpt>
      <trkpt lat="45.97305" lon="6.29939">
        <ele>1208.744</ele>
        <time>2013-10-06T11:01:48Z</time>
      </trkpt>
      <trkpt lat="45.97306" lon="6.29953">
        <ele>1211.2720971529</ele>
        <time>2013-10-06T11:01:57Z</time>
      </trkpt>
      <trkpt lat="45.97305" lon="6.29968">
        <ele>1213.2618342032</ele>
        <time>2013-10-06T11:02:07Z</time>
      </trkpt>
      <trkpt lat="45.97306" lon="6.29984">
        <ele>1214.6717037411</ele>
        <time>2013-10-06T11:02:14Z</time>
      </trkpt>
      <trkpt lat="45.97308" lon="6.3">
        <ele>1216.31600128</ele>
        <time>2013-10-06T11:02:22Z</time>
      </trkpt>
      <trkpt lat="45.97305" lon="6.30014">
        <ele>1221</ele>
        <time>2013-10-06T11:02:44Z</time>
      </trkpt>
      <trkpt lat="45.97305" lon="6.30029">
        <ele>1223.7000064</ele>
        <time>2013-10-06T11:02:57Z</time>
      </trkpt>
      <trkpt lat="45.97306" lon="6.30044">
        <ele>1227.6750016</ele>
        <time>2013-10-06T11:03:05Z</time>
      </trkpt>
      <trkpt lat="45.97298" lon="6.30053">
        <ele>1234.0709201095</ele>
        <time>2013-10-06T11:03:36Z</time>
      </trkpt>
      <trkpt lat="45.9729" lon="6.30065">
        <ele>1246.4210531771</ele>
        <time>2013-10-06T11:04:20Z</time>
      </trkpt>
      <trkpt lat="45.97303" lon="6.30088">
        <ele>1249.11600128</ele>
        <time>2013-10-06T11:04:36Z</time>
      </trkpt>
      <trkpt lat="45.97305" lon="6.30103">
        <ele>1255.89400064</ele>
        <time>2013-10-06T11:05:15Z</time>
      </trkpt>
      <trkpt lat="45.97319" lon="6.30156">
        <ele>1256.4792714999</ele>
        <time>2013-10-06T11:05:18Z</time>
      </trkpt>
      <trkpt lat="45.97323" lon="6.30169">
        <ele>1256.6814986229</ele>
        <time>2013-10-06T11:05:19Z</time>
      </trkpt>
      <trkpt lat="45.97327" lon="6.30187">
        <ele>1257.2881696382</ele>
        <time>2013-10-06T11:05:22Z</time>
      </trkpt>
      <trkpt lat="45.9733" lon="6.30202">
        <ele>1258.27000064</ele>
        <time>2013-10-06T11:05:27Z</time>
      </trkpt>
      <trkpt lat="45.97331" lon="6.30217">
        <ele>1259.67000064</ele>
        <time>2013-10-06T11:05:34Z</time>
      </trkpt>
      <trkpt lat="45.97335" lon="6.30234">
        <ele>1260.29600256</ele>
        <time>2013-10-06T11:05:37Z</time>
      </trkpt>
      <trkpt lat="45.97325" lon="6.30229">
        <ele>1267</ele>
        <time>2013-10-06T11:06:00Z</time>
      </trkpt>
      <trkpt lat="45.97319" lon="6.3021">
        <ele>1267</ele>
        <time>2013-10-06T11:06:04Z</time>
      </trkpt>
      <trkpt lat="45.97307" lon="6.30183">
        <ele>1267.75800064</ele>
        <time>2013-10-06T11:06:13Z</time>
      </trkpt>
      <trkpt lat="45.973" lon="6.30159">
        <ele>1267.95800064</ele>
        <time>2013-10-06T11:06:15Z</time>
      </trkpt>
      <trkpt lat="45.97287" lon="6.30135">
        <ele>1270.11600128</ele>
        <time>2013-10-06T11:06:26Z</time>
      </trkpt>
      <trkpt lat="45.97277" lon="6.3014">
        <ele>1272.04500096</ele>
        <time>2013-10-06T11:06:36Z</time>
      </trkpt>
      <trkpt lat="45.97267" lon="6.3014">
        <ele>1275.14700032</ele>
        <time>2013-10-06T11:06:57Z</time>
      </trkpt>
      <trkpt lat="45.97261" lon="6.30152">
        <ele>1281.33700096</ele>
        <time>2013-10-06T11:07:19Z</time>
      </trkpt>
      <trkpt lat="45.9726" lon="6.30167">
        <ele>1283.27000064</ele>
        <time>2013-10-06T11:07:32Z</time>
      </trkpt>
      <trkpt lat="45.9727" lon="6.30163">
        <ele>1289.33700096</ele>
        <time>2013-10-06T11:08:09Z</time>
      </trkpt>
      <trkpt lat="45.97276" lon="6.30152">
        <ele>1290.23500032</ele>
        <time>2013-10-06T11:08:18Z</time>
      </trkpt>
      <trkpt lat="45.97288" lon="6.30137">
        <ele>1295.03700096</ele>
        <time>2013-10-06T11:08:56Z</time>
      </trkpt>
      <trkpt lat="45.97298" lon="6.30145">
        <ele>1296.85800064</ele>
        <time>2013-10-06T11:09:14Z</time>
      </trkpt>
      <trkpt lat="45.97308" lon="6.30149">
        <ele>1298.69000192</ele>
        <time>2013-10-06T11:09:24Z</time>
      </trkpt>
      <trkpt lat="45.973" lon="6.30138">
        <ele>1303</ele>
        <time>2013-10-06T11:09:46Z</time>
      </trkpt>
      <trkpt lat="45.97302" lon="6.30123">
        <ele>1303</ele>
        <time>2013-10-06T11:09:55Z</time>
      </trkpt>
      <trkpt lat="45.97309" lon="6.30114">
        <ele>1307.43400064</ele>
        <time>2013-10-06T11:10:10Z</time>
      </trkpt>
      <trkpt lat="45.97319" lon="6.30123">
        <ele>1312.7229556232</ele>
        <time>2013-10-06T11:10:40Z</time>
      </trkpt>
      <trkpt lat="45.97329" lon="6.30129">
        <ele>1315.14800128</ele>
        <time>2013-10-06T11:10:47Z</time>
      </trkpt>
      <trkpt lat="45.97338" lon="6.30135">
        <ele>1318.448</ele>
        <time>2013-10-06T11:11:10Z</time>
      </trkpt>
      <trkpt lat="45.97345" lon="6.30146">
        <ele>1321.86800128</ele>
        <time>2013-10-06T11:11:30Z</time>
      </trkpt>
      <trkpt lat="45.97353" lon="6.30157">
        <ele>1324.25600256</ele>
        <time>2013-10-06T11:11:42Z</time>
      </trkpt>
      <trkpt lat="45.97361" lon="6.30166">
        <ele>1326.74800384</ele>
        <time>2013-10-06T11:11:50Z</time>
      </trkpt>
      <trkpt lat="45.97368" lon="6.30177">
        <ele>1332.27400192</ele>
        <time>2013-10-06T11:12:12Z</time>
      </trkpt>
      <trkpt lat="45.97368" lon="6.30191">
        <ele>1333.52400128</ele>
        <time>2013-10-06T11:12:17Z</time>
      </trkpt>
      <trkpt lat="45.97372" lon="6.30205">
        <ele>1337.34500096</ele>
        <time>2013-10-06T11:12:29Z</time>
      </trkpt>
      <trkpt lat="45.97382" lon="6.30203">
        <ele>1338</ele>
        <time>2013-10-06T11:12:41Z</time>
      </trkpt>
      <trkpt lat="45.97398" lon="6.30212">
        <ele>1338.74800128</ele>
        <time>2013-10-06T11:12:53Z</time>
      </trkpt>
      <trkpt lat="45.97407" lon="6.30222">
        <ele>1339.648</ele>
        <time>2013-10-06T11:13:02Z</time>
      </trkpt>
      <trkpt lat="45.97416" lon="6.30248">
        <ele>1341.0302121346</ele>
        <time>2013-10-06T11:13:26Z</time>
      </trkpt>
      <trkpt lat="45.97417" lon="6.30278">
        <ele>1342.25800064</ele>
        <time>2013-10-06T11:13:38Z</time>
      </trkpt>
      <trkpt lat="45.97419" lon="6.30294">
        <ele>1342.75800064</ele>
        <time>2013-10-06T11:13:43Z</time>
      </trkpt>
      <trkpt lat="45.97424" lon="6.30308">
        <ele>1343</ele>
        <time>2013-10-06T11:13:48Z</time>
      </trkpt>
      <trkpt lat="45.9743" lon="6.30323">
        <ele>1343</ele>
        <time>2013-10-06T11:13:53Z</time>
      </trkpt>
      <trkpt lat="45.97439" lon="6.30331">
        <ele>1343.15800064</ele>
        <time>2013-10-06T11:13:57Z</time>
      </trkpt>
      <trkpt lat="45.97449" lon="6.30337">
        <ele>1343.74800128</ele>
        <time>2013-10-06T11:14:03Z</time>
      </trkpt>
      <trkpt lat="45.97459" lon="6.30345">
        <ele>1344.23500032</ele>
        <time>2013-10-06T11:14:08Z</time>
      </trkpt>
      <trkpt lat="45.97466" lon="6.30355">
        <ele>1344.84500096</ele>
        <time>2013-10-06T11:14:14Z</time>
      </trkpt>
      <trkpt lat="45.97475" lon="6.30364">
        <ele>1345.45400064</ele>
        <time>2013-10-06T11:14:20Z</time>
      </trkpt>
      <trkpt lat="45.97479" lon="6.30378">
        <ele>1346.24400128</ele>
        <time>2013-10-06T11:14:28Z</time>
      </trkpt>
      <trkpt lat="45.97468" lon="6.30379">
        <ele>1346.44400128</ele>
        <time>2013-10-06T11:14:30Z</time>
      </trkpt>
      <trkpt lat="45.97457" lon="6.30379">
        <ele>1346.544</ele>
        <time>2013-10-06T11:14:31Z</time>
      </trkpt>
      <trkpt lat="45.97444" lon="6.3038">
        <ele>1346.744</ele>
        <time>2013-10-06T11:14:33Z</time>
      </trkpt>
      <trkpt lat="45.97426" lon="6.30389">
        <ele>1347.43700096</ele>
        <time>2013-10-06T11:14:40Z</time>
      </trkpt>
      <trkpt lat="45.97431" lon="6.30402">
        <ele>1349.296</ele>
        <time>2013-10-06T11:14:52Z</time>
      </trkpt>
      <trkpt lat="45.97444" lon="6.30409">
        <ele>1349.6537688889</ele>
        <time>2013-10-06T11:14:59Z</time>
      </trkpt>
      <trkpt lat="45.97457" lon="6.30417">
        <ele>1349.0806451613</ele>
        <time>2013-10-06T11:15:06Z</time>
      </trkpt>
      <trkpt lat="45.97467" lon="6.30419">
        <ele>1349.2822606452</ele>
        <time>2013-10-06T11:15:07Z</time>
      </trkpt>
      <trkpt lat="45.97478" lon="6.30423">
        <ele>1349.8870967742</ele>
        <time>2013-10-06T11:15:10Z</time>
      </trkpt>
      <trkpt lat="45.97505" lon="6.30442">
        <ele>1352.26800128</ele>
        <time>2013-10-06T11:15:22Z</time>
      </trkpt>
      <trkpt lat="45.97515" lon="6.30445">
        <ele>1352.66800128</ele>
        <time>2013-10-06T11:15:24Z</time>
      </trkpt>
      <trkpt lat="45.97525" lon="6.30451">
        <ele>1353.23700096</ele>
        <time>2013-10-06T11:15:28Z</time>
      </trkpt>
      <trkpt lat="45.97536" lon="6.30459">
        <ele>1354</ele>
        <time>2013-10-06T11:15:36Z</time>
      </trkpt>
      <trkpt lat="45.97564" lon="6.30471">
        <ele>1354</ele>
        <time>2013-10-06T11:15:44Z</time>
      </trkpt>
      <trkpt lat="45.97583" lon="6.30475">
        <ele>1354.048</ele>
        <time>2013-10-06T11:15:46Z</time>
      </trkpt>
      <trkpt lat="45.97599" lon="6.30479">
        <ele>1354.248</ele>
        <time>2013-10-06T11:15:48Z</time>
      </trkpt>
      <trkpt lat="45.97614" lon="6.30483">
        <ele>1354.54800128</ele>
        <time>2013-10-06T11:15:51Z</time>
      </trkpt>
      <trkpt lat="45.97601" lon="6.30483">
        <ele>1354.848</ele>
        <time>2013-10-06T11:15:54Z</time>
      </trkpt>
      <trkpt lat="45.97614" lon="6.30487">
        <ele>1355.29600256</ele>
        <time>2013-10-06T11:15:57Z</time>
      </trkpt>
      <trkpt lat="45.97625" lon="6.30492">
        <ele>1355.69600256</ele>
        <time>2013-10-06T11:15:59Z</time>
      </trkpt>
      <trkpt lat="45.97636" lon="6.30496">
        <ele>1356.09600256</ele>
        <time>2013-10-06T11:16:01Z</time>
      </trkpt>
      <trkpt lat="45.97621" lon="6.30502">
        <ele>1356.49600256</ele>
        <time>2013-10-06T11:16:03Z</time>
      </trkpt>
      <trkpt lat="45.9761" lon="6.30504">
        <ele>1356.696</ele>
        <time>2013-10-06T11:16:04Z</time>
      </trkpt>
      <trkpt lat="45.97594" lon="6.30507">
        <ele>1356.89600256</ele>
        <time>2013-10-06T11:16:05Z</time>
      </trkpt>
      <trkpt lat="45.97597" lon="6.30518">
        <ele>1357</ele>
        <time>2013-10-06T11:16:08Z</time>
      </trkpt>
      <trkpt lat="45.97603" lon="6.30529">
        <ele>1357</ele>
        <time>2013-10-06T11:16:12Z</time>
      </trkpt>
      <trkpt lat="45.97612" lon="6.30536">
        <ele>1357</ele>
        <time>2013-10-06T11:16:15Z</time>
      </trkpt>
      <trkpt lat="45.97621" lon="6.30545">
        <ele>1357.8839551651</ele>
        <time>2013-10-06T11:16:20Z</time>
      </trkpt>
      <trkpt lat="45.97638" lon="6.30564">
        <ele>1359</ele>
        <time>2013-10-06T11:16:27Z</time>
      </trkpt>
      <trkpt lat="45.97623" lon="6.30574">
        <ele>1359</ele>
        <time>2013-10-06T11:16:33Z</time>
      </trkpt>
      <trkpt lat="45.97607" lon="6.30576">
        <ele>1359</ele>
        <time>2013-10-06T11:16:35Z</time>
      </trkpt>
      <trkpt lat="45.97597" lon="6.30577">
        <ele>1359</ele>
        <time>2013-10-06T11:16:36Z</time>
      </trkpt>
      <trkpt lat="45.97579" lon="6.30578">
        <ele>1359</ele>
        <time>2013-10-06T11:16:37Z</time>
      </trkpt>
      <trkpt lat="45.97567" lon="6.30579">
        <ele>1359</ele>
        <time>2013-10-06T11:16:38Z</time>
      </trkpt>
      <trkpt lat="45.97556" lon="6.30586">
        <ele>1359</ele>
        <time>2013-10-06T11:16:45Z</time>
      </trkpt>
      <trkpt lat="45.97545" lon="6.30585">
        <ele>1359.31600128</ele>
        <time>2013-10-06T11:16:47Z</time>
      </trkpt>
      <trkpt lat="45.97535" lon="6.30585">
        <ele>1359.71600128</ele>
        <time>2013-10-06T11:16:49Z</time>
      </trkpt>
      <trkpt lat="45.97525" lon="6.30595">
        <ele>1361.04700032</ele>
        <time>2013-10-06T11:16:56Z</time>
      </trkpt>
      <trkpt lat="45.97508" lon="6.30612">
        <ele>1362.85600256</ele>
        <time>2013-10-06T11:17:10Z</time>
      </trkpt>
      <trkpt lat="45.97521" lon="6.30623">
        <ele>1363.456</ele>
        <time>2013-10-06T11:17:13Z</time>
      </trkpt>
      <trkpt lat="45.97529" lon="6.30633">
        <ele>1364</ele>
        <time>2013-10-06T11:17:16Z</time>
      </trkpt>
      <trkpt lat="45.97539" lon="6.30641">
        <ele>1364</ele>
        <time>2013-10-06T11:17:19Z</time>
      </trkpt>
      <trkpt lat="45.97548" lon="6.30648">
        <ele>1364</ele>
        <time>2013-10-06T11:17:22Z</time>
      </trkpt>
      <trkpt lat="45.97559" lon="6.30658">
        <ele>1363.96299904</ele>
        <time>2013-10-06T11:17:26Z</time>
      </trkpt>
      <trkpt lat="45.97547" lon="6.3066">
        <ele>1363.76299904</ele>
        <time>2013-10-06T11:17:28Z</time>
      </trkpt>
      <trkpt lat="45.9756" lon="6.30672">
        <ele>1363.36299904</ele>
        <time>2013-10-06T11:17:32Z</time>
      </trkpt>
      <trkpt lat="45.97571" lon="6.30679">
        <ele>1363.15299968</ele>
        <time>2013-10-06T11:17:34Z</time>
      </trkpt>
      <trkpt lat="45.9758" lon="6.30707">
        <ele>1363.75800064</ele>
        <time>2013-10-06T11:17:43Z</time>
      </trkpt>
      <trkpt lat="45.97596" lon="6.30718">
        <ele>1363.94199936</ele>
        <time>2013-10-06T11:17:46Z</time>
      </trkpt>
      <trkpt lat="45.97608" lon="6.30727">
        <ele>1363.74199936</ele>
        <time>2013-10-06T11:17:48Z</time>
      </trkpt>
      <trkpt lat="45.97618" lon="6.30734">
        <ele>1363.54199936</ele>
        <time>2013-10-06T11:17:50Z</time>
      </trkpt>
      <trkpt lat="45.9763" lon="6.30741">
        <ele>1363.04199936</ele>
        <time>2013-10-06T11:17:55Z</time>
      </trkpt>
      <trkpt lat="45.97616" lon="6.30747">
        <ele>1362.51199744</ele>
        <time>2013-10-06T11:17:58Z</time>
      </trkpt>
      <trkpt lat="45.97599" lon="6.30753">
        <ele>1362.10999808</ele>
        <time>2013-10-06T11:18:00Z</time>
      </trkpt>
      <trkpt lat="45.97588" lon="6.30759">
        <ele>1361.512</ele>
        <time>2013-10-06T11:18:03Z</time>
      </trkpt>
      <trkpt lat="45.97576" lon="6.30762">
        <ele>1361</ele>
        <time>2013-10-06T11:18:08Z</time>
      </trkpt>
      <trkpt lat="45.97567" lon="6.30771">
        <ele>1360.84199936</ele>
        <time>2013-10-06T11:18:17Z</time>
      </trkpt>
      <trkpt lat="45.97553" lon="6.30772">
        <ele>1360.14199936</ele>
        <time>2013-10-06T11:18:24Z</time>
      </trkpt>
      <trkpt lat="45.97544" lon="6.30779">
        <ele>1360</ele>
        <time>2013-10-06T11:18:30Z</time>
      </trkpt>
      <trkpt lat="45.97537" lon="6.3079">
        <ele>1360.14700032</ele>
        <time>2013-10-06T11:18:37Z</time>
      </trkpt>
      <trkpt lat="45.97532" lon="6.30803">
        <ele>1360.74700032</ele>
        <time>2013-10-06T11:18:43Z</time>
      </trkpt>
      <trkpt lat="45.97529" lon="6.30818">
        <ele>1361.65800064</ele>
        <time>2013-10-06T11:18:52Z</time>
      </trkpt>
      <trkpt lat="45.97529" lon="6.30832">
        <ele>1362.6534264458</ele>
        <time>2013-10-06T11:19:02Z</time>
      </trkpt>
      <trkpt lat="45.97525" lon="6.30862">
        <ele>1364.2809671802</ele>
        <time>2013-10-06T11:19:12Z</time>
      </trkpt>
      <trkpt lat="45.97519" lon="6.30876">
        <ele>1365.25800064</ele>
        <time>2013-10-06T11:19:18Z</time>
      </trkpt>
      <trkpt lat="45.97516" lon="6.3089">
        <ele>1366.48</ele>
        <time>2013-10-06T11:19:28Z</time>
      </trkpt>
      <trkpt lat="45.97503" lon="6.30911">
        <ele>1368.91600128</ele>
        <time>2013-10-06T11:19:40Z</time>
      </trkpt>
      <trkpt lat="45.9751" lon="6.30926">
        <ele>1370.05800064</ele>
        <time>2013-10-06T11:19:46Z</time>
      </trkpt>
      <trkpt lat="45.975" lon="6.30935">
        <ele>1370.65800064</ele>
        <time>2013-10-06T11:19:52Z</time>
      </trkpt>
      <trkpt lat="45.97487" lon="6.30937">
        <ele>1371</ele>
        <time>2013-10-06T11:20:04Z</time>
      </trkpt>
      <trkpt lat="45.97477" lon="6.30939">
        <ele>1371.7900032</ele>
        <time>2013-10-06T11:20:07Z</time>
      </trkpt>
      <trkpt lat="45.97465" lon="6.30939">
        <ele>1375.2900032</ele>
        <time>2013-10-06T11:20:14Z</time>
      </trkpt>
      <trkpt lat="45.97453" lon="6.30937">
        <ele>1379.03200256</ele>
        <time>2013-10-06T11:20:23Z</time>
      </trkpt>
      <trkpt lat="45.97443" lon="6.30936">
        <ele>1379.83200256</ele>
        <time>2013-10-06T11:20:25Z</time>
      </trkpt>
      <trkpt lat="45.97432" lon="6.30937">
        <ele>1380.71600128</ele>
        <time>2013-10-06T11:20:29Z</time>
      </trkpt>
      <trkpt lat="45.97421" lon="6.30939">
        <ele>1383.01100288</ele>
        <time>2013-10-06T11:20:39Z</time>
      </trkpt>
      <trkpt lat="45.9741" lon="6.30937">
        <ele>1384.21100288</ele>
        <time>2013-10-06T11:20:43Z</time>
      </trkpt>
      <trkpt lat="45.97397" lon="6.30936">
        <ele>1384.81100288</ele>
        <time>2013-10-06T11:20:45Z</time>
      </trkpt>
      <trkpt lat="45.97387" lon="6.30934">
        <ele>1385.34800128</ele>
        <time>2013-10-06T11:20:49Z</time>
      </trkpt>
      <trkpt lat="45.97377" lon="6.30933">
        <ele>1385.648</ele>
        <time>2013-10-06T11:20:52Z</time>
      </trkpt>
      <trkpt lat="45.97365" lon="6.3093">
        <ele>1386</ele>
        <time>2013-10-06T11:21:02Z</time>
      </trkpt>
      <trkpt lat="45.97361" lon="6.30916">
        <ele>1387.11600128</ele>
        <time>2013-10-06T11:21:16Z</time>
      </trkpt>
      <trkpt lat="45.9737" lon="6.3091">
        <ele>1389.7400064</ele>
        <time>2013-10-06T11:21:27Z</time>
      </trkpt>
      <trkpt lat="45.97359" lon="6.30908">
        <ele>1393.24</ele>
        <time>2013-10-06T11:21:34Z</time>
      </trkpt>
      <trkpt lat="45.97369" lon="6.30909">
        <ele>1396.0591728226</ele>
        <time>2013-10-06T11:21:51Z</time>
      </trkpt>
      <trkpt lat="45.97333" lon="6.30913">
        <ele>1402.15800064</ele>
        <time>2013-10-06T11:22:17Z</time>
      </trkpt>
      <trkpt lat="45.97318" lon="6.30912">
        <ele>1402.45800064</ele>
        <time>2013-10-06T11:22:20Z</time>
      </trkpt>
      <trkpt lat="45.97294" lon="6.30906">
        <ele>1404.696</ele>
        <time>2013-10-06T11:22:34Z</time>
      </trkpt>
      <trkpt lat="45.97305" lon="6.30908">
        <ele>1407.87000064</ele>
        <time>2013-10-06T11:22:50Z</time>
      </trkpt>
      <trkpt lat="45.97296" lon="6.30916">
        <ele>1414.3560686399</ele>
        <time>2013-10-06T11:23:09Z</time>
      </trkpt>
      <trkpt lat="45.97285" lon="6.30912">
        <ele>1414.8575733144</ele>
        <time>2013-10-06T11:23:14Z</time>
      </trkpt>
      <trkpt lat="45.97275" lon="6.30909">
        <ele>1415.71600128</ele>
        <time>2013-10-06T11:23:19Z</time>
      </trkpt>
      <trkpt lat="45.97263" lon="6.30904">
        <ele>1416.91600128</ele>
        <time>2013-10-06T11:23:25Z</time>
      </trkpt>
      <trkpt lat="45.97253" lon="6.30896">
        <ele>1417</ele>
        <time>2013-10-06T11:23:31Z</time>
      </trkpt>
      <trkpt lat="45.97244" lon="6.30886">
        <ele>1419.6859419546</ele>
        <time>2013-10-06T11:23:49Z</time>
      </trkpt>
      <trkpt lat="45.97236" lon="6.30876">
        <ele>1423</ele>
        <time>2013-10-06T11:24:06Z</time>
      </trkpt>
      <trkpt lat="45.97225" lon="6.30869">
        <ele>1423</ele>
        <time>2013-10-06T11:24:12Z</time>
      </trkpt>
      <trkpt lat="45.97213" lon="6.30867">
        <ele>1423.096</ele>
        <time>2013-10-06T11:24:16Z</time>
      </trkpt>
      <trkpt lat="45.97203" lon="6.3086">
        <ele>1425.096</ele>
        <time>2013-10-06T11:24:26Z</time>
      </trkpt>
      <trkpt lat="45.97194" lon="6.30852">
        <ele>1431.421954134</ele>
        <time>2013-10-06T11:24:50Z</time>
      </trkpt>
      <trkpt lat="45.97183" lon="6.30847">
        <ele>1432.07600128</ele>
        <time>2013-10-06T11:24:56Z</time>
      </trkpt>
      <trkpt lat="45.97172" lon="6.30845">
        <ele>1432.87600128</ele>
        <time>2013-10-06T11:25:00Z</time>
      </trkpt>
      <trkpt lat="45.97162" lon="6.30842">
        <ele>1435.29400064</ele>
        <time>2013-10-06T11:25:12Z</time>
      </trkpt>
      <trkpt lat="45.97149" lon="6.30842">
        <ele>1442.94000128</ele>
        <time>2013-10-06T11:25:38Z</time>
      </trkpt>
      <trkpt lat="45.97124" lon="6.30846">
        <ele>1449.048</ele>
        <time>2013-10-06T11:26:06Z</time>
      </trkpt>
      <trkpt lat="45.97114" lon="6.30848">
        <ele>1449.94800128</ele>
        <time>2013-10-06T11:26:15Z</time>
      </trkpt>
      <trkpt lat="45.97103" lon="6.30852">
        <ele>1457.64500096</ele>
        <time>2013-10-06T11:26:42Z</time>
      </trkpt>
      <trkpt lat="45.97093" lon="6.30853">
        <ele>1458.74000128</ele>
        <time>2013-10-06T11:26:53Z</time>
      </trkpt>
      <trkpt lat="45.97082" lon="6.30857">
        <ele>1460.888</ele>
        <time>2013-10-06T11:27:05Z</time>
      </trkpt>
      <trkpt lat="45.9709" lon="6.30868">
        <ele>1462.49000192</ele>
        <time>2013-10-06T11:27:23Z</time>
      </trkpt>
      <trkpt lat="45.97084" lon="6.3088">
        <ele>1464.1409869538</ele>
        <time>2013-10-06T11:27:37Z</time>
      </trkpt>
      <trkpt lat="45.97072" lon="6.30881">
        <ele>1464.7452167558</ele>
        <time>2013-10-06T11:27:43Z</time>
      </trkpt>
      <trkpt lat="45.97051" lon="6.30884">
        <ele>1468.69400064</ele>
        <time>2013-10-06T11:28:04Z</time>
      </trkpt>
      <trkpt lat="45.97043" lon="6.30894">
        <ele>1470.15800064</ele>
        <time>2013-10-06T11:28:17Z</time>
      </trkpt>
      <trkpt lat="45.97035" lon="6.30904">
        <ele>1471.67400192</ele>
        <time>2013-10-06T11:28:29Z</time>
      </trkpt>
      <trkpt lat="45.97024" lon="6.30907">
        <ele>1472.87400192</ele>
        <time>2013-10-06T11:28:35Z</time>
      </trkpt>
      <trkpt lat="45.97014" lon="6.30914">
        <ele>1475.26000128</ele>
        <time>2013-10-06T11:28:47Z</time>
      </trkpt>
      <trkpt lat="45.97011" lon="6.30929">
        <ele>1477.448</ele>
        <time>2013-10-06T11:29:00Z</time>
      </trkpt>
      <trkpt lat="45.97014" lon="6.30943">
        <ele>1478.03300096</ele>
        <time>2013-10-06T11:29:06Z</time>
      </trkpt>
      <trkpt lat="45.97006" lon="6.30952">
        <ele>1479.73400064</ele>
        <time>2013-10-06T11:29:23Z</time>
      </trkpt>
      <trkpt lat="45.96996" lon="6.30949">
        <ele>1481.26800128</ele>
        <time>2013-10-06T11:29:32Z</time>
      </trkpt>
      <trkpt lat="45.96986" lon="6.30948">
        <ele>1482.13700096</ele>
        <time>2013-10-06T11:29:37Z</time>
      </trkpt>
      <trkpt lat="45.96973" lon="6.30945">
        <ele>1482.93700096</ele>
        <time>2013-10-06T11:29:45Z</time>
      </trkpt>
      <trkpt lat="45.9695" lon="6.30938">
        <ele>1485.992</ele>
        <time>2013-10-06T11:29:58Z</time>
      </trkpt>
      <trkpt lat="45.96938" lon="6.30945">
        <ele>1491.4347391932</ele>
        <time>2013-10-06T11:30:30Z</time>
      </trkpt>
      <trkpt lat="45.96925" lon="6.30943">
        <ele>1491.9367478705</ele>
        <time>2013-10-06T11:30:35Z</time>
      </trkpt>
      <trkpt lat="45.96915" lon="6.30945">
        <ele>1499.07400192</ele>
        <time>2013-10-06T11:31:11Z</time>
      </trkpt>
      <trkpt lat="45.96905" lon="6.30939">
        <ele>1500.096</ele>
        <time>2013-10-06T11:31:16Z</time>
      </trkpt>
      <trkpt lat="45.96894" lon="6.30936">
        <ele>1501.91600128</ele>
        <time>2013-10-06T11:31:25Z</time>
      </trkpt>
      <trkpt lat="45.96883" lon="6.30932">
        <ele>1503.11600128</ele>
        <time>2013-10-06T11:31:31Z</time>
      </trkpt>
      <trkpt lat="45.96877" lon="6.3092">
        <ele>1506.08800256</ele>
        <time>2013-10-06T11:31:46Z</time>
      </trkpt>
      <trkpt lat="45.96869" lon="6.30911">
        <ele>1508.14700032</ele>
        <time>2013-10-06T11:31:57Z</time>
      </trkpt>
      <trkpt lat="45.96858" lon="6.30906">
        <ele>1508.93700096</ele>
        <time>2013-10-06T11:32:05Z</time>
      </trkpt>
      <trkpt lat="45.96847" lon="6.30904">
        <ele>1510.09600256</ele>
        <time>2013-10-06T11:32:11Z</time>
      </trkpt>
      <trkpt lat="45.96858" lon="6.30903">
        <ele>1511.23800064</ele>
        <time>2013-10-06T11:32:18Z</time>
      </trkpt>
      <trkpt lat="45.96867" lon="6.30911">
        <ele>1512.29400064</ele>
        <time>2013-10-06T11:32:27Z</time>
      </trkpt>
      <trkpt lat="45.96876" lon="6.30917">
        <ele>1513.69400064</ele>
        <time>2013-10-06T11:32:34Z</time>
      </trkpt>
      <trkpt lat="45.96896" lon="6.30929">
        <ele>1514.85800064</ele>
        <time>2013-10-06T11:32:44Z</time>
      </trkpt>
      <trkpt lat="45.96901" lon="6.30942">
        <ele>1517.51600128</ele>
        <time>2013-10-06T11:32:58Z</time>
      </trkpt>
      <trkpt lat="45.96908" lon="6.30955">
        <ele>1519.665351709</ele>
        <time>2013-10-06T11:33:09Z</time>
      </trkpt>
      <trkpt lat="45.96917" lon="6.30963">
        <ele>1521.4741632981</ele>
        <time>2013-10-06T11:33:18Z</time>
      </trkpt>
      <trkpt lat="45.9692" lon="6.30976">
        <ele>1523.08800256</ele>
        <time>2013-10-06T11:33:26Z</time>
      </trkpt>
      <trkpt lat="45.96929" lon="6.31004">
        <ele>1526.89600256</ele>
        <time>2013-10-06T11:33:45Z</time>
      </trkpt>
      <trkpt lat="45.96936" lon="6.31014">
        <ele>1527.75800064</ele>
        <time>2013-10-06T11:33:53Z</time>
      </trkpt>
      <trkpt lat="45.96945" lon="6.31023">
        <ele>1530.19200512</ele>
        <time>2013-10-06T11:34:01Z</time>
      </trkpt>
      <trkpt lat="45.9695" lon="6.31037">
        <ele>1532.848</ele>
        <time>2013-10-06T11:34:14Z</time>
      </trkpt>
      <trkpt lat="45.96954" lon="6.31053">
        <ele>1535.09400064</ele>
        <time>2013-10-06T11:34:31Z</time>
      </trkpt>
      <trkpt lat="45.96962" lon="6.31065">
        <ele>1535.89400064</ele>
        <time>2013-10-06T11:34:35Z</time>
      </trkpt>
      <trkpt lat="45.96967" lon="6.31078">
        <ele>1537.696</ele>
        <time>2013-10-06T11:34:44Z</time>
      </trkpt>
      <trkpt lat="45.96975" lon="6.3109">
        <ele>1540.05800064</ele>
        <time>2013-10-06T11:34:56Z</time>
      </trkpt>
      <trkpt lat="45.96979" lon="6.31104">
        <ele>1541.28600064</ele>
        <time>2013-10-06T11:35:07Z</time>
      </trkpt>
      <trkpt lat="45.9698" lon="6.31119">
        <ele>1543.69400064</ele>
        <time>2013-10-06T11:35:19Z</time>
      </trkpt>
      <trkpt lat="45.96987" lon="6.31131">
        <ele>1545.944</ele>
        <time>2013-10-06T11:35:35Z</time>
      </trkpt>
      <trkpt lat="45.96997" lon="6.31137">
        <ele>1547.11600128</ele>
        <time>2013-10-06T11:35:41Z</time>
      </trkpt>
      <trkpt lat="45.97007" lon="6.31143">
        <ele>1548.13700096</ele>
        <time>2013-10-06T11:35:47Z</time>
      </trkpt>
      <trkpt lat="45.97017" lon="6.31154">
        <ele>1548.83700096</ele>
        <time>2013-10-06T11:35:54Z</time>
      </trkpt>
      <trkpt lat="45.97026" lon="6.31164">
        <ele>1549</ele>
        <time>2013-10-06T11:36:02Z</time>
      </trkpt>
      <trkpt lat="45.97036" lon="6.3117">
        <ele>1549.1291625873</ele>
        <time>2013-10-06T11:36:07Z</time>
      </trkpt>
      <trkpt lat="45.97043" lon="6.3118">
        <ele>1550.04500096</ele>
        <time>2013-10-06T11:36:16Z</time>
      </trkpt>
      <trkpt lat="45.97052" lon="6.31188">
        <ele>1550.74500096</ele>
        <time>2013-10-06T11:36:23Z</time>
      </trkpt>
      <trkpt lat="45.9706" lon="6.31196">
        <ele>1551.33000064</ele>
        <time>2013-10-06T11:36:29Z</time>
      </trkpt>
      <trkpt lat="45.97086" lon="6.31225">
        <ele>1553.952</ele>
        <time>2013-10-06T11:36:56Z</time>
      </trkpt>
      <trkpt lat="45.97095" lon="6.31236">
        <ele>1553.45199872</ele>
        <time>2013-10-06T11:37:01Z</time>
      </trkpt>
      <trkpt lat="45.97103" lon="6.31246">
        <ele>1553.05199872</ele>
        <time>2013-10-06T11:37:05Z</time>
      </trkpt>
      <trkpt lat="45.97109" lon="6.31257">
        <ele>1553</ele>
        <time>2013-10-06T11:37:12Z</time>
      </trkpt>
      <trkpt lat="45.97115" lon="6.3127">
        <ele>1553.24700032</ele>
        <time>2013-10-06T11:37:18Z</time>
      </trkpt>
      <trkpt lat="45.97123" lon="6.3128">
        <ele>1553.64700032</ele>
        <time>2013-10-06T11:37:22Z</time>
      </trkpt>
      <trkpt lat="45.97129" lon="6.31292">
        <ele>1554</ele>
        <time>2013-10-06T11:37:27Z</time>
      </trkpt>
      <trkpt lat="45.97134" lon="6.31305">
        <ele>1554</ele>
        <time>2013-10-06T11:37:34Z</time>
      </trkpt>
      <trkpt lat="45.97142" lon="6.31315">
        <ele>1553.54199936</ele>
        <time>2013-10-06T11:37:40Z</time>
      </trkpt>
      <trkpt lat="45.97151" lon="6.31323">
        <ele>1553.05199872</ele>
        <time>2013-10-06T11:37:45Z</time>
      </trkpt>
      <trkpt lat="45.97161" lon="6.31334">
        <ele>1553</ele>
        <time>2013-10-06T11:37:54Z</time>
      </trkpt>
      <trkpt lat="45.97167" lon="6.31347">
        <ele>1553</ele>
        <time>2013-10-06T11:38:02Z</time>
      </trkpt>
      <trkpt lat="45.97176" lon="6.31356">
        <ele>1553</ele>
        <time>2013-10-06T11:38:09Z</time>
      </trkpt>
      <trkpt lat="45.97181" lon="6.31368">
        <ele>1553</ele>
        <time>2013-10-06T11:38:20Z</time>
      </trkpt>
      <trkpt lat="45.97188" lon="6.31379">
        <ele>1553</ele>
        <time>2013-10-06T11:38:34Z</time>
      </trkpt>
      <trkpt lat="45.97193" lon="6.3139">
        <ele>1553.74800128</ele>
        <time>2013-10-06T11:38:43Z</time>
      </trkpt>
      <trkpt lat="45.97201" lon="6.31401">
        <ele>1554</ele>
        <time>2013-10-06T11:38:53Z</time>
      </trkpt>
      <trkpt lat="45.97208" lon="6.31411">
        <ele>1554.3400398165</ele>
        <time>2013-10-06T11:38:59Z</time>
      </trkpt>
      <trkpt lat="45.97218" lon="6.31418">
        <ele>1554.9436619356</ele>
        <time>2013-10-06T11:39:05Z</time>
      </trkpt>
      <trkpt lat="45.97237" lon="6.31437">
        <ele>1555.9348047133</ele>
        <time>2013-10-06T11:39:15Z</time>
      </trkpt>
      <trkpt lat="45.97245" lon="6.31449">
        <ele>1556</ele>
        <time>2013-10-06T11:39:22Z</time>
      </trkpt>
      <trkpt lat="45.97253" lon="6.31457">
        <ele>1555.86599936</ele>
        <time>2013-10-06T11:39:27Z</time>
      </trkpt>
      <trkpt lat="45.97261" lon="6.31466">
        <ele>1555.26599936</ele>
        <time>2013-10-06T11:39:33Z</time>
      </trkpt>
      <trkpt lat="45.97268" lon="6.31477">
        <ele>1554.552</ele>
        <time>2013-10-06T11:39:40Z</time>
      </trkpt>
      <trkpt lat="45.97278" lon="6.31485">
        <ele>1552.304</ele>
        <time>2013-10-06T11:39:54Z</time>
      </trkpt>
      <trkpt lat="45.97297" lon="6.31503">
        <ele>1552.54199936</ele>
        <time>2013-10-06T11:40:10Z</time>
      </trkpt>
      <trkpt lat="45.97303" lon="6.31516">
        <ele>1552.14199936</ele>
        <time>2013-10-06T11:40:14Z</time>
      </trkpt>
      <trkpt lat="45.9731" lon="6.31529">
        <ele>1551.64199936</ele>
        <time>2013-10-06T11:40:19Z</time>
      </trkpt>
      <trkpt lat="45.97314" lon="6.31543">
        <ele>1551.04199936</ele>
        <time>2013-10-06T11:40:25Z</time>
      </trkpt>
      <trkpt lat="45.97323" lon="6.31554">
        <ele>1548.72599808</ele>
        <time>2013-10-06T11:40:33Z</time>
      </trkpt>
      <trkpt lat="45.97334" lon="6.31554">
        <ele>1547.30199808</ele>
        <time>2013-10-06T11:40:39Z</time>
      </trkpt>
      <trkpt lat="45.97342" lon="6.31562">
        <ele>1546.10399744</ele>
        <time>2013-10-06T11:40:45Z</time>
      </trkpt>
      <trkpt lat="45.97351" lon="6.31571">
        <ele>1545.30399744</ele>
        <time>2013-10-06T11:40:49Z</time>
      </trkpt>
      <trkpt lat="45.97359" lon="6.31582">
        <ele>1544.10399744</ele>
        <time>2013-10-06T11:40:55Z</time>
      </trkpt>
      <trkpt lat="45.97367" lon="6.31595">
        <ele>1543.30399744</ele>
        <time>2013-10-06T11:40:59Z</time>
      </trkpt>
      <trkpt lat="45.97376" lon="6.31603">
        <ele>1542.48399872</ele>
        <time>2013-10-06T11:41:03Z</time>
      </trkpt>
      <trkpt lat="45.97384" lon="6.31614">
        <ele>1541.65499904</ele>
        <time>2013-10-06T11:41:09Z</time>
      </trkpt>
      <trkpt lat="45.97389" lon="6.31628">
        <ele>1540.95299968</ele>
        <time>2013-10-06T11:41:16Z</time>
      </trkpt>
      <trkpt lat="45.97393" lon="6.31657">
        <ele>1539.54199936</ele>
        <time>2013-10-06T11:41:30Z</time>
      </trkpt>
      <trkpt lat="45.974" lon="6.31667">
        <ele>1539.24199936</ele>
        <time>2013-10-06T11:41:33Z</time>
      </trkpt>
      <trkpt lat="45.97408" lon="6.3168">
        <ele>1538.5460850305</ele>
        <time>2013-10-06T11:41:40Z</time>
      </trkpt>
      <trkpt lat="45.97417" lon="6.31688">
        <ele>1538.1496532967</ele>
        <time>2013-10-06T11:41:44Z</time>
      </trkpt>
      <trkpt lat="45.9742" lon="6.31702">
        <ele>1536.7452543441</ele>
        <time>2013-10-06T11:41:52Z</time>
      </trkpt>
      <trkpt lat="45.97427" lon="6.31712">
        <ele>1535.9232335665</ele>
        <time>2013-10-06T11:41:56Z</time>
      </trkpt>
      <trkpt lat="45.97432" lon="6.31725">
        <ele>1534.1050479871</ele>
        <time>2013-10-06T11:42:05Z</time>
      </trkpt>
      <trkpt lat="45.9744" lon="6.31735">
        <ele>1533.26599936</ele>
        <time>2013-10-06T11:42:13Z</time>
      </trkpt>
      <trkpt lat="45.97447" lon="6.31747">
        <ele>1533</ele>
        <time>2013-10-06T11:42:20Z</time>
      </trkpt>
      <trkpt lat="45.97456" lon="6.31754">
        <ele>1532.86599936</ele>
        <time>2013-10-06T11:42:27Z</time>
      </trkpt>
      <trkpt lat="45.97466" lon="6.3176">
        <ele>1532.06599936</ele>
        <time>2013-10-06T11:42:35Z</time>
      </trkpt>
      <trkpt lat="45.97477" lon="6.31768">
        <ele>1532</ele>
        <time>2013-10-06T11:42:41Z</time>
      </trkpt>
      <trkpt lat="45.97495" lon="6.31784">
        <ele>1532</ele>
        <time>2013-10-06T11:42:53Z</time>
      </trkpt>
      <trkpt lat="45.97506" lon="6.31795">
        <ele>1532</ele>
        <time>2013-10-06T11:43:00Z</time>
      </trkpt>
      <trkpt lat="45.97514" lon="6.31804">
        <ele>1532</ele>
        <time>2013-10-06T11:43:05Z</time>
      </trkpt>
      <trkpt lat="45.97524" lon="6.3181">
        <ele>1532</ele>
        <time>2013-10-06T11:43:12Z</time>
      </trkpt>
      <trkpt lat="45.97536" lon="6.31807">
        <ele>1532</ele>
        <time>2013-10-06T11:43:19Z</time>
      </trkpt>
      <trkpt lat="45.97547" lon="6.31812">
        <ele>1532</ele>
        <time>2013-10-06T11:43:26Z</time>
      </trkpt>
      <trkpt lat="45.97557" lon="6.31819">
        <ele>1532</ele>
        <time>2013-10-06T11:43:33Z</time>
      </trkpt>
      <trkpt lat="45.97566" lon="6.31845">
        <ele>1532.34700032</ele>
        <time>2013-10-06T11:43:49Z</time>
      </trkpt>
      <trkpt lat="45.97571" lon="6.31859">
        <ele>1532.056</ele>
        <time>2013-10-06T11:44:05Z</time>
      </trkpt>
      <trkpt lat="45.97577" lon="6.31872">
        <ele>1532</ele>
        <time>2013-10-06T11:44:10Z</time>
      </trkpt>
      <trkpt lat="45.97588" lon="6.31879">
        <ele>1532</ele>
        <time>2013-10-06T11:44:15Z</time>
      </trkpt>
      <trkpt lat="45.97596" lon="6.31889">
        <ele>1531.64199936</ele>
        <time>2013-10-06T11:44:19Z</time>
      </trkpt>
      <trkpt lat="45.97603" lon="6.31899">
        <ele>1531.14199936</ele>
        <time>2013-10-06T11:44:24Z</time>
      </trkpt>
      <trkpt lat="45.9761" lon="6.3191">
        <ele>1531</ele>
        <time>2013-10-06T11:44:30Z</time>
      </trkpt>
      <trkpt lat="45.97615" lon="6.31924">
        <ele>1531</ele>
        <time>2013-10-06T11:44:36Z</time>
      </trkpt>
      <trkpt lat="45.97621" lon="6.31936">
        <ele>1530.9421728599</ele>
        <time>2013-10-06T11:44:46Z</time>
      </trkpt>
      <trkpt lat="45.97628" lon="6.31947">
        <ele>1530.4436685324</ele>
        <time>2013-10-06T11:44:51Z</time>
      </trkpt>
      <trkpt lat="45.97634" lon="6.31959">
        <ele>1530.0448650704</ele>
        <time>2013-10-06T11:44:55Z</time>
      </trkpt>
      <trkpt lat="45.9764" lon="6.31972">
        <ele>1530</ele>
        <time>2013-10-06T11:45:02Z</time>
      </trkpt>
      <trkpt lat="45.97646" lon="6.31985">
        <ele>1530</ele>
        <time>2013-10-06T11:45:07Z</time>
      </trkpt>
      <trkpt lat="45.97653" lon="6.31996">
        <ele>1530</ele>
        <time>2013-10-06T11:45:12Z</time>
      </trkpt>
      <trkpt lat="45.97662" lon="6.32003">
        <ele>1530</ele>
        <time>2013-10-06T11:45:18Z</time>
      </trkpt>
      <trkpt lat="45.97667" lon="6.32016">
        <ele>1530</ele>
        <time>2013-10-06T11:45:23Z</time>
      </trkpt>
      <trkpt lat="45.97672" lon="6.3203">
        <ele>1530</ele>
        <time>2013-10-06T11:45:30Z</time>
      </trkpt>
      <trkpt lat="45.97683" lon="6.32036">
        <ele>1530.848</ele>
        <time>2013-10-06T11:45:44Z</time>
      </trkpt>
      <trkpt lat="45.97704" lon="6.32046">
        <ele>1532.66999936</ele>
        <time>2013-10-06T11:45:59Z</time>
      </trkpt>
      <trkpt lat="45.97725" lon="6.32059">
        <ele>1532</ele>
        <time>2013-10-06T11:46:11Z</time>
      </trkpt>
      <trkpt lat="45.97735" lon="6.32068">
        <ele>1532.13400064</ele>
        <time>2013-10-06T11:46:17Z</time>
      </trkpt>
      <trkpt lat="45.97744" lon="6.32079">
        <ele>1532.73400064</ele>
        <time>2013-10-06T11:46:23Z</time>
      </trkpt>
      <trkpt lat="45.97752" lon="6.32088">
        <ele>1533</ele>
        <time>2013-10-06T11:46:27Z</time>
      </trkpt>
      <trkpt lat="45.9776" lon="6.32097">
        <ele>1533</ele>
        <time>2013-10-06T11:46:33Z</time>
      </trkpt>
      <trkpt lat="45.9777" lon="6.32101">
        <ele>1533</ele>
        <time>2013-10-06T11:46:39Z</time>
      </trkpt>
      <trkpt lat="45.9778" lon="6.32108">
        <ele>1533</ele>
        <time>2013-10-06T11:46:46Z</time>
      </trkpt>
      <trkpt lat="45.97788" lon="6.3212">
        <ele>1533</ele>
        <time>2013-10-06T11:46:52Z</time>
      </trkpt>
      <trkpt lat="45.97797" lon="6.32127">
        <ele>1532.66199936</ele>
        <time>2013-10-06T11:46:59Z</time>
      </trkpt>
      <trkpt lat="45.97806" lon="6.32134">
        <ele>1532</ele>
        <time>2013-10-06T11:47:08Z</time>
      </trkpt>
      <trkpt lat="45.97816" lon="6.32139">
        <ele>1532</ele>
        <time>2013-10-06T11:47:17Z</time>
      </trkpt>
      <trkpt lat="45.97825" lon="6.32129">
        <ele>1530.8652471232</ele>
        <time>2013-10-06T11:47:28Z</time>
      </trkpt>
      <trkpt lat="45.97835" lon="6.32131">
        <ele>1526.12999936</ele>
        <time>2013-10-06T11:47:40Z</time>
      </trkpt>
      <trkpt lat="45.97845" lon="6.32127">
        <ele>1521.2099968</ele>
        <time>2013-10-06T11:48:01Z</time>
      </trkpt>
      <trkpt lat="45.97856" lon="6.32128">
        <ele>1516.2749952</ele>
        <time>2013-10-06T11:48:11Z</time>
      </trkpt>
      <trkpt lat="45.97866" lon="6.32133">
        <ele>1513.55499904</ele>
        <time>2013-10-06T11:48:20Z</time>
      </trkpt>
      <trkpt lat="45.97874" lon="6.32124">
        <ele>1509.57799424</ele>
        <time>2013-10-06T11:48:38Z</time>
      </trkpt>
      <trkpt lat="45.97885" lon="6.32122">
        <ele>1504.00999808</ele>
        <time>2013-10-06T11:48:49Z</time>
      </trkpt>
      <trkpt lat="45.97877" lon="6.32111">
        <ele>1493.48399872</ele>
        <time>2013-10-06T11:49:43Z</time>
      </trkpt>
      <trkpt lat="45.97864" lon="6.32084">
        <ele>1490.91599616</ele>
        <time>2013-10-06T11:49:56Z</time>
      </trkpt>
      <trkpt lat="45.97862" lon="6.32069">
        <ele>1488.51599616</ele>
        <time>2013-10-06T11:50:04Z</time>
      </trkpt>
      <trkpt lat="45.97861" lon="6.32055">
        <ele>1487.555114342</ele>
        <time>2013-10-06T11:50:10Z</time>
      </trkpt>
      <trkpt lat="45.97856" lon="6.3204">
        <ele>1486.1339359948</ele>
        <time>2013-10-06T11:50:20Z</time>
      </trkpt>
      <trkpt lat="45.97847" lon="6.32012">
        <ele>1478.76799744</ele>
        <time>2013-10-06T11:50:41Z</time>
      </trkpt>
      <trkpt lat="45.97841" lon="6.31999">
        <ele>1476.70999808</ele>
        <time>2013-10-06T11:50:47Z</time>
      </trkpt>
      <trkpt lat="45.97833" lon="6.31988">
        <ele>1474.25899904</ele>
        <time>2013-10-06T11:50:58Z</time>
      </trkpt>
      <trkpt lat="45.97829" lon="6.31974">
        <ele>1471.55899904</ele>
        <time>2013-10-06T11:51:10Z</time>
      </trkpt>
      <trkpt lat="45.97826" lon="6.31961">
        <ele>1469.68399872</ele>
        <time>2013-10-06T11:51:22Z</time>
      </trkpt>
      <trkpt lat="45.97821" lon="6.31948">
        <ele>1464.26499712</ele>
        <time>2013-10-06T11:51:38Z</time>
      </trkpt>
      <trkpt lat="45.97818" lon="6.31934">
        <ele>1461.35499904</ele>
        <time>2013-10-06T11:51:52Z</time>
      </trkpt>
      <trkpt lat="45.9782" lon="6.3192">
        <ele>1457.88</ele>
        <time>2013-10-06T11:52:02Z</time>
      </trkpt>
      <trkpt lat="45.9782" lon="6.31905">
        <ele>1451.77799424</ele>
        <time>2013-10-06T11:52:21Z</time>
      </trkpt>
      <trkpt lat="45.97826" lon="6.31894">
        <ele>1445.2649984</ele>
        <time>2013-10-06T11:52:37Z</time>
      </trkpt>
      <trkpt lat="45.97827" lon="6.31879">
        <ele>1441</ele>
        <time>2013-10-06T11:52:47Z</time>
      </trkpt>
      <trkpt lat="45.97819" lon="6.31864">
        <ele>1441</ele>
        <time>2013-10-06T11:52:54Z</time>
      </trkpt>
      <trkpt lat="45.97816" lon="6.31849">
        <ele>1438.9174225716</ele>
        <time>2013-10-06T11:53:06Z</time>
      </trkpt>
      <trkpt lat="45.97824" lon="6.31835">
        <ele>1437.7109764225</ele>
        <time>2013-10-06T11:53:12Z</time>
      </trkpt>
      <trkpt lat="45.97834" lon="6.31834">
        <ele>1434.7099968</ele>
        <time>2013-10-06T11:53:20Z</time>
      </trkpt>
      <trkpt lat="45.97854" lon="6.31825">
        <ele>1422.304</ele>
        <time>2013-10-06T11:54:01Z</time>
      </trkpt>
      <trkpt lat="45.97864" lon="6.31825">
        <ele>1415.2599936</ele>
        <time>2013-10-06T11:54:13Z</time>
      </trkpt>
      <trkpt lat="45.97875" lon="6.31823">
        <ele>1411.87999744</ele>
        <time>2013-10-06T11:54:21Z</time>
      </trkpt>
      <trkpt lat="45.97885" lon="6.31827">
        <ele>1409.55599616</ele>
        <time>2013-10-06T11:54:27Z</time>
      </trkpt>
      <trkpt lat="45.97895" lon="6.31829">
        <ele>1407.15599616</ele>
        <time>2013-10-06T11:54:35Z</time>
      </trkpt>
      <trkpt lat="45.97904" lon="6.31836">
        <ele>1403.608</ele>
        <time>2013-10-06T11:54:44Z</time>
      </trkpt>
      <trkpt lat="45.97914" lon="6.31842">
        <ele>1400.2599936</ele>
        <time>2013-10-06T11:54:51Z</time>
      </trkpt>
      <trkpt lat="45.97923" lon="6.31849">
        <ele>1398.76</ele>
        <time>2013-10-06T11:54:54Z</time>
      </trkpt>
      <trkpt lat="45.97933" lon="6.31859">
        <ele>1397.26799616</ele>
        <time>2013-10-06T11:54:58Z</time>
      </trkpt>
      <trkpt lat="45.9794" lon="6.3187">
        <ele>1396.06799616</ele>
        <time>2013-10-06T11:55:02Z</time>
      </trkpt>
      <trkpt lat="45.97954" lon="6.31892">
        <ele>1391.256</ele>
        <time>2013-10-06T11:55:18Z</time>
      </trkpt>
      <trkpt lat="45.97964" lon="6.31895">
        <ele>1385.21199872</ele>
        <time>2013-10-06T11:55:35Z</time>
      </trkpt>
      <trkpt lat="45.97974" lon="6.31884">
        <ele>1379.9089122161</ele>
        <time>2013-10-06T11:55:51Z</time>
      </trkpt>
      <trkpt lat="45.97985" lon="6.31883">
        <ele>1377.2818186872</ele>
        <time>2013-10-06T11:55:58Z</time>
      </trkpt>
      <trkpt lat="45.97996" lon="6.31882">
        <ele>1375.7666661926</ele>
        <time>2013-10-06T11:56:03Z</time>
      </trkpt>
      <trkpt lat="45.98006" lon="6.31879">
        <ele>1374.74199936</ele>
        <time>2013-10-06T11:56:08Z</time>
      </trkpt>
      <trkpt lat="45.98017" lon="6.31876">
        <ele>1374.24199936</ele>
        <time>2013-10-06T11:56:13Z</time>
      </trkpt>
      <trkpt lat="45.98028" lon="6.31872">
        <ele>1374</ele>
        <time>2013-10-06T11:56:18Z</time>
      </trkpt>
      <trkpt lat="45.98039" lon="6.31866">
        <ele>1374</ele>
        <time>2013-10-06T11:56:23Z</time>
      </trkpt>
      <trkpt lat="45.98057" lon="6.3185">
        <ele>1374</ele>
        <time>2013-10-06T11:56:35Z</time>
      </trkpt>
      <trkpt lat="45.98067" lon="6.31842">
        <ele>1373.34199936</ele>
        <time>2013-10-06T11:56:42Z</time>
      </trkpt>
      <trkpt lat="45.98076" lon="6.31834">
        <ele>1373</ele>
        <time>2013-10-06T11:56:50Z</time>
      </trkpt>
      <trkpt lat="45.98069" lon="6.31823">
        <ele>1373.53400064</ele>
        <time>2013-10-06T11:57:01Z</time>
      </trkpt>
      <trkpt lat="45.98065" lon="6.31809">
        <ele>1375.07400192</ele>
        <time>2013-10-06T11:57:11Z</time>
      </trkpt>
      <trkpt lat="45.9806" lon="6.31796">
        <ele>1376</ele>
        <time>2013-10-06T11:57:19Z</time>
      </trkpt>
      <trkpt lat="45.98053" lon="6.31784">
        <ele>1376</ele>
        <time>2013-10-06T11:57:27Z</time>
      </trkpt>
      <trkpt lat="45.9805" lon="6.3177">
        <ele>1376</ele>
        <time>2013-10-06T11:57:34Z</time>
      </trkpt>
      <trkpt lat="45.98048" lon="6.31756">
        <ele>1376.54800128</ele>
        <time>2013-10-06T11:57:41Z</time>
      </trkpt>
      <trkpt lat="45.98044" lon="6.31742">
        <ele>1377.23800064</ele>
        <time>2013-10-06T11:57:48Z</time>
      </trkpt>
      <trkpt lat="45.98041" lon="6.31727">
        <ele>1378</ele>
        <time>2013-10-06T11:57:58Z</time>
      </trkpt>
      <trkpt lat="45.98039" lon="6.31711">
        <ele>1378</ele>
        <time>2013-10-06T11:58:05Z</time>
      </trkpt>
      <trkpt lat="45.98035" lon="6.31695">
        <ele>1378.54800128</ele>
        <time>2013-10-06T11:58:11Z</time>
      </trkpt>
      <trkpt lat="45.98033" lon="6.3168">
        <ele>1378.90999808</ele>
        <time>2013-10-06T11:58:16Z</time>
      </trkpt>
      <trkpt lat="45.9803" lon="6.31663">
        <ele>1377.40999808</ele>
        <time>2013-10-06T11:58:21Z</time>
      </trkpt>
      <trkpt lat="45.98029" lon="6.31647">
        <ele>1375.93199872</ele>
        <time>2013-10-06T11:58:26Z</time>
      </trkpt>
      <trkpt lat="45.98027" lon="6.31613">
        <ele>1373.9654488778</ele>
        <time>2013-10-06T11:58:36Z</time>
      </trkpt>
      <trkpt lat="45.98023" lon="6.31596">
        <ele>1373.4718659299</ele>
        <time>2013-10-06T11:58:41Z</time>
      </trkpt>
      <trkpt lat="45.9802" lon="6.3158">
        <ele>1372.9655527932</ele>
        <time>2013-10-06T11:58:46Z</time>
      </trkpt>
      <trkpt lat="45.98017" lon="6.31546">
        <ele>1371.94199936</ele>
        <time>2013-10-06T11:58:56Z</time>
      </trkpt>
      <trkpt lat="45.98015" lon="6.3153">
        <ele>1371.45199872</ele>
        <time>2013-10-06T11:59:01Z</time>
      </trkpt>
      <trkpt lat="45.98012" lon="6.31514">
        <ele>1370.96299904</ele>
        <time>2013-10-06T11:59:06Z</time>
      </trkpt>
      <trkpt lat="45.9801" lon="6.315">
        <ele>1370.46299904</ele>
        <time>2013-10-06T11:59:11Z</time>
      </trkpt>
      <trkpt lat="45.98011" lon="6.31485">
        <ele>1370</ele>
        <time>2013-10-06T11:59:16Z</time>
      </trkpt>
      <trkpt lat="45.98021" lon="6.31481">
        <ele>1370</ele>
        <time>2013-10-06T11:59:22Z</time>
      </trkpt>
      <trkpt lat="45.98031" lon="6.31484">
        <ele>1370</ele>
        <time>2013-10-06T11:59:37Z</time>
      </trkpt>
      <trkpt lat="45.98041" lon="6.31484">
        <ele>1370</ele>
        <time>2013-10-06T12:00:01Z</time>
      </trkpt>
      <trkpt lat="45.98052" lon="6.31482">
        <ele>1370.248</ele>
        <time>2013-10-06T12:00:08Z</time>
      </trkpt>
      <trkpt lat="45.98063" lon="6.31481">
        <ele>1370.74800128</ele>
        <time>2013-10-06T12:00:13Z</time>
      </trkpt>
      <trkpt lat="45.98073" lon="6.31478">
        <ele>1371.248</ele>
        <time>2013-10-06T12:00:18Z</time>
      </trkpt>
      <trkpt lat="45.98085" lon="6.31475">
        <ele>1371.74800128</ele>
        <time>2013-10-06T12:00:23Z</time>
      </trkpt>
      <trkpt lat="45.98095" lon="6.31475">
        <ele>1372</ele>
        <time>2013-10-06T12:00:28Z</time>
      </trkpt>
      <trkpt lat="45.98105" lon="6.31475">
        <ele>1372</ele>
        <time>2013-10-06T12:00:34Z</time>
      </trkpt>
      <trkpt lat="45.98113" lon="6.31476">
        <ele>1372.648</ele>
        <time>2013-10-06T12:00:42Z</time>
      </trkpt>
      <trkpt lat="45.98122" lon="6.31477">
        <ele>1373.45800064</ele>
        <time>2013-10-06T12:00:50Z</time>
      </trkpt>
      <trkpt lat="45.98129" lon="6.31477">
        <ele>1374.04400128</ele>
        <time>2013-10-06T12:00:56Z</time>
      </trkpt>
      <trkpt lat="45.98138" lon="6.31478">
        <ele>1374.744</ele>
        <time>2013-10-06T12:01:03Z</time>
      </trkpt>
      <trkpt lat="45.98148" lon="6.31478">
        <ele>1374.54599936</ele>
        <time>2013-10-06T12:01:10Z</time>
      </trkpt>
      <trkpt lat="45.98167" lon="6.31478">
        <ele>1374</ele>
        <time>2013-10-06T12:01:24Z</time>
      </trkpt>
      <trkpt lat="45.98178" lon="6.31479">
        <ele>1375.2611720322</ele>
        <time>2013-10-06T12:01:32Z</time>
      </trkpt>
      <trkpt lat="45.98198" lon="6.3148">
        <ele>1377</ele>
        <time>2013-10-06T12:01:49Z</time>
      </trkpt>
      <trkpt lat="45.98205" lon="6.31481">
        <ele>1377</ele>
        <time>2013-10-06T12:01:55Z</time>
      </trkpt>
      <trkpt lat="45.98214" lon="6.31481">
        <ele>1377.64400128</ele>
        <time>2013-10-06T12:02:02Z</time>
      </trkpt>
      <trkpt lat="45.98221" lon="6.31482">
        <ele>1378.496</ele>
        <time>2013-10-06T12:02:08Z</time>
      </trkpt>
      <trkpt lat="45.98229" lon="6.31482">
        <ele>1379.91600128</ele>
        <time>2013-10-06T12:02:15Z</time>
      </trkpt>
      <trkpt lat="45.98237" lon="6.31482">
        <ele>1380.54800128</ele>
        <time>2013-10-06T12:02:21Z</time>
      </trkpt>
      <trkpt lat="45.98246" lon="6.31481">
        <ele>1380.76599936</ele>
        <time>2013-10-06T12:02:28Z</time>
      </trkpt>
      <trkpt lat="45.98254" lon="6.3148">
        <ele>1380.06599936</ele>
        <time>2013-10-06T12:02:35Z</time>
      </trkpt>
      <trkpt lat="45.98264" lon="6.3148">
        <ele>1380.64400128</ele>
        <time>2013-10-06T12:02:42Z</time>
      </trkpt>
      <trkpt lat="45.98273" lon="6.31478">
        <ele>1382.09400064</ele>
        <time>2013-10-06T12:02:51Z</time>
      </trkpt>
      <trkpt lat="45.98282" lon="6.31477">
        <ele>1384.344</ele>
        <time>2013-10-06T12:03:00Z</time>
      </trkpt>
      <trkpt lat="45.9829" lon="6.31475">
        <ele>1386.23700096</ele>
        <time>2013-10-06T12:03:08Z</time>
      </trkpt>
      <trkpt lat="45.98297" lon="6.31474">
        <ele>1386.94700032</ele>
        <time>2013-10-06T12:03:15Z</time>
      </trkpt>
      <trkpt lat="45.98307" lon="6.31473">
        <ele>1387.944</ele>
        <time>2013-10-06T12:03:25Z</time>
      </trkpt>
      <trkpt lat="45.98318" lon="6.31475">
        <ele>1390.1500032</ele>
        <time>2013-10-06T12:03:36Z</time>
      </trkpt>
      <trkpt lat="45.98328" lon="6.31481">
        <ele>1395.13500032</ele>
        <time>2013-10-06T12:03:47Z</time>
      </trkpt>
      <trkpt lat="45.98337" lon="6.31488">
        <ele>1396.24700032</ele>
        <time>2013-10-06T12:03:58Z</time>
      </trkpt>
      <trkpt lat="45.98357" lon="6.31502">
        <ele>1399.4890646451</ele>
        <time>2013-10-06T12:04:18Z</time>
      </trkpt>
      <trkpt lat="45.98365" lon="6.31512">
        <ele>1401.0402819868</ele>
        <time>2013-10-06T12:04:26Z</time>
      </trkpt>
      <trkpt lat="45.98373" lon="6.31521">
        <ele>1401.8459217228</ele>
        <time>2013-10-06T12:04:34Z</time>
      </trkpt>
      <trkpt lat="45.98381" lon="6.3153">
        <ele>1402.85800064</ele>
        <time>2013-10-06T12:04:44Z</time>
      </trkpt>
      <trkpt lat="45.98391" lon="6.31538">
        <ele>1403</ele>
        <time>2013-10-06T12:04:52Z</time>
      </trkpt>
      <trkpt lat="45.984" lon="6.31543">
        <ele>1403.35800064</ele>
        <time>2013-10-06T12:04:59Z</time>
      </trkpt>
      <trkpt lat="45.9841" lon="6.31548">
        <ele>1404.24700032</ele>
        <time>2013-10-06T12:05:08Z</time>
      </trkpt>
      <trkpt lat="45.9842" lon="6.31553">
        <ele>1405.23400064</ele>
        <time>2013-10-06T12:05:18Z</time>
      </trkpt>
      <trkpt lat="45.98428" lon="6.31581">
        <ele>1406.83400064</ele>
        <time>2013-10-06T12:05:34Z</time>
      </trkpt>
      <trkpt lat="45.98433" lon="6.31595">
        <ele>1408.296</ele>
        <time>2013-10-06T12:05:42Z</time>
      </trkpt>
      <trkpt lat="45.98437" lon="6.31608">
        <ele>1409</ele>
        <time>2013-10-06T12:05:49Z</time>
      </trkpt>
      <trkpt lat="45.98435" lon="6.31622">
        <ele>1409.29600256</ele>
        <time>2013-10-06T12:05:57Z</time>
      </trkpt>
      <trkpt lat="45.98442" lon="6.31634">
        <ele>1411.648</ele>
        <time>2013-10-06T12:06:12Z</time>
      </trkpt>
      <trkpt lat="45.98448" lon="6.31646">
        <ele>1412.53500032</ele>
        <time>2013-10-06T12:06:21Z</time>
      </trkpt>
      <trkpt lat="45.98457" lon="6.31653">
        <ele>1413.67400192</ele>
        <time>2013-10-06T12:06:29Z</time>
      </trkpt>
      <trkpt lat="45.98468" lon="6.31656">
        <ele>1415.248</ele>
        <time>2013-10-06T12:06:38Z</time>
      </trkpt>
      <trkpt lat="45.98478" lon="6.31661">
        <ele>1416.03700096</ele>
        <time>2013-10-06T12:06:46Z</time>
      </trkpt>
      <trkpt lat="45.98488" lon="6.31668">
        <ele>1416.93700096</ele>
        <time>2013-10-06T12:06:55Z</time>
      </trkpt>
      <trkpt lat="45.98497" lon="6.31675">
        <ele>1417.74800128</ele>
        <time>2013-10-06T12:07:03Z</time>
      </trkpt>
      <trkpt lat="45.98517" lon="6.31687">
        <ele>1421.2674078877</ele>
        <time>2013-10-06T12:07:22Z</time>
      </trkpt>
      <trkpt lat="45.98527" lon="6.31692">
        <ele>1422.53400064</ele>
        <time>2013-10-06T12:07:31Z</time>
      </trkpt>
      <trkpt lat="45.98537" lon="6.31697">
        <ele>1423.66000128</ele>
        <time>2013-10-06T12:07:39Z</time>
      </trkpt>
      <trkpt lat="45.98546" lon="6.31704">
        <ele>1425.896</ele>
        <time>2013-10-06T12:07:50Z</time>
      </trkpt>
      <trkpt lat="45.98554" lon="6.31714">
        <ele>1428.39200512</ele>
        <time>2013-10-06T12:07:59Z</time>
      </trkpt>
      <trkpt lat="45.9856" lon="6.31727">
        <ele>1431.13800064</ele>
        <time>2013-10-06T12:08:07Z</time>
      </trkpt>
      <trkpt lat="45.98565" lon="6.31739">
        <ele>1432.144</ele>
        <time>2013-10-06T12:08:17Z</time>
      </trkpt>
      <trkpt lat="45.98574" lon="6.31747">
        <ele>1433.2879533433</ele>
        <time>2013-10-06T12:08:27Z</time>
      </trkpt>
      <trkpt lat="45.98584" lon="6.31753">
        <ele>1435.1399385233</ele>
        <time>2013-10-06T12:08:37Z</time>
      </trkpt>
      <trkpt lat="45.98593" lon="6.31761">
        <ele>1436.09400064</ele>
        <time>2013-10-06T12:08:46Z</time>
      </trkpt>
      <trkpt lat="45.98604" lon="6.31761">
        <ele>1437.89400064</ele>
        <time>2013-10-06T12:08:55Z</time>
      </trkpt>
      <trkpt lat="45.98614" lon="6.31759">
        <ele>1439.71600128</ele>
        <time>2013-10-06T12:09:04Z</time>
      </trkpt>
      <trkpt lat="45.98624" lon="6.31756">
        <ele>1441.69000192</ele>
        <time>2013-10-06T12:09:14Z</time>
      </trkpt>
      <trkpt lat="45.98633" lon="6.31751">
        <ele>1443.49400064</ele>
        <time>2013-10-06T12:09:23Z</time>
      </trkpt>
      <trkpt lat="45.98652" lon="6.3174">
        <ele>1447.85800064</ele>
        <time>2013-10-06T12:09:44Z</time>
      </trkpt>
      <trkpt lat="45.98662" lon="6.31745">
        <ele>1448.75800064</ele>
        <time>2013-10-06T12:09:53Z</time>
      </trkpt>
      <trkpt lat="45.9867" lon="6.31754">
        <ele>1452.0109251207</ele>
        <time>2013-10-06T12:10:03Z</time>
      </trkpt>
      <trkpt lat="45.98678" lon="6.31763">
        <ele>1453.7411885571</ele>
        <time>2013-10-06T12:10:13Z</time>
      </trkpt>
      <trkpt lat="45.98688" lon="6.31769">
        <ele>1454.83400064</ele>
        <time>2013-10-06T12:10:24Z</time>
      </trkpt>
      <trkpt lat="45.98707" lon="6.31783">
        <ele>1461.07400192</ele>
        <time>2013-10-06T12:10:46Z</time>
      </trkpt>
      <trkpt lat="45.98717" lon="6.31788">
        <ele>1463.144</ele>
        <time>2013-10-06T12:10:57Z</time>
      </trkpt>
      <trkpt lat="45.98727" lon="6.31794">
        <ele>1464.33400064</ele>
        <time>2013-10-06T12:11:09Z</time>
      </trkpt>
      <trkpt lat="45.98736" lon="6.31801">
        <ele>1466.792</ele>
        <time>2013-10-06T12:11:20Z</time>
      </trkpt>
      <trkpt lat="45.98745" lon="6.31802">
        <ele>1469.63500032</ele>
        <time>2013-10-06T12:11:32Z</time>
      </trkpt>
      <trkpt lat="45.98745" lon="6.31788">
        <ele>1470.75800064</ele>
        <time>2013-10-06T12:11:53Z</time>
      </trkpt>
      <trkpt lat="45.9874" lon="6.31775">
        <ele>1472.71600128</ele>
        <time>2013-10-06T12:12:04Z</time>
      </trkpt>
      <trkpt lat="45.98734" lon="6.31764">
        <ele>1473.74700032</ele>
        <time>2013-10-06T12:12:13Z</time>
      </trkpt>
      <trkpt lat="45.98731" lon="6.31754">
        <ele>1474.91600128</ele>
        <time>2013-10-06T12:12:20Z</time>
      </trkpt>
      <trkpt lat="45.98727" lon="6.31743">
        <ele>1476.51600128</ele>
        <time>2013-10-06T12:12:28Z</time>
      </trkpt>
      <trkpt lat="45.98722" lon="6.31731">
        <ele>1478.288</ele>
        <time>2013-10-06T12:12:37Z</time>
      </trkpt>
      <trkpt lat="45.98718" lon="6.3172">
        <ele>1479.68800256</ele>
        <time>2013-10-06T12:12:44Z</time>
      </trkpt>
      <trkpt lat="45.98714" lon="6.31708">
        <ele>1480.648915409</ele>
        <time>2013-10-06T12:12:52Z</time>
      </trkpt>
      <trkpt lat="45.98709" lon="6.31695">
        <ele>1482.0608532646</ele>
        <time>2013-10-06T12:13:01Z</time>
      </trkpt>
      <trkpt lat="45.98705" lon="6.31683">
        <ele>1483</ele>
        <time>2013-10-06T12:13:09Z</time>
      </trkpt>
      <trkpt lat="45.98702" lon="6.31669">
        <ele>1483.27400192</ele>
        <time>2013-10-06T12:13:17Z</time>
      </trkpt>
      <trkpt lat="45.987" lon="6.31656">
        <ele>1484.87400192</ele>
        <time>2013-10-06T12:13:25Z</time>
      </trkpt>
      <trkpt lat="45.98701" lon="6.31641">
        <ele>1487</ele>
        <time>2013-10-06T12:13:37Z</time>
      </trkpt>
      <trkpt lat="45.98697" lon="6.31629">
        <ele>1487</ele>
        <time>2013-10-06T12:13:44Z</time>
      </trkpt>
      <trkpt lat="45.98704" lon="6.31588">
        <ele>1487.2723675404</ele>
        <time>2013-10-06T12:14:07Z</time>
      </trkpt>
      <trkpt lat="45.98708" lon="6.31574">
        <ele>1489.0422529045</ele>
        <time>2013-10-06T12:14:16Z</time>
      </trkpt>
      <trkpt lat="45.98714" lon="6.31561">
        <ele>1489.8470823965</ele>
        <time>2013-10-06T12:14:24Z</time>
      </trkpt>
      <trkpt lat="45.98721" lon="6.3155">
        <ele>1490.648</ele>
        <time>2013-10-06T12:14:32Z</time>
      </trkpt>
      <trkpt lat="45.98728" lon="6.31538">
        <ele>1491</ele>
        <time>2013-10-06T12:14:40Z</time>
      </trkpt>
      <trkpt lat="45.98733" lon="6.31525">
        <ele>1491.51600128</ele>
        <time>2013-10-06T12:14:48Z</time>
      </trkpt>
      <trkpt lat="45.98739" lon="6.31511">
        <ele>1493.14700032</ele>
        <time>2013-10-06T12:14:57Z</time>
      </trkpt>
      <trkpt lat="45.98741" lon="6.31495">
        <ele>1494.04400128</ele>
        <time>2013-10-06T12:15:06Z</time>
      </trkpt>
      <trkpt lat="45.9874" lon="6.3148">
        <ele>1494.944</ele>
        <time>2013-10-06T12:15:15Z</time>
      </trkpt>
      <trkpt lat="45.98737" lon="6.31465">
        <ele>1495.85900032</ele>
        <time>2013-10-06T12:15:24Z</time>
      </trkpt>
      <trkpt lat="45.98735" lon="6.3145">
        <ele>1496.65800064</ele>
        <time>2013-10-06T12:15:32Z</time>
      </trkpt>
      <trkpt lat="45.98733" lon="6.31436">
        <ele>1496</ele>
        <time>2013-10-06T12:15:55Z</time>
      </trkpt>
      <trkpt lat="45.98732" lon="6.31421">
        <ele>1497.49600256</ele>
        <time>2013-10-06T12:16:03Z</time>
      </trkpt>
      <trkpt lat="45.98729" lon="6.31407">
        <ele>1499.088</ele>
        <time>2013-10-06T12:16:11Z</time>
      </trkpt>
      <trkpt lat="45.98728" lon="6.31392">
        <ele>1500.34800128</ele>
        <time>2013-10-06T12:16:19Z</time>
      </trkpt>
      <trkpt lat="45.98731" lon="6.31377">
        <ele>1501.27400192</ele>
        <time>2013-10-06T12:16:27Z</time>
      </trkpt>
      <trkpt lat="45.98733" lon="6.31362">
        <ele>1502.87400192</ele>
        <time>2013-10-06T12:16:35Z</time>
      </trkpt>
      <trkpt lat="45.98734" lon="6.31345">
        <ele>1503</ele>
        <time>2013-10-06T12:16:42Z</time>
      </trkpt>
      <trkpt lat="45.98732" lon="6.3133">
        <ele>1503.29600256</ele>
        <time>2013-10-06T12:16:47Z</time>
      </trkpt>
      <trkpt lat="45.98726" lon="6.31301">
        <ele>1505.23700096</ele>
        <time>2013-10-06T12:16:58Z</time>
      </trkpt>
      <trkpt lat="45.98727" lon="6.31286">
        <ele>1505.93700096</ele>
        <time>2013-10-06T12:17:05Z</time>
      </trkpt>
      <trkpt lat="45.98727" lon="6.31272">
        <ele>1506</ele>
        <time>2013-10-06T12:17:12Z</time>
      </trkpt>
      <trkpt lat="45.98728" lon="6.31257">
        <ele>1506.34800128</ele>
        <time>2013-10-06T12:17:19Z</time>
      </trkpt>
      <trkpt lat="45.9873" lon="6.31241">
        <ele>1507.31600128</ele>
        <time>2013-10-06T12:17:27Z</time>
      </trkpt>
      <trkpt lat="45.98733" lon="6.31227">
        <ele>1508.91600128</ele>
        <time>2013-10-06T12:17:35Z</time>
      </trkpt>
      <trkpt lat="45.98745" lon="6.31203">
        <ele>1511.28</ele>
        <time>2013-10-06T12:17:52Z</time>
      </trkpt>
      <trkpt lat="45.98754" lon="6.31197">
        <ele>1512.4417918964</ele>
        <time>2013-10-06T12:18:00Z</time>
      </trkpt>
      <trkpt lat="45.98764" lon="6.31194">
        <ele>1513.2542712805</ele>
        <time>2013-10-06T12:18:08Z</time>
      </trkpt>
      <trkpt lat="45.98774" lon="6.31193">
        <ele>1514.08800256</ele>
        <time>2013-10-06T12:18:16Z</time>
      </trkpt>
      <trkpt lat="45.98782" lon="6.31187">
        <ele>1515.26800128</ele>
        <time>2013-10-06T12:18:22Z</time>
      </trkpt>
      <trkpt lat="45.9879" lon="6.31178">
        <ele>1516.4440035419</ele>
        <time>2013-10-06T12:18:30Z</time>
      </trkpt>
      <trkpt lat="45.98799" lon="6.31169">
        <ele>1517.4803220798</ele>
        <time>2013-10-06T12:18:38Z</time>
      </trkpt>
      <trkpt lat="45.98806" lon="6.31158">
        <ele>1519.08800256</ele>
        <time>2013-10-06T12:18:46Z</time>
      </trkpt>
      <trkpt lat="45.98813" lon="6.31147">
        <ele>1520.68800256</ele>
        <time>2013-10-06T12:18:54Z</time>
      </trkpt>
      <trkpt lat="45.9882" lon="6.31137">
        <ele>1523.63200256</ele>
        <time>2013-10-06T12:19:02Z</time>
      </trkpt>
      <trkpt lat="45.98828" lon="6.31126">
        <ele>1525.55800064</ele>
        <time>2013-10-06T12:19:11Z</time>
      </trkpt>
      <trkpt lat="45.98836" lon="6.31114">
        <ele>1526.45800064</ele>
        <time>2013-10-06T12:19:20Z</time>
      </trkpt>
      <trkpt lat="45.98839" lon="6.311">
        <ele>1527.496</ele>
        <time>2013-10-06T12:19:28Z</time>
      </trkpt>
      <trkpt lat="45.9884" lon="6.31071">
        <ele>1531.06000128</ele>
        <time>2013-10-06T12:19:46Z</time>
      </trkpt>
      <trkpt lat="45.98839" lon="6.31055">
        <ele>1533.17400192</ele>
        <time>2013-10-06T12:19:56Z</time>
      </trkpt>
      <trkpt lat="45.98837" lon="6.3104">
        <ele>1535.57400192</ele>
        <time>2013-10-06T12:20:04Z</time>
      </trkpt>
      <trkpt lat="45.98836" lon="6.31025">
        <ele>1536</ele>
        <time>2013-10-06T12:20:12Z</time>
      </trkpt>
      <trkpt lat="45.98836" lon="6.31009">
        <ele>1537.11600128</ele>
        <time>2013-10-06T12:20:21Z</time>
      </trkpt>
      <trkpt lat="45.98838" lon="6.30994">
        <ele>1538.71600128</ele>
        <time>2013-10-06T12:20:29Z</time>
      </trkpt>
      <trkpt lat="45.98841" lon="6.3098">
        <ele>1540.46800128</ele>
        <time>2013-10-06T12:20:38Z</time>
      </trkpt>
      <trkpt lat="45.98845" lon="6.30966">
        <ele>1542.07000064</ele>
        <time>2013-10-06T12:20:46Z</time>
      </trkpt>
      <trkpt lat="45.9885" lon="6.30953">
        <ele>1543.67000064</ele>
        <time>2013-10-06T12:20:54Z</time>
      </trkpt>
      <trkpt lat="45.98853" lon="6.30938">
        <ele>1544</ele>
        <time>2013-10-06T12:21:02Z</time>
      </trkpt>
      <trkpt lat="45.98853" lon="6.30924">
        <ele>1544.71600128</ele>
        <time>2013-10-06T12:21:09Z</time>
      </trkpt>
      <trkpt lat="45.98854" lon="6.30909">
        <ele>1546.489151565</ele>
        <time>2013-10-06T12:21:18Z</time>
      </trkpt>
      <trkpt lat="45.98861" lon="6.3088">
        <ele>1550</ele>
        <time>2013-10-06T12:21:38Z</time>
      </trkpt>
      <trkpt lat="45.98864" lon="6.30866">
        <ele>1550.08</ele>
        <time>2013-10-06T12:21:46Z</time>
      </trkpt>
      <trkpt lat="45.98868" lon="6.30852">
        <ele>1551.68</ele>
        <time>2013-10-06T12:21:54Z</time>
      </trkpt>
      <trkpt lat="45.98873" lon="6.30838">
        <ele>1554.27400192</ele>
        <time>2013-10-06T12:22:03Z</time>
      </trkpt>
      <trkpt lat="45.98879" lon="6.30826">
        <ele>1556.11600128</ele>
        <time>2013-10-06T12:22:11Z</time>
      </trkpt>
      <trkpt lat="45.98882" lon="6.30811">
        <ele>1558.11600128</ele>
        <time>2013-10-06T12:22:21Z</time>
      </trkpt>
      <trkpt lat="45.98886" lon="6.30797">
        <ele>1559.35800064</ele>
        <time>2013-10-06T12:22:29Z</time>
      </trkpt>
      <trkpt lat="45.98893" lon="6.30769">
        <ele>1562.04400128</ele>
        <time>2013-10-06T12:22:46Z</time>
      </trkpt>
      <trkpt lat="45.98897" lon="6.30754">
        <ele>1562.944</ele>
        <time>2013-10-06T12:22:55Z</time>
      </trkpt>
      <trkpt lat="45.989" lon="6.30739">
        <ele>1564.696</ele>
        <time>2013-10-06T12:23:04Z</time>
      </trkpt>
      <trkpt lat="45.989" lon="6.30725">
        <ele>1566.296</ele>
        <time>2013-10-06T12:23:12Z</time>
      </trkpt>
      <trkpt lat="45.98901" lon="6.3071">
        <ele>1567.54800128</ele>
        <time>2013-10-06T12:23:21Z</time>
      </trkpt>
      <trkpt lat="45.98905" lon="6.30697">
        <ele>1569.29400064</ele>
        <time>2013-10-06T12:23:32Z</time>
      </trkpt>
      <trkpt lat="45.9891" lon="6.30684">
        <ele>1570.64400128</ele>
        <time>2013-10-06T12:23:42Z</time>
      </trkpt>
      <trkpt lat="45.98919" lon="6.3068">
        <ele>1573.27000064</ele>
        <time>2013-10-06T12:23:57Z</time>
      </trkpt>
      <trkpt lat="45.98924" lon="6.30693">
        <ele>1575.2794862752</ele>
        <time>2013-10-06T12:24:06Z</time>
      </trkpt>
      <trkpt lat="45.98933" lon="6.307">
        <ele>1581.396570475</ele>
        <time>2013-10-06T12:24:17Z</time>
      </trkpt>
      <trkpt lat="45.98943" lon="6.30694">
        <ele>1584.34800128</ele>
        <time>2013-10-06T12:24:29Z</time>
      </trkpt>
      <trkpt lat="45.98943" lon="6.30679">
        <ele>1585.33700096</ele>
        <time>2013-10-06T12:24:39Z</time>
      </trkpt>
      <trkpt lat="45.98943" lon="6.30665">
        <ele>1585.76599936</ele>
        <time>2013-10-06T12:24:48Z</time>
      </trkpt>
      <trkpt lat="45.98945" lon="6.3065">
        <ele>1585.14700032</ele>
        <time>2013-10-06T12:25:27Z</time>
      </trkpt>
      <trkpt lat="45.98946" lon="6.30668">
        <ele>1585.97399936</ele>
        <time>2013-10-06T12:25:46Z</time>
      </trkpt>
      <trkpt lat="45.98945" lon="6.30654">
        <ele>1584.96599936</ele>
        <time>2013-10-06T12:25:56Z</time>
      </trkpt>
      <trkpt lat="45.98944" lon="6.30638">
        <ele>1584</ele>
        <time>2013-10-06T12:26:11Z</time>
      </trkpt>
      <trkpt lat="45.98945" lon="6.30629">
        <ele>1583.76</ele>
        <time>2013-10-06T12:26:18Z</time>
      </trkpt>
      <trkpt lat="45.98957" lon="6.30609">
        <ele>1580.85199872</ele>
        <time>2013-10-06T12:26:37Z</time>
      </trkpt>
      <trkpt lat="45.98937" lon="6.30607">
        <ele>1578.2648530964</ele>
        <time>2013-10-06T12:27:13Z</time>
      </trkpt>
      <trkpt lat="45.98939" lon="6.30592">
        <ele>1577.75499904</ele>
        <time>2013-10-06T12:27:18Z</time>
      </trkpt>
      <trkpt lat="45.98943" lon="6.30575">
        <ele>1577.24599936</ele>
        <time>2013-10-06T12:27:23Z</time>
      </trkpt>
      <trkpt lat="45.98946" lon="6.30559">
        <ele>1576.75599872</ele>
        <time>2013-10-06T12:27:28Z</time>
      </trkpt>
      <trkpt lat="45.98948" lon="6.30542">
        <ele>1576.256</ele>
        <time>2013-10-06T12:27:33Z</time>
      </trkpt>
      <trkpt lat="45.98951" lon="6.30527">
        <ele>1576</ele>
        <time>2013-10-06T12:27:37Z</time>
      </trkpt>
      <trkpt lat="45.98953" lon="6.3051">
        <ele>1576</ele>
        <time>2013-10-06T12:27:42Z</time>
      </trkpt>
      <trkpt lat="45.98954" lon="6.30494">
        <ele>1576</ele>
        <time>2013-10-06T12:27:47Z</time>
      </trkpt>
      <trkpt lat="45.98956" lon="6.30479">
        <ele>1576</ele>
        <time>2013-10-06T12:27:52Z</time>
      </trkpt>
      <trkpt lat="45.98959" lon="6.30463">
        <ele>1574.76</ele>
        <time>2013-10-06T12:27:58Z</time>
      </trkpt>
      <trkpt lat="45.98961" lon="6.30447">
        <ele>1572.2099968</ele>
        <time>2013-10-06T12:28:03Z</time>
      </trkpt>
      <trkpt lat="45.98963" lon="6.30431">
        <ele>1570.74199936</ele>
        <time>2013-10-06T12:28:08Z</time>
      </trkpt>
      <trkpt lat="45.98965" lon="6.30416">
        <ele>1570.24199936</ele>
        <time>2013-10-06T12:28:13Z</time>
      </trkpt>
      <trkpt lat="45.98966" lon="6.30402">
        <ele>1569.008</ele>
        <time>2013-10-06T12:28:18Z</time>
      </trkpt>
      <trkpt lat="45.9897" lon="6.30386">
        <ele>1566.608</ele>
        <time>2013-10-06T12:28:24Z</time>
      </trkpt>
      <trkpt lat="45.98975" lon="6.30372">
        <ele>1566</ele>
        <time>2013-10-06T12:28:30Z</time>
      </trkpt>
      <trkpt lat="45.98979" lon="6.30356">
        <ele>1565.17799424</ele>
        <time>2013-10-06T12:28:37Z</time>
      </trkpt>
      <trkpt lat="45.98984" lon="6.30343">
        <ele>1562.17799424</ele>
        <time>2013-10-06T12:28:42Z</time>
      </trkpt>
      <trkpt lat="45.98989" lon="6.3033">
        <ele>1559.72999936</ele>
        <time>2013-10-06T12:28:47Z</time>
      </trkpt>
      <trkpt lat="45.98999" lon="6.303">
        <ele>1557.22599808</ele>
        <time>2013-10-06T12:28:58Z</time>
      </trkpt>
      <trkpt lat="45.99002" lon="6.30284">
        <ele>1555.72599808</ele>
        <time>2013-10-06T12:29:03Z</time>
      </trkpt>
      <trkpt lat="45.99007" lon="6.3027">
        <ele>1554.75299968</ele>
        <time>2013-10-06T12:29:08Z</time>
      </trkpt>
      <trkpt lat="45.99009" lon="6.30255">
        <ele>1554.26299904</ele>
        <time>2013-10-06T12:29:13Z</time>
      </trkpt>
      <trkpt lat="45.99016" lon="6.30226">
        <ele>1553.25199872</ele>
        <time>2013-10-06T12:29:23Z</time>
      </trkpt>
      <trkpt lat="45.9902" lon="6.30212">
        <ele>1552.53199872</ele>
        <time>2013-10-06T12:29:28Z</time>
      </trkpt>
      <trkpt lat="45.99023" lon="6.302">
        <ele>1551.73199872</ele>
        <time>2013-10-06T12:29:32Z</time>
      </trkpt>
      <trkpt lat="45.99028" lon="6.30186">
        <ele>1550</ele>
        <time>2013-10-06T12:29:51Z</time>
      </trkpt>
      <trkpt lat="45.99034" lon="6.30171">
        <ele>1549.9616555027</ele>
        <time>2013-10-06T12:29:56Z</time>
      </trkpt>
      <trkpt lat="45.99038" lon="6.30158">
        <ele>1549.5580224175</ele>
        <time>2013-10-06T12:30:00Z</time>
      </trkpt>
      <trkpt lat="45.99041" lon="6.30145">
        <ele>1549.1543893322</ele>
        <time>2013-10-06T12:30:04Z</time>
      </trkpt>
      <trkpt lat="45.99048" lon="6.30132">
        <ele>1549</ele>
        <time>2013-10-06T12:30:14Z</time>
      </trkpt>
      <trkpt lat="45.99053" lon="6.30119">
        <ele>1548.08399872</ele>
        <time>2013-10-06T12:30:20Z</time>
      </trkpt>
      <trkpt lat="45.99059" lon="6.30105">
        <ele>1546.73599232</ele>
        <time>2013-10-06T12:30:26Z</time>
      </trkpt>
      <trkpt lat="45.99066" lon="6.30095">
        <ele>1543.13599232</ele>
        <time>2013-10-06T12:30:32Z</time>
      </trkpt>
      <trkpt lat="45.99075" lon="6.30084">
        <ele>1540.136</ele>
        <time>2013-10-06T12:30:37Z</time>
      </trkpt>
      <trkpt lat="45.99082" lon="6.30072">
        <ele>1537.13599232</ele>
        <time>2013-10-06T12:30:42Z</time>
      </trkpt>
      <trkpt lat="45.99089" lon="6.30063">
        <ele>1533.25699328</ele>
        <time>2013-10-06T12:30:48Z</time>
      </trkpt>
      <trkpt lat="45.99099" lon="6.30054">
        <ele>1529.064</ele>
        <time>2013-10-06T12:30:54Z</time>
      </trkpt>
      <trkpt lat="45.99116" lon="6.30031">
        <ele>1521.808</ele>
        <time>2013-10-06T12:31:06Z</time>
      </trkpt>
      <trkpt lat="45.99123" lon="6.30021">
        <ele>1519.80799488</ele>
        <time>2013-10-06T12:31:11Z</time>
      </trkpt>
      <trkpt lat="45.9913" lon="6.30009">
        <ele>1517.7099968</ele>
        <time>2013-10-06T12:31:16Z</time>
      </trkpt>
      <trkpt lat="45.99136" lon="6.29997">
        <ele>1515.2099968</ele>
        <time>2013-10-06T12:31:21Z</time>
      </trkpt>
      <trkpt lat="45.99146" lon="6.2999">
        <ele>1512.26799616</ele>
        <time>2013-10-06T12:31:28Z</time>
      </trkpt>
      <trkpt lat="45.99155" lon="6.29982">
        <ele>1510.168</ele>
        <time>2013-10-06T12:31:35Z</time>
      </trkpt>
      <trkpt lat="45.9916" lon="6.2997">
        <ele>1510</ele>
        <time>2013-10-06T12:31:43Z</time>
      </trkpt>
      <trkpt lat="45.99168" lon="6.29958">
        <ele>1506.7099968</ele>
        <time>2013-10-06T12:31:52Z</time>
      </trkpt>
      <trkpt lat="45.99172" lon="6.29944">
        <ele>1502.7649984</ele>
        <time>2013-10-06T12:32:00Z</time>
      </trkpt>
      <trkpt lat="45.99176" lon="6.2993">
        <ele>1498.92599808</ele>
        <time>2013-10-06T12:32:09Z</time>
      </trkpt>
      <trkpt lat="45.9918" lon="6.29902">
        <ele>1492.8176302988</ele>
        <time>2013-10-06T12:32:26Z</time>
      </trkpt>
      <trkpt lat="45.9918" lon="6.29885">
        <ele>1489.9807481069</ele>
        <time>2013-10-06T12:32:33Z</time>
      </trkpt>
      <trkpt lat="45.99177" lon="6.29871">
        <ele>1486.9503431339</ele>
        <time>2013-10-06T12:32:38Z</time>
      </trkpt>
      <trkpt lat="45.99179" lon="6.29856">
        <ele>1483.7725884337</ele>
        <time>2013-10-06T12:32:42Z</time>
      </trkpt>
      <trkpt lat="45.99186" lon="6.29842">
        <ele>1480.7583029231</ele>
        <time>2013-10-06T12:32:46Z</time>
      </trkpt>
      <trkpt lat="45.99193" lon="6.29829">
        <ele>1477.5357439793</ele>
        <time>2013-10-06T12:32:50Z</time>
      </trkpt>
      <trkpt lat="45.99205" lon="6.29824">
        <ele>1474.3131850355</ele>
        <time>2013-10-06T12:32:54Z</time>
      </trkpt>
      <trkpt lat="45.99216" lon="6.29817">
        <ele>1471.2599936</ele>
        <time>2013-10-06T12:32:59Z</time>
      </trkpt>
      <trkpt lat="45.99224" lon="6.29809">
        <ele>1469.2599936</ele>
        <time>2013-10-06T12:33:03Z</time>
      </trkpt>
      <trkpt lat="45.99245" lon="6.29798">
        <ele>1464.28</ele>
        <time>2013-10-06T12:33:21Z</time>
      </trkpt>
      <trkpt lat="45.99256" lon="6.298">
        <ele>1461.712</ele>
        <time>2013-10-06T12:33:27Z</time>
      </trkpt>
      <trkpt lat="45.99266" lon="6.29801">
        <ele>1460.512</ele>
        <time>2013-10-06T12:33:33Z</time>
      </trkpt>
      <trkpt lat="45.99277" lon="6.298">
        <ele>1459.64199936</ele>
        <time>2013-10-06T12:33:39Z</time>
      </trkpt>
      <trkpt lat="45.99287" lon="6.29798">
        <ele>1459.05199872</ele>
        <time>2013-10-06T12:33:45Z</time>
      </trkpt>
      <trkpt lat="45.99296" lon="6.29799">
        <ele>1458.552</ele>
        <time>2013-10-06T12:33:50Z</time>
      </trkpt>
      <trkpt lat="45.99306" lon="6.29792">
        <ele>1457.8149952</ele>
        <time>2013-10-06T12:33:56Z</time>
      </trkpt>
      <trkpt lat="45.99317" lon="6.29787">
        <ele>1454.3149952</ele>
        <time>2013-10-06T12:34:03Z</time>
      </trkpt>
      <trkpt lat="45.99327" lon="6.29782">
        <ele>1452.30399744</ele>
        <time>2013-10-06T12:34:09Z</time>
      </trkpt>
      <trkpt lat="45.99337" lon="6.29776">
        <ele>1451.08399872</ele>
        <time>2013-10-06T12:34:15Z</time>
      </trkpt>
      <trkpt lat="45.99348" lon="6.2977">
        <ele>1449.68399872</ele>
        <time>2013-10-06T12:34:22Z</time>
      </trkpt>
      <trkpt lat="45.99357" lon="6.29763">
        <ele>1448.75599872</ele>
        <time>2013-10-06T12:34:28Z</time>
      </trkpt>
      <trkpt lat="45.99368" lon="6.29756">
        <ele>1448.15599872</ele>
        <time>2013-10-06T12:34:34Z</time>
      </trkpt>
      <trkpt lat="45.99377" lon="6.2975">
        <ele>1446.88399872</ele>
        <time>2013-10-06T12:34:41Z</time>
      </trkpt>
      <trkpt lat="45.99386" lon="6.29741">
        <ele>1445.45199616</ele>
        <time>2013-10-06T12:34:47Z</time>
      </trkpt>
      <trkpt lat="45.99396" lon="6.29733">
        <ele>1443.05199616</ele>
        <time>2013-10-06T12:34:53Z</time>
      </trkpt>
      <trkpt lat="45.99414" lon="6.29725">
        <ele>1441.352</ele>
        <time>2013-10-06T12:35:02Z</time>
      </trkpt>
      <trkpt lat="45.9942" lon="6.29719">
        <ele>1440.952</ele>
        <time>2013-10-06T12:35:06Z</time>
      </trkpt>
      <trkpt lat="45.99427" lon="6.29708">
        <ele>1440.34199936</ele>
        <time>2013-10-06T12:35:12Z</time>
      </trkpt>
      <trkpt lat="45.99442" lon="6.29687">
        <ele>1436.28</ele>
        <time>2013-10-06T12:35:23Z</time>
      </trkpt>
      <trkpt lat="45.99449" lon="6.29677">
        <ele>1435</ele>
        <time>2013-10-06T12:35:29Z</time>
      </trkpt>
      <trkpt lat="45.99455" lon="6.29665">
        <ele>1435</ele>
        <time>2013-10-06T12:35:35Z</time>
      </trkpt>
      <trkpt lat="45.99462" lon="6.29652">
        <ele>1433.3897246774</ele>
        <time>2013-10-06T12:35:41Z</time>
      </trkpt>
      <trkpt lat="45.9947" lon="6.29641">
        <ele>1432</ele>
        <time>2013-10-06T12:35:47Z</time>
      </trkpt>
      <trkpt lat="45.99478" lon="6.29631">
        <ele>1432</ele>
        <time>2013-10-06T12:35:55Z</time>
      </trkpt>
      <trkpt lat="45.99486" lon="6.29619">
        <ele>1432</ele>
        <time>2013-10-06T12:36:01Z</time>
      </trkpt>
      <trkpt lat="45.99493" lon="6.29608">
        <ele>1431.84199936</ele>
        <time>2013-10-06T12:36:07Z</time>
      </trkpt>
      <trkpt lat="45.99501" lon="6.29599">
        <ele>1431.352</ele>
        <time>2013-10-06T12:36:12Z</time>
      </trkpt>
      <trkpt lat="45.99512" lon="6.29592">
        <ele>1430.19599616</ele>
        <time>2013-10-06T12:36:17Z</time>
      </trkpt>
      <trkpt lat="45.99521" lon="6.2959">
        <ele>1427.19599616</ele>
        <time>2013-10-06T12:36:22Z</time>
      </trkpt>
      <trkpt lat="45.99532" lon="6.2959">
        <ele>1424.70199808</ele>
        <time>2013-10-06T12:36:27Z</time>
      </trkpt>
      <trkpt lat="45.99543" lon="6.29586">
        <ele>1423.50399744</ele>
        <time>2013-10-06T12:36:33Z</time>
      </trkpt>
      <trkpt lat="45.99555" lon="6.29585">
        <ele>1421.02599808</ele>
        <time>2013-10-06T12:36:42Z</time>
      </trkpt>
      <trkpt lat="45.99565" lon="6.29584">
        <ele>1420</ele>
        <time>2013-10-06T12:36:50Z</time>
      </trkpt>
      <trkpt lat="45.99572" lon="6.29573">
        <ele>1417.72599808</ele>
        <time>2013-10-06T12:37:03Z</time>
      </trkpt>
      <trkpt lat="45.99577" lon="6.29558">
        <ele>1416.56599936</ele>
        <time>2013-10-06T12:37:10Z</time>
      </trkpt>
      <trkpt lat="45.99581" lon="6.29541">
        <ele>1416.06599936</ele>
        <time>2013-10-06T12:37:15Z</time>
      </trkpt>
      <trkpt lat="45.99586" lon="6.29529">
        <ele>1415.504</ele>
        <time>2013-10-06T12:37:18Z</time>
      </trkpt>
      <trkpt lat="45.99599" lon="6.29501">
        <ele>1413.19599616</ele>
        <time>2013-10-06T12:37:27Z</time>
      </trkpt>
      <trkpt lat="45.99608" lon="6.29496">
        <ele>1410.19599616</ele>
        <time>2013-10-06T12:37:32Z</time>
      </trkpt>
      <trkpt lat="45.99621" lon="6.29478">
        <ele>1403.38899712</ele>
        <time>2013-10-06T12:38:01Z</time>
      </trkpt>
      <trkpt lat="45.99625" lon="6.29465">
        <ele>1401.96299904</ele>
        <time>2013-10-06T12:38:06Z</time>
      </trkpt>
      <trkpt lat="45.99623" lon="6.29448">
        <ele>1401.46299904</ele>
        <time>2013-10-06T12:38:11Z</time>
      </trkpt>
      <trkpt lat="45.99623" lon="6.2943">
        <ele>1400.6782485233</ele>
        <time>2013-10-06T12:38:16Z</time>
      </trkpt>
      <trkpt lat="45.99623" lon="6.29415">
        <ele>1397.1032744855</ele>
        <time>2013-10-06T12:38:22Z</time>
      </trkpt>
      <trkpt lat="45.9962" lon="6.29401">
        <ele>1394.0332323168</ele>
        <time>2013-10-06T12:38:28Z</time>
      </trkpt>
      <trkpt lat="45.9962" lon="6.29385">
        <ele>1392.019132977</ele>
        <time>2013-10-06T12:38:33Z</time>
      </trkpt>
      <trkpt lat="45.99618" lon="6.2937">
        <ele>1390.256</ele>
        <time>2013-10-06T12:38:38Z</time>
      </trkpt>
      <trkpt lat="45.99618" lon="6.29355">
        <ele>1388.456</ele>
        <time>2013-10-06T12:38:44Z</time>
      </trkpt>
      <trkpt lat="45.99618" lon="6.29339">
        <ele>1386.95599616</ele>
        <time>2013-10-06T12:38:49Z</time>
      </trkpt>
      <trkpt lat="45.9962" lon="6.29322">
        <ele>1385.456</ele>
        <time>2013-10-06T12:38:54Z</time>
      </trkpt>
      <trkpt lat="45.99627" lon="6.29308">
        <ele>1384.504</ele>
        <time>2013-10-06T12:38:58Z</time>
      </trkpt>
      <trkpt lat="45.99632" lon="6.29296">
        <ele>1383.704</ele>
        <time>2013-10-06T12:39:02Z</time>
      </trkpt>
      <trkpt lat="45.99639" lon="6.29283">
        <ele>1382.85499904</ele>
        <time>2013-10-06T12:39:07Z</time>
      </trkpt>
      <trkpt lat="45.99643" lon="6.2927">
        <ele>1382.25499904</ele>
        <time>2013-10-06T12:39:13Z</time>
      </trkpt>
      <trkpt lat="45.99647" lon="6.29256">
        <ele>1379.57099776</ele>
        <time>2013-10-06T12:39:19Z</time>
      </trkpt>
      <trkpt lat="45.99647" lon="6.29241">
        <ele>1376.07099776</ele>
        <time>2013-10-06T12:39:24Z</time>
      </trkpt>
      <trkpt lat="45.99652" lon="6.29211">
        <ele>1372.72599808</ele>
        <time>2013-10-06T12:39:33Z</time>
      </trkpt>
      <trkpt lat="45.99649" lon="6.29196">
        <ele>1371.26799616</ele>
        <time>2013-10-06T12:39:38Z</time>
      </trkpt>
      <trkpt lat="45.99647" lon="6.2918">
        <ele>1369.168</ele>
        <time>2013-10-06T12:39:45Z</time>
      </trkpt>
      <trkpt lat="45.99642" lon="6.29166">
        <ele>1369</ele>
        <time>2013-10-06T12:39:51Z</time>
      </trkpt>
      <trkpt lat="45.99639" lon="6.29151">
        <ele>1369</ele>
        <time>2013-10-06T12:39:55Z</time>
      </trkpt>
      <trkpt lat="45.99639" lon="6.29134">
        <ele>1367.60799488</ele>
        <time>2013-10-06T12:39:59Z</time>
      </trkpt>
      <trkpt lat="45.99636" lon="6.29117">
        <ele>1365.96799744</ele>
        <time>2013-10-06T12:40:03Z</time>
      </trkpt>
      <trkpt lat="45.99632" lon="6.29103">
        <ele>1364.2749952</ele>
        <time>2013-10-06T12:40:07Z</time>
      </trkpt>
      <trkpt lat="45.99622" lon="6.29072">
        <ele>1360.3249984</ele>
        <time>2013-10-06T12:40:15Z</time>
      </trkpt>
      <trkpt lat="45.99617" lon="6.29057">
        <ele>1358.60799488</ele>
        <time>2013-10-06T12:40:19Z</time>
      </trkpt>
      <trkpt lat="45.99613" lon="6.29041">
        <ele>1356.608</ele>
        <time>2013-10-06T12:40:24Z</time>
      </trkpt>
      <trkpt lat="45.99608" lon="6.29026">
        <ele>1354.97999616</ele>
        <time>2013-10-06T12:40:29Z</time>
      </trkpt>
      <trkpt lat="45.99606" lon="6.29009">
        <ele>1353.17999616</ele>
        <time>2013-10-06T12:40:35Z</time>
      </trkpt>
      <trkpt lat="45.996" lon="6.28995">
        <ele>1352.54199936</ele>
        <time>2013-10-06T12:40:40Z</time>
      </trkpt>
      <trkpt lat="45.99594" lon="6.2898">
        <ele>1352.04199936</ele>
        <time>2013-10-06T12:40:45Z</time>
      </trkpt>
      <trkpt lat="45.9959" lon="6.28966">
        <ele>1350.68399872</ele>
        <time>2013-10-06T12:40:52Z</time>
      </trkpt>
      <trkpt lat="45.99582" lon="6.28955">
        <ele>1348.98399744</ele>
        <time>2013-10-06T12:40:58Z</time>
      </trkpt>
      <trkpt lat="45.99574" lon="6.28941">
        <ele>1347.024</ele>
        <time>2013-10-06T12:41:03Z</time>
      </trkpt>
      <trkpt lat="45.99569" lon="6.28927">
        <ele>1345.7338617728</ele>
        <time>2013-10-06T12:41:07Z</time>
      </trkpt>
      <trkpt lat="45.99568" lon="6.28896">
        <ele>1343.9697878654</ele>
        <time>2013-10-06T12:41:16Z</time>
      </trkpt>
      <trkpt lat="45.99574" lon="6.28882">
        <ele>1343.5669679974</ele>
        <time>2013-10-06T12:41:20Z</time>
      </trkpt>
      <trkpt lat="45.99583" lon="6.2887">
        <ele>1343.0634431624</ele>
        <time>2013-10-06T12:41:25Z</time>
      </trkpt>
      <trkpt lat="45.9959" lon="6.28855">
        <ele>1342.552</ele>
        <time>2013-10-06T12:41:30Z</time>
      </trkpt>
      <trkpt lat="45.99598" lon="6.28844">
        <ele>1342.24199936</ele>
        <time>2013-10-06T12:41:33Z</time>
      </trkpt>
      <trkpt lat="45.99606" lon="6.28829">
        <ele>1341.48399872</ele>
        <time>2013-10-06T12:41:38Z</time>
      </trkpt>
      <trkpt lat="45.99613" lon="6.28817">
        <ele>1340.68399872</ele>
        <time>2013-10-06T12:41:42Z</time>
      </trkpt>
      <trkpt lat="45.99616" lon="6.28802">
        <ele>1339.68399872</ele>
        <time>2013-10-06T12:41:47Z</time>
      </trkpt>
      <trkpt lat="45.99616" lon="6.28788">
        <ele>1338.48399872</ele>
        <time>2013-10-06T12:41:53Z</time>
      </trkpt>
      <trkpt lat="45.99615" lon="6.28773">
        <ele>1337.54599936</ele>
        <time>2013-10-06T12:41:58Z</time>
      </trkpt>
      <trkpt lat="45.9962" lon="6.28757">
        <ele>1336.74599936</ele>
        <time>2013-10-06T12:42:02Z</time>
      </trkpt>
      <trkpt lat="45.99622" lon="6.28743">
        <ele>1336</ele>
        <time>2013-10-06T12:42:09Z</time>
      </trkpt>
      <trkpt lat="45.99628" lon="6.2873">
        <ele>1335.91199744</ele>
        <time>2013-10-06T12:42:16Z</time>
      </trkpt>
      <trkpt lat="45.9963" lon="6.28713">
        <ele>1334.912</ele>
        <time>2013-10-06T12:42:21Z</time>
      </trkpt>
      <trkpt lat="45.99629" lon="6.28681">
        <ele>1330.75999232</ele>
        <time>2013-10-06T12:42:31Z</time>
      </trkpt>
      <trkpt lat="45.99624" lon="6.28667">
        <ele>1327.82599808</ele>
        <time>2013-10-06T12:42:36Z</time>
      </trkpt>
      <trkpt lat="45.99617" lon="6.28651">
        <ele>1326.02599808</ele>
        <time>2013-10-06T12:42:42Z</time>
      </trkpt>
      <trkpt lat="45.99612" lon="6.28637">
        <ele>1325</ele>
        <time>2013-10-06T12:42:46Z</time>
      </trkpt>
      <trkpt lat="45.99606" lon="6.28624">
        <ele>1325</ele>
        <time>2013-10-06T12:42:50Z</time>
      </trkpt>
      <trkpt lat="45.99593" lon="6.28599">
        <ele>1323.21999616</ele>
        <time>2013-10-06T12:43:00Z</time>
      </trkpt>
      <trkpt lat="45.9959" lon="6.28585">
        <ele>1321.61999616</ele>
        <time>2013-10-06T12:43:04Z</time>
      </trkpt>
      <trkpt lat="45.99585" lon="6.2857">
        <ele>1320.24199936</ele>
        <time>2013-10-06T12:43:13Z</time>
      </trkpt>
      <trkpt lat="45.99581" lon="6.28555">
        <ele>1319.30599936</ele>
        <time>2013-10-06T12:43:19Z</time>
      </trkpt>
      <trkpt lat="45.99579" lon="6.28541">
        <ele>1318.32599808</ele>
        <time>2013-10-06T12:43:24Z</time>
      </trkpt>
      <trkpt lat="45.99575" lon="6.28525">
        <ele>1318</ele>
        <time>2013-10-06T12:43:30Z</time>
      </trkpt>
      <trkpt lat="45.99569" lon="6.28509">
        <ele>1318</ele>
        <time>2013-10-06T12:43:35Z</time>
      </trkpt>
      <trkpt lat="45.99564" lon="6.28497">
        <ele>1318</ele>
        <time>2013-10-06T12:43:39Z</time>
      </trkpt>
      <trkpt lat="45.99559" lon="6.28482">
        <ele>1318</ele>
        <time>2013-10-06T12:43:43Z</time>
      </trkpt>
      <trkpt lat="45.99554" lon="6.28467">
        <ele>1317.85199872</ele>
        <time>2013-10-06T12:43:47Z</time>
      </trkpt>
      <trkpt lat="45.99551" lon="6.28452">
        <ele>1317.45199872</ele>
        <time>2013-10-06T12:43:51Z</time>
      </trkpt>
      <trkpt lat="45.99548" lon="6.28437">
        <ele>1317.05199872</ele>
        <time>2013-10-06T12:43:55Z</time>
      </trkpt>
      <trkpt lat="45.99544" lon="6.28421">
        <ele>1314.7799822906</ele>
        <time>2013-10-06T12:44:00Z</time>
      </trkpt>
      <trkpt lat="45.99538" lon="6.28406">
        <ele>1312.3022776113</ele>
        <time>2013-10-06T12:44:05Z</time>
      </trkpt>
      <trkpt lat="45.99535" lon="6.2839">
        <ele>1312.5428858539</ele>
        <time>2013-10-06T12:44:11Z</time>
      </trkpt>
      <trkpt lat="45.99533" lon="6.28376">
        <ele>1313</ele>
        <time>2013-10-06T12:44:17Z</time>
      </trkpt>
      <trkpt lat="45.99529" lon="6.28362">
        <ele>1313</ele>
        <time>2013-10-06T12:44:24Z</time>
      </trkpt>
      <trkpt lat="45.99526" lon="6.28347">
        <ele>1313</ele>
        <time>2013-10-06T12:44:32Z</time>
      </trkpt>
      <trkpt lat="45.99521" lon="6.28334">
        <ele>1313</ele>
        <time>2013-10-06T12:44:38Z</time>
      </trkpt>
      <trkpt lat="45.99502" lon="6.28295">
        <ele>1311.7422256344</ele>
        <time>2013-10-06T12:44:52Z</time>
      </trkpt>
      <trkpt lat="45.99495" lon="6.28284">
        <ele>1311.47400192</ele>
        <time>2013-10-06T12:44:58Z</time>
      </trkpt>
      <trkpt lat="45.99487" lon="6.28274">
        <ele>1312.47400192</ele>
        <time>2013-10-06T12:45:03Z</time>
      </trkpt>
      <trkpt lat="45.99481" lon="6.28261">
        <ele>1313</ele>
        <time>2013-10-06T12:45:08Z</time>
      </trkpt>
      <trkpt lat="45.99473" lon="6.28249">
        <ele>1313</ele>
        <time>2013-10-06T12:45:14Z</time>
      </trkpt>
      <trkpt lat="45.9947" lon="6.28235">
        <ele>1314.11800064</ele>
        <time>2013-10-06T12:45:21Z</time>
      </trkpt>
      <trkpt lat="45.99467" lon="6.28219">
        <ele>1315.44900096</ele>
        <time>2013-10-06T12:45:30Z</time>
      </trkpt>
      <trkpt lat="45.99466" lon="6.28204">
        <ele>1316.23700096</ele>
        <time>2013-10-06T12:45:38Z</time>
      </trkpt>
      <trkpt lat="45.99466" lon="6.28197">
        <ele>1316.63700096</ele>
        <time>2013-10-06T12:45:42Z</time>
      </trkpt>
      <trkpt lat="45.99465" lon="6.28183">
        <ele>1318.51600128</ele>
        <time>2013-10-06T12:45:53Z</time>
      </trkpt>
      <trkpt lat="45.99462" lon="6.2817">
        <ele>1321.176</ele>
        <time>2013-10-06T12:46:01Z</time>
      </trkpt>
      <trkpt lat="45.99459" lon="6.28154">
        <ele>1323</ele>
        <time>2013-10-06T12:46:07Z</time>
      </trkpt>
      <trkpt lat="45.99455" lon="6.2814">
        <ele>1323</ele>
        <time>2013-10-06T12:46:13Z</time>
      </trkpt>
      <trkpt lat="45.99454" lon="6.28125">
        <ele>1321.90399744</ele>
        <time>2013-10-06T12:46:21Z</time>
      </trkpt>
      <trkpt lat="45.99456" lon="6.28112">
        <ele>1321</ele>
        <time>2013-10-06T12:46:28Z</time>
      </trkpt>
      <trkpt lat="45.99456" lon="6.28096">
        <ele>1321.31600128</ele>
        <time>2013-10-06T12:46:37Z</time>
      </trkpt>
      <trkpt lat="45.99454" lon="6.28082">
        <ele>1322.71600128</ele>
        <time>2013-10-06T12:46:44Z</time>
      </trkpt>
      <trkpt lat="45.99452" lon="6.28068">
        <ele>1323</ele>
        <time>2013-10-06T12:46:49Z</time>
      </trkpt>
      <trkpt lat="45.99449" lon="6.28053">
        <ele>1323</ele>
        <time>2013-10-06T12:46:54Z</time>
      </trkpt>
      <trkpt lat="45.99447" lon="6.28026">
        <ele>1320.93199872</ele>
        <time>2013-10-06T12:47:06Z</time>
      </trkpt>
      <trkpt lat="45.99445" lon="6.2801">
        <ele>1319.33199872</ele>
        <time>2013-10-06T12:47:14Z</time>
      </trkpt>
      <trkpt lat="45.99441" lon="6.27995">
        <ele>1317.2549952</ele>
        <time>2013-10-06T12:47:19Z</time>
      </trkpt>
      <trkpt lat="45.99437" lon="6.27983">
        <ele>1315.2599936</ele>
        <time>2013-10-06T12:47:23Z</time>
      </trkpt>
      <trkpt lat="45.99434" lon="6.2797">
        <ele>1314</ele>
        <time>2013-10-06T12:47:27Z</time>
      </trkpt>
      <trkpt lat="45.99433" lon="6.27955">
        <ele>1314</ele>
        <time>2013-10-06T12:47:33Z</time>
      </trkpt>
      <trkpt lat="45.99436" lon="6.2793">
        <ele>1310.2599936</ele>
        <time>2013-10-06T12:47:43Z</time>
      </trkpt>
      <trkpt lat="45.99436" lon="6.27913">
        <ele>1308.32999936</ele>
        <time>2013-10-06T12:47:49Z</time>
      </trkpt>
      <trkpt lat="45.99437" lon="6.279">
        <ele>1307.32999936</ele>
        <time>2013-10-06T12:47:54Z</time>
      </trkpt>
      <trkpt lat="45.99437" lon="6.27886">
        <ele>1306.54199936</ele>
        <time>2013-10-06T12:48:00Z</time>
      </trkpt>
      <trkpt lat="45.99439" lon="6.27872">
        <ele>1306.04199936</ele>
        <time>2013-10-06T12:48:05Z</time>
      </trkpt>
      <trkpt lat="45.99441" lon="6.27864">
        <ele>1304.048</ele>
        <time>2013-10-06T12:48:26Z</time>
      </trkpt>
      <trkpt lat="45.99437" lon="6.27852">
        <ele>1304.86599936</ele>
        <time>2013-10-06T12:48:37Z</time>
      </trkpt>
      <trkpt lat="45.99437" lon="6.27837">
        <ele>1304.36599936</ele>
        <time>2013-10-06T12:48:42Z</time>
      </trkpt>
      <trkpt lat="45.99438" lon="6.27822">
        <ele>1303.328</ele>
        <time>2013-10-06T12:48:49Z</time>
      </trkpt>
      <trkpt lat="45.99436" lon="6.27807">
        <ele>1302.13199872</ele>
        <time>2013-10-06T12:48:55Z</time>
      </trkpt>
      <trkpt lat="45.99436" lon="6.2779">
        <ele>1299.312</ele>
        <time>2013-10-06T12:49:00Z</time>
      </trkpt>
      <trkpt lat="45.99436" lon="6.27774">
        <ele>1296.25199616</ele>
        <time>2013-10-06T12:49:05Z</time>
      </trkpt>
      <trkpt lat="45.99441" lon="6.27759">
        <ele>1295.54199936</ele>
        <time>2013-10-06T12:49:10Z</time>
      </trkpt>
      <trkpt lat="45.99451" lon="6.27731">
        <ele>1293.16799744</ele>
        <time>2013-10-06T12:49:20Z</time>
      </trkpt>
      <trkpt lat="45.99452" lon="6.27717">
        <ele>1291.16799744</ele>
        <time>2013-10-06T12:49:25Z</time>
      </trkpt>
      <trkpt lat="45.99452" lon="6.277">
        <ele>1288.781650957</ele>
        <time>2013-10-06T12:49:30Z</time>
      </trkpt>
      <trkpt lat="45.9945" lon="6.27683">
        <ele>1286.2891293195</ele>
        <time>2013-10-06T12:49:35Z</time>
      </trkpt>
      <trkpt lat="45.9945" lon="6.27667">
        <ele>1284.6822680478</ele>
        <time>2013-10-06T12:49:40Z</time>
      </trkpt>
      <trkpt lat="45.99458" lon="6.27656">
        <ele>1282.9597180132</ele>
        <time>2013-10-06T12:49:46Z</time>
      </trkpt>
      <trkpt lat="45.99466" lon="6.27648">
        <ele>1282.3554882112</ele>
        <time>2013-10-06T12:49:52Z</time>
      </trkpt>
      <trkpt lat="45.99477" lon="6.27644">
        <ele>1280.29199872</ele>
        <time>2013-10-06T12:50:00Z</time>
      </trkpt>
      <trkpt lat="45.99487" lon="6.27639">
        <ele>1278.29199872</ele>
        <time>2013-10-06T12:50:05Z</time>
      </trkpt>
      <trkpt lat="45.99477" lon="6.27634">
        <ele>1271.96799744</ele>
        <time>2013-10-06T12:50:23Z</time>
      </trkpt>
      <trkpt lat="45.99469" lon="6.27627">
        <ele>1270.2351769357</ele>
        <time>2013-10-06T12:50:28Z</time>
      </trkpt>
      <trkpt lat="45.99458" lon="6.27619">
        <ele>1268.7529653717</ele>
        <time>2013-10-06T12:50:33Z</time>
      </trkpt>
      <trkpt lat="45.99438" lon="6.27611">
        <ele>1263.424</ele>
        <time>2013-10-06T12:50:47Z</time>
      </trkpt>
      <trkpt lat="45.99428" lon="6.27603">
        <ele>1261.42399488</ele>
        <time>2013-10-06T12:50:52Z</time>
      </trkpt>
      <trkpt lat="45.99422" lon="6.27591">
        <ele>1259.2599936</ele>
        <time>2013-10-06T12:50:57Z</time>
      </trkpt>
      <trkpt lat="45.99421" lon="6.27576">
        <ele>1256.2649984</ele>
        <time>2013-10-06T12:51:03Z</time>
      </trkpt>
      <trkpt lat="45.99423" lon="6.2756">
        <ele>1253.45199616</ele>
        <time>2013-10-06T12:51:08Z</time>
      </trkpt>
      <trkpt lat="45.99417" lon="6.27549">
        <ele>1249.85199616</ele>
        <time>2013-10-06T12:51:14Z</time>
      </trkpt>
      <trkpt lat="45.99412" lon="6.27538">
        <ele>1248.48399872</ele>
        <time>2013-10-06T12:51:18Z</time>
      </trkpt>
      <trkpt lat="45.99405" lon="6.27509">
        <ele>1246.74199936</ele>
        <time>2013-10-06T12:51:28Z</time>
      </trkpt>
      <trkpt lat="45.99407" lon="6.27493">
        <ele>1246.34199936</ele>
        <time>2013-10-06T12:51:32Z</time>
      </trkpt>
      <trkpt lat="45.99408" lon="6.27478">
        <ele>1240.792</ele>
        <time>2013-10-06T12:51:43Z</time>
      </trkpt>
      <trkpt lat="45.994" lon="6.27468">
        <ele>1234.51799808</ele>
        <time>2013-10-06T12:51:53Z</time>
      </trkpt>
      <trkpt lat="45.99398" lon="6.27454">
        <ele>1229.71199232</ele>
        <time>2013-10-06T12:52:01Z</time>
      </trkpt>
      <trkpt lat="45.99393" lon="6.2744">
        <ele>1225.3149952</ele>
        <time>2013-10-06T12:52:09Z</time>
      </trkpt>
      <trkpt lat="45.99388" lon="6.27426">
        <ele>1221.2599936</ele>
        <time>2013-10-06T12:52:17Z</time>
      </trkpt>
      <trkpt lat="45.99384" lon="6.27413">
        <ele>1219.2599936</ele>
        <time>2013-10-06T12:52:21Z</time>
      </trkpt>
      <trkpt lat="45.9938" lon="6.27398">
        <ele>1216.559082722</ele>
        <time>2013-10-06T12:52:27Z</time>
      </trkpt>
      <trkpt lat="45.99374" lon="6.27385">
        <ele>1215.0695140196</ele>
        <time>2013-10-06T12:52:32Z</time>
      </trkpt>
      <trkpt lat="45.99364" lon="6.27381">
        <ele>1214</ele>
        <time>2013-10-06T12:52:38Z</time>
      </trkpt>
      <trkpt lat="45.99353" lon="6.27385">
        <ele>1214</ele>
        <time>2013-10-06T12:52:45Z</time>
      </trkpt>
      <trkpt lat="45.99345" lon="6.27396">
        <ele>1214</ele>
        <time>2013-10-06T12:52:51Z</time>
      </trkpt>
      <trkpt lat="45.99335" lon="6.27401">
        <ele>1213.52599808</ele>
        <time>2013-10-06T12:52:57Z</time>
      </trkpt>
      <trkpt lat="45.99326" lon="6.27411">
        <ele>1211.72599808</ele>
        <time>2013-10-06T12:53:03Z</time>
      </trkpt>
      <trkpt lat="45.99317" lon="6.27415">
        <ele>1209.7099968</ele>
        <time>2013-10-06T12:53:08Z</time>
      </trkpt>
      <trkpt lat="45.99309" lon="6.27421">
        <ele>1206.7099968</ele>
        <time>2013-10-06T12:53:14Z</time>
      </trkpt>
      <trkpt lat="45.99307" lon="6.27433">
        <ele>1202.71199232</ele>
        <time>2013-10-06T12:53:21Z</time>
      </trkpt>
      <trkpt lat="45.99301" lon="6.27444">
        <ele>1197</ele>
        <time>2013-10-06T12:53:38Z</time>
      </trkpt>
      <trkpt lat="45.99296" lon="6.2745">
        <ele>1187.69199872</ele>
        <time>2013-10-06T12:54:04Z</time>
      </trkpt>
      <trkpt lat="45.99299" lon="6.27459">
        <ele>1186.65199872</ele>
        <time>2013-10-06T12:54:09Z</time>
      </trkpt>
      <trkpt lat="45.99304" lon="6.27473">
        <ele>1185.5612615826</ele>
        <time>2013-10-06T12:54:17Z</time>
      </trkpt>
      <trkpt lat="45.99306" lon="6.27486">
        <ele>1183.4861691875</ele>
        <time>2013-10-06T12:54:24Z</time>
      </trkpt>
      <trkpt lat="45.99307" lon="6.27502">
        <ele>1182.1720643525</ele>
        <time>2013-10-06T12:54:34Z</time>
      </trkpt>
      <trkpt lat="45.99307" lon="6.27517">
        <ele>1177.57799424</ele>
        <time>2013-10-06T12:54:43Z</time>
      </trkpt>
      <trkpt lat="45.99304" lon="6.27532">
        <ele>1172.112</ele>
        <time>2013-10-06T12:54:52Z</time>
      </trkpt>
      <trkpt lat="45.99303" lon="6.27548">
        <ele>1168.76</ele>
        <time>2013-10-06T12:54:58Z</time>
      </trkpt>
      <trkpt lat="45.99301" lon="6.27564">
        <ele>1165.76</ele>
        <time>2013-10-06T12:55:04Z</time>
      </trkpt>
      <trkpt lat="45.99298" lon="6.27579">
        <ele>1163.368</ele>
        <time>2013-10-06T12:55:11Z</time>
      </trkpt>
      <trkpt lat="45.99295" lon="6.27594">
        <ele>1161.2702111115</ele>
        <time>2013-10-06T12:55:17Z</time>
      </trkpt>
      <trkpt lat="45.99299" lon="6.2761">
        <ele>1158.8047357446</ele>
        <time>2013-10-06T12:55:22Z</time>
      </trkpt>
      <trkpt lat="45.99297" lon="6.27627">
        <ele>1155.5821511284</ele>
        <time>2013-10-06T12:55:28Z</time>
      </trkpt>
      <trkpt lat="45.99298" lon="6.27642">
        <ele>1151.9310331398</ele>
        <time>2013-10-06T12:55:34Z</time>
      </trkpt>
      <trkpt lat="45.99301" lon="6.27658">
        <ele>1149.7099968</ele>
        <time>2013-10-06T12:55:38Z</time>
      </trkpt>
      <trkpt lat="45.99299" lon="6.27673">
        <ele>1146.7099968</ele>
        <time>2013-10-06T12:55:44Z</time>
      </trkpt>
      <trkpt lat="45.99295" lon="6.27686">
        <ele>1144.92599808</ele>
        <time>2013-10-06T12:55:49Z</time>
      </trkpt>
      <trkpt lat="45.99287" lon="6.27695">
        <ele>1142.88399872</ele>
        <time>2013-10-06T12:55:56Z</time>
      </trkpt>
      <trkpt lat="45.99278" lon="6.27704">
        <ele>1141.704</ele>
        <time>2013-10-06T12:56:02Z</time>
      </trkpt>
      <trkpt lat="45.99263" lon="6.27726">
        <ele>1141</ele>
        <time>2013-10-06T12:56:12Z</time>
      </trkpt>
      <trkpt lat="45.99255" lon="6.27737">
        <ele>1141</ele>
        <time>2013-10-06T12:56:17Z</time>
      </trkpt>
      <trkpt lat="45.99245" lon="6.27746">
        <ele>1141</ele>
        <time>2013-10-06T12:56:22Z</time>
      </trkpt>
      <trkpt lat="45.99237" lon="6.27756">
        <ele>1139.90399232</ele>
        <time>2013-10-06T12:56:27Z</time>
      </trkpt>
      <trkpt lat="45.99226" lon="6.27778">
        <ele>1133.50399232</ele>
        <time>2013-10-06T12:56:35Z</time>
      </trkpt>
      <trkpt lat="45.99219" lon="6.27793">
        <ele>1128.52799744</ele>
        <time>2013-10-06T12:56:41Z</time>
      </trkpt>
      <trkpt lat="45.99213" lon="6.27807">
        <ele>1123.29199104</ele>
        <time>2013-10-06T12:56:48Z</time>
      </trkpt>
      <trkpt lat="45.99207" lon="6.27821">
        <ele>1119.09199104</ele>
        <time>2013-10-06T12:56:54Z</time>
      </trkpt>
      <trkpt lat="45.99201" lon="6.27834">
        <ele>1116.2599936</ele>
        <time>2013-10-06T12:56:59Z</time>
      </trkpt>
      <trkpt lat="45.99197" lon="6.27848">
        <ele>1113.2099968</ele>
        <time>2013-10-06T12:57:05Z</time>
      </trkpt>
      <trkpt lat="45.99193" lon="6.27864">
        <ele>1110.78399744</ele>
        <time>2013-10-06T12:57:11Z</time>
      </trkpt>
      <trkpt lat="45.99184" lon="6.27874">
        <ele>1107.89399552</ele>
        <time>2013-10-06T12:57:17Z</time>
      </trkpt>
      <trkpt lat="45.99174" lon="6.27882">
        <ele>1105.09399552</ele>
        <time>2013-10-06T12:57:21Z</time>
      </trkpt>
      <trkpt lat="45.99164" lon="6.27888">
        <ele>1101.3149952</ele>
        <time>2013-10-06T12:57:27Z</time>
      </trkpt>
      <trkpt lat="45.99154" lon="6.27893">
        <ele>1099.3149952</ele>
        <time>2013-10-06T12:57:31Z</time>
      </trkpt>
      <trkpt lat="45.99144" lon="6.27886">
        <ele>1096.06199552</ele>
        <time>2013-10-06T12:57:37Z</time>
      </trkpt>
      <trkpt lat="45.99143" lon="6.27872">
        <ele>1091.86199552</ele>
        <time>2013-10-06T12:57:43Z</time>
      </trkpt>
      <trkpt lat="45.99141" lon="6.27856">
        <ele>1088.2599936</ele>
        <time>2013-10-06T12:57:49Z</time>
      </trkpt>
      <trkpt lat="45.99139" lon="6.27839">
        <ele>1085.2099968</ele>
        <time>2013-10-06T12:57:55Z</time>
      </trkpt>
      <trkpt lat="45.99133" lon="6.2781">
        <ele>1074.8316913386</ele>
        <time>2013-10-06T12:58:14Z</time>
      </trkpt>
      <trkpt lat="45.99131" lon="6.27794">
        <ele>1072.3810965854</ele>
        <time>2013-10-06T12:58:21Z</time>
      </trkpt>
      <trkpt lat="45.99128" lon="6.27779">
        <ele>1070.7799936</ele>
        <time>2013-10-06T12:58:26Z</time>
      </trkpt>
      <trkpt lat="45.99127" lon="6.27763">
        <ele>1068.7799936</ele>
        <time>2013-10-06T12:58:30Z</time>
      </trkpt>
      <trkpt lat="45.99125" lon="6.27748">
        <ele>1066.84</ele>
        <time>2013-10-06T12:58:34Z</time>
      </trkpt>
      <trkpt lat="45.99124" lon="6.27734">
        <ele>1064.19399552</ele>
        <time>2013-10-06T12:58:38Z</time>
      </trkpt>
      <trkpt lat="45.99122" lon="6.27719">
        <ele>1061.39399552</ele>
        <time>2013-10-06T12:58:42Z</time>
      </trkpt>
      <trkpt lat="45.99122" lon="6.27704">
        <ele>1058.36799744</ele>
        <time>2013-10-06T12:58:47Z</time>
      </trkpt>
      <trkpt lat="45.99113" lon="6.2771">
        <ele>1051.42399744</ele>
        <time>2013-10-06T12:59:00Z</time>
      </trkpt>
      <trkpt lat="45.99104" lon="6.27721">
        <ele>1045.1958014506</ele>
        <time>2013-10-06T12:59:08Z</time>
      </trkpt>
      <trkpt lat="45.99085" lon="6.27736">
        <ele>1038.2832864384</ele>
        <time>2013-10-06T12:59:19Z</time>
      </trkpt>
      <trkpt lat="45.99074" lon="6.27743">
        <ele>1035.7807751247</ele>
        <time>2013-10-06T12:59:24Z</time>
      </trkpt>
      <trkpt lat="45.99063" lon="6.27746">
        <ele>1032.39599616</ele>
        <time>2013-10-06T12:59:30Z</time>
      </trkpt>
      <trkpt lat="45.99053" lon="6.2775">
        <ele>1028.8299968</ele>
        <time>2013-10-06T12:59:36Z</time>
      </trkpt>
      <trkpt lat="45.99046" lon="6.27763">
        <ele>1025.8299968</ele>
        <time>2013-10-06T12:59:42Z</time>
      </trkpt>
      <trkpt lat="45.99044" lon="6.27779">
        <ele>1023.30399744</ele>
        <time>2013-10-06T12:59:49Z</time>
      </trkpt>
      <trkpt lat="45.99048" lon="6.27796">
        <ele>1022.50399744</ele>
        <time>2013-10-06T12:59:53Z</time>
      </trkpt>
      <trkpt lat="45.9905" lon="6.27812">
        <ele>1020.8199936</ele>
        <time>2013-10-06T12:59:58Z</time>
      </trkpt>
      <trkpt lat="45.99055" lon="6.27829">
        <ele>1018.32</ele>
        <time>2013-10-06T13:00:03Z</time>
      </trkpt>
      <trkpt lat="45.99052" lon="6.27859">
        <ele>1016.352</ele>
        <time>2013-10-06T13:00:12Z</time>
      </trkpt>
      <trkpt lat="45.99047" lon="6.27872">
        <ele>1015.2999936</ele>
        <time>2013-10-06T13:00:17Z</time>
      </trkpt>
      <trkpt lat="45.99044" lon="6.27888">
        <ele>1012.2999936</ele>
        <time>2013-10-06T13:00:23Z</time>
      </trkpt>
      <trkpt lat="45.99045" lon="6.27905">
        <ele>1010.28</ele>
        <time>2013-10-06T13:00:27Z</time>
      </trkpt>
      <trkpt lat="45.99046" lon="6.27921">
        <ele>1007.28</ele>
        <time>2013-10-06T13:00:33Z</time>
      </trkpt>
      <trkpt lat="45.99048" lon="6.27934">
        <ele>1005.23799808</ele>
        <time>2013-10-06T13:00:38Z</time>
      </trkpt>
      <trkpt lat="45.99049" lon="6.2795">
        <ele>1003.73799808</ele>
        <time>2013-10-06T13:00:43Z</time>
      </trkpt>
      <trkpt lat="45.9905" lon="6.27965">
        <ele>1002.2099968</ele>
        <time>2013-10-06T13:00:47Z</time>
      </trkpt>
      <trkpt lat="45.9905" lon="6.27981">
        <ele>999.2599936</ele>
        <time>2013-10-06T13:00:53Z</time>
      </trkpt>
      <trkpt lat="45.99053" lon="6.27996">
        <ele>997.25966088278</ele>
        <time>2013-10-06T13:00:58Z</time>
      </trkpt>
      <trkpt lat="45.99056" lon="6.2801">
        <ele>995.4786941729</ele>
        <time>2013-10-06T13:01:04Z</time>
      </trkpt>
      <trkpt lat="45.99062" lon="6.28022">
        <ele>993.79919480043</ele>
        <time>2013-10-06T13:01:08Z</time>
      </trkpt>
      <trkpt lat="45.99066" lon="6.28035">
        <ele>990.26740530445</ele>
        <time>2013-10-06T13:01:15Z</time>
      </trkpt>
      <trkpt lat="45.99062" lon="6.28049">
        <ele>989.04199936</ele>
        <time>2013-10-06T13:01:25Z</time>
      </trkpt>
      <trkpt lat="45.99053" lon="6.28056">
        <ele>989.45800064</ele>
        <time>2013-10-06T13:01:30Z</time>
      </trkpt>
      <trkpt lat="45.99041" lon="6.28061">
        <ele>989.95800064</ele>
        <time>2013-10-06T13:01:35Z</time>
      </trkpt>
      <trkpt lat="45.99021" lon="6.28073">
        <ele>990</ele>
        <time>2013-10-06T13:01:44Z</time>
      </trkpt>
      <trkpt lat="45.9901" lon="6.28076">
        <ele>989.74199936</ele>
        <time>2013-10-06T13:01:48Z</time>
      </trkpt>
      <trkpt lat="45.98998" lon="6.28076">
        <ele>989.24199936</ele>
        <time>2013-10-06T13:01:53Z</time>
      </trkpt>
      <trkpt lat="45.98977" lon="6.2808">
        <ele>987.056</ele>
        <time>2013-10-06T13:02:02Z</time>
      </trkpt>
      <trkpt lat="45.98966" lon="6.28085">
        <ele>986</ele>
        <time>2013-10-06T13:02:08Z</time>
      </trkpt>
      <trkpt lat="45.98955" lon="6.28089">
        <ele>986</ele>
        <time>2013-10-06T13:02:14Z</time>
      </trkpt>
      <trkpt lat="45.98943" lon="6.2809">
        <ele>985.12399872</ele>
        <time>2013-10-06T13:02:20Z</time>
      </trkpt>
      <trkpt lat="45.98932" lon="6.28096">
        <ele>983.51199744</ele>
        <time>2013-10-06T13:02:28Z</time>
      </trkpt>
      <trkpt lat="45.98921" lon="6.281">
        <ele>982.512</ele>
        <time>2013-10-06T13:02:33Z</time>
      </trkpt>
      <trkpt lat="45.98912" lon="6.2811">
        <ele>982.25800064</ele>
        <time>2013-10-06T13:02:38Z</time>
      </trkpt>
      <trkpt lat="45.98905" lon="6.28122">
        <ele>982.65800064</ele>
        <time>2013-10-06T13:02:42Z</time>
      </trkpt>
      <trkpt lat="45.98898" lon="6.28134">
        <ele>982.88399872</ele>
        <time>2013-10-06T13:02:46Z</time>
      </trkpt>
      <trkpt lat="45.98891" lon="6.28148">
        <ele>981.88399872</ele>
        <time>2013-10-06T13:02:51Z</time>
      </trkpt>
      <trkpt lat="45.98887" lon="6.28162">
        <ele>980.88399872</ele>
        <time>2013-10-06T13:02:56Z</time>
      </trkpt>
      <trkpt lat="45.98885" lon="6.28177">
        <ele>980.06999808</ele>
        <time>2013-10-06T13:03:00Z</time>
      </trkpt>
      <trkpt lat="45.98886" lon="6.28195">
        <ele>979.28399872</ele>
        <time>2013-10-06T13:03:04Z</time>
      </trkpt>
      <trkpt lat="45.98888" lon="6.28211">
        <ele>979</ele>
        <time>2013-10-06T13:03:08Z</time>
      </trkpt>
      <trkpt lat="45.98892" lon="6.28226">
        <ele>979</ele>
        <time>2013-10-06T13:03:13Z</time>
      </trkpt>
      <trkpt lat="45.98899" lon="6.28239">
        <ele>977.7799936</ele>
        <time>2013-10-06T13:03:18Z</time>
      </trkpt>
      <trkpt lat="45.98905" lon="6.28251">
        <ele>975.7799936</ele>
        <time>2013-10-06T13:03:22Z</time>
      </trkpt>
      <trkpt lat="45.98914" lon="6.28265">
        <ele>973.59799808</ele>
        <time>2013-10-06T13:03:27Z</time>
      </trkpt>
      <trkpt lat="45.98917" lon="6.2828">
        <ele>972.09799808</ele>
        <time>2013-10-06T13:03:32Z</time>
      </trkpt>
      <trkpt lat="45.98923" lon="6.2831">
        <ele>970.25199872</ele>
        <time>2013-10-06T13:03:43Z</time>
      </trkpt>
      <trkpt lat="45.98915" lon="6.28319">
        <ele>963.62804292683</ele>
        <time>2013-10-06T13:04:03Z</time>
      </trkpt>
      <trkpt lat="45.98918" lon="6.28349">
        <ele>955.32</ele>
        <time>2013-10-06T13:04:18Z</time>
      </trkpt>
      <trkpt lat="45.98907" lon="6.28348">
        <ele>948.992</ele>
        <time>2013-10-06T13:04:27Z</time>
      </trkpt>
      <trkpt lat="45.98894" lon="6.28345">
        <ele>944.792</ele>
        <time>2013-10-06T13:04:33Z</time>
      </trkpt>
      <trkpt lat="45.98885" lon="6.28336">
        <ele>940.78399744</ele>
        <time>2013-10-06T13:04:41Z</time>
      </trkpt>
      <trkpt lat="45.98874" lon="6.28331">
        <ele>935.76</ele>
        <time>2013-10-06T13:04:52Z</time>
      </trkpt>
      <trkpt lat="45.98863" lon="6.2833">
        <ele>931.75599616</ele>
        <time>2013-10-06T13:05:03Z</time>
      </trkpt>
      <trkpt lat="45.98862" lon="6.28344">
        <ele>921.83183038895</ele>
        <time>2013-10-06T13:05:22Z</time>
      </trkpt>
      <trkpt lat="45.98861" lon="6.2836">
        <ele>915.59599616</ele>
        <time>2013-10-06T13:05:33Z</time>
      </trkpt>
      <trkpt lat="45.98855" lon="6.28371">
        <ele>910.96799744</ele>
        <time>2013-10-06T13:05:43Z</time>
      </trkpt>
      <trkpt lat="45.98845" lon="6.28366">
        <ele>909.22599808</ele>
        <time>2013-10-06T13:05:48Z</time>
      </trkpt>
      <trkpt lat="45.98839" lon="6.28355">
        <ele>905.25199616</ele>
        <time>2013-10-06T13:06:00Z</time>
      </trkpt>
      <trkpt lat="45.98831" lon="6.28346">
        <ele>902.3299968</ele>
        <time>2013-10-06T13:06:07Z</time>
      </trkpt>
      <trkpt lat="45.98822" lon="6.28335">
        <ele>897.232</ele>
        <time>2013-10-06T13:06:17Z</time>
      </trkpt>
      <trkpt lat="45.98813" lon="6.2833">
        <ele>893.03199232</ele>
        <time>2013-10-06T13:06:24Z</time>
      </trkpt>
      <trkpt lat="45.98802" lon="6.28327">
        <ele>887.85331645274</ele>
        <time>2013-10-06T13:06:36Z</time>
      </trkpt>
      <trkpt lat="45.98799" lon="6.28341">
        <ele>878.94449366974</ele>
        <time>2013-10-06T13:06:54Z</time>
      </trkpt>
      <trkpt lat="45.98795" lon="6.28355">
        <ele>872.72199552</ele>
        <time>2013-10-06T13:07:03Z</time>
      </trkpt>
      <trkpt lat="45.98775" lon="6.2835">
        <ele>865.624</ele>
        <time>2013-10-06T13:07:19Z</time>
      </trkpt>
      <trkpt lat="45.98764" lon="6.28347">
        <ele>861.7573013518</ele>
        <time>2013-10-06T13:07:38Z</time>
      </trkpt>
      <trkpt lat="45.98755" lon="6.28342">
        <ele>861.15307154983</ele>
        <time>2013-10-06T13:07:44Z</time>
      </trkpt>
      <trkpt lat="45.98744" lon="6.28345">
        <ele>857.7799936</ele>
        <time>2013-10-06T13:07:52Z</time>
      </trkpt>
      <trkpt lat="45.98734" lon="6.2834">
        <ele>855.45199616</ele>
        <time>2013-10-06T13:07:57Z</time>
      </trkpt>
      <trkpt lat="45.98728" lon="6.28325">
        <ele>853.45199616</ele>
        <time>2013-10-06T13:08:02Z</time>
      </trkpt>
      <trkpt lat="45.98726" lon="6.28311">
        <ele>850.8299968</ele>
        <time>2013-10-06T13:08:08Z</time>
      </trkpt>
      <trkpt lat="45.98718" lon="6.28302">
        <ele>846.8149952</ele>
        <time>2013-10-06T13:08:16Z</time>
      </trkpt>
      <trkpt lat="45.98705" lon="6.28281">
        <ele>840.98399744</ele>
        <time>2013-10-06T13:08:28Z</time>
      </trkpt>
      <trkpt lat="45.98702" lon="6.28267">
        <ele>838.98399744</ele>
        <time>2013-10-06T13:08:33Z</time>
      </trkpt>
      <trkpt lat="45.98701" lon="6.28252">
        <ele>836.56799744</ele>
        <time>2013-10-06T13:08:39Z</time>
      </trkpt>
      <trkpt lat="45.98698" lon="6.28237">
        <ele>833.81199872</ele>
        <time>2013-10-06T13:08:46Z</time>
      </trkpt>
      <trkpt lat="45.98692" lon="6.28225">
        <ele>830.61199872</ele>
        <time>2013-10-06T13:08:54Z</time>
      </trkpt>
      <trkpt lat="45.98683" lon="6.28216">
        <ele>829.02399488</ele>
        <time>2013-10-06T13:08:58Z</time>
      </trkpt>
      <trkpt lat="45.98675" lon="6.28208">
        <ele>827.42399488</ele>
        <time>2013-10-06T13:09:02Z</time>
      </trkpt>
      <trkpt lat="45.98665" lon="6.28202">
        <ele>825.41999616</ele>
        <time>2013-10-06T13:09:07Z</time>
      </trkpt>
      <trkpt lat="45.98654" lon="6.282">
        <ele>822.62399488</ele>
        <time>2013-10-06T13:09:14Z</time>
      </trkpt>
      <trkpt lat="45.98643" lon="6.28199">
        <ele>819.82539174603</ele>
        <time>2013-10-06T13:09:21Z</time>
      </trkpt>
      <trkpt lat="45.98634" lon="6.28193">
        <ele>817.58041614665</ele>
        <time>2013-10-06T13:09:27Z</time>
      </trkpt>
      <trkpt lat="45.98613" lon="6.2818">
        <ele>813.79919480043</ele>
        <time>2013-10-06T13:09:38Z</time>
      </trkpt>
      <trkpt lat="45.98602" lon="6.28179">
        <ele>810.82239756761</ele>
        <time>2013-10-06T13:09:44Z</time>
      </trkpt>
      <trkpt lat="45.98593" lon="6.28171">
        <ele>808.056</ele>
        <time>2013-10-06T13:09:52Z</time>
      </trkpt>
      <trkpt lat="45.98583" lon="6.28166">
        <ele>806.55599616</ele>
        <time>2013-10-06T13:09:57Z</time>
      </trkpt>
      <trkpt lat="45.98574" lon="6.28159">
        <ele>805.656</ele>
        <time>2013-10-06T13:10:00Z</time>
      </trkpt>
      <trkpt lat="45.98566" lon="6.28145">
        <ele>804.15599616</ele>
        <time>2013-10-06T13:10:05Z</time>
      </trkpt>
      <trkpt lat="45.9856" lon="6.28133">
        <ele>802.2599936</ele>
        <time>2013-10-06T13:10:09Z</time>
      </trkpt>
      <trkpt lat="45.98555" lon="6.2812">
        <ele>800.2599936</ele>
        <time>2013-10-06T13:10:13Z</time>
      </trkpt>
      <trkpt lat="45.98549" lon="6.28109">
        <ele>798.40799488</ele>
        <time>2013-10-06T13:10:17Z</time>
      </trkpt>
      <trkpt lat="45.98544" lon="6.28095">
        <ele>796.408</ele>
        <time>2013-10-06T13:10:22Z</time>
      </trkpt>
      <trkpt lat="45.9854" lon="6.2808">
        <ele>794.40799488</ele>
        <time>2013-10-06T13:10:27Z</time>
      </trkpt>
      <trkpt lat="45.98533" lon="6.28066">
        <ele>792.408</ele>
        <time>2013-10-06T13:10:32Z</time>
      </trkpt>
      <trkpt lat="45.98529" lon="6.28053">
        <ele>790.94199936</ele>
        <time>2013-10-06T13:10:36Z</time>
      </trkpt>
      <trkpt lat="45.98524" lon="6.28037">
        <ele>790.44199936</ele>
        <time>2013-10-06T13:10:41Z</time>
      </trkpt>
      <trkpt lat="45.98518" lon="6.28004">
        <ele>786.25499776</ele>
        <time>2013-10-06T13:10:51Z</time>
      </trkpt>
      <trkpt lat="45.98511" lon="6.2799">
        <ele>782.89799808</ele>
        <time>2013-10-06T13:10:56Z</time>
      </trkpt>
      <trkpt lat="45.98503" lon="6.27978">
        <ele>781.39799808</ele>
        <time>2013-10-06T13:11:01Z</time>
      </trkpt>
      <trkpt lat="45.98497" lon="6.27966">
        <ele>779.86399744</ele>
        <time>2013-10-06T13:11:06Z</time>
      </trkpt>
      <trkpt lat="45.98496" lon="6.2795">
        <ele>778.26399744</ele>
        <time>2013-10-06T13:11:10Z</time>
      </trkpt>
      <trkpt lat="45.98495" lon="6.2792">
        <ele>772.7099968</ele>
        <time>2013-10-06T13:11:22Z</time>
      </trkpt>
      <trkpt lat="45.98491" lon="6.27906">
        <ele>770.36799744</ele>
        <time>2013-10-06T13:11:27Z</time>
      </trkpt>
      <trkpt lat="45.98485" lon="6.27894">
        <ele>768.80799488</ele>
        <time>2013-10-06T13:11:31Z</time>
      </trkpt>
      <trkpt lat="45.98479" lon="6.27879">
        <ele>766.85199616</ele>
        <time>2013-10-06T13:11:36Z</time>
      </trkpt>
      <trkpt lat="45.98476" lon="6.27862">
        <ele>764.85199616</ele>
        <time>2013-10-06T13:11:41Z</time>
      </trkpt>
      <trkpt lat="45.98472" lon="6.27849">
        <ele>763.25199616</ele>
        <time>2013-10-06T13:11:45Z</time>
      </trkpt>
      <trkpt lat="45.98465" lon="6.27836">
        <ele>760.2599936</ele>
        <time>2013-10-06T13:11:51Z</time>
      </trkpt>
      <trkpt lat="45.98454" lon="6.27827">
        <ele>757.70599936</ele>
        <time>2013-10-06T13:11:57Z</time>
      </trkpt>
      <trkpt lat="45.98445" lon="6.27821">
        <ele>756.70599936</ele>
        <time>2013-10-06T13:12:02Z</time>
      </trkpt>
      <trkpt lat="45.98436" lon="6.27813">
        <ele>755.51199744</ele>
        <time>2013-10-06T13:12:08Z</time>
      </trkpt>
      <trkpt lat="45.98431" lon="6.27799">
        <ele>754.512</ele>
        <time>2013-10-06T13:12:13Z</time>
      </trkpt>
      <trkpt lat="45.98427" lon="6.27781">
        <ele>752.72150448697</ele>
        <time>2013-10-06T13:12:18Z</time>
      </trkpt>
      <trkpt lat="45.98421" lon="6.27769">
        <ele>750.73934581787</ele>
        <time>2013-10-06T13:12:22Z</time>
      </trkpt>
      <trkpt lat="45.9841" lon="6.27767">
        <ele>748.34308812247</ele>
        <time>2013-10-06T13:12:28Z</time>
      </trkpt>
      <trkpt lat="45.98399" lon="6.27762">
        <ele>746.82946405276</ele>
        <time>2013-10-06T13:12:33Z</time>
      </trkpt>
      <trkpt lat="45.98392" lon="6.27753">
        <ele>745.85199872</ele>
        <time>2013-10-06T13:12:37Z</time>
      </trkpt>
      <trkpt lat="45.98388" lon="6.27736">
        <ele>745.352</ele>
        <time>2013-10-06T13:12:42Z</time>
      </trkpt>
      <trkpt lat="45.98382" lon="6.27723">
        <ele>744.04099328</ele>
        <time>2013-10-06T13:12:47Z</time>
      </trkpt>
      <trkpt lat="45.98375" lon="6.27711">
        <ele>741.17099776</ele>
        <time>2013-10-06T13:12:51Z</time>
      </trkpt>
      <trkpt lat="45.98368" lon="6.27668">
        <ele>736.48399872</ele>
        <time>2013-10-06T13:13:03Z</time>
      </trkpt>
      <trkpt lat="45.98364" lon="6.27654">
        <ele>735.85199872</ele>
        <time>2013-10-06T13:13:07Z</time>
      </trkpt>
      <trkpt lat="45.98359" lon="6.2764">
        <ele>735.352</ele>
        <time>2013-10-06T13:13:12Z</time>
      </trkpt>
      <trkpt lat="45.98352" lon="6.27628">
        <ele>734.2599936</ele>
        <time>2013-10-06T13:13:17Z</time>
      </trkpt>
      <trkpt lat="45.98344" lon="6.27616">
        <ele>731.7099968</ele>
        <time>2013-10-06T13:13:22Z</time>
      </trkpt>
      <trkpt lat="45.98337" lon="6.27601">
        <ele>729.52599808</ele>
        <time>2013-10-06T13:13:27Z</time>
      </trkpt>
      <trkpt lat="45.98333" lon="6.27588">
        <ele>728.32599808</ele>
        <time>2013-10-06T13:13:31Z</time>
      </trkpt>
      <trkpt lat="45.98332" lon="6.27574">
        <ele>727.12599808</ele>
        <time>2013-10-06T13:13:35Z</time>
      </trkpt>
      <trkpt lat="45.98337" lon="6.27561">
        <ele>726.28399872</ele>
        <time>2013-10-06T13:13:39Z</time>
      </trkpt>
      <trkpt lat="45.98346" lon="6.27551">
        <ele>725.48399872</ele>
        <time>2013-10-06T13:13:43Z</time>
      </trkpt>
      <trkpt lat="45.98355" lon="6.27543">
        <ele>725</ele>
        <time>2013-10-06T13:13:47Z</time>
      </trkpt>
      <trkpt lat="45.98366" lon="6.27534">
        <ele>725</ele>
        <time>2013-10-06T13:13:52Z</time>
      </trkpt>
      <trkpt lat="45.98377" lon="6.27528">
        <ele>724.856</ele>
        <time>2013-10-06T13:13:57Z</time>
      </trkpt>
      <trkpt lat="45.98387" lon="6.27519">
        <ele>724.35599872</ele>
        <time>2013-10-06T13:14:02Z</time>
      </trkpt>
      <trkpt lat="45.98398" lon="6.27511">
        <ele>724</ele>
        <time>2013-10-06T13:14:07Z</time>
      </trkpt>
      <trkpt lat="45.98406" lon="6.27503">
        <ele>724</ele>
        <time>2013-10-06T13:14:11Z</time>
      </trkpt>
      <trkpt lat="45.98417" lon="6.27494">
        <ele>723.91199744</ele>
        <time>2013-10-06T13:14:16Z</time>
      </trkpt>
      <trkpt lat="45.98427" lon="6.27488">
        <ele>722.912</ele>
        <time>2013-10-06T13:14:21Z</time>
      </trkpt>
      <trkpt lat="45.98438" lon="6.27486">
        <ele>721.3349952</ele>
        <time>2013-10-06T13:14:27Z</time>
      </trkpt>
      <trkpt lat="45.9846" lon="6.27483">
        <ele>716.64199936</ele>
        <time>2013-10-06T13:14:39Z</time>
      </trkpt>
      <trkpt lat="45.98462" lon="6.27467">
        <ele>716.04199936</ele>
        <time>2013-10-06T13:14:45Z</time>
      </trkpt>
      <trkpt lat="45.98459" lon="6.27453">
        <ele>712.79399552</ele>
        <time>2013-10-06T13:14:50Z</time>
      </trkpt>
      <trkpt lat="45.98454" lon="6.27438">
        <ele>708.568</ele>
        <time>2013-10-06T13:14:57Z</time>
      </trkpt>
      <trkpt lat="45.98446" lon="6.27426">
        <ele>706.768</ele>
        <time>2013-10-06T13:15:03Z</time>
      </trkpt>
      <trkpt lat="45.98441" lon="6.27412">
        <ele>705.23290269218</ele>
        <time>2013-10-06T13:15:08Z</time>
      </trkpt>
      <trkpt lat="45.98431" lon="6.27383">
        <ele>702.48334965087</ele>
        <time>2013-10-06T13:15:17Z</time>
      </trkpt>
      <trkpt lat="45.98424" lon="6.27372">
        <ele>700.86881730985</ele>
        <time>2013-10-06T13:15:21Z</time>
      </trkpt>
      <trkpt lat="45.98417" lon="6.2736">
        <ele>699.21392424356</ele>
        <time>2013-10-06T13:15:25Z</time>
      </trkpt>
      <trkpt lat="45.9841" lon="6.27349">
        <ele>698.64199936</ele>
        <time>2013-10-06T13:15:29Z</time>
      </trkpt>
      <trkpt lat="45.98402" lon="6.2734">
        <ele>698.24199936</ele>
        <time>2013-10-06T13:15:33Z</time>
      </trkpt>
      <trkpt lat="45.98394" lon="6.27327">
        <ele>696.7099968</ele>
        <time>2013-10-06T13:15:38Z</time>
      </trkpt>
      <trkpt lat="45.98388" lon="6.27314">
        <ele>694.7099968</ele>
        <time>2013-10-06T13:15:42Z</time>
      </trkpt>
      <trkpt lat="45.9838" lon="6.27306">
        <ele>690.768</ele>
        <time>2013-10-06T13:15:53Z</time>
      </trkpt>
      <trkpt lat="45.9837" lon="6.27306">
        <ele>688.33199872</ele>
        <time>2013-10-06T13:16:04Z</time>
      </trkpt>
      <trkpt lat="45.98358" lon="6.27299">
        <ele>687.104</ele>
        <time>2013-10-06T13:16:10Z</time>
      </trkpt>
      <trkpt lat="45.98348" lon="6.27296">
        <ele>686.28399872</ele>
        <time>2013-10-06T13:16:14Z</time>
      </trkpt>
      <trkpt lat="45.98341" lon="6.27285">
        <ele>684.16799744</ele>
        <time>2013-10-06T13:16:20Z</time>
      </trkpt>
      <trkpt lat="45.98339" lon="6.2727">
        <ele>682</ele>
        <time>2013-10-06T13:16:26Z</time>
      </trkpt>
      <trkpt lat="45.98342" lon="6.27236">
        <ele>681.94199936</ele>
        <time>2013-10-06T13:16:36Z</time>
      </trkpt>
      <trkpt lat="45.98343" lon="6.2722">
        <ele>681.45199872</ele>
        <time>2013-10-06T13:16:41Z</time>
      </trkpt>
      <trkpt lat="45.98348" lon="6.27208">
        <ele>681.152</ele>
        <time>2013-10-06T13:16:44Z</time>
      </trkpt>
      <trkpt lat="45.98358" lon="6.27198">
        <ele>681</ele>
        <time>2013-10-06T13:16:49Z</time>
      </trkpt>
      <trkpt lat="45.98366" lon="6.27189">
        <ele>681</ele>
        <time>2013-10-06T13:16:54Z</time>
      </trkpt>
      <trkpt lat="45.98372" lon="6.27176">
        <ele>680.74199936</ele>
        <time>2013-10-06T13:16:58Z</time>
      </trkpt>
      <trkpt lat="45.9838" lon="6.27163">
        <ele>680.34199936</ele>
        <time>2013-10-06T13:17:02Z</time>
      </trkpt>
      <trkpt lat="45.98383" lon="6.27147">
        <ele>680</ele>
        <time>2013-10-06T13:17:07Z</time>
      </trkpt>
      <trkpt lat="45.98384" lon="6.27132">
        <ele>680</ele>
        <time>2013-10-06T13:17:11Z</time>
      </trkpt>
      <trkpt lat="45.98387" lon="6.27117">
        <ele>680</ele>
        <time>2013-10-06T13:17:15Z</time>
      </trkpt>
      <trkpt lat="45.9839" lon="6.27103">
        <ele>679.08399872</ele>
        <time>2013-10-06T13:17:20Z</time>
      </trkpt>
      <trkpt lat="45.98393" lon="6.27087">
        <ele>678</ele>
        <time>2013-10-06T13:17:26Z</time>
      </trkpt>
      <trkpt lat="45.98407" lon="6.27061">
        <ele>678</ele>
        <time>2013-10-06T13:17:34Z</time>
      </trkpt>
      <trkpt lat="45.98414" lon="6.2705">
        <ele>677.65199872</ele>
        <time>2013-10-06T13:17:39Z</time>
      </trkpt>
      <trkpt lat="45.98422" lon="6.27039">
        <ele>677.15099904</ele>
        <time>2013-10-06T13:17:44Z</time>
      </trkpt>
      <trkpt lat="45.9843" lon="6.27031">
        <ele>676.76599936</ele>
        <time>2013-10-06T13:17:48Z</time>
      </trkpt>
      <trkpt lat="45.98441" lon="6.27027">
        <ele>676.26599936</ele>
        <time>2013-10-06T13:17:53Z</time>
      </trkpt>
      <trkpt lat="45.98451" lon="6.27023">
        <ele>676.88008098625</ele>
        <time>2013-10-06T13:18:00Z</time>
      </trkpt>
      <trkpt lat="45.98458" lon="6.27028">
        <ele>677.87314184518</ele>
        <time>2013-10-06T13:18:05Z</time>
      </trkpt>
      <trkpt lat="45.98451" lon="6.27006">
        <ele>677.64199936</ele>
        <time>2013-10-06T13:18:59Z</time>
      </trkpt>
      <trkpt lat="45.98446" lon="6.26993">
        <ele>677.152</ele>
        <time>2013-10-06T13:19:04Z</time>
      </trkpt>
      <trkpt lat="45.98445" lon="6.2698">
        <ele>677</ele>
        <time>2013-10-06T13:19:08Z</time>
      </trkpt>
      <trkpt lat="45.98451" lon="6.26968">
        <ele>677</ele>
        <time>2013-10-06T13:19:12Z</time>
      </trkpt>
      <trkpt lat="45.9846" lon="6.26959">
        <ele>677</ele>
        <time>2013-10-06T13:19:16Z</time>
      </trkpt>
      <trkpt lat="45.98468" lon="6.26947">
        <ele>677</ele>
        <time>2013-10-06T13:19:20Z</time>
      </trkpt>
      <trkpt lat="45.98477" lon="6.26937">
        <ele>677</ele>
        <time>2013-10-06T13:19:24Z</time>
      </trkpt>
      <trkpt lat="45.98487" lon="6.26928">
        <ele>676.64199936</ele>
        <time>2013-10-06T13:19:29Z</time>
      </trkpt>
      <trkpt lat="45.98497" lon="6.26922">
        <ele>676.14199936</ele>
        <time>2013-10-06T13:19:34Z</time>
      </trkpt>
      <trkpt lat="45.98505" lon="6.26912">
        <ele>676</ele>
        <time>2013-10-06T13:19:39Z</time>
      </trkpt>
      <trkpt lat="45.98502" lon="6.26895">
        <ele>676.11600128</ele>
        <time>2013-10-06T13:19:46Z</time>
      </trkpt>
      <trkpt lat="45.985" lon="6.2688">
        <ele>677.11800064</ele>
        <time>2013-10-06T13:19:51Z</time>
      </trkpt>
      <trkpt lat="45.985" lon="6.26863">
        <ele>678.04400128</ele>
        <time>2013-10-06T13:19:56Z</time>
      </trkpt>
      <trkpt lat="45.98502" lon="6.26846">
        <ele>678.544</ele>
        <time>2013-10-06T13:20:01Z</time>
      </trkpt>
      <trkpt lat="45.98505" lon="6.26833">
        <ele>678.944</ele>
        <time>2013-10-06T13:20:05Z</time>
      </trkpt>
      <trkpt lat="45.98509" lon="6.26819">
        <ele>679.4575426581</ele>
        <time>2013-10-06T13:20:10Z</time>
      </trkpt>
      <trkpt lat="45.98513" lon="6.26807">
        <ele>679.85714267447</ele>
        <time>2013-10-06T13:20:14Z</time>
      </trkpt>
      <trkpt lat="45.98516" lon="6.26797">
        <ele>680.31431397572</ele>
        <time>2013-10-06T13:20:17Z</time>
      </trkpt>
      <trkpt lat="45.98524" lon="6.26778">
        <ele>681.7177180871</ele>
        <time>2013-10-06T13:20:24Z</time>
      </trkpt>
      <trkpt lat="45.98536" lon="6.26755">
        <ele>682</ele>
        <time>2013-10-06T13:20:32Z</time>
      </trkpt>
      <trkpt lat="45.98544" lon="6.26743">
        <ele>682</ele>
        <time>2013-10-06T13:20:37Z</time>
      </trkpt>
      <trkpt lat="45.98552" lon="6.26731">
        <ele>682</ele>
        <time>2013-10-06T13:20:42Z</time>
      </trkpt>
      <trkpt lat="45.98559" lon="6.26721">
        <ele>682</ele>
        <time>2013-10-06T13:20:46Z</time>
      </trkpt>
      <trkpt lat="45.98568" lon="6.2671">
        <ele>682</ele>
        <time>2013-10-06T13:20:51Z</time>
      </trkpt>
      <trkpt lat="45.98576" lon="6.267">
        <ele>682</ele>
        <time>2013-10-06T13:20:55Z</time>
      </trkpt>
      <trkpt lat="45.98583" lon="6.26689">
        <ele>682.33097912991</ele>
        <time>2013-10-06T13:20:59Z</time>
      </trkpt>
      <trkpt lat="45.9859" lon="6.26678">
        <ele>682.73461221516</ele>
        <time>2013-10-06T13:21:03Z</time>
      </trkpt>
      <trkpt lat="45.98599" lon="6.26668">
        <ele>683.248</ele>
        <time>2013-10-06T13:21:08Z</time>
      </trkpt>
      <trkpt lat="45.98607" lon="6.26657">
        <ele>683.648</ele>
        <time>2013-10-06T13:21:12Z</time>
      </trkpt>
      <trkpt lat="45.98614" lon="6.26644">
        <ele>684.03700096</ele>
        <time>2013-10-06T13:21:16Z</time>
      </trkpt>
      <trkpt lat="45.9862" lon="6.26632">
        <ele>684.43700096</ele>
        <time>2013-10-06T13:21:20Z</time>
      </trkpt>
      <trkpt lat="45.98625" lon="6.26618">
        <ele>684.84700032</ele>
        <time>2013-10-06T13:21:24Z</time>
      </trkpt>
      <trkpt lat="45.98628" lon="6.26604">
        <ele>684.74199936</ele>
        <time>2013-10-06T13:21:28Z</time>
      </trkpt>
      <trkpt lat="45.98632" lon="6.2659">
        <ele>684.34199936</ele>
        <time>2013-10-06T13:21:32Z</time>
      </trkpt>
      <trkpt lat="45.98635" lon="6.26575">
        <ele>683.94199936</ele>
        <time>2013-10-06T13:21:36Z</time>
      </trkpt>
      <trkpt lat="45.9864" lon="6.26562">
        <ele>683.54199936</ele>
        <time>2013-10-06T13:21:40Z</time>
      </trkpt>
      <trkpt lat="45.98646" lon="6.26549">
        <ele>683.14199936</ele>
        <time>2013-10-06T13:21:44Z</time>
      </trkpt>
      <trkpt lat="45.98654" lon="6.26537">
        <ele>682.48399872</ele>
        <time>2013-10-06T13:21:48Z</time>
      </trkpt>
      <trkpt lat="45.98672" lon="6.26515">
        <ele>680.91199744</ele>
        <time>2013-10-06T13:21:56Z</time>
      </trkpt>
      <trkpt lat="45.98682" lon="6.26506">
        <ele>680.11199744</ele>
        <time>2013-10-06T13:22:00Z</time>
      </trkpt>
      <trkpt lat="45.98693" lon="6.26504">
        <ele>679.112</ele>
        <time>2013-10-06T13:22:05Z</time>
      </trkpt>
      <trkpt lat="45.98702" lon="6.26512">
        <ele>677.19399552</ele>
        <time>2013-10-06T13:22:08Z</time>
      </trkpt>
      <trkpt lat="45.98721" lon="6.26501">
        <ele>672.91600128</ele>
        <time>2013-10-06T13:22:20Z</time>
      </trkpt>
      <trkpt lat="45.9873" lon="6.26493">
        <ele>673.91600128</ele>
        <time>2013-10-06T13:22:25Z</time>
      </trkpt>
      <trkpt lat="45.98737" lon="6.26482">
        <ele>672.2299968</ele>
        <time>2013-10-06T13:22:29Z</time>
      </trkpt>
      <trkpt lat="45.98749" lon="6.26485">
        <ele>669.7299968</ele>
        <time>2013-10-06T13:22:34Z</time>
      </trkpt>
      <trkpt lat="45.9876" lon="6.26497">
        <ele>669</ele>
        <time>2013-10-06T13:22:38Z</time>
      </trkpt>
      <trkpt lat="45.98769" lon="6.26507">
        <ele>669</ele>
        <time>2013-10-06T13:22:42Z</time>
      </trkpt>
      <trkpt lat="45.98779" lon="6.26498">
        <ele>669</ele>
        <time>2013-10-06T13:22:47Z</time>
      </trkpt>
      <trkpt lat="45.98785" lon="6.26485">
        <ele>669</ele>
        <time>2013-10-06T13:22:51Z</time>
      </trkpt>
      <trkpt lat="45.98791" lon="6.26474">
        <ele>669</ele>
        <time>2013-10-06T13:22:55Z</time>
      </trkpt>
      <trkpt lat="45.98799" lon="6.26464">
        <ele>668.28399872</ele>
        <time>2013-10-06T13:22:59Z</time>
      </trkpt>
      <trkpt lat="45.98809" lon="6.26455">
        <ele>667.28399872</ele>
        <time>2013-10-06T13:23:04Z</time>
      </trkpt>
      <trkpt lat="45.9882" lon="6.26451">
        <ele>667.45800064</ele>
        <time>2013-10-06T13:23:10Z</time>
      </trkpt>
      <trkpt lat="45.98831" lon="6.26452">
        <ele>667.95800064</ele>
        <time>2013-10-06T13:23:15Z</time>
      </trkpt>
      <trkpt lat="45.98841" lon="6.26449">
        <ele>667.64199936</ele>
        <time>2013-10-06T13:23:19Z</time>
      </trkpt>
      <trkpt lat="45.98853" lon="6.26444">
        <ele>667.24199936</ele>
        <time>2013-10-06T13:23:23Z</time>
      </trkpt>
      <trkpt lat="45.98872" lon="6.26432">
        <ele>666.552</ele>
        <time>2013-10-06T13:23:30Z</time>
      </trkpt>
      <trkpt lat="45.98882" lon="6.26424">
        <ele>666.05199872</ele>
        <time>2013-10-06T13:23:35Z</time>
      </trkpt>
      <trkpt lat="45.98891" lon="6.26417">
        <ele>666</ele>
        <time>2013-10-06T13:23:39Z</time>
      </trkpt>
      <trkpt lat="45.98901" lon="6.26409">
        <ele>666</ele>
        <time>2013-10-06T13:23:45Z</time>
      </trkpt>
      <trkpt lat="45.98911" lon="6.26401">
        <ele>666</ele>
        <time>2013-10-06T13:23:50Z</time>
      </trkpt>
      <trkpt lat="45.9892" lon="6.26392">
        <ele>666.05600256</ele>
        <time>2013-10-06T13:23:56Z</time>
      </trkpt>
      <trkpt lat="45.98926" lon="6.26381">
        <ele>667.65600256</ele>
        <time>2013-10-06T13:24:04Z</time>
      </trkpt>
      <trkpt lat="45.98931" lon="6.26367">
        <ele>668.34800128</ele>
        <time>2013-10-06T13:24:09Z</time>
      </trkpt>
      <trkpt lat="45.98939" lon="6.2636">
        <ele>668.848</ele>
        <time>2013-10-06T13:24:14Z</time>
      </trkpt>
      <trkpt lat="45.98947" lon="6.26351">
        <ele>669.34800128</ele>
        <time>2013-10-06T13:24:19Z</time>
      </trkpt>
      <trkpt lat="45.98966" lon="6.26338">
        <ele>672.06800128</ele>
        <time>2013-10-06T13:24:36Z</time>
      </trkpt>
      <trkpt lat="45.98976" lon="6.26331">
        <ele>673.86800128</ele>
        <time>2013-10-06T13:24:45Z</time>
      </trkpt>
      <trkpt lat="45.98987" lon="6.26331">
        <ele>675.49600256</ele>
        <time>2013-10-06T13:24:53Z</time>
      </trkpt>
      <trkpt lat="45.98997" lon="6.26328">
        <ele>677.07400192</ele>
        <time>2013-10-06T13:25:01Z</time>
      </trkpt>
      <trkpt lat="45.99008" lon="6.26327">
        <ele>679.28800256</ele>
        <time>2013-10-06T13:25:12Z</time>
      </trkpt>
      <trkpt lat="45.99018" lon="6.26324">
        <ele>682.2900032</ele>
        <time>2013-10-06T13:25:20Z</time>
      </trkpt>
      <trkpt lat="45.99028" lon="6.26326">
        <ele>685.344</ele>
        <time>2013-10-06T13:25:29Z</time>
      </trkpt>
      <trkpt lat="45.99038" lon="6.2633">
        <ele>686.144</ele>
        <time>2013-10-06T13:25:37Z</time>
      </trkpt>
      <trkpt lat="45.99048" lon="6.26327">
        <ele>687.14000128</ele>
        <time>2013-10-06T13:25:47Z</time>
      </trkpt>
      <trkpt lat="45.99067" lon="6.26315">
        <ele>689.49400064</ele>
        <time>2013-10-06T13:26:08Z</time>
      </trkpt>
      <trkpt lat="45.99076" lon="6.26304">
        <ele>691.08800256</ele>
        <time>2013-10-06T13:26:16Z</time>
      </trkpt>
      <trkpt lat="45.99081" lon="6.26292">
        <ele>692.68800256</ele>
        <time>2013-10-06T13:26:24Z</time>
      </trkpt>
      <trkpt lat="45.99082" lon="6.26278">
        <ele>693</ele>
        <time>2013-10-06T13:26:31Z</time>
      </trkpt>
      <trkpt lat="45.99086" lon="6.26265">
        <ele>693.45518773984</ele>
        <time>2013-10-06T13:26:38Z</time>
      </trkpt>
      <trkpt lat="45.99093" lon="6.26252">
        <ele>695.06800128</ele>
        <time>2013-10-06T13:26:46Z</time>
      </trkpt>
      <trkpt lat="45.99097" lon="6.26239">
        <ele>696.66800128</ele>
        <time>2013-10-06T13:26:54Z</time>
      </trkpt>
      <trkpt lat="45.99107" lon="6.26236">
        <ele>698.296</ele>
        <time>2013-10-06T13:27:02Z</time>
      </trkpt>
      <trkpt lat="45.99118" lon="6.26238">
        <ele>700.09600256</ele>
        <time>2013-10-06T13:27:11Z</time>
      </trkpt>
      <trkpt lat="45.99129" lon="6.26238">
        <ele>701.448</ele>
        <time>2013-10-06T13:27:20Z</time>
      </trkpt>
      <trkpt lat="45.99139" lon="6.26241">
        <ele>702.14800128</ele>
        <time>2013-10-06T13:27:27Z</time>
      </trkpt>
      <trkpt lat="45.99149" lon="6.26245">
        <ele>702.848</ele>
        <time>2013-10-06T13:27:34Z</time>
      </trkpt>
      <trkpt lat="45.9916" lon="6.26248">
        <ele>704.49600256</ele>
        <time>2013-10-06T13:27:43Z</time>
      </trkpt>
      <trkpt lat="45.9917" lon="6.26247">
        <ele>705.53700096</ele>
        <time>2013-10-06T13:27:51Z</time>
      </trkpt>
      <trkpt lat="45.99179" lon="6.26239">
        <ele>707.31600128</ele>
        <time>2013-10-06T13:28:02Z</time>
      </trkpt>
      <trkpt lat="45.99188" lon="6.26229">
        <ele>708</ele>
        <time>2013-10-06T13:28:08Z</time>
      </trkpt>
      <trkpt lat="45.99204" lon="6.26208">
        <ele>708.15800064</ele>
        <time>2013-10-06T13:28:17Z</time>
      </trkpt>
      <trkpt lat="45.99214" lon="6.262">
        <ele>708.648</ele>
        <time>2013-10-06T13:28:22Z</time>
      </trkpt>
      <trkpt lat="45.99225" lon="6.26195">
        <ele>709</ele>
        <time>2013-10-06T13:28:27Z</time>
      </trkpt>
      <trkpt lat="45.99244" lon="6.26185">
        <ele>709.03700096</ele>
        <time>2013-10-06T13:28:36Z</time>
      </trkpt>
      <trkpt lat="45.99254" lon="6.26179">
        <ele>709.63700096</ele>
        <time>2013-10-06T13:28:42Z</time>
      </trkpt>
      <trkpt lat="45.99262" lon="6.2617">
        <ele>710</ele>
        <time>2013-10-06T13:28:46Z</time>
      </trkpt>
      <trkpt lat="45.99272" lon="6.26161">
        <ele>710</ele>
        <time>2013-10-06T13:28:50Z</time>
      </trkpt>
      <trkpt lat="45.99279" lon="6.26147">
        <ele>710</ele>
        <time>2013-10-06T13:28:55Z</time>
      </trkpt>
      <trkpt lat="45.99287" lon="6.26135">
        <ele>709.552</ele>
        <time>2013-10-06T13:29:00Z</time>
      </trkpt>
      <trkpt lat="45.99295" lon="6.26123">
        <ele>709.05199872</ele>
        <time>2013-10-06T13:29:05Z</time>
      </trkpt>
      <trkpt lat="45.99304" lon="6.26112">
        <ele>709</ele>
        <time>2013-10-06T13:29:10Z</time>
      </trkpt>
      <trkpt lat="45.99313" lon="6.26104">
        <ele>709</ele>
        <time>2013-10-06T13:29:14Z</time>
      </trkpt>
      <trkpt lat="45.99322" lon="6.26096">
        <ele>708.75542421748</ele>
        <time>2013-10-06T13:29:18Z</time>
      </trkpt>
      <trkpt lat="45.99332" lon="6.26087">
        <ele>708.26232661944</ele>
        <time>2013-10-06T13:29:23Z</time>
      </trkpt>
      <trkpt lat="45.9934" lon="6.26075">
        <ele>708</ele>
        <time>2013-10-06T13:29:28Z</time>
      </trkpt>
      <trkpt lat="45.99349" lon="6.26066">
        <ele>708</ele>
        <time>2013-10-06T13:29:32Z</time>
      </trkpt>
      <trkpt lat="45.99357" lon="6.26058">
        <ele>708</ele>
        <time>2013-10-06T13:29:36Z</time>
      </trkpt>
      <trkpt lat="45.99366" lon="6.26051">
        <ele>708</ele>
        <time>2013-10-06T13:29:40Z</time>
      </trkpt>
      <trkpt lat="45.99376" lon="6.26043">
        <ele>708</ele>
        <time>2013-10-06T13:29:45Z</time>
      </trkpt>
      <trkpt lat="45.9938" lon="6.26029">
        <ele>708</ele>
        <time>2013-10-06T13:29:50Z</time>
      </trkpt>
      <trkpt lat="45.99383" lon="6.26015">
        <ele>708</ele>
        <time>2013-10-06T13:29:55Z</time>
      </trkpt>
      <trkpt lat="45.99385" lon="6.25999">
        <ele>706.62599808</ele>
        <time>2013-10-06T13:30:00Z</time>
      </trkpt>
      <trkpt lat="45.99386" lon="6.25966">
        <ele>703.90399744</ele>
        <time>2013-10-06T13:30:11Z</time>
      </trkpt>
      <trkpt lat="45.99385" lon="6.25948">
        <ele>703.10399744</ele>
        <time>2013-10-06T13:30:15Z</time>
      </trkpt>
      <trkpt lat="45.99385" lon="6.25916">
        <ele>701.53199872</ele>
        <time>2013-10-06T13:30:23Z</time>
      </trkpt>
      <trkpt lat="45.99386" lon="6.259">
        <ele>700.70399744</ele>
        <time>2013-10-06T13:30:27Z</time>
      </trkpt>
      <trkpt lat="45.99387" lon="6.25883">
        <ele>699.704</ele>
        <time>2013-10-06T13:30:32Z</time>
      </trkpt>
      <trkpt lat="45.9939" lon="6.25868">
        <ele>698.45199616</ele>
        <time>2013-10-06T13:30:37Z</time>
      </trkpt>
      <trkpt lat="45.99396" lon="6.25852">
        <ele>696.45199616</ele>
        <time>2013-10-06T13:30:42Z</time>
      </trkpt>
      <trkpt lat="45.99401" lon="6.25838">
        <ele>695</ele>
        <time>2013-10-06T13:30:46Z</time>
      </trkpt>
      <trkpt lat="45.99405" lon="6.25821">
        <ele>695</ele>
        <time>2013-10-06T13:30:50Z</time>
      </trkpt>
      <trkpt lat="45.99409" lon="6.25808">
        <ele>695</ele>
        <time>2013-10-06T13:30:53Z</time>
      </trkpt>
      <trkpt lat="45.99412" lon="6.25794">
        <ele>694.82599808</ele>
        <time>2013-10-06T13:30:56Z</time>
      </trkpt>
      <trkpt lat="45.99417" lon="6.25778">
        <ele>693.62599808</ele>
        <time>2013-10-06T13:31:00Z</time>
      </trkpt>
      <trkpt lat="45.99421" lon="6.25764">
        <ele>692.42599808</ele>
        <time>2013-10-06T13:31:04Z</time>
      </trkpt>
      <trkpt lat="45.99426" lon="6.25751">
        <ele>692</ele>
        <time>2013-10-06T13:31:08Z</time>
      </trkpt>
      <trkpt lat="45.99432" lon="6.25737">
        <ele>692</ele>
        <time>2013-10-06T13:31:13Z</time>
      </trkpt>
      <trkpt lat="45.99435" lon="6.25723">
        <ele>691.856</ele>
        <time>2013-10-06T13:31:17Z</time>
      </trkpt>
      <trkpt lat="45.99441" lon="6.25708">
        <ele>691.456</ele>
        <time>2013-10-06T13:31:21Z</time>
      </trkpt>
      <trkpt lat="45.99446" lon="6.25693">
        <ele>691.056</ele>
        <time>2013-10-06T13:31:25Z</time>
      </trkpt>
      <trkpt lat="45.9945" lon="6.25679">
        <ele>690.28199936</ele>
        <time>2013-10-06T13:31:29Z</time>
      </trkpt>
      <trkpt lat="45.99455" lon="6.2565">
        <ele>688.05199616</ele>
        <time>2013-10-06T13:31:37Z</time>
      </trkpt>
      <trkpt lat="45.99457" lon="6.25635">
        <ele>685.65199616</ele>
        <time>2013-10-06T13:31:41Z</time>
      </trkpt>
      <trkpt lat="45.9946" lon="6.2562">
        <ele>683.25199616</ele>
        <time>2013-10-06T13:31:45Z</time>
      </trkpt>
      <trkpt lat="45.99464" lon="6.25605">
        <ele>682.28399872</ele>
        <time>2013-10-06T13:31:49Z</time>
      </trkpt>
      <trkpt lat="45.99467" lon="6.2559">
        <ele>681.48399872</ele>
        <time>2013-10-06T13:31:53Z</time>
      </trkpt>
      <trkpt lat="45.99471" lon="6.25577">
        <ele>680.40799488</ele>
        <time>2013-10-06T13:31:57Z</time>
      </trkpt>
      <trkpt lat="45.99476" lon="6.25563">
        <ele>678.80799488</ele>
        <time>2013-10-06T13:32:01Z</time>
      </trkpt>
      <trkpt lat="45.99483" lon="6.25553">
        <ele>677.20799488</ele>
        <time>2013-10-06T13:32:05Z</time>
      </trkpt>
      <trkpt lat="45.995" lon="6.25532">
        <ele>676.16370861462</ele>
        <time>2013-10-06T13:32:14Z</time>
      </trkpt>
      <trkpt lat="45.99504" lon="6.25519">
        <ele>675.3245438212</ele>
        <time>2013-10-06T13:32:19Z</time>
      </trkpt>
      <trkpt lat="45.99508" lon="6.25503">
        <ele>674.51318426819</ele>
        <time>2013-10-06T13:32:23Z</time>
      </trkpt>
      <trkpt lat="45.99511" lon="6.2549">
        <ele>672.992</ele>
        <time>2013-10-06T13:32:27Z</time>
      </trkpt>
      <trkpt lat="45.99517" lon="6.25474">
        <ele>669.49199104</ele>
        <time>2013-10-06T13:32:32Z</time>
      </trkpt>
      <trkpt lat="45.99523" lon="6.2546">
        <ele>666.904</ele>
        <time>2013-10-06T13:32:36Z</time>
      </trkpt>
      <trkpt lat="45.99528" lon="6.25446">
        <ele>666.104</ele>
        <time>2013-10-06T13:32:40Z</time>
      </trkpt>
      <trkpt lat="45.99533" lon="6.25432">
        <ele>665.304</ele>
        <time>2013-10-06T13:32:44Z</time>
      </trkpt>
      <trkpt lat="45.99538" lon="6.25419">
        <ele>665</ele>
        <time>2013-10-06T13:32:48Z</time>
      </trkpt>
      <trkpt lat="45.99545" lon="6.25409">
        <ele>665</ele>
        <time>2013-10-06T13:32:53Z</time>
      </trkpt>
      <trkpt lat="45.99551" lon="6.25395">
        <ele>665</ele>
        <time>2013-10-06T13:32:57Z</time>
      </trkpt>
      <trkpt lat="45.99565" lon="6.25372">
        <ele>665.288</ele>
        <time>2013-10-06T13:33:07Z</time>
      </trkpt>
      <trkpt lat="45.99571" lon="6.2536">
        <ele>666.28800256</ele>
        <time>2013-10-06T13:33:12Z</time>
      </trkpt>
      <trkpt lat="45.99576" lon="6.25351">
        <ele>667.07600128</ele>
        <time>2013-10-06T13:33:16Z</time>
      </trkpt>
      <trkpt lat="45.99582" lon="6.25336">
        <ele>668.27600128</ele>
        <time>2013-10-06T13:33:22Z</time>
      </trkpt>
      <trkpt lat="45.99588" lon="6.25324">
        <ele>669.7900032</ele>
        <time>2013-10-06T13:33:27Z</time>
      </trkpt>
      <trkpt lat="45.99594" lon="6.25315">
        <ele>671.7900032</ele>
        <time>2013-10-06T13:33:31Z</time>
      </trkpt>
      <trkpt lat="45.99601" lon="6.25309">
        <ele>674</ele>
        <time>2013-10-06T13:33:37Z</time>
      </trkpt>
      <trkpt lat="45.99607" lon="6.25298">
        <ele>674</ele>
        <time>2013-10-06T13:33:45Z</time>
      </trkpt>
      <trkpt lat="45.99612" lon="6.2529">
        <ele>674.896</ele>
        <time>2013-10-06T13:33:50Z</time>
      </trkpt>
      <trkpt lat="45.99617" lon="6.25283">
        <ele>675.89600256</ele>
        <time>2013-10-06T13:33:55Z</time>
      </trkpt>
      <trkpt lat="45.99621" lon="6.25272">
        <ele>678.592</ele>
        <time>2013-10-06T13:34:02Z</time>
      </trkpt>
      <trkpt lat="45.99625" lon="6.25261">
        <ele>681.04400384</ele>
        <time>2013-10-06T13:34:09Z</time>
      </trkpt>
      <trkpt lat="45.99631" lon="6.25251">
        <ele>683.07400192</ele>
        <time>2013-10-06T13:34:16Z</time>
      </trkpt>
      <trkpt lat="45.99635" lon="6.2524">
        <ele>684.27400192</ele>
        <time>2013-10-06T13:34:22Z</time>
      </trkpt>
      <trkpt lat="45.99628" lon="6.25211">
        <ele>685.90800128</ele>
        <time>2013-10-06T13:34:30Z</time>
      </trkpt>
      <trkpt lat="45.99627" lon="6.25195">
        <ele>686.70800128</ele>
        <time>2013-10-06T13:34:34Z</time>
      </trkpt>
      <trkpt lat="45.99627" lon="6.2518">
        <ele>686.74199936</ele>
        <time>2013-10-06T13:34:38Z</time>
      </trkpt>
      <trkpt lat="45.99627" lon="6.25165">
        <ele>686.34199936</ele>
        <time>2013-10-06T13:34:42Z</time>
      </trkpt>
      <trkpt lat="45.99628" lon="6.2515">
        <ele>686.11600128</ele>
        <time>2013-10-06T13:34:46Z</time>
      </trkpt>
      <trkpt lat="45.99631" lon="6.25118">
        <ele>687.91600128</ele>
        <time>2013-10-06T13:34:55Z</time>
      </trkpt>
      <trkpt lat="45.99633" lon="6.25105">
        <ele>688.71102388528</ele>
        <time>2013-10-06T13:34:59Z</time>
      </trkpt>
      <trkpt lat="45.99635" lon="6.25089">
        <ele>689.50546256033</ele>
        <time>2013-10-06T13:35:03Z</time>
      </trkpt>
      <trkpt lat="45.99637" lon="6.25073">
        <ele>690</ele>
        <time>2013-10-06T13:35:07Z</time>
      </trkpt>
      <trkpt lat="45.99639" lon="6.25058">
        <ele>690</ele>
        <time>2013-10-06T13:35:11Z</time>
      </trkpt>
      <trkpt lat="45.9964" lon="6.25042">
        <ele>690</ele>
        <time>2013-10-06T13:35:15Z</time>
      </trkpt>
      <trkpt lat="45.99644" lon="6.25027">
        <ele>690.34800128</ele>
        <time>2013-10-06T13:35:19Z</time>
      </trkpt>
      <trkpt lat="45.99648" lon="6.25013">
        <ele>690.74800128</ele>
        <time>2013-10-06T13:35:23Z</time>
      </trkpt>
      <trkpt lat="45.99652" lon="6.24998">
        <ele>691</ele>
        <time>2013-10-06T13:35:27Z</time>
      </trkpt>
      <trkpt lat="45.99654" lon="6.24983">
        <ele>691</ele>
        <time>2013-10-06T13:35:31Z</time>
      </trkpt>
      <trkpt lat="45.99655" lon="6.24968">
        <ele>691</ele>
        <time>2013-10-06T13:35:35Z</time>
      </trkpt>
      <trkpt lat="45.99659" lon="6.24952">
        <ele>691</ele>
        <time>2013-10-06T13:35:39Z</time>
      </trkpt>
      <trkpt lat="45.99664" lon="6.24939">
        <ele>691</ele>
        <time>2013-10-06T13:35:43Z</time>
      </trkpt>
      <trkpt lat="45.99675" lon="6.24941">
        <ele>691</ele>
        <time>2013-10-06T13:35:46Z</time>
      </trkpt>
      <trkpt lat="45.99684" lon="6.24947">
        <ele>691</ele>
        <time>2013-10-06T13:35:49Z</time>
      </trkpt>
      <trkpt lat="45.99695" lon="6.24953">
        <ele>691</ele>
        <time>2013-10-06T13:35:53Z</time>
      </trkpt>
      <trkpt lat="45.99704" lon="6.24961">
        <ele>690.95204799804</ele>
        <time>2013-10-06T13:35:56Z</time>
      </trkpt>
      <trkpt lat="45.99712" lon="6.24967">
        <ele>690.65234670704</ele>
        <time>2013-10-06T13:35:59Z</time>
      </trkpt>
      <trkpt lat="45.99721" lon="6.24975">
        <ele>690.25274669067</ele>
        <time>2013-10-06T13:36:03Z</time>
      </trkpt>
      <trkpt lat="45.99739" lon="6.2499">
        <ele>691</ele>
        <time>2013-10-06T13:36:12Z</time>
      </trkpt>
    </trkseg>
  </trk>
</gpx>